<?xml version="1.0" encoding="UTF-8" standalone="no" ?>
<gpx xmlns="http://www.topografix.com/GPX/1/1" xmlns:xsi="http://www.w3.org/2001/XMLSchema-instance" xsi:schemaLocation="http://www.topografix.com/GPX/1/1 http://www.topografix.com/GPX/1/1/gpx.xsd" version="1.1" creator="VisuGPX - https://www.visugpx.com">
  <metadata>
    <name>valmasque sud</name>
    <desc><![CDATA[toue du soir]]></desc>
  </metadata>
  <trk>
    <name><![CDATA[valmasque sud_1]]></name>
    <trkseg>
      <trkpt lat="43.59491" lon="7.10133">
        <ele>-48.5</ele>
        <time>2012-09-16T14:48:57Z</time>
      </trkpt>
      <trkpt lat="43.59506" lon="7.10107">
        <ele>-19</ele>
        <time>2012-09-16T14:49:03Z</time>
      </trkpt>
      <trkpt lat="43.59518" lon="7.1009">
        <ele>11.153009</ele>
        <time>2012-09-16T14:49:09Z</time>
      </trkpt>
      <trkpt lat="43.59531" lon="7.10071">
        <ele>19</ele>
        <time>2012-09-16T14:49:15Z</time>
      </trkpt>
      <trkpt lat="43.59539" lon="7.10058">
        <ele>21</ele>
        <time>2012-09-16T14:49:19Z</time>
      </trkpt>
      <trkpt lat="43.59546" lon="7.10043">
        <ele>22</ele>
        <time>2012-09-16T14:49:23Z</time>
      </trkpt>
      <trkpt lat="43.59553" lon="7.1003">
        <ele>24</ele>
        <time>2012-09-16T14:49:27Z</time>
      </trkpt>
      <trkpt lat="43.5956" lon="7.10016">
        <ele>25</ele>
        <time>2012-09-16T14:49:31Z</time>
      </trkpt>
      <trkpt lat="43.59568" lon="7.10004">
        <ele>27</ele>
        <time>2012-09-16T14:49:35Z</time>
      </trkpt>
      <trkpt lat="43.59576" lon="7.09991">
        <ele>28</ele>
        <time>2012-09-16T14:49:39Z</time>
      </trkpt>
      <trkpt lat="43.59583" lon="7.09978">
        <ele>29</ele>
        <time>2012-09-16T14:49:43Z</time>
      </trkpt>
      <trkpt lat="43.59591" lon="7.09965">
        <ele>31</ele>
        <time>2012-09-16T14:49:47Z</time>
      </trkpt>
      <trkpt lat="43.59599" lon="7.09934">
        <ele>44</ele>
        <time>2012-09-16T14:49:51Z</time>
      </trkpt>
      <trkpt lat="43.59601" lon="7.09925">
        <ele>53.7</ele>
        <time>2012-09-16T14:49:53Z</time>
      </trkpt>
      <trkpt lat="43.59607" lon="7.09918">
        <ele>63.8</ele>
        <time>2012-09-16T14:49:56Z</time>
      </trkpt>
      <trkpt lat="43.59612" lon="7.0991">
        <ele>69.7</ele>
        <time>2012-09-16T14:49:59Z</time>
      </trkpt>
      <trkpt lat="43.59618" lon="7.09903">
        <ele>73.9</ele>
        <time>2012-09-16T14:50:02Z</time>
      </trkpt>
      <trkpt lat="43.59624" lon="7.09896">
        <ele>77.2</ele>
        <time>2012-09-16T14:50:05Z</time>
      </trkpt>
      <trkpt lat="43.59631" lon="7.09889">
        <ele>79.6</ele>
        <time>2012-09-16T14:50:08Z</time>
      </trkpt>
      <trkpt lat="43.59637" lon="7.09882">
        <ele>81.6</ele>
        <time>2012-09-16T14:50:11Z</time>
      </trkpt>
      <trkpt lat="43.59639" lon="7.09879">
        <ele>82.1</ele>
        <time>2012-09-16T14:50:12Z</time>
      </trkpt>
      <trkpt lat="43.59649" lon="7.09867">
        <ele>84.6</ele>
        <time>2012-09-16T14:50:17Z</time>
      </trkpt>
      <trkpt lat="43.59654" lon="7.09859">
        <ele>85.5</ele>
        <time>2012-09-16T14:50:20Z</time>
      </trkpt>
      <trkpt lat="43.5966" lon="7.09851">
        <ele>86.5</ele>
        <time>2012-09-16T14:50:23Z</time>
      </trkpt>
      <trkpt lat="43.59665" lon="7.09842">
        <ele>87.5</ele>
        <time>2012-09-16T14:50:26Z</time>
      </trkpt>
      <trkpt lat="43.5967" lon="7.09832">
        <ele>88.6</ele>
        <time>2012-09-16T14:50:29Z</time>
      </trkpt>
      <trkpt lat="43.59675" lon="7.09822">
        <ele>89.6</ele>
        <time>2012-09-16T14:50:32Z</time>
      </trkpt>
      <trkpt lat="43.59679" lon="7.09816">
        <ele>90.3</ele>
        <time>2012-09-16T14:50:34Z</time>
      </trkpt>
      <trkpt lat="43.59683" lon="7.0981">
        <ele>90.9</ele>
        <time>2012-09-16T14:50:36Z</time>
      </trkpt>
      <trkpt lat="43.59688" lon="7.09803">
        <ele>91.4</ele>
        <time>2012-09-16T14:50:38Z</time>
      </trkpt>
      <trkpt lat="43.59692" lon="7.09797">
        <ele>91.9</ele>
        <time>2012-09-16T14:50:40Z</time>
      </trkpt>
      <trkpt lat="43.59695" lon="7.09789">
        <ele>92.5</ele>
        <time>2012-09-16T14:50:42Z</time>
      </trkpt>
      <trkpt lat="43.59699" lon="7.09781">
        <ele>93</ele>
        <time>2012-09-16T14:50:44Z</time>
      </trkpt>
      <trkpt lat="43.59702" lon="7.09773">
        <ele>93.5</ele>
        <time>2012-09-16T14:50:46Z</time>
      </trkpt>
      <trkpt lat="43.59705" lon="7.09764">
        <ele>94.1</ele>
        <time>2012-09-16T14:50:48Z</time>
      </trkpt>
      <trkpt lat="43.59708" lon="7.09757">
        <ele>94.7</ele>
        <time>2012-09-16T14:50:50Z</time>
      </trkpt>
      <trkpt lat="43.59711" lon="7.09749">
        <ele>95.4</ele>
        <time>2012-09-16T14:50:52Z</time>
      </trkpt>
      <trkpt lat="43.59716" lon="7.09739">
        <ele>96.3</ele>
        <time>2012-09-16T14:50:55Z</time>
      </trkpt>
      <trkpt lat="43.5972" lon="7.0973">
        <ele>97.1</ele>
        <time>2012-09-16T14:50:58Z</time>
      </trkpt>
      <trkpt lat="43.59721" lon="7.09718">
        <ele>101.7</ele>
        <time>2012-09-16T14:51:28Z</time>
      </trkpt>
      <trkpt lat="43.5972" lon="7.09717">
        <ele>101.8</ele>
        <time>2012-09-16T14:51:29Z</time>
      </trkpt>
      <trkpt lat="43.59722" lon="7.09698">
        <ele>102.3</ele>
        <time>2012-09-16T14:51:35Z</time>
      </trkpt>
      <trkpt lat="43.59723" lon="7.09687">
        <ele>102.6</ele>
        <time>2012-09-16T14:51:38Z</time>
      </trkpt>
      <trkpt lat="43.59724" lon="7.09676">
        <ele>103</ele>
        <time>2012-09-16T14:51:41Z</time>
      </trkpt>
      <trkpt lat="43.59725" lon="7.09668">
        <ele>103.3</ele>
        <time>2012-09-16T14:51:43Z</time>
      </trkpt>
      <trkpt lat="43.59726" lon="7.09659">
        <ele>103.6</ele>
        <time>2012-09-16T14:51:45Z</time>
      </trkpt>
      <trkpt lat="43.59727" lon="7.09651">
        <ele>103.9</ele>
        <time>2012-09-16T14:51:47Z</time>
      </trkpt>
      <trkpt lat="43.59728" lon="7.09642">
        <ele>104.2</ele>
        <time>2012-09-16T14:51:49Z</time>
      </trkpt>
      <trkpt lat="43.5973" lon="7.09632">
        <ele>104.5</ele>
        <time>2012-09-16T14:51:51Z</time>
      </trkpt>
      <trkpt lat="43.59731" lon="7.09623">
        <ele>104.7</ele>
        <time>2012-09-16T14:51:53Z</time>
      </trkpt>
      <trkpt lat="43.59733" lon="7.09613">
        <ele>104.8</ele>
        <time>2012-09-16T14:51:55Z</time>
      </trkpt>
      <trkpt lat="43.59734" lon="7.09603">
        <ele>104.8</ele>
        <time>2012-09-16T14:51:57Z</time>
      </trkpt>
      <trkpt lat="43.59735" lon="7.09592">
        <ele>104.7</ele>
        <time>2012-09-16T14:51:59Z</time>
      </trkpt>
      <trkpt lat="43.59736" lon="7.0958">
        <ele>104.4</ele>
        <time>2012-09-16T14:52:01Z</time>
      </trkpt>
      <trkpt lat="43.59737" lon="7.09574">
        <ele>104.2</ele>
        <time>2012-09-16T14:52:02Z</time>
      </trkpt>
      <trkpt lat="43.59738" lon="7.09567">
        <ele>104.1</ele>
        <time>2012-09-16T14:52:03Z</time>
      </trkpt>
      <trkpt lat="43.59739" lon="7.09561">
        <ele>103.9</ele>
        <time>2012-09-16T14:52:04Z</time>
      </trkpt>
      <trkpt lat="43.59739" lon="7.09554">
        <ele>103.7</ele>
        <time>2012-09-16T14:52:05Z</time>
      </trkpt>
      <trkpt lat="43.5974" lon="7.09547">
        <ele>103.5</ele>
        <time>2012-09-16T14:52:06Z</time>
      </trkpt>
      <trkpt lat="43.59741" lon="7.0954">
        <ele>103.3</ele>
        <time>2012-09-16T14:52:07Z</time>
      </trkpt>
      <trkpt lat="43.59742" lon="7.09532">
        <ele>103.1</ele>
        <time>2012-09-16T14:52:08Z</time>
      </trkpt>
      <trkpt lat="43.59743" lon="7.09524">
        <ele>102.9</ele>
        <time>2012-09-16T14:52:09Z</time>
      </trkpt>
      <trkpt lat="43.59744" lon="7.09516">
        <ele>102.7</ele>
        <time>2012-09-16T14:52:10Z</time>
      </trkpt>
      <trkpt lat="43.59745" lon="7.09508">
        <ele>102.5</ele>
        <time>2012-09-16T14:52:11Z</time>
      </trkpt>
      <trkpt lat="43.59746" lon="7.09499">
        <ele>102.3</ele>
        <time>2012-09-16T14:52:12Z</time>
      </trkpt>
      <trkpt lat="43.59747" lon="7.0949">
        <ele>102</ele>
        <time>2012-09-16T14:52:13Z</time>
      </trkpt>
      <trkpt lat="43.59748" lon="7.0948">
        <ele>101.6</ele>
        <time>2012-09-16T14:52:14Z</time>
      </trkpt>
      <trkpt lat="43.59749" lon="7.0947">
        <ele>101.2</ele>
        <time>2012-09-16T14:52:15Z</time>
      </trkpt>
      <trkpt lat="43.59751" lon="7.0946">
        <ele>100.7</ele>
        <time>2012-09-16T14:52:16Z</time>
      </trkpt>
      <trkpt lat="43.59754" lon="7.0945">
        <ele>100.2</ele>
        <time>2012-09-16T14:52:17Z</time>
      </trkpt>
      <trkpt lat="43.5976" lon="7.09443">
        <ele>99.7</ele>
        <time>2012-09-16T14:52:18Z</time>
      </trkpt>
      <trkpt lat="43.59767" lon="7.09439">
        <ele>99.2</ele>
        <time>2012-09-16T14:52:19Z</time>
      </trkpt>
      <trkpt lat="43.59775" lon="7.09437">
        <ele>98.8</ele>
        <time>2012-09-16T14:52:20Z</time>
      </trkpt>
      <trkpt lat="43.59783" lon="7.09437">
        <ele>98.5</ele>
        <time>2012-09-16T14:52:21Z</time>
      </trkpt>
      <trkpt lat="43.5979" lon="7.09437">
        <ele>98.1</ele>
        <time>2012-09-16T14:52:22Z</time>
      </trkpt>
      <trkpt lat="43.59798" lon="7.09437">
        <ele>97.7</ele>
        <time>2012-09-16T14:52:23Z</time>
      </trkpt>
      <trkpt lat="43.59805" lon="7.09433">
        <ele>97.3</ele>
        <time>2012-09-16T14:52:24Z</time>
      </trkpt>
      <trkpt lat="43.59812" lon="7.09427">
        <ele>96.7</ele>
        <time>2012-09-16T14:52:25Z</time>
      </trkpt>
      <trkpt lat="43.59817" lon="7.09418">
        <ele>96</ele>
        <time>2012-09-16T14:52:26Z</time>
      </trkpt>
      <trkpt lat="43.5982" lon="7.09407">
        <ele>95.4</ele>
        <time>2012-09-16T14:52:27Z</time>
      </trkpt>
      <trkpt lat="43.59821" lon="7.09396">
        <ele>94.8</ele>
        <time>2012-09-16T14:52:28Z</time>
      </trkpt>
      <trkpt lat="43.59821" lon="7.09386">
        <ele>94.3</ele>
        <time>2012-09-16T14:52:29Z</time>
      </trkpt>
      <trkpt lat="43.59821" lon="7.09376">
        <ele>93.9</ele>
        <time>2012-09-16T14:52:30Z</time>
      </trkpt>
      <trkpt lat="43.59821" lon="7.09367">
        <ele>93.7</ele>
        <time>2012-09-16T14:52:31Z</time>
      </trkpt>
      <trkpt lat="43.59821" lon="7.09358">
        <ele>93.6</ele>
        <time>2012-09-16T14:52:32Z</time>
      </trkpt>
      <trkpt lat="43.59822" lon="7.09351">
        <ele>93.7</ele>
        <time>2012-09-16T14:52:33Z</time>
      </trkpt>
      <trkpt lat="43.59823" lon="7.0934">
        <ele>94.2</ele>
        <time>2012-09-16T14:52:35Z</time>
      </trkpt>
      <trkpt lat="43.59824" lon="7.0933">
        <ele>94.9</ele>
        <time>2012-09-16T14:52:37Z</time>
      </trkpt>
      <trkpt lat="43.59825" lon="7.0932">
        <ele>95.6</ele>
        <time>2012-09-16T14:52:39Z</time>
      </trkpt>
      <trkpt lat="43.59826" lon="7.0931">
        <ele>96.2</ele>
        <time>2012-09-16T14:52:41Z</time>
      </trkpt>
      <trkpt lat="43.59827" lon="7.09301">
        <ele>96.8</ele>
        <time>2012-09-16T14:52:43Z</time>
      </trkpt>
      <trkpt lat="43.59828" lon="7.09292">
        <ele>97.3</ele>
        <time>2012-09-16T14:52:45Z</time>
      </trkpt>
      <trkpt lat="43.59828" lon="7.09283">
        <ele>97.8</ele>
        <time>2012-09-16T14:52:47Z</time>
      </trkpt>
      <trkpt lat="43.59829" lon="7.09273">
        <ele>98.3</ele>
        <time>2012-09-16T14:52:49Z</time>
      </trkpt>
      <trkpt lat="43.5983" lon="7.09264">
        <ele>98.6</ele>
        <time>2012-09-16T14:52:51Z</time>
      </trkpt>
      <trkpt lat="43.59832" lon="7.09255">
        <ele>98.9</ele>
        <time>2012-09-16T14:52:53Z</time>
      </trkpt>
      <trkpt lat="43.59835" lon="7.09246">
        <ele>99.2</ele>
        <time>2012-09-16T14:52:55Z</time>
      </trkpt>
      <trkpt lat="43.59837" lon="7.09239">
        <ele>99.4</ele>
        <time>2012-09-16T14:52:57Z</time>
      </trkpt>
      <trkpt lat="43.5984" lon="7.0923">
        <ele>99.4</ele>
        <time>2012-09-16T14:52:59Z</time>
      </trkpt>
      <trkpt lat="43.59844" lon="7.09223">
        <ele>99.3</ele>
        <time>2012-09-16T14:53:01Z</time>
      </trkpt>
      <trkpt lat="43.59848" lon="7.09215">
        <ele>99.2</ele>
        <time>2012-09-16T14:53:03Z</time>
      </trkpt>
      <trkpt lat="43.59852" lon="7.09208">
        <ele>99.1</ele>
        <time>2012-09-16T14:53:05Z</time>
      </trkpt>
      <trkpt lat="43.59857" lon="7.092">
        <ele>98.9</ele>
        <time>2012-09-16T14:53:07Z</time>
      </trkpt>
      <trkpt lat="43.59863" lon="7.09192">
        <ele>98.5</ele>
        <time>2012-09-16T14:53:09Z</time>
      </trkpt>
      <trkpt lat="43.59868" lon="7.09185">
        <ele>98.2</ele>
        <time>2012-09-16T14:53:11Z</time>
      </trkpt>
      <trkpt lat="43.59873" lon="7.09178">
        <ele>98</ele>
        <time>2012-09-16T14:53:13Z</time>
      </trkpt>
      <trkpt lat="43.59878" lon="7.09174">
        <ele>97.7</ele>
        <time>2012-09-16T14:53:15Z</time>
      </trkpt>
      <trkpt lat="43.59884" lon="7.09169">
        <ele>97.5</ele>
        <time>2012-09-16T14:53:17Z</time>
      </trkpt>
      <trkpt lat="43.5989" lon="7.09165">
        <ele>97.1</ele>
        <time>2012-09-16T14:53:19Z</time>
      </trkpt>
      <trkpt lat="43.59897" lon="7.09161">
        <ele>96.7</ele>
        <time>2012-09-16T14:53:21Z</time>
      </trkpt>
      <trkpt lat="43.59904" lon="7.09157">
        <ele>96.2</ele>
        <time>2012-09-16T14:53:23Z</time>
      </trkpt>
      <trkpt lat="43.59912" lon="7.09153">
        <ele>95.6</ele>
        <time>2012-09-16T14:53:25Z</time>
      </trkpt>
      <trkpt lat="43.59917" lon="7.09151">
        <ele>95.3</ele>
        <time>2012-09-16T14:53:26Z</time>
      </trkpt>
      <trkpt lat="43.59921" lon="7.09149">
        <ele>94.9</ele>
        <time>2012-09-16T14:53:27Z</time>
      </trkpt>
      <trkpt lat="43.59925" lon="7.09146">
        <ele>94.6</ele>
        <time>2012-09-16T14:53:28Z</time>
      </trkpt>
      <trkpt lat="43.59929" lon="7.09144">
        <ele>94.1</ele>
        <time>2012-09-16T14:53:29Z</time>
      </trkpt>
      <trkpt lat="43.59934" lon="7.09141">
        <ele>93.7</ele>
        <time>2012-09-16T14:53:30Z</time>
      </trkpt>
      <trkpt lat="43.59939" lon="7.09138">
        <ele>93.1</ele>
        <time>2012-09-16T14:53:31Z</time>
      </trkpt>
      <trkpt lat="43.59944" lon="7.09135">
        <ele>92.6</ele>
        <time>2012-09-16T14:53:32Z</time>
      </trkpt>
      <trkpt lat="43.5995" lon="7.09131">
        <ele>92</ele>
        <time>2012-09-16T14:53:33Z</time>
      </trkpt>
      <trkpt lat="43.59956" lon="7.09127">
        <ele>91.4</ele>
        <time>2012-09-16T14:53:34Z</time>
      </trkpt>
      <trkpt lat="43.59962" lon="7.09123">
        <ele>90.8</ele>
        <time>2012-09-16T14:53:35Z</time>
      </trkpt>
      <trkpt lat="43.59968" lon="7.09118">
        <ele>90.2</ele>
        <time>2012-09-16T14:53:36Z</time>
      </trkpt>
      <trkpt lat="43.59975" lon="7.09114">
        <ele>89.6</ele>
        <time>2012-09-16T14:53:37Z</time>
      </trkpt>
      <trkpt lat="43.59982" lon="7.09111">
        <ele>89</ele>
        <time>2012-09-16T14:53:38Z</time>
      </trkpt>
      <trkpt lat="43.5999" lon="7.09107">
        <ele>88.4</ele>
        <time>2012-09-16T14:53:39Z</time>
      </trkpt>
      <trkpt lat="43.59997" lon="7.09105">
        <ele>87.7</ele>
        <time>2012-09-16T14:53:40Z</time>
      </trkpt>
      <trkpt lat="43.60005" lon="7.09104">
        <ele>86.9</ele>
        <time>2012-09-16T14:53:41Z</time>
      </trkpt>
      <trkpt lat="43.60012" lon="7.09106">
        <ele>86.1</ele>
        <time>2012-09-16T14:53:42Z</time>
      </trkpt>
      <trkpt lat="43.60019" lon="7.09104">
        <ele>85.3</ele>
        <time>2012-09-16T14:53:43Z</time>
      </trkpt>
      <trkpt lat="43.60024" lon="7.091">
        <ele>84.5</ele>
        <time>2012-09-16T14:53:44Z</time>
      </trkpt>
      <trkpt lat="43.60027" lon="7.09092">
        <ele>83.7</ele>
        <time>2012-09-16T14:53:45Z</time>
      </trkpt>
      <trkpt lat="43.60029" lon="7.09084">
        <ele>83.1</ele>
        <time>2012-09-16T14:53:46Z</time>
      </trkpt>
      <trkpt lat="43.60032" lon="7.09077">
        <ele>82.5</ele>
        <time>2012-09-16T14:53:47Z</time>
      </trkpt>
      <trkpt lat="43.60034" lon="7.0907">
        <ele>82.1</ele>
        <time>2012-09-16T14:53:48Z</time>
      </trkpt>
      <trkpt lat="43.60037" lon="7.09064">
        <ele>81.8</ele>
        <time>2012-09-16T14:53:49Z</time>
      </trkpt>
      <trkpt lat="43.6004" lon="7.09058">
        <ele>81.7</ele>
        <time>2012-09-16T14:53:50Z</time>
      </trkpt>
      <trkpt lat="43.60043" lon="7.09052">
        <ele>81.6</ele>
        <time>2012-09-16T14:53:51Z</time>
      </trkpt>
      <trkpt lat="43.60047" lon="7.09043">
        <ele>81.9</ele>
        <time>2012-09-16T14:53:53Z</time>
      </trkpt>
      <trkpt lat="43.60051" lon="7.09035">
        <ele>82.2</ele>
        <time>2012-09-16T14:53:55Z</time>
      </trkpt>
      <trkpt lat="43.60054" lon="7.09027">
        <ele>82.4</ele>
        <time>2012-09-16T14:53:57Z</time>
      </trkpt>
      <trkpt lat="43.60058" lon="7.0902">
        <ele>82.7</ele>
        <time>2012-09-16T14:53:59Z</time>
      </trkpt>
      <trkpt lat="43.60062" lon="7.09013">
        <ele>83</ele>
        <time>2012-09-16T14:54:01Z</time>
      </trkpt>
      <trkpt lat="43.60067" lon="7.09004">
        <ele>83.4</ele>
        <time>2012-09-16T14:54:04Z</time>
      </trkpt>
      <trkpt lat="43.60072" lon="7.08996">
        <ele>83.9</ele>
        <time>2012-09-16T14:54:07Z</time>
      </trkpt>
      <trkpt lat="43.60077" lon="7.08988">
        <ele>84.3</ele>
        <time>2012-09-16T14:54:10Z</time>
      </trkpt>
      <trkpt lat="43.60083" lon="7.08981">
        <ele>84.9</ele>
        <time>2012-09-16T14:54:13Z</time>
      </trkpt>
      <trkpt lat="43.60088" lon="7.08973">
        <ele>85.4</ele>
        <time>2012-09-16T14:54:16Z</time>
      </trkpt>
      <trkpt lat="43.60094" lon="7.08965">
        <ele>85.8</ele>
        <time>2012-09-16T14:54:19Z</time>
      </trkpt>
      <trkpt lat="43.601" lon="7.08957">
        <ele>86.2</ele>
        <time>2012-09-16T14:54:22Z</time>
      </trkpt>
      <trkpt lat="43.60104" lon="7.08951">
        <ele>86.5</ele>
        <time>2012-09-16T14:54:24Z</time>
      </trkpt>
      <trkpt lat="43.60109" lon="7.08946">
        <ele>86.7</ele>
        <time>2012-09-16T14:54:26Z</time>
      </trkpt>
      <trkpt lat="43.60114" lon="7.08941">
        <ele>86.9</ele>
        <time>2012-09-16T14:54:28Z</time>
      </trkpt>
      <trkpt lat="43.6012" lon="7.08935">
        <ele>87.3</ele>
        <time>2012-09-16T14:54:30Z</time>
      </trkpt>
      <trkpt lat="43.60126" lon="7.08931">
        <ele>87.7</ele>
        <time>2012-09-16T14:54:32Z</time>
      </trkpt>
      <trkpt lat="43.60129" lon="7.08928">
        <ele>87.9</ele>
        <time>2012-09-16T14:54:33Z</time>
      </trkpt>
      <trkpt lat="43.6014" lon="7.08922">
        <ele>88.3</ele>
        <time>2012-09-16T14:54:36Z</time>
      </trkpt>
      <trkpt lat="43.60147" lon="7.08917">
        <ele>88.4</ele>
        <time>2012-09-16T14:54:38Z</time>
      </trkpt>
      <trkpt lat="43.60154" lon="7.08912">
        <ele>88.5</ele>
        <time>2012-09-16T14:54:40Z</time>
      </trkpt>
      <trkpt lat="43.60162" lon="7.08907">
        <ele>88.6</ele>
        <time>2012-09-16T14:54:42Z</time>
      </trkpt>
      <trkpt lat="43.60169" lon="7.08902">
        <ele>88.7</ele>
        <time>2012-09-16T14:54:44Z</time>
      </trkpt>
      <trkpt lat="43.60177" lon="7.08896">
        <ele>88.9</ele>
        <time>2012-09-16T14:54:46Z</time>
      </trkpt>
      <trkpt lat="43.60181" lon="7.08893">
        <ele>88.9</ele>
        <time>2012-09-16T14:54:47Z</time>
      </trkpt>
      <trkpt lat="43.60185" lon="7.08891">
        <ele>89</ele>
        <time>2012-09-16T14:54:48Z</time>
      </trkpt>
      <trkpt lat="43.60189" lon="7.08888">
        <ele>89</ele>
        <time>2012-09-16T14:54:49Z</time>
      </trkpt>
      <trkpt lat="43.60193" lon="7.08886">
        <ele>89</ele>
        <time>2012-09-16T14:54:50Z</time>
      </trkpt>
      <trkpt lat="43.60197" lon="7.08883">
        <ele>89.1</ele>
        <time>2012-09-16T14:54:51Z</time>
      </trkpt>
      <trkpt lat="43.60201" lon="7.0888">
        <ele>89.1</ele>
        <time>2012-09-16T14:54:52Z</time>
      </trkpt>
      <trkpt lat="43.60209" lon="7.08875">
        <ele>89.3</ele>
        <time>2012-09-16T14:54:54Z</time>
      </trkpt>
      <trkpt lat="43.60217" lon="7.08871">
        <ele>89.4</ele>
        <time>2012-09-16T14:54:56Z</time>
      </trkpt>
      <trkpt lat="43.60225" lon="7.08866">
        <ele>89.5</ele>
        <time>2012-09-16T14:54:58Z</time>
      </trkpt>
      <trkpt lat="43.60233" lon="7.08859">
        <ele>89.6</ele>
        <time>2012-09-16T14:55:00Z</time>
      </trkpt>
      <trkpt lat="43.60236" lon="7.08854">
        <ele>89.8</ele>
        <time>2012-09-16T14:55:01Z</time>
      </trkpt>
      <trkpt lat="43.60238" lon="7.08849">
        <ele>89.9</ele>
        <time>2012-09-16T14:55:02Z</time>
      </trkpt>
      <trkpt lat="43.6024" lon="7.08843">
        <ele>90.1</ele>
        <time>2012-09-16T14:55:03Z</time>
      </trkpt>
      <trkpt lat="43.60241" lon="7.08837">
        <ele>90.4</ele>
        <time>2012-09-16T14:55:04Z</time>
      </trkpt>
      <trkpt lat="43.60241" lon="7.0883">
        <ele>90.7</ele>
        <time>2012-09-16T14:55:05Z</time>
      </trkpt>
      <trkpt lat="43.60242" lon="7.08824">
        <ele>91</ele>
        <time>2012-09-16T14:55:06Z</time>
      </trkpt>
      <trkpt lat="43.60244" lon="7.08812">
        <ele>91.7</ele>
        <time>2012-09-16T14:55:08Z</time>
      </trkpt>
      <trkpt lat="43.60248" lon="7.08803">
        <ele>92.7</ele>
        <time>2012-09-16T14:55:10Z</time>
      </trkpt>
      <trkpt lat="43.60254" lon="7.08794">
        <ele>94.4</ele>
        <time>2012-09-16T14:55:13Z</time>
      </trkpt>
      <trkpt lat="43.60262" lon="7.0879">
        <ele>96.6</ele>
        <time>2012-09-16T14:55:18Z</time>
      </trkpt>
      <trkpt lat="43.60268" lon="7.08785">
        <ele>97.6</ele>
        <time>2012-09-16T14:55:21Z</time>
      </trkpt>
      <trkpt lat="43.60271" lon="7.08773">
        <ele>98.4</ele>
        <time>2012-09-16T14:55:24Z</time>
      </trkpt>
      <trkpt lat="43.6027" lon="7.08764">
        <ele>98.9</ele>
        <time>2012-09-16T14:55:26Z</time>
      </trkpt>
      <trkpt lat="43.60268" lon="7.08754">
        <ele>99.3</ele>
        <time>2012-09-16T14:55:28Z</time>
      </trkpt>
      <trkpt lat="43.60266" lon="7.08744">
        <ele>99.7</ele>
        <time>2012-09-16T14:55:30Z</time>
      </trkpt>
      <trkpt lat="43.60263" lon="7.08734">
        <ele>100.1</ele>
        <time>2012-09-16T14:55:32Z</time>
      </trkpt>
      <trkpt lat="43.60261" lon="7.08723">
        <ele>100.6</ele>
        <time>2012-09-16T14:55:34Z</time>
      </trkpt>
      <trkpt lat="43.60259" lon="7.08718">
        <ele>100.9</ele>
        <time>2012-09-16T14:55:35Z</time>
      </trkpt>
      <trkpt lat="43.60258" lon="7.08701">
        <ele>101.7</ele>
        <time>2012-09-16T14:55:38Z</time>
      </trkpt>
      <trkpt lat="43.60258" lon="7.08689">
        <ele>102.3</ele>
        <time>2012-09-16T14:55:40Z</time>
      </trkpt>
      <trkpt lat="43.60258" lon="7.08678">
        <ele>102.8</ele>
        <time>2012-09-16T14:55:42Z</time>
      </trkpt>
      <trkpt lat="43.60258" lon="7.08666">
        <ele>103.7</ele>
        <time>2012-09-16T14:55:44Z</time>
      </trkpt>
      <trkpt lat="43.60257" lon="7.08655">
        <ele>104.5</ele>
        <time>2012-09-16T14:55:46Z</time>
      </trkpt>
      <trkpt lat="43.60256" lon="7.08643">
        <ele>105.3</ele>
        <time>2012-09-16T14:55:48Z</time>
      </trkpt>
      <trkpt lat="43.60255" lon="7.08632">
        <ele>106.2</ele>
        <time>2012-09-16T14:55:50Z</time>
      </trkpt>
      <trkpt lat="43.60254" lon="7.08621">
        <ele>107</ele>
        <time>2012-09-16T14:55:52Z</time>
      </trkpt>
      <trkpt lat="43.60253" lon="7.08609">
        <ele>107.7</ele>
        <time>2012-09-16T14:55:54Z</time>
      </trkpt>
      <trkpt lat="43.60253" lon="7.08598">
        <ele>108.4</ele>
        <time>2012-09-16T14:55:56Z</time>
      </trkpt>
      <trkpt lat="43.60253" lon="7.08586">
        <ele>109.2</ele>
        <time>2012-09-16T14:55:58Z</time>
      </trkpt>
      <trkpt lat="43.60253" lon="7.08574">
        <ele>110</ele>
        <time>2012-09-16T14:56:00Z</time>
      </trkpt>
      <trkpt lat="43.60253" lon="7.08563">
        <ele>110.8</ele>
        <time>2012-09-16T14:56:02Z</time>
      </trkpt>
      <trkpt lat="43.60256" lon="7.08552">
        <ele>111.4</ele>
        <time>2012-09-16T14:56:04Z</time>
      </trkpt>
      <trkpt lat="43.60262" lon="7.08544">
        <ele>111.8</ele>
        <time>2012-09-16T14:56:06Z</time>
      </trkpt>
      <trkpt lat="43.60267" lon="7.08533">
        <ele>111.9</ele>
        <time>2012-09-16T14:56:08Z</time>
      </trkpt>
      <trkpt lat="43.60269" lon="7.08521">
        <ele>111.9</ele>
        <time>2012-09-16T14:56:09Z</time>
      </trkpt>
      <trkpt lat="43.60268" lon="7.08515">
        <ele>111.7</ele>
        <time>2012-09-16T14:56:10Z</time>
      </trkpt>
      <trkpt lat="43.60267" lon="7.08503">
        <ele>111.2</ele>
        <time>2012-09-16T14:56:12Z</time>
      </trkpt>
      <trkpt lat="43.60273" lon="7.08496">
        <ele>110.4</ele>
        <time>2012-09-16T14:56:14Z</time>
      </trkpt>
      <trkpt lat="43.60277" lon="7.08494">
        <ele>109.9</ele>
        <time>2012-09-16T14:56:15Z</time>
      </trkpt>
      <trkpt lat="43.60281" lon="7.08492">
        <ele>109.4</ele>
        <time>2012-09-16T14:56:16Z</time>
      </trkpt>
      <trkpt lat="43.60286" lon="7.08489">
        <ele>108.8</ele>
        <time>2012-09-16T14:56:17Z</time>
      </trkpt>
      <trkpt lat="43.60291" lon="7.08485">
        <ele>108.1</ele>
        <time>2012-09-16T14:56:18Z</time>
      </trkpt>
      <trkpt lat="43.60296" lon="7.08482">
        <ele>107.4</ele>
        <time>2012-09-16T14:56:19Z</time>
      </trkpt>
      <trkpt lat="43.60302" lon="7.08478">
        <ele>106.7</ele>
        <time>2012-09-16T14:56:20Z</time>
      </trkpt>
      <trkpt lat="43.60308" lon="7.08475">
        <ele>106.1</ele>
        <time>2012-09-16T14:56:21Z</time>
      </trkpt>
      <trkpt lat="43.60314" lon="7.08471">
        <ele>105.5</ele>
        <time>2012-09-16T14:56:22Z</time>
      </trkpt>
      <trkpt lat="43.6032" lon="7.08468">
        <ele>104.9</ele>
        <time>2012-09-16T14:56:23Z</time>
      </trkpt>
      <trkpt lat="43.60326" lon="7.08464">
        <ele>104.4</ele>
        <time>2012-09-16T14:56:24Z</time>
      </trkpt>
      <trkpt lat="43.6033" lon="7.0846">
        <ele>104</ele>
        <time>2012-09-16T14:56:25Z</time>
      </trkpt>
      <trkpt lat="43.60359" lon="7.08426">
        <ele>105</ele>
        <time>2012-09-16T14:56:30Z</time>
      </trkpt>
      <trkpt lat="43.60374" lon="7.0841">
        <ele>108.8</ele>
        <time>2012-09-16T14:56:34Z</time>
      </trkpt>
      <trkpt lat="43.60377" lon="7.08399">
        <ele>109.6</ele>
        <time>2012-09-16T14:56:37Z</time>
      </trkpt>
      <trkpt lat="43.60378" lon="7.08388">
        <ele>109</ele>
        <time>2012-09-16T14:56:40Z</time>
      </trkpt>
      <trkpt lat="43.6038" lon="7.08376">
        <ele>107.5</ele>
        <time>2012-09-16T14:56:43Z</time>
      </trkpt>
      <trkpt lat="43.60381" lon="7.08366">
        <ele>102.2</ele>
        <time>2012-09-16T14:56:46Z</time>
      </trkpt>
      <trkpt lat="43.60383" lon="7.08355">
        <ele>99.8</ele>
        <time>2012-09-16T14:56:50Z</time>
      </trkpt>
      <trkpt lat="43.60386" lon="7.08345">
        <ele>98.8</ele>
        <time>2012-09-16T14:56:54Z</time>
      </trkpt>
      <trkpt lat="43.60389" lon="7.08334">
        <ele>98.7</ele>
        <time>2012-09-16T14:56:58Z</time>
      </trkpt>
      <trkpt lat="43.60391" lon="7.08324">
        <ele>99</ele>
        <time>2012-09-16T14:57:02Z</time>
      </trkpt>
      <trkpt lat="43.60392" lon="7.08313">
        <ele>98.7</ele>
        <time>2012-09-16T14:57:05Z</time>
      </trkpt>
      <trkpt lat="43.60397" lon="7.08303">
        <ele>99.1</ele>
        <time>2012-09-16T14:57:08Z</time>
      </trkpt>
      <trkpt lat="43.60402" lon="7.08296">
        <ele>99.2</ele>
        <time>2012-09-16T14:57:10Z</time>
      </trkpt>
      <trkpt lat="43.60407" lon="7.08288">
        <ele>99.4</ele>
        <time>2012-09-16T14:57:12Z</time>
      </trkpt>
      <trkpt lat="43.60412" lon="7.08278">
        <ele>99.5</ele>
        <time>2012-09-16T14:57:14Z</time>
      </trkpt>
      <trkpt lat="43.60414" lon="7.08273">
        <ele>99.6</ele>
        <time>2012-09-16T14:57:15Z</time>
      </trkpt>
      <trkpt lat="43.60416" lon="7.08267">
        <ele>99.5</ele>
        <time>2012-09-16T14:57:16Z</time>
      </trkpt>
      <trkpt lat="43.60418" lon="7.08261">
        <ele>99.5</ele>
        <time>2012-09-16T14:57:17Z</time>
      </trkpt>
      <trkpt lat="43.6042" lon="7.08255">
        <ele>99.4</ele>
        <time>2012-09-16T14:57:18Z</time>
      </trkpt>
      <trkpt lat="43.60422" lon="7.0825">
        <ele>99.4</ele>
        <time>2012-09-16T14:57:19Z</time>
      </trkpt>
      <trkpt lat="43.60424" lon="7.08238">
        <ele>98.8</ele>
        <time>2012-09-16T14:57:21Z</time>
      </trkpt>
      <trkpt lat="43.60421" lon="7.08226">
        <ele>98.4</ele>
        <time>2012-09-16T14:57:23Z</time>
      </trkpt>
      <trkpt lat="43.60421" lon="7.08214">
        <ele>98.3</ele>
        <time>2012-09-16T14:57:25Z</time>
      </trkpt>
      <trkpt lat="43.60419" lon="7.08203">
        <ele>98.2</ele>
        <time>2012-09-16T14:57:27Z</time>
      </trkpt>
      <trkpt lat="43.60414" lon="7.08193">
        <ele>98.7</ele>
        <time>2012-09-16T14:57:29Z</time>
      </trkpt>
      <trkpt lat="43.6041" lon="7.08184">
        <ele>98</ele>
        <time>2012-09-16T14:57:31Z</time>
      </trkpt>
      <trkpt lat="43.60406" lon="7.08174">
        <ele>98.4</ele>
        <time>2012-09-16T14:57:33Z</time>
      </trkpt>
      <trkpt lat="43.60401" lon="7.08167">
        <ele>99.3</ele>
        <time>2012-09-16T14:57:35Z</time>
      </trkpt>
      <trkpt lat="43.60398" lon="7.08164">
        <ele>99.6</ele>
        <time>2012-09-16T14:57:36Z</time>
      </trkpt>
      <trkpt lat="43.60389" lon="7.08156">
        <ele>100.3</ele>
        <time>2012-09-16T14:57:39Z</time>
      </trkpt>
      <trkpt lat="43.60384" lon="7.08151">
        <ele>100.3</ele>
        <time>2012-09-16T14:57:41Z</time>
      </trkpt>
      <trkpt lat="43.60379" lon="7.08146">
        <ele>101</ele>
        <time>2012-09-16T14:57:43Z</time>
      </trkpt>
      <trkpt lat="43.60374" lon="7.08141">
        <ele>101.7</ele>
        <time>2012-09-16T14:57:45Z</time>
      </trkpt>
      <trkpt lat="43.60368" lon="7.08135">
        <ele>102.4</ele>
        <time>2012-09-16T14:57:47Z</time>
      </trkpt>
      <trkpt lat="43.60364" lon="7.08129">
        <ele>102.8</ele>
        <time>2012-09-16T14:57:49Z</time>
      </trkpt>
      <trkpt lat="43.60358" lon="7.08123">
        <ele>102.9</ele>
        <time>2012-09-16T14:57:51Z</time>
      </trkpt>
      <trkpt lat="43.60354" lon="7.08116">
        <ele>103.2</ele>
        <time>2012-09-16T14:57:53Z</time>
      </trkpt>
      <trkpt lat="43.60349" lon="7.08109">
        <ele>103.5</ele>
        <time>2012-09-16T14:57:55Z</time>
      </trkpt>
      <trkpt lat="43.60345" lon="7.08101">
        <ele>104.3</ele>
        <time>2012-09-16T14:57:57Z</time>
      </trkpt>
      <trkpt lat="43.60342" lon="7.08093">
        <ele>104.5</ele>
        <time>2012-09-16T14:57:59Z</time>
      </trkpt>
      <trkpt lat="43.60339" lon="7.08085">
        <ele>104.6</ele>
        <time>2012-09-16T14:58:01Z</time>
      </trkpt>
      <trkpt lat="43.60337" lon="7.08076">
        <ele>105.1</ele>
        <time>2012-09-16T14:58:03Z</time>
      </trkpt>
      <trkpt lat="43.60335" lon="7.08066">
        <ele>105.5</ele>
        <time>2012-09-16T14:58:05Z</time>
      </trkpt>
      <trkpt lat="43.60333" lon="7.08057">
        <ele>106.7</ele>
        <time>2012-09-16T14:58:07Z</time>
      </trkpt>
      <trkpt lat="43.60332" lon="7.08048">
        <ele>106.3</ele>
        <time>2012-09-16T14:58:09Z</time>
      </trkpt>
      <trkpt lat="43.60331" lon="7.08037">
        <ele>107</ele>
        <time>2012-09-16T14:58:11Z</time>
      </trkpt>
      <trkpt lat="43.60329" lon="7.08028">
        <ele>107.5</ele>
        <time>2012-09-16T14:58:13Z</time>
      </trkpt>
      <trkpt lat="43.60328" lon="7.08018">
        <ele>107.9</ele>
        <time>2012-09-16T14:58:15Z</time>
      </trkpt>
      <trkpt lat="43.60327" lon="7.08007">
        <ele>108.2</ele>
        <time>2012-09-16T14:58:17Z</time>
      </trkpt>
      <trkpt lat="43.60326" lon="7.07996">
        <ele>107.9</ele>
        <time>2012-09-16T14:58:19Z</time>
      </trkpt>
      <trkpt lat="43.60324" lon="7.07985">
        <ele>108.2</ele>
        <time>2012-09-16T14:58:21Z</time>
      </trkpt>
      <trkpt lat="43.60323" lon="7.07979">
        <ele>108.4</ele>
        <time>2012-09-16T14:58:22Z</time>
      </trkpt>
      <trkpt lat="43.60322" lon="7.07973">
        <ele>108.6</ele>
        <time>2012-09-16T14:58:23Z</time>
      </trkpt>
      <trkpt lat="43.60321" lon="7.07966">
        <ele>108.7</ele>
        <time>2012-09-16T14:58:24Z</time>
      </trkpt>
      <trkpt lat="43.6032" lon="7.0796">
        <ele>108.8</ele>
        <time>2012-09-16T14:58:25Z</time>
      </trkpt>
      <trkpt lat="43.60319" lon="7.07948">
        <ele>108.9</ele>
        <time>2012-09-16T14:58:27Z</time>
      </trkpt>
      <trkpt lat="43.60318" lon="7.07942">
        <ele>109</ele>
        <time>2012-09-16T14:58:28Z</time>
      </trkpt>
      <trkpt lat="43.60317" lon="7.07936">
        <ele>109.3</ele>
        <time>2012-09-16T14:58:29Z</time>
      </trkpt>
      <trkpt lat="43.60316" lon="7.0793">
        <ele>109.5</ele>
        <time>2012-09-16T14:58:30Z</time>
      </trkpt>
      <trkpt lat="43.60315" lon="7.07923">
        <ele>109.7</ele>
        <time>2012-09-16T14:58:31Z</time>
      </trkpt>
      <trkpt lat="43.60315" lon="7.07917">
        <ele>109.7</ele>
        <time>2012-09-16T14:58:32Z</time>
      </trkpt>
      <trkpt lat="43.60314" lon="7.07911">
        <ele>109.7</ele>
        <time>2012-09-16T14:58:33Z</time>
      </trkpt>
      <trkpt lat="43.60314" lon="7.07899">
        <ele>109.3</ele>
        <time>2012-09-16T14:58:35Z</time>
      </trkpt>
      <trkpt lat="43.60314" lon="7.07887">
        <ele>109.2</ele>
        <time>2012-09-16T14:58:37Z</time>
      </trkpt>
      <trkpt lat="43.60315" lon="7.0788">
        <ele>109.2</ele>
        <time>2012-09-16T14:58:38Z</time>
      </trkpt>
      <trkpt lat="43.60315" lon="7.07874">
        <ele>109.1</ele>
        <time>2012-09-16T14:58:39Z</time>
      </trkpt>
      <trkpt lat="43.60317" lon="7.07862">
        <ele>109.1</ele>
        <time>2012-09-16T14:58:41Z</time>
      </trkpt>
      <trkpt lat="43.60319" lon="7.07851">
        <ele>109.1</ele>
        <time>2012-09-16T14:58:43Z</time>
      </trkpt>
      <trkpt lat="43.6032" lon="7.0784">
        <ele>109.3</ele>
        <time>2012-09-16T14:58:45Z</time>
      </trkpt>
      <trkpt lat="43.60322" lon="7.0783">
        <ele>110.5</ele>
        <time>2012-09-16T14:58:47Z</time>
      </trkpt>
      <trkpt lat="43.60323" lon="7.07821">
        <ele>110.4</ele>
        <time>2012-09-16T14:58:49Z</time>
      </trkpt>
      <trkpt lat="43.60324" lon="7.0781">
        <ele>110.8</ele>
        <time>2012-09-16T14:58:51Z</time>
      </trkpt>
      <trkpt lat="43.60326" lon="7.07799">
        <ele>111.6</ele>
        <time>2012-09-16T14:58:53Z</time>
      </trkpt>
      <trkpt lat="43.60326" lon="7.07788">
        <ele>112.1</ele>
        <time>2012-09-16T14:58:55Z</time>
      </trkpt>
      <trkpt lat="43.60325" lon="7.07778">
        <ele>113.2</ele>
        <time>2012-09-16T14:58:57Z</time>
      </trkpt>
      <trkpt lat="43.60325" lon="7.07767">
        <ele>113.3</ele>
        <time>2012-09-16T14:58:59Z</time>
      </trkpt>
      <trkpt lat="43.60325" lon="7.07756">
        <ele>113.2</ele>
        <time>2012-09-16T14:59:01Z</time>
      </trkpt>
      <trkpt lat="43.60325" lon="7.07746">
        <ele>113.3</ele>
        <time>2012-09-16T14:59:03Z</time>
      </trkpt>
      <trkpt lat="43.60324" lon="7.07735">
        <ele>113.9</ele>
        <time>2012-09-16T14:59:05Z</time>
      </trkpt>
      <trkpt lat="43.60322" lon="7.07725">
        <ele>114.6</ele>
        <time>2012-09-16T14:59:07Z</time>
      </trkpt>
      <trkpt lat="43.6032" lon="7.07715">
        <ele>115</ele>
        <time>2012-09-16T14:59:09Z</time>
      </trkpt>
      <trkpt lat="43.60317" lon="7.07706">
        <ele>115.4</ele>
        <time>2012-09-16T14:59:11Z</time>
      </trkpt>
      <trkpt lat="43.60315" lon="7.07697">
        <ele>115.8</ele>
        <time>2012-09-16T14:59:13Z</time>
      </trkpt>
      <trkpt lat="43.60314" lon="7.07688">
        <ele>116.3</ele>
        <time>2012-09-16T14:59:15Z</time>
      </trkpt>
      <trkpt lat="43.60312" lon="7.07678">
        <ele>116.8</ele>
        <time>2012-09-16T14:59:17Z</time>
      </trkpt>
      <trkpt lat="43.6031" lon="7.07669">
        <ele>117.5</ele>
        <time>2012-09-16T14:59:19Z</time>
      </trkpt>
      <trkpt lat="43.60308" lon="7.0766">
        <ele>118.2</ele>
        <time>2012-09-16T14:59:21Z</time>
      </trkpt>
      <trkpt lat="43.60307" lon="7.0765">
        <ele>118.5</ele>
        <time>2012-09-16T14:59:23Z</time>
      </trkpt>
      <trkpt lat="43.60305" lon="7.07641">
        <ele>118.7</ele>
        <time>2012-09-16T14:59:25Z</time>
      </trkpt>
      <trkpt lat="43.60304" lon="7.07631">
        <ele>118.9</ele>
        <time>2012-09-16T14:59:27Z</time>
      </trkpt>
      <trkpt lat="43.60303" lon="7.07622">
        <ele>119.3</ele>
        <time>2012-09-16T14:59:29Z</time>
      </trkpt>
      <trkpt lat="43.60303" lon="7.07613">
        <ele>120.1</ele>
        <time>2012-09-16T14:59:31Z</time>
      </trkpt>
      <trkpt lat="43.60302" lon="7.07605">
        <ele>120.9</ele>
        <time>2012-09-16T14:59:33Z</time>
      </trkpt>
      <trkpt lat="43.60302" lon="7.07593">
        <ele>121</ele>
        <time>2012-09-16T14:59:36Z</time>
      </trkpt>
      <trkpt lat="43.60302" lon="7.07581">
        <ele>121.6</ele>
        <time>2012-09-16T14:59:39Z</time>
      </trkpt>
      <trkpt lat="43.60303" lon="7.07577">
        <ele>121.8</ele>
        <time>2012-09-16T14:59:40Z</time>
      </trkpt>
      <trkpt lat="43.60303" lon="7.07557">
        <ele>123</ele>
        <time>2012-09-16T14:59:45Z</time>
      </trkpt>
      <trkpt lat="43.60304" lon="7.07546">
        <ele>123.8</ele>
        <time>2012-09-16T14:59:48Z</time>
      </trkpt>
      <trkpt lat="43.60304" lon="7.07535">
        <ele>124.4</ele>
        <time>2012-09-16T14:59:51Z</time>
      </trkpt>
      <trkpt lat="43.60306" lon="7.07524">
        <ele>124.6</ele>
        <time>2012-09-16T14:59:54Z</time>
      </trkpt>
      <trkpt lat="43.60309" lon="7.07514">
        <ele>126.1</ele>
        <time>2012-09-16T14:59:57Z</time>
      </trkpt>
      <trkpt lat="43.60312" lon="7.07503">
        <ele>127</ele>
        <time>2012-09-16T15:00:00Z</time>
      </trkpt>
      <trkpt lat="43.60314" lon="7.07494">
        <ele>127.7</ele>
        <time>2012-09-16T15:00:02Z</time>
      </trkpt>
      <trkpt lat="43.60315" lon="7.07485">
        <ele>128.1</ele>
        <time>2012-09-16T15:00:04Z</time>
      </trkpt>
      <trkpt lat="43.60316" lon="7.07475">
        <ele>128</ele>
        <time>2012-09-16T15:00:06Z</time>
      </trkpt>
      <trkpt lat="43.60318" lon="7.07465">
        <ele>128.9</ele>
        <time>2012-09-16T15:00:08Z</time>
      </trkpt>
      <trkpt lat="43.60319" lon="7.07456">
        <ele>129.8</ele>
        <time>2012-09-16T15:00:10Z</time>
      </trkpt>
      <trkpt lat="43.60321" lon="7.07446">
        <ele>129.9</ele>
        <time>2012-09-16T15:00:12Z</time>
      </trkpt>
      <trkpt lat="43.60322" lon="7.07436">
        <ele>130.1</ele>
        <time>2012-09-16T15:00:14Z</time>
      </trkpt>
      <trkpt lat="43.60324" lon="7.07426">
        <ele>130.6</ele>
        <time>2012-09-16T15:00:16Z</time>
      </trkpt>
      <trkpt lat="43.60325" lon="7.07416">
        <ele>131</ele>
        <time>2012-09-16T15:00:18Z</time>
      </trkpt>
      <trkpt lat="43.60327" lon="7.07405">
        <ele>131.4</ele>
        <time>2012-09-16T15:00:20Z</time>
      </trkpt>
      <trkpt lat="43.60328" lon="7.07393">
        <ele>131.6</ele>
        <time>2012-09-16T15:00:22Z</time>
      </trkpt>
      <trkpt lat="43.6033" lon="7.07383">
        <ele>132</ele>
        <time>2012-09-16T15:00:24Z</time>
      </trkpt>
      <trkpt lat="43.60333" lon="7.07372">
        <ele>132.2</ele>
        <time>2012-09-16T15:00:26Z</time>
      </trkpt>
      <trkpt lat="43.60336" lon="7.07362">
        <ele>132.3</ele>
        <time>2012-09-16T15:00:28Z</time>
      </trkpt>
      <trkpt lat="43.60339" lon="7.07352">
        <ele>132.3</ele>
        <time>2012-09-16T15:00:30Z</time>
      </trkpt>
      <trkpt lat="43.60343" lon="7.07342">
        <ele>132.4</ele>
        <time>2012-09-16T15:00:32Z</time>
      </trkpt>
      <trkpt lat="43.60346" lon="7.07332">
        <ele>132.5</ele>
        <time>2012-09-16T15:00:34Z</time>
      </trkpt>
      <trkpt lat="43.6035" lon="7.07322">
        <ele>133.3</ele>
        <time>2012-09-16T15:00:36Z</time>
      </trkpt>
      <trkpt lat="43.60354" lon="7.07312">
        <ele>133.8</ele>
        <time>2012-09-16T15:00:38Z</time>
      </trkpt>
      <trkpt lat="43.60359" lon="7.07301">
        <ele>133.8</ele>
        <time>2012-09-16T15:00:40Z</time>
      </trkpt>
      <trkpt lat="43.60361" lon="7.07297">
        <ele>133.7</ele>
        <time>2012-09-16T15:00:41Z</time>
      </trkpt>
      <trkpt lat="43.60368" lon="7.07281">
        <ele>134.2</ele>
        <time>2012-09-16T15:00:44Z</time>
      </trkpt>
      <trkpt lat="43.60372" lon="7.07271">
        <ele>134.6</ele>
        <time>2012-09-16T15:00:46Z</time>
      </trkpt>
      <trkpt lat="43.60374" lon="7.07265">
        <ele>134.5</ele>
        <time>2012-09-16T15:00:47Z</time>
      </trkpt>
      <trkpt lat="43.60376" lon="7.0726">
        <ele>134.5</ele>
        <time>2012-09-16T15:00:48Z</time>
      </trkpt>
      <trkpt lat="43.60378" lon="7.07254">
        <ele>134.4</ele>
        <time>2012-09-16T15:00:49Z</time>
      </trkpt>
      <trkpt lat="43.60381" lon="7.07248">
        <ele>134.3</ele>
        <time>2012-09-16T15:00:50Z</time>
      </trkpt>
      <trkpt lat="43.60383" lon="7.07242">
        <ele>134.2</ele>
        <time>2012-09-16T15:00:51Z</time>
      </trkpt>
      <trkpt lat="43.60385" lon="7.07236">
        <ele>134</ele>
        <time>2012-09-16T15:00:52Z</time>
      </trkpt>
      <trkpt lat="43.60387" lon="7.07231">
        <ele>133.8</ele>
        <time>2012-09-16T15:00:53Z</time>
      </trkpt>
      <trkpt lat="43.60389" lon="7.07225">
        <ele>133.5</ele>
        <time>2012-09-16T15:00:54Z</time>
      </trkpt>
      <trkpt lat="43.60392" lon="7.07219">
        <ele>133.3</ele>
        <time>2012-09-16T15:00:55Z</time>
      </trkpt>
      <trkpt lat="43.60394" lon="7.07213">
        <ele>133.1</ele>
        <time>2012-09-16T15:00:56Z</time>
      </trkpt>
      <trkpt lat="43.60396" lon="7.07207">
        <ele>133.4</ele>
        <time>2012-09-16T15:00:57Z</time>
      </trkpt>
      <trkpt lat="43.60398" lon="7.07201">
        <ele>133.6</ele>
        <time>2012-09-16T15:00:58Z</time>
      </trkpt>
      <trkpt lat="43.60399" lon="7.07195">
        <ele>133.8</ele>
        <time>2012-09-16T15:00:59Z</time>
      </trkpt>
      <trkpt lat="43.60401" lon="7.07188">
        <ele>134</ele>
        <time>2012-09-16T15:01:00Z</time>
      </trkpt>
      <trkpt lat="43.60402" lon="7.07182">
        <ele>134</ele>
        <time>2012-09-16T15:01:01Z</time>
      </trkpt>
      <trkpt lat="43.60403" lon="7.07175">
        <ele>134</ele>
        <time>2012-09-16T15:01:02Z</time>
      </trkpt>
      <trkpt lat="43.60404" lon="7.07169">
        <ele>134</ele>
        <time>2012-09-16T15:01:03Z</time>
      </trkpt>
      <trkpt lat="43.60404" lon="7.07162">
        <ele>134.3</ele>
        <time>2012-09-16T15:01:04Z</time>
      </trkpt>
      <trkpt lat="43.60405" lon="7.07155">
        <ele>134.6</ele>
        <time>2012-09-16T15:01:05Z</time>
      </trkpt>
      <trkpt lat="43.60405" lon="7.07148">
        <ele>134.5</ele>
        <time>2012-09-16T15:01:06Z</time>
      </trkpt>
      <trkpt lat="43.60406" lon="7.0714">
        <ele>134.4</ele>
        <time>2012-09-16T15:01:07Z</time>
      </trkpt>
      <trkpt lat="43.60407" lon="7.07133">
        <ele>134.7</ele>
        <time>2012-09-16T15:01:08Z</time>
      </trkpt>
      <trkpt lat="43.60408" lon="7.07126">
        <ele>134.9</ele>
        <time>2012-09-16T15:01:09Z</time>
      </trkpt>
      <trkpt lat="43.60409" lon="7.07119">
        <ele>135.1</ele>
        <time>2012-09-16T15:01:10Z</time>
      </trkpt>
      <trkpt lat="43.6041" lon="7.07112">
        <ele>134.8</ele>
        <time>2012-09-16T15:01:11Z</time>
      </trkpt>
      <trkpt lat="43.60411" lon="7.07104">
        <ele>134.5</ele>
        <time>2012-09-16T15:01:12Z</time>
      </trkpt>
      <trkpt lat="43.60413" lon="7.07096">
        <ele>134.3</ele>
        <time>2012-09-16T15:01:13Z</time>
      </trkpt>
      <trkpt lat="43.60414" lon="7.07088">
        <ele>134.1</ele>
        <time>2012-09-16T15:01:14Z</time>
      </trkpt>
      <trkpt lat="43.60416" lon="7.0708">
        <ele>133.9</ele>
        <time>2012-09-16T15:01:15Z</time>
      </trkpt>
      <trkpt lat="43.60417" lon="7.07071">
        <ele>133.6</ele>
        <time>2012-09-16T15:01:16Z</time>
      </trkpt>
      <trkpt lat="43.60419" lon="7.07062">
        <ele>133.3</ele>
        <time>2012-09-16T15:01:17Z</time>
      </trkpt>
      <trkpt lat="43.60421" lon="7.07053">
        <ele>133</ele>
        <time>2012-09-16T15:01:18Z</time>
      </trkpt>
      <trkpt lat="43.60423" lon="7.07043">
        <ele>132.7</ele>
        <time>2012-09-16T15:01:19Z</time>
      </trkpt>
      <trkpt lat="43.60425" lon="7.07032">
        <ele>131.9</ele>
        <time>2012-09-16T15:01:20Z</time>
      </trkpt>
      <trkpt lat="43.60429" lon="7.07022">
        <ele>131.3</ele>
        <time>2012-09-16T15:01:21Z</time>
      </trkpt>
      <trkpt lat="43.60434" lon="7.07012">
        <ele>130.9</ele>
        <time>2012-09-16T15:01:22Z</time>
      </trkpt>
      <trkpt lat="43.6044" lon="7.07004">
        <ele>130.2</ele>
        <time>2012-09-16T15:01:23Z</time>
      </trkpt>
      <trkpt lat="43.60447" lon="7.06995">
        <ele>129.6</ele>
        <time>2012-09-16T15:01:24Z</time>
      </trkpt>
      <trkpt lat="43.60454" lon="7.06986">
        <ele>128.9</ele>
        <time>2012-09-16T15:01:25Z</time>
      </trkpt>
      <trkpt lat="43.60461" lon="7.06977">
        <ele>128.3</ele>
        <time>2012-09-16T15:01:26Z</time>
      </trkpt>
      <trkpt lat="43.60467" lon="7.06966">
        <ele>127.8</ele>
        <time>2012-09-16T15:01:27Z</time>
      </trkpt>
      <trkpt lat="43.60472" lon="7.06954">
        <ele>126.9</ele>
        <time>2012-09-16T15:01:28Z</time>
      </trkpt>
      <trkpt lat="43.60476" lon="7.06943">
        <ele>126.3</ele>
        <time>2012-09-16T15:01:29Z</time>
      </trkpt>
      <trkpt lat="43.60479" lon="7.06932">
        <ele>124.7</ele>
        <time>2012-09-16T15:01:30Z</time>
      </trkpt>
      <trkpt lat="43.60482" lon="7.06922">
        <ele>123.6</ele>
        <time>2012-09-16T15:01:31Z</time>
      </trkpt>
      <trkpt lat="43.60485" lon="7.06912">
        <ele>121.8</ele>
        <time>2012-09-16T15:01:32Z</time>
      </trkpt>
      <trkpt lat="43.60487" lon="7.06903">
        <ele>120.4</ele>
        <time>2012-09-16T15:01:33Z</time>
      </trkpt>
      <trkpt lat="43.60488" lon="7.06894">
        <ele>119.4</ele>
        <time>2012-09-16T15:01:34Z</time>
      </trkpt>
      <trkpt lat="43.60489" lon="7.06885">
        <ele>118</ele>
        <time>2012-09-16T15:01:35Z</time>
      </trkpt>
      <trkpt lat="43.6049" lon="7.06878">
        <ele>117</ele>
        <time>2012-09-16T15:01:36Z</time>
      </trkpt>
      <trkpt lat="43.60491" lon="7.06866">
        <ele>114.5</ele>
        <time>2012-09-16T15:01:38Z</time>
      </trkpt>
      <trkpt lat="43.60493" lon="7.06855">
        <ele>110</ele>
        <time>2012-09-16T15:01:43Z</time>
      </trkpt>
      <trkpt lat="43.60494" lon="7.06853">
        <ele>109.4</ele>
        <time>2012-09-16T15:01:44Z</time>
      </trkpt>
      <trkpt lat="43.60498" lon="7.06839">
        <ele>108.3</ele>
        <time>2012-09-16T15:01:47Z</time>
      </trkpt>
      <trkpt lat="43.605" lon="7.06832">
        <ele>108.2</ele>
        <time>2012-09-16T15:01:48Z</time>
      </trkpt>
      <trkpt lat="43.60501" lon="7.06826">
        <ele>107.5</ele>
        <time>2012-09-16T15:01:49Z</time>
      </trkpt>
      <trkpt lat="43.60504" lon="7.06819">
        <ele>106.9</ele>
        <time>2012-09-16T15:01:50Z</time>
      </trkpt>
      <trkpt lat="43.60507" lon="7.06812">
        <ele>106.7</ele>
        <time>2012-09-16T15:01:51Z</time>
      </trkpt>
      <trkpt lat="43.6051" lon="7.06806">
        <ele>106.5</ele>
        <time>2012-09-16T15:01:52Z</time>
      </trkpt>
      <trkpt lat="43.60513" lon="7.068">
        <ele>106.4</ele>
        <time>2012-09-16T15:01:53Z</time>
      </trkpt>
      <trkpt lat="43.60519" lon="7.06795">
        <ele>104.3</ele>
        <time>2012-09-16T15:01:55Z</time>
      </trkpt>
      <trkpt lat="43.60527" lon="7.06791">
        <ele>102.2</ele>
        <time>2012-09-16T15:01:58Z</time>
      </trkpt>
      <trkpt lat="43.60533" lon="7.06799">
        <ele>102</ele>
        <time>2012-09-16T15:02:15Z</time>
      </trkpt>
      <trkpt lat="43.60538" lon="7.0681">
        <ele>105.9</ele>
        <time>2012-09-16T15:02:32Z</time>
      </trkpt>
      <trkpt lat="43.60546" lon="7.06815">
        <ele>107.3</ele>
        <time>2012-09-16T15:02:44Z</time>
      </trkpt>
      <trkpt lat="43.60547" lon="7.06815">
        <ele>107.4</ele>
        <time>2012-09-16T15:02:45Z</time>
      </trkpt>
      <trkpt lat="43.60561" lon="7.06826">
        <ele>110.6</ele>
        <time>2012-09-16T15:03:03Z</time>
      </trkpt>
      <trkpt lat="43.60567" lon="7.06833">
        <ele>111.9</ele>
        <time>2012-09-16T15:03:11Z</time>
      </trkpt>
      <trkpt lat="43.60575" lon="7.0684">
        <ele>112.9</ele>
        <time>2012-09-16T15:03:20Z</time>
      </trkpt>
      <trkpt lat="43.60578" lon="7.06851">
        <ele>114.2</ele>
        <time>2012-09-16T15:03:38Z</time>
      </trkpt>
      <trkpt lat="43.60581" lon="7.06861">
        <ele>115.4</ele>
        <time>2012-09-16T15:03:44Z</time>
      </trkpt>
      <trkpt lat="43.60586" lon="7.06869">
        <ele>116.3</ele>
        <time>2012-09-16T15:03:49Z</time>
      </trkpt>
      <trkpt lat="43.60587" lon="7.0687">
        <ele>116.7</ele>
        <time>2012-09-16T15:03:50Z</time>
      </trkpt>
      <trkpt lat="43.606" lon="7.06882">
        <ele>118.6</ele>
        <time>2012-09-16T15:04:04Z</time>
      </trkpt>
      <trkpt lat="43.60607" lon="7.06888">
        <ele>120.2</ele>
        <time>2012-09-16T15:04:12Z</time>
      </trkpt>
      <trkpt lat="43.60615" lon="7.06894">
        <ele>122</ele>
        <time>2012-09-16T15:04:19Z</time>
      </trkpt>
      <trkpt lat="43.60624" lon="7.06897">
        <ele>123</ele>
        <time>2012-09-16T15:04:25Z</time>
      </trkpt>
      <trkpt lat="43.60632" lon="7.06896">
        <ele>123.5</ele>
        <time>2012-09-16T15:04:30Z</time>
      </trkpt>
      <trkpt lat="43.60641" lon="7.06896">
        <ele>123.7</ele>
        <time>2012-09-16T15:04:35Z</time>
      </trkpt>
      <trkpt lat="43.60649" lon="7.06897">
        <ele>125.4</ele>
        <time>2012-09-16T15:04:41Z</time>
      </trkpt>
      <trkpt lat="43.60657" lon="7.06897">
        <ele>125.8</ele>
        <time>2012-09-16T15:04:46Z</time>
      </trkpt>
      <trkpt lat="43.60665" lon="7.06895">
        <ele>126.7</ele>
        <time>2012-09-16T15:04:51Z</time>
      </trkpt>
      <trkpt lat="43.60667" lon="7.06893">
        <ele>126.7</ele>
        <time>2012-09-16T15:04:52Z</time>
      </trkpt>
      <trkpt lat="43.6068" lon="7.06884">
        <ele>128</ele>
        <time>2012-09-16T15:05:01Z</time>
      </trkpt>
      <trkpt lat="43.60688" lon="7.06885">
        <ele>127.6</ele>
        <time>2012-09-16T15:05:05Z</time>
      </trkpt>
      <trkpt lat="43.60696" lon="7.06885">
        <ele>127.6</ele>
        <time>2012-09-16T15:05:09Z</time>
      </trkpt>
      <trkpt lat="43.60703" lon="7.0688">
        <ele>127.6</ele>
        <time>2012-09-16T15:05:13Z</time>
      </trkpt>
      <trkpt lat="43.60709" lon="7.06871">
        <ele>127.7</ele>
        <time>2012-09-16T15:05:18Z</time>
      </trkpt>
      <trkpt lat="43.60715" lon="7.06866">
        <ele>127.9</ele>
        <time>2012-09-16T15:05:21Z</time>
      </trkpt>
      <trkpt lat="43.60722" lon="7.06859">
        <ele>127.6</ele>
        <time>2012-09-16T15:05:24Z</time>
      </trkpt>
      <trkpt lat="43.60727" lon="7.06854">
        <ele>127.8</ele>
        <time>2012-09-16T15:05:27Z</time>
      </trkpt>
      <trkpt lat="43.60735" lon="7.06853">
        <ele>128.5</ele>
        <time>2012-09-16T15:05:31Z</time>
      </trkpt>
      <trkpt lat="43.60743" lon="7.06855">
        <ele>129</ele>
        <time>2012-09-16T15:05:36Z</time>
      </trkpt>
      <trkpt lat="43.60752" lon="7.06857">
        <ele>130.8</ele>
        <time>2012-09-16T15:05:41Z</time>
      </trkpt>
      <trkpt lat="43.60759" lon="7.0686">
        <ele>131.8</ele>
        <time>2012-09-16T15:05:47Z</time>
      </trkpt>
      <trkpt lat="43.60766" lon="7.06868">
        <ele>133.7</ele>
        <time>2012-09-16T15:05:54Z</time>
      </trkpt>
      <trkpt lat="43.60766" lon="7.06869">
        <ele>133.9</ele>
        <time>2012-09-16T15:05:55Z</time>
      </trkpt>
      <trkpt lat="43.60779" lon="7.0688">
        <ele>138.2</ele>
        <time>2012-09-16T15:06:08Z</time>
      </trkpt>
      <trkpt lat="43.60784" lon="7.06871">
        <ele>138.1</ele>
        <time>2012-09-16T15:06:13Z</time>
      </trkpt>
      <trkpt lat="43.60782" lon="7.06859">
        <ele>137.2</ele>
        <time>2012-09-16T15:06:16Z</time>
      </trkpt>
      <trkpt lat="43.6078" lon="7.0685">
        <ele>135.7</ele>
        <time>2012-09-16T15:06:18Z</time>
      </trkpt>
      <trkpt lat="43.60776" lon="7.06843">
        <ele>133.5</ele>
        <time>2012-09-16T15:06:20Z</time>
      </trkpt>
      <trkpt lat="43.60774" lon="7.06833">
        <ele>131.5</ele>
        <time>2012-09-16T15:06:22Z</time>
      </trkpt>
      <trkpt lat="43.60767" lon="7.06827">
        <ele>128.4</ele>
        <time>2012-09-16T15:06:26Z</time>
      </trkpt>
      <trkpt lat="43.60765" lon="7.06817">
        <ele>126.5</ele>
        <time>2012-09-16T15:06:29Z</time>
      </trkpt>
      <trkpt lat="43.6077" lon="7.0681">
        <ele>124.1</ele>
        <time>2012-09-16T15:06:32Z</time>
      </trkpt>
      <trkpt lat="43.60777" lon="7.06805">
        <ele>123.1</ele>
        <time>2012-09-16T15:06:34Z</time>
      </trkpt>
      <trkpt lat="43.60783" lon="7.06802">
        <ele>122.1</ele>
        <time>2012-09-16T15:06:36Z</time>
      </trkpt>
      <trkpt lat="43.6079" lon="7.06798">
        <ele>120.7</ele>
        <time>2012-09-16T15:06:38Z</time>
      </trkpt>
      <trkpt lat="43.60798" lon="7.068">
        <ele>118.8</ele>
        <time>2012-09-16T15:06:41Z</time>
      </trkpt>
      <trkpt lat="43.60804" lon="7.06791">
        <ele>117</ele>
        <time>2012-09-16T15:06:45Z</time>
      </trkpt>
      <trkpt lat="43.608" lon="7.06782">
        <ele>116.5</ele>
        <time>2012-09-16T15:06:47Z</time>
      </trkpt>
      <trkpt lat="43.60794" lon="7.06773">
        <ele>115.1</ele>
        <time>2012-09-16T15:06:49Z</time>
      </trkpt>
      <trkpt lat="43.60791" lon="7.06768">
        <ele>114.4</ele>
        <time>2012-09-16T15:06:50Z</time>
      </trkpt>
      <trkpt lat="43.60787" lon="7.06764">
        <ele>113.8</ele>
        <time>2012-09-16T15:06:51Z</time>
      </trkpt>
      <trkpt lat="43.60782" lon="7.06754">
        <ele>112.4</ele>
        <time>2012-09-16T15:06:53Z</time>
      </trkpt>
      <trkpt lat="43.6079" lon="7.06748">
        <ele>108.1</ele>
        <time>2012-09-16T15:07:23Z</time>
      </trkpt>
      <trkpt lat="43.6079" lon="7.06748">
        <ele>108.3</ele>
        <time>2012-09-16T15:07:24Z</time>
      </trkpt>
      <trkpt lat="43.60803" lon="7.06757">
        <ele>109.4</ele>
        <time>2012-09-16T15:07:35Z</time>
      </trkpt>
      <trkpt lat="43.6081" lon="7.06762">
        <ele>109.7</ele>
        <time>2012-09-16T15:07:38Z</time>
      </trkpt>
      <trkpt lat="43.60817" lon="7.06768">
        <ele>109.7</ele>
        <time>2012-09-16T15:07:41Z</time>
      </trkpt>
      <trkpt lat="43.60825" lon="7.06772">
        <ele>109.4</ele>
        <time>2012-09-16T15:07:44Z</time>
      </trkpt>
      <trkpt lat="43.6083" lon="7.06775">
        <ele>109.7</ele>
        <time>2012-09-16T15:07:46Z</time>
      </trkpt>
      <trkpt lat="43.60837" lon="7.06778">
        <ele>109.8</ele>
        <time>2012-09-16T15:07:48Z</time>
      </trkpt>
      <trkpt lat="43.60844" lon="7.06782">
        <ele>109.9</ele>
        <time>2012-09-16T15:07:50Z</time>
      </trkpt>
      <trkpt lat="43.60852" lon="7.06786">
        <ele>109.9</ele>
        <time>2012-09-16T15:07:52Z</time>
      </trkpt>
      <trkpt lat="43.60857" lon="7.06788">
        <ele>109.8</ele>
        <time>2012-09-16T15:07:53Z</time>
      </trkpt>
      <trkpt lat="43.60861" lon="7.0679">
        <ele>109.5</ele>
        <time>2012-09-16T15:07:54Z</time>
      </trkpt>
      <trkpt lat="43.60865" lon="7.06793">
        <ele>109.3</ele>
        <time>2012-09-16T15:07:55Z</time>
      </trkpt>
      <trkpt lat="43.60869" lon="7.06796">
        <ele>109.1</ele>
        <time>2012-09-16T15:07:56Z</time>
      </trkpt>
      <trkpt lat="43.60877" lon="7.06802">
        <ele>109.1</ele>
        <time>2012-09-16T15:07:58Z</time>
      </trkpt>
      <trkpt lat="43.60882" lon="7.06807">
        <ele>109.2</ele>
        <time>2012-09-16T15:08:00Z</time>
      </trkpt>
      <trkpt lat="43.60886" lon="7.06814">
        <ele>109.2</ele>
        <time>2012-09-16T15:08:02Z</time>
      </trkpt>
      <trkpt lat="43.60893" lon="7.06821">
        <ele>109.2</ele>
        <time>2012-09-16T15:08:05Z</time>
      </trkpt>
      <trkpt lat="43.60899" lon="7.06826">
        <ele>108.9</ele>
        <time>2012-09-16T15:08:07Z</time>
      </trkpt>
      <trkpt lat="43.60906" lon="7.0683">
        <ele>108.5</ele>
        <time>2012-09-16T15:08:09Z</time>
      </trkpt>
      <trkpt lat="43.60915" lon="7.06834">
        <ele>108.1</ele>
        <time>2012-09-16T15:08:11Z</time>
      </trkpt>
      <trkpt lat="43.60921" lon="7.06839">
        <ele>107.9</ele>
        <time>2012-09-16T15:08:13Z</time>
      </trkpt>
      <trkpt lat="43.60928" lon="7.06844">
        <ele>106.9</ele>
        <time>2012-09-16T15:08:17Z</time>
      </trkpt>
      <trkpt lat="43.60935" lon="7.0685">
        <ele>105.2</ele>
        <time>2012-09-16T15:08:20Z</time>
      </trkpt>
      <trkpt lat="43.60942" lon="7.06849">
        <ele>103.9</ele>
        <time>2012-09-16T15:08:25Z</time>
      </trkpt>
      <trkpt lat="43.60944" lon="7.0685">
        <ele>104.2</ele>
        <time>2012-09-16T15:08:26Z</time>
      </trkpt>
      <trkpt lat="43.60958" lon="7.06855">
        <ele>105.5</ele>
        <time>2012-09-16T15:08:34Z</time>
      </trkpt>
      <trkpt lat="43.60967" lon="7.06857">
        <ele>106.5</ele>
        <time>2012-09-16T15:08:41Z</time>
      </trkpt>
      <trkpt lat="43.60975" lon="7.06857">
        <ele>105.9</ele>
        <time>2012-09-16T15:09:06Z</time>
      </trkpt>
      <trkpt lat="43.60983" lon="7.06861">
        <ele>107.2</ele>
        <time>2012-09-16T15:09:16Z</time>
      </trkpt>
      <trkpt lat="43.6099" lon="7.06864">
        <ele>107.6</ele>
        <time>2012-09-16T15:09:22Z</time>
      </trkpt>
      <trkpt lat="43.60999" lon="7.06865">
        <ele>107.5</ele>
        <time>2012-09-16T15:09:25Z</time>
      </trkpt>
      <trkpt lat="43.61006" lon="7.06864">
        <ele>107.3</ele>
        <time>2012-09-16T15:09:27Z</time>
      </trkpt>
      <trkpt lat="43.6101" lon="7.06865">
        <ele>107.2</ele>
        <time>2012-09-16T15:09:28Z</time>
      </trkpt>
      <trkpt lat="43.61022" lon="7.06867">
        <ele>106.4</ele>
        <time>2012-09-16T15:09:31Z</time>
      </trkpt>
      <trkpt lat="43.61028" lon="7.06869">
        <ele>106.3</ele>
        <time>2012-09-16T15:09:33Z</time>
      </trkpt>
      <trkpt lat="43.61034" lon="7.0687">
        <ele>105.5</ele>
        <time>2012-09-16T15:09:35Z</time>
      </trkpt>
      <trkpt lat="43.61042" lon="7.06868">
        <ele>104.6</ele>
        <time>2012-09-16T15:09:37Z</time>
      </trkpt>
      <trkpt lat="43.61048" lon="7.0687">
        <ele>103.5</ele>
        <time>2012-09-16T15:09:39Z</time>
      </trkpt>
      <trkpt lat="43.61056" lon="7.06873">
        <ele>102.1</ele>
        <time>2012-09-16T15:09:42Z</time>
      </trkpt>
      <trkpt lat="43.61064" lon="7.06873">
        <ele>100.8</ele>
        <time>2012-09-16T15:09:46Z</time>
      </trkpt>
      <trkpt lat="43.6107" lon="7.06875">
        <ele>99.7</ele>
        <time>2012-09-16T15:09:48Z</time>
      </trkpt>
      <trkpt lat="43.61077" lon="7.0688">
        <ele>98.6</ele>
        <time>2012-09-16T15:09:50Z</time>
      </trkpt>
      <trkpt lat="43.61084" lon="7.06884">
        <ele>98.2</ele>
        <time>2012-09-16T15:09:52Z</time>
      </trkpt>
      <trkpt lat="43.6109" lon="7.06889">
        <ele>97.9</ele>
        <time>2012-09-16T15:09:54Z</time>
      </trkpt>
      <trkpt lat="43.61097" lon="7.06896">
        <ele>97.3</ele>
        <time>2012-09-16T15:09:56Z</time>
      </trkpt>
      <trkpt lat="43.61103" lon="7.069">
        <ele>97.3</ele>
        <time>2012-09-16T15:09:58Z</time>
      </trkpt>
      <trkpt lat="43.61108" lon="7.06906">
        <ele>96.8</ele>
        <time>2012-09-16T15:10:00Z</time>
      </trkpt>
      <trkpt lat="43.61113" lon="7.06914">
        <ele>96.1</ele>
        <time>2012-09-16T15:10:02Z</time>
      </trkpt>
      <trkpt lat="43.61119" lon="7.06923">
        <ele>95.5</ele>
        <time>2012-09-16T15:10:05Z</time>
      </trkpt>
      <trkpt lat="43.61125" lon="7.06928">
        <ele>94.8</ele>
        <time>2012-09-16T15:10:07Z</time>
      </trkpt>
      <trkpt lat="43.6113" lon="7.06936">
        <ele>94.2</ele>
        <time>2012-09-16T15:10:09Z</time>
      </trkpt>
      <trkpt lat="43.61134" lon="7.06947">
        <ele>93.7</ele>
        <time>2012-09-16T15:10:11Z</time>
      </trkpt>
      <trkpt lat="43.61139" lon="7.06957">
        <ele>93.3</ele>
        <time>2012-09-16T15:10:13Z</time>
      </trkpt>
      <trkpt lat="43.61144" lon="7.06965">
        <ele>92.9</ele>
        <time>2012-09-16T15:10:15Z</time>
      </trkpt>
      <trkpt lat="43.61148" lon="7.06976">
        <ele>91.7</ele>
        <time>2012-09-16T15:10:17Z</time>
      </trkpt>
      <trkpt lat="43.61149" lon="7.06983">
        <ele>90.8</ele>
        <time>2012-09-16T15:10:18Z</time>
      </trkpt>
      <trkpt lat="43.6115" lon="7.0699">
        <ele>90.1</ele>
        <time>2012-09-16T15:10:19Z</time>
      </trkpt>
      <trkpt lat="43.61151" lon="7.06997">
        <ele>89.6</ele>
        <time>2012-09-16T15:10:20Z</time>
      </trkpt>
      <trkpt lat="43.61153" lon="7.07004">
        <ele>89.2</ele>
        <time>2012-09-16T15:10:21Z</time>
      </trkpt>
      <trkpt lat="43.61155" lon="7.0701">
        <ele>88.6</ele>
        <time>2012-09-16T15:10:22Z</time>
      </trkpt>
      <trkpt lat="43.61156" lon="7.07017">
        <ele>88.1</ele>
        <time>2012-09-16T15:10:23Z</time>
      </trkpt>
      <trkpt lat="43.6116" lon="7.07028">
        <ele>87.2</ele>
        <time>2012-09-16T15:10:25Z</time>
      </trkpt>
      <trkpt lat="43.61166" lon="7.07036">
        <ele>86.4</ele>
        <time>2012-09-16T15:10:27Z</time>
      </trkpt>
      <trkpt lat="43.6117" lon="7.07045">
        <ele>85.7</ele>
        <time>2012-09-16T15:10:29Z</time>
      </trkpt>
      <trkpt lat="43.61171" lon="7.0705">
        <ele>85.4</ele>
        <time>2012-09-16T15:10:30Z</time>
      </trkpt>
      <trkpt lat="43.61174" lon="7.07067">
        <ele>84.2</ele>
        <time>2012-09-16T15:10:33Z</time>
      </trkpt>
      <trkpt lat="43.61175" lon="7.07073">
        <ele>84</ele>
        <time>2012-09-16T15:10:34Z</time>
      </trkpt>
      <trkpt lat="43.61175" lon="7.0708">
        <ele>83.8</ele>
        <time>2012-09-16T15:10:35Z</time>
      </trkpt>
      <trkpt lat="43.61176" lon="7.07086">
        <ele>83.1</ele>
        <time>2012-09-16T15:10:36Z</time>
      </trkpt>
      <trkpt lat="43.61175" lon="7.07098">
        <ele>82.2</ele>
        <time>2012-09-16T15:10:38Z</time>
      </trkpt>
      <trkpt lat="43.61173" lon="7.0711">
        <ele>82</ele>
        <time>2012-09-16T15:10:40Z</time>
      </trkpt>
      <trkpt lat="43.61171" lon="7.07122">
        <ele>82.1</ele>
        <time>2012-09-16T15:10:42Z</time>
      </trkpt>
      <trkpt lat="43.6117" lon="7.07134">
        <ele>81.8</ele>
        <time>2012-09-16T15:10:44Z</time>
      </trkpt>
      <trkpt lat="43.61169" lon="7.07146">
        <ele>82.1</ele>
        <time>2012-09-16T15:10:46Z</time>
      </trkpt>
      <trkpt lat="43.6117" lon="7.07158">
        <ele>81.7</ele>
        <time>2012-09-16T15:10:48Z</time>
      </trkpt>
      <trkpt lat="43.61174" lon="7.07167">
        <ele>81.1</ele>
        <time>2012-09-16T15:10:50Z</time>
      </trkpt>
      <trkpt lat="43.6118" lon="7.07171">
        <ele>81.1</ele>
        <time>2012-09-16T15:10:52Z</time>
      </trkpt>
      <trkpt lat="43.61186" lon="7.0718">
        <ele>80.4</ele>
        <time>2012-09-16T15:11:14Z</time>
      </trkpt>
      <trkpt lat="43.61194" lon="7.07175">
        <ele>80.6</ele>
        <time>2012-09-16T15:11:27Z</time>
      </trkpt>
      <trkpt lat="43.61203" lon="7.07171">
        <ele>83.3</ele>
        <time>2012-09-16T15:11:43Z</time>
      </trkpt>
      <trkpt lat="43.61203" lon="7.07169">
        <ele>83.3</ele>
        <time>2012-09-16T15:11:44Z</time>
      </trkpt>
      <trkpt lat="43.61211" lon="7.07151">
        <ele>85.8</ele>
        <time>2012-09-16T15:11:54Z</time>
      </trkpt>
      <trkpt lat="43.61216" lon="7.07142">
        <ele>85.9</ele>
        <time>2012-09-16T15:11:59Z</time>
      </trkpt>
      <trkpt lat="43.61222" lon="7.07132">
        <ele>87.2</ele>
        <time>2012-09-16T15:12:05Z</time>
      </trkpt>
      <trkpt lat="43.61224" lon="7.07121">
        <ele>88</ele>
        <time>2012-09-16T15:12:11Z</time>
      </trkpt>
      <trkpt lat="43.61231" lon="7.07116">
        <ele>88.3</ele>
        <time>2012-09-16T15:12:15Z</time>
      </trkpt>
      <trkpt lat="43.61239" lon="7.07111">
        <ele>87.7</ele>
        <time>2012-09-16T15:12:19Z</time>
      </trkpt>
      <trkpt lat="43.61243" lon="7.07101">
        <ele>88.1</ele>
        <time>2012-09-16T15:12:25Z</time>
      </trkpt>
      <trkpt lat="43.61242" lon="7.07092">
        <ele>88.6</ele>
        <time>2012-09-16T15:12:27Z</time>
      </trkpt>
      <trkpt lat="43.61241" lon="7.0708">
        <ele>88.6</ele>
        <time>2012-09-16T15:12:30Z</time>
      </trkpt>
      <trkpt lat="43.61243" lon="7.07069">
        <ele>87.8</ele>
        <time>2012-09-16T15:12:33Z</time>
      </trkpt>
      <trkpt lat="43.61244" lon="7.07061">
        <ele>88.2</ele>
        <time>2012-09-16T15:12:35Z</time>
      </trkpt>
      <trkpt lat="43.61246" lon="7.07053">
        <ele>88.1</ele>
        <time>2012-09-16T15:12:37Z</time>
      </trkpt>
      <trkpt lat="43.61249" lon="7.07045">
        <ele>88.1</ele>
        <time>2012-09-16T15:12:39Z</time>
      </trkpt>
      <trkpt lat="43.61249" lon="7.07035">
        <ele>88.3</ele>
        <time>2012-09-16T15:12:41Z</time>
      </trkpt>
      <trkpt lat="43.61248" lon="7.07029">
        <ele>88.1</ele>
        <time>2012-09-16T15:12:42Z</time>
      </trkpt>
      <trkpt lat="43.61248" lon="7.07022">
        <ele>88</ele>
        <time>2012-09-16T15:12:43Z</time>
      </trkpt>
      <trkpt lat="43.61245" lon="7.0701">
        <ele>86.7</ele>
        <time>2012-09-16T15:12:45Z</time>
      </trkpt>
      <trkpt lat="43.61243" lon="7.07006">
        <ele>85.9</ele>
        <time>2012-09-16T15:12:46Z</time>
      </trkpt>
      <trkpt lat="43.61241" lon="7.06992">
        <ele>84.6</ele>
        <time>2012-09-16T15:12:49Z</time>
      </trkpt>
      <trkpt lat="43.61239" lon="7.06982">
        <ele>84</ele>
        <time>2012-09-16T15:12:51Z</time>
      </trkpt>
      <trkpt lat="43.61239" lon="7.06971">
        <ele>83.7</ele>
        <time>2012-09-16T15:12:54Z</time>
      </trkpt>
      <trkpt lat="43.61242" lon="7.06961">
        <ele>83.8</ele>
        <time>2012-09-16T15:12:58Z</time>
      </trkpt>
      <trkpt lat="43.61246" lon="7.06951">
        <ele>84.4</ele>
        <time>2012-09-16T15:13:03Z</time>
      </trkpt>
      <trkpt lat="43.61251" lon="7.06944">
        <ele>84.3</ele>
        <time>2012-09-16T15:13:06Z</time>
      </trkpt>
      <trkpt lat="43.61256" lon="7.06938">
        <ele>84.3</ele>
        <time>2012-09-16T15:13:08Z</time>
      </trkpt>
      <trkpt lat="43.6126" lon="7.0693">
        <ele>84</ele>
        <time>2012-09-16T15:13:11Z</time>
      </trkpt>
      <trkpt lat="43.61263" lon="7.06919">
        <ele>84.6</ele>
        <time>2012-09-16T15:13:15Z</time>
      </trkpt>
      <trkpt lat="43.61265" lon="7.06909">
        <ele>86.7</ele>
        <time>2012-09-16T15:13:20Z</time>
      </trkpt>
      <trkpt lat="43.61266" lon="7.06899">
        <ele>87.4</ele>
        <time>2012-09-16T15:13:24Z</time>
      </trkpt>
      <trkpt lat="43.61266" lon="7.06888">
        <ele>88</ele>
        <time>2012-09-16T15:13:29Z</time>
      </trkpt>
      <trkpt lat="43.61266" lon="7.06876">
        <ele>88.3</ele>
        <time>2012-09-16T15:13:33Z</time>
      </trkpt>
      <trkpt lat="43.61265" lon="7.06864">
        <ele>88.7</ele>
        <time>2012-09-16T15:13:37Z</time>
      </trkpt>
      <trkpt lat="43.61266" lon="7.06853">
        <ele>89.6</ele>
        <time>2012-09-16T15:13:42Z</time>
      </trkpt>
      <trkpt lat="43.61272" lon="7.06844">
        <ele>91.3</ele>
        <time>2012-09-16T15:13:47Z</time>
      </trkpt>
      <trkpt lat="43.61273" lon="7.06842">
        <ele>91.7</ele>
        <time>2012-09-16T15:13:48Z</time>
      </trkpt>
      <trkpt lat="43.61282" lon="7.06828">
        <ele>92.9</ele>
        <time>2012-09-16T15:13:55Z</time>
      </trkpt>
      <trkpt lat="43.61287" lon="7.06818">
        <ele>92.7</ele>
        <time>2012-09-16T15:13:59Z</time>
      </trkpt>
      <trkpt lat="43.61289" lon="7.06809">
        <ele>92.2</ele>
        <time>2012-09-16T15:14:02Z</time>
      </trkpt>
      <trkpt lat="43.61292" lon="7.06799">
        <ele>92.4</ele>
        <time>2012-09-16T15:14:05Z</time>
      </trkpt>
      <trkpt lat="43.61296" lon="7.06788">
        <ele>92.4</ele>
        <time>2012-09-16T15:14:09Z</time>
      </trkpt>
      <trkpt lat="43.61299" lon="7.06778">
        <ele>92.3</ele>
        <time>2012-09-16T15:14:16Z</time>
      </trkpt>
      <trkpt lat="43.61303" lon="7.06766">
        <ele>93</ele>
        <time>2012-09-16T15:14:21Z</time>
      </trkpt>
      <trkpt lat="43.61305" lon="7.06758">
        <ele>93.3</ele>
        <time>2012-09-16T15:14:24Z</time>
      </trkpt>
      <trkpt lat="43.61308" lon="7.06748">
        <ele>93.8</ele>
        <time>2012-09-16T15:14:27Z</time>
      </trkpt>
      <trkpt lat="43.61314" lon="7.0674">
        <ele>94.4</ele>
        <time>2012-09-16T15:14:30Z</time>
      </trkpt>
      <trkpt lat="43.61319" lon="7.06734">
        <ele>94.5</ele>
        <time>2012-09-16T15:14:32Z</time>
      </trkpt>
      <trkpt lat="43.61324" lon="7.06726">
        <ele>94.5</ele>
        <time>2012-09-16T15:14:35Z</time>
      </trkpt>
      <trkpt lat="43.6133" lon="7.0672">
        <ele>95.3</ele>
        <time>2012-09-16T15:14:38Z</time>
      </trkpt>
      <trkpt lat="43.61336" lon="7.06715">
        <ele>96.1</ele>
        <time>2012-09-16T15:14:41Z</time>
      </trkpt>
      <trkpt lat="43.61345" lon="7.0671">
        <ele>96.3</ele>
        <time>2012-09-16T15:14:44Z</time>
      </trkpt>
      <trkpt lat="43.61353" lon="7.06705">
        <ele>96.5</ele>
        <time>2012-09-16T15:14:47Z</time>
      </trkpt>
      <trkpt lat="43.61359" lon="7.06698">
        <ele>96.2</ele>
        <time>2012-09-16T15:14:52Z</time>
      </trkpt>
      <trkpt lat="43.6136" lon="7.06697">
        <ele>96.3</ele>
        <time>2012-09-16T15:14:53Z</time>
      </trkpt>
      <trkpt lat="43.61372" lon="7.06686">
        <ele>96.9</ele>
        <time>2012-09-16T15:14:58Z</time>
      </trkpt>
      <trkpt lat="43.61376" lon="7.06681">
        <ele>97</ele>
        <time>2012-09-16T15:15:00Z</time>
      </trkpt>
      <trkpt lat="43.61381" lon="7.06675">
        <ele>97</ele>
        <time>2012-09-16T15:15:02Z</time>
      </trkpt>
      <trkpt lat="43.61386" lon="7.06669">
        <ele>97.1</ele>
        <time>2012-09-16T15:15:04Z</time>
      </trkpt>
      <trkpt lat="43.6139" lon="7.06664">
        <ele>96.9</ele>
        <time>2012-09-16T15:15:06Z</time>
      </trkpt>
      <trkpt lat="43.61394" lon="7.06657">
        <ele>96.6</ele>
        <time>2012-09-16T15:15:08Z</time>
      </trkpt>
      <trkpt lat="43.61398" lon="7.06651">
        <ele>96.6</ele>
        <time>2012-09-16T15:15:10Z</time>
      </trkpt>
      <trkpt lat="43.61403" lon="7.06643">
        <ele>96.8</ele>
        <time>2012-09-16T15:15:12Z</time>
      </trkpt>
      <trkpt lat="43.61406" lon="7.06636">
        <ele>97.2</ele>
        <time>2012-09-16T15:15:14Z</time>
      </trkpt>
      <trkpt lat="43.61411" lon="7.0663">
        <ele>97.6</ele>
        <time>2012-09-16T15:15:16Z</time>
      </trkpt>
      <trkpt lat="43.61418" lon="7.06622">
        <ele>97.9</ele>
        <time>2012-09-16T15:15:19Z</time>
      </trkpt>
      <trkpt lat="43.61423" lon="7.06615">
        <ele>98.1</ele>
        <time>2012-09-16T15:15:22Z</time>
      </trkpt>
      <trkpt lat="43.61427" lon="7.06604">
        <ele>100.8</ele>
        <time>2012-09-16T15:15:30Z</time>
      </trkpt>
      <trkpt lat="43.61431" lon="7.06594">
        <ele>102.6</ele>
        <time>2012-09-16T15:15:36Z</time>
      </trkpt>
      <trkpt lat="43.61434" lon="7.06584">
        <ele>103.6</ele>
        <time>2012-09-16T15:15:41Z</time>
      </trkpt>
      <trkpt lat="43.61436" lon="7.06572">
        <ele>104.6</ele>
        <time>2012-09-16T15:15:46Z</time>
      </trkpt>
      <trkpt lat="43.6144" lon="7.06563">
        <ele>106.1</ele>
        <time>2012-09-16T15:15:50Z</time>
      </trkpt>
      <trkpt lat="43.61443" lon="7.06555">
        <ele>106.3</ele>
        <time>2012-09-16T15:15:52Z</time>
      </trkpt>
      <trkpt lat="43.61447" lon="7.06547">
        <ele>105.9</ele>
        <time>2012-09-16T15:15:54Z</time>
      </trkpt>
      <trkpt lat="43.61449" lon="7.06544">
        <ele>105.5</ele>
        <time>2012-09-16T15:15:55Z</time>
      </trkpt>
      <trkpt lat="43.61455" lon="7.06533">
        <ele>105</ele>
        <time>2012-09-16T15:15:58Z</time>
      </trkpt>
      <trkpt lat="43.61459" lon="7.06527">
        <ele>105</ele>
        <time>2012-09-16T15:16:00Z</time>
      </trkpt>
      <trkpt lat="43.61464" lon="7.0652">
        <ele>105.4</ele>
        <time>2012-09-16T15:16:02Z</time>
      </trkpt>
      <trkpt lat="43.61466" lon="7.06511">
        <ele>105.5</ele>
        <time>2012-09-16T15:16:04Z</time>
      </trkpt>
      <trkpt lat="43.6147" lon="7.06503">
        <ele>105.5</ele>
        <time>2012-09-16T15:16:06Z</time>
      </trkpt>
      <trkpt lat="43.61474" lon="7.06495">
        <ele>105.4</ele>
        <time>2012-09-16T15:16:08Z</time>
      </trkpt>
      <trkpt lat="43.61478" lon="7.06488">
        <ele>105.3</ele>
        <time>2012-09-16T15:16:10Z</time>
      </trkpt>
      <trkpt lat="43.61483" lon="7.06478">
        <ele>105.3</ele>
        <time>2012-09-16T15:16:13Z</time>
      </trkpt>
      <trkpt lat="43.61489" lon="7.06469">
        <ele>105.8</ele>
        <time>2012-09-16T15:16:16Z</time>
      </trkpt>
      <trkpt lat="43.61491" lon="7.06461">
        <ele>106.1</ele>
        <time>2012-09-16T15:16:18Z</time>
      </trkpt>
      <trkpt lat="43.61494" lon="7.06453">
        <ele>106</ele>
        <time>2012-09-16T15:16:20Z</time>
      </trkpt>
      <trkpt lat="43.61497" lon="7.06445">
        <ele>105.9</ele>
        <time>2012-09-16T15:16:22Z</time>
      </trkpt>
      <trkpt lat="43.615" lon="7.06433">
        <ele>105.8</ele>
        <time>2012-09-16T15:16:25Z</time>
      </trkpt>
      <trkpt lat="43.61501" lon="7.06421">
        <ele>105.6</ele>
        <time>2012-09-16T15:16:28Z</time>
      </trkpt>
      <trkpt lat="43.61502" lon="7.06412">
        <ele>105.8</ele>
        <time>2012-09-16T15:16:30Z</time>
      </trkpt>
      <trkpt lat="43.61503" lon="7.064">
        <ele>105.7</ele>
        <time>2012-09-16T15:16:33Z</time>
      </trkpt>
      <trkpt lat="43.61502" lon="7.06389">
        <ele>106.1</ele>
        <time>2012-09-16T15:16:36Z</time>
      </trkpt>
      <trkpt lat="43.61503" lon="7.06381">
        <ele>106.6</ele>
        <time>2012-09-16T15:16:38Z</time>
      </trkpt>
      <trkpt lat="43.61503" lon="7.06371">
        <ele>107.2</ele>
        <time>2012-09-16T15:16:40Z</time>
      </trkpt>
      <trkpt lat="43.61503" lon="7.06362">
        <ele>107.6</ele>
        <time>2012-09-16T15:16:42Z</time>
      </trkpt>
      <trkpt lat="43.61503" lon="7.06352">
        <ele>107.5</ele>
        <time>2012-09-16T15:16:44Z</time>
      </trkpt>
      <trkpt lat="43.61502" lon="7.0634">
        <ele>107.3</ele>
        <time>2012-09-16T15:16:47Z</time>
      </trkpt>
      <trkpt lat="43.61502" lon="7.06328">
        <ele>107.7</ele>
        <time>2012-09-16T15:16:50Z</time>
      </trkpt>
      <trkpt lat="43.61501" lon="7.06319">
        <ele>107.8</ele>
        <time>2012-09-16T15:16:52Z</time>
      </trkpt>
      <trkpt lat="43.61499" lon="7.0631">
        <ele>107.9</ele>
        <time>2012-09-16T15:16:54Z</time>
      </trkpt>
      <trkpt lat="43.61495" lon="7.06301">
        <ele>107.6</ele>
        <time>2012-09-16T15:16:56Z</time>
      </trkpt>
      <trkpt lat="43.61493" lon="7.06297">
        <ele>107.4</ele>
        <time>2012-09-16T15:16:57Z</time>
      </trkpt>
      <trkpt lat="43.61486" lon="7.06285">
        <ele>107.9</ele>
        <time>2012-09-16T15:17:00Z</time>
      </trkpt>
      <trkpt lat="43.61479" lon="7.06279">
        <ele>108.3</ele>
        <time>2012-09-16T15:17:02Z</time>
      </trkpt>
      <trkpt lat="43.61473" lon="7.06274">
        <ele>108.8</ele>
        <time>2012-09-16T15:17:04Z</time>
      </trkpt>
      <trkpt lat="43.61467" lon="7.06269">
        <ele>109.1</ele>
        <time>2012-09-16T15:17:06Z</time>
      </trkpt>
      <trkpt lat="43.61461" lon="7.06263">
        <ele>109.3</ele>
        <time>2012-09-16T15:17:08Z</time>
      </trkpt>
      <trkpt lat="43.61455" lon="7.06256">
        <ele>109.5</ele>
        <time>2012-09-16T15:17:10Z</time>
      </trkpt>
      <trkpt lat="43.6145" lon="7.06247">
        <ele>109.8</ele>
        <time>2012-09-16T15:17:12Z</time>
      </trkpt>
      <trkpt lat="43.61446" lon="7.06237">
        <ele>110.1</ele>
        <time>2012-09-16T15:17:14Z</time>
      </trkpt>
      <trkpt lat="43.61441" lon="7.06227">
        <ele>110.2</ele>
        <time>2012-09-16T15:17:16Z</time>
      </trkpt>
      <trkpt lat="43.61437" lon="7.06217">
        <ele>110.4</ele>
        <time>2012-09-16T15:17:18Z</time>
      </trkpt>
      <trkpt lat="43.61434" lon="7.06207">
        <ele>110.8</ele>
        <time>2012-09-16T15:17:20Z</time>
      </trkpt>
      <trkpt lat="43.61431" lon="7.06196">
        <ele>111.2</ele>
        <time>2012-09-16T15:17:22Z</time>
      </trkpt>
      <trkpt lat="43.61428" lon="7.06187">
        <ele>111.3</ele>
        <time>2012-09-16T15:17:24Z</time>
      </trkpt>
      <trkpt lat="43.61423" lon="7.06178">
        <ele>111.3</ele>
        <time>2012-09-16T15:17:26Z</time>
      </trkpt>
      <trkpt lat="43.61421" lon="7.06169">
        <ele>111.4</ele>
        <time>2012-09-16T15:17:28Z</time>
      </trkpt>
      <trkpt lat="43.61419" lon="7.06159">
        <ele>111.6</ele>
        <time>2012-09-16T15:17:30Z</time>
      </trkpt>
      <trkpt lat="43.61416" lon="7.0615">
        <ele>111.4</ele>
        <time>2012-09-16T15:17:32Z</time>
      </trkpt>
      <trkpt lat="43.61412" lon="7.0614">
        <ele>111.6</ele>
        <time>2012-09-16T15:17:34Z</time>
      </trkpt>
      <trkpt lat="43.61411" lon="7.06131">
        <ele>112.3</ele>
        <time>2012-09-16T15:17:36Z</time>
      </trkpt>
      <trkpt lat="43.61411" lon="7.06121">
        <ele>112.9</ele>
        <time>2012-09-16T15:17:38Z</time>
      </trkpt>
      <trkpt lat="43.6141" lon="7.06109">
        <ele>113.2</ele>
        <time>2012-09-16T15:17:40Z</time>
      </trkpt>
      <trkpt lat="43.61406" lon="7.061">
        <ele>112.9</ele>
        <time>2012-09-16T15:17:42Z</time>
      </trkpt>
      <trkpt lat="43.61402" lon="7.06093">
        <ele>112.9</ele>
        <time>2012-09-16T15:17:44Z</time>
      </trkpt>
      <trkpt lat="43.61398" lon="7.06085">
        <ele>113.2</ele>
        <time>2012-09-16T15:17:46Z</time>
      </trkpt>
      <trkpt lat="43.61393" lon="7.06075">
        <ele>113.7</ele>
        <time>2012-09-16T15:17:49Z</time>
      </trkpt>
      <trkpt lat="43.6139" lon="7.06067">
        <ele>114.2</ele>
        <time>2012-09-16T15:17:51Z</time>
      </trkpt>
      <trkpt lat="43.61386" lon="7.06058">
        <ele>114.5</ele>
        <time>2012-09-16T15:17:53Z</time>
      </trkpt>
      <trkpt lat="43.61382" lon="7.06049">
        <ele>115</ele>
        <time>2012-09-16T15:17:55Z</time>
      </trkpt>
      <trkpt lat="43.61377" lon="7.0604">
        <ele>115.4</ele>
        <time>2012-09-16T15:17:57Z</time>
      </trkpt>
      <trkpt lat="43.61374" lon="7.06036">
        <ele>115.5</ele>
        <time>2012-09-16T15:17:58Z</time>
      </trkpt>
      <trkpt lat="43.61367" lon="7.06023">
        <ele>115.6</ele>
        <time>2012-09-16T15:18:01Z</time>
      </trkpt>
      <trkpt lat="43.61362" lon="7.06014">
        <ele>115.7</ele>
        <time>2012-09-16T15:18:03Z</time>
      </trkpt>
      <trkpt lat="43.61357" lon="7.06006">
        <ele>115.9</ele>
        <time>2012-09-16T15:18:05Z</time>
      </trkpt>
      <trkpt lat="43.61352" lon="7.05999">
        <ele>116.4</ele>
        <time>2012-09-16T15:18:07Z</time>
      </trkpt>
      <trkpt lat="43.61346" lon="7.05992">
        <ele>116.6</ele>
        <time>2012-09-16T15:18:09Z</time>
      </trkpt>
      <trkpt lat="43.6134" lon="7.05985">
        <ele>116.5</ele>
        <time>2012-09-16T15:18:11Z</time>
      </trkpt>
      <trkpt lat="43.61334" lon="7.05978">
        <ele>116.5</ele>
        <time>2012-09-16T15:18:13Z</time>
      </trkpt>
      <trkpt lat="43.61328" lon="7.05972">
        <ele>116.6</ele>
        <time>2012-09-16T15:18:15Z</time>
      </trkpt>
      <trkpt lat="43.61322" lon="7.05966">
        <ele>116.8</ele>
        <time>2012-09-16T15:18:17Z</time>
      </trkpt>
      <trkpt lat="43.61317" lon="7.05959">
        <ele>116.6</ele>
        <time>2012-09-16T15:18:19Z</time>
      </trkpt>
      <trkpt lat="43.61311" lon="7.05952">
        <ele>116.4</ele>
        <time>2012-09-16T15:18:21Z</time>
      </trkpt>
      <trkpt lat="43.61306" lon="7.05945">
        <ele>117</ele>
        <time>2012-09-16T15:18:23Z</time>
      </trkpt>
      <trkpt lat="43.61301" lon="7.05939">
        <ele>117.7</ele>
        <time>2012-09-16T15:18:25Z</time>
      </trkpt>
      <trkpt lat="43.61296" lon="7.05933">
        <ele>118</ele>
        <time>2012-09-16T15:18:27Z</time>
      </trkpt>
      <trkpt lat="43.61292" lon="7.05927">
        <ele>118.7</ele>
        <time>2012-09-16T15:18:29Z</time>
      </trkpt>
      <trkpt lat="43.61287" lon="7.05922">
        <ele>119.6</ele>
        <time>2012-09-16T15:18:31Z</time>
      </trkpt>
      <trkpt lat="43.61281" lon="7.05914">
        <ele>119.5</ele>
        <time>2012-09-16T15:18:34Z</time>
      </trkpt>
      <trkpt lat="43.61274" lon="7.05907">
        <ele>119.7</ele>
        <time>2012-09-16T15:18:37Z</time>
      </trkpt>
      <trkpt lat="43.61268" lon="7.05899">
        <ele>120.6</ele>
        <time>2012-09-16T15:18:40Z</time>
      </trkpt>
      <trkpt lat="43.61261" lon="7.05892">
        <ele>121.2</ele>
        <time>2012-09-16T15:18:43Z</time>
      </trkpt>
      <trkpt lat="43.61255" lon="7.05885">
        <ele>121.3</ele>
        <time>2012-09-16T15:18:46Z</time>
      </trkpt>
      <trkpt lat="43.61248" lon="7.05877">
        <ele>121.3</ele>
        <time>2012-09-16T15:18:49Z</time>
      </trkpt>
      <trkpt lat="43.61244" lon="7.05871">
        <ele>121.5</ele>
        <time>2012-09-16T15:18:51Z</time>
      </trkpt>
      <trkpt lat="43.61239" lon="7.05866">
        <ele>121.9</ele>
        <time>2012-09-16T15:18:53Z</time>
      </trkpt>
      <trkpt lat="43.61233" lon="7.0586">
        <ele>122</ele>
        <time>2012-09-16T15:18:55Z</time>
      </trkpt>
      <trkpt lat="43.6123" lon="7.05852">
        <ele>121.9</ele>
        <time>2012-09-16T15:18:57Z</time>
      </trkpt>
      <trkpt lat="43.61226" lon="7.05843">
        <ele>121.9</ele>
        <time>2012-09-16T15:18:59Z</time>
      </trkpt>
      <trkpt lat="43.61224" lon="7.05839">
        <ele>122</ele>
        <time>2012-09-16T15:19:00Z</time>
      </trkpt>
      <trkpt lat="43.61219" lon="7.05826">
        <ele>122.3</ele>
        <time>2012-09-16T15:19:03Z</time>
      </trkpt>
      <trkpt lat="43.61216" lon="7.05816">
        <ele>122.3</ele>
        <time>2012-09-16T15:19:05Z</time>
      </trkpt>
      <trkpt lat="43.61212" lon="7.05806">
        <ele>122</ele>
        <time>2012-09-16T15:19:07Z</time>
      </trkpt>
      <trkpt lat="43.61208" lon="7.05795">
        <ele>122.1</ele>
        <time>2012-09-16T15:19:09Z</time>
      </trkpt>
      <trkpt lat="43.61203" lon="7.05785">
        <ele>122</ele>
        <time>2012-09-16T15:19:11Z</time>
      </trkpt>
      <trkpt lat="43.612" lon="7.05774">
        <ele>121.8</ele>
        <time>2012-09-16T15:19:13Z</time>
      </trkpt>
      <trkpt lat="43.61196" lon="7.05762">
        <ele>121.7</ele>
        <time>2012-09-16T15:19:15Z</time>
      </trkpt>
      <trkpt lat="43.61195" lon="7.05757">
        <ele>122</ele>
        <time>2012-09-16T15:19:16Z</time>
      </trkpt>
      <trkpt lat="43.61192" lon="7.05745">
        <ele>122.1</ele>
        <time>2012-09-16T15:19:18Z</time>
      </trkpt>
      <trkpt lat="43.6119" lon="7.05733">
        <ele>121.6</ele>
        <time>2012-09-16T15:19:20Z</time>
      </trkpt>
      <trkpt lat="43.61188" lon="7.05721">
        <ele>121.2</ele>
        <time>2012-09-16T15:19:22Z</time>
      </trkpt>
      <trkpt lat="43.61186" lon="7.05709">
        <ele>121.7</ele>
        <time>2012-09-16T15:19:24Z</time>
      </trkpt>
      <trkpt lat="43.61184" lon="7.05698">
        <ele>121.5</ele>
        <time>2012-09-16T15:19:26Z</time>
      </trkpt>
      <trkpt lat="43.61182" lon="7.05686">
        <ele>122.1</ele>
        <time>2012-09-16T15:19:28Z</time>
      </trkpt>
      <trkpt lat="43.61181" lon="7.05674">
        <ele>122.2</ele>
        <time>2012-09-16T15:19:30Z</time>
      </trkpt>
      <trkpt lat="43.61179" lon="7.05664">
        <ele>122.4</ele>
        <time>2012-09-16T15:19:32Z</time>
      </trkpt>
      <trkpt lat="43.61177" lon="7.05654">
        <ele>122.6</ele>
        <time>2012-09-16T15:19:34Z</time>
      </trkpt>
      <trkpt lat="43.61176" lon="7.05643">
        <ele>122.8</ele>
        <time>2012-09-16T15:19:36Z</time>
      </trkpt>
      <trkpt lat="43.61173" lon="7.05632">
        <ele>122</ele>
        <time>2012-09-16T15:19:38Z</time>
      </trkpt>
      <trkpt lat="43.61169" lon="7.05622">
        <ele>122.2</ele>
        <time>2012-09-16T15:19:40Z</time>
      </trkpt>
      <trkpt lat="43.61164" lon="7.05613">
        <ele>122.5</ele>
        <time>2012-09-16T15:19:42Z</time>
      </trkpt>
      <trkpt lat="43.61158" lon="7.05604">
        <ele>122.8</ele>
        <time>2012-09-16T15:19:44Z</time>
      </trkpt>
      <trkpt lat="43.61152" lon="7.05597">
        <ele>123</ele>
        <time>2012-09-16T15:19:46Z</time>
      </trkpt>
      <trkpt lat="43.61146" lon="7.05589">
        <ele>123</ele>
        <time>2012-09-16T15:19:48Z</time>
      </trkpt>
      <trkpt lat="43.61141" lon="7.05583">
        <ele>123</ele>
        <time>2012-09-16T15:19:50Z</time>
      </trkpt>
      <trkpt lat="43.61135" lon="7.05576">
        <ele>122.8</ele>
        <time>2012-09-16T15:19:52Z</time>
      </trkpt>
      <trkpt lat="43.61129" lon="7.0557">
        <ele>122.9</ele>
        <time>2012-09-16T15:19:54Z</time>
      </trkpt>
      <trkpt lat="43.61123" lon="7.05562">
        <ele>123.3</ele>
        <time>2012-09-16T15:19:56Z</time>
      </trkpt>
      <trkpt lat="43.61117" lon="7.05556">
        <ele>123.8</ele>
        <time>2012-09-16T15:19:58Z</time>
      </trkpt>
      <trkpt lat="43.61109" lon="7.05551">
        <ele>124.2</ele>
        <time>2012-09-16T15:20:00Z</time>
      </trkpt>
      <trkpt lat="43.61106" lon="7.05549">
        <ele>124.3</ele>
        <time>2012-09-16T15:20:01Z</time>
      </trkpt>
      <trkpt lat="43.61095" lon="7.05545">
        <ele>124.1</ele>
        <time>2012-09-16T15:20:04Z</time>
      </trkpt>
      <trkpt lat="43.61088" lon="7.05543">
        <ele>124.8</ele>
        <time>2012-09-16T15:20:06Z</time>
      </trkpt>
      <trkpt lat="43.61081" lon="7.05543">
        <ele>125.4</ele>
        <time>2012-09-16T15:20:08Z</time>
      </trkpt>
      <trkpt lat="43.61074" lon="7.05542">
        <ele>125.8</ele>
        <time>2012-09-16T15:20:10Z</time>
      </trkpt>
      <trkpt lat="43.61067" lon="7.05542">
        <ele>126.1</ele>
        <time>2012-09-16T15:20:12Z</time>
      </trkpt>
      <trkpt lat="43.6106" lon="7.0554">
        <ele>125.8</ele>
        <time>2012-09-16T15:20:14Z</time>
      </trkpt>
      <trkpt lat="43.61053" lon="7.05539">
        <ele>126.4</ele>
        <time>2012-09-16T15:20:16Z</time>
      </trkpt>
      <trkpt lat="43.61046" lon="7.05537">
        <ele>126.8</ele>
        <time>2012-09-16T15:20:18Z</time>
      </trkpt>
      <trkpt lat="43.6104" lon="7.05536">
        <ele>127</ele>
        <time>2012-09-16T15:20:20Z</time>
      </trkpt>
      <trkpt lat="43.61033" lon="7.05533">
        <ele>127</ele>
        <time>2012-09-16T15:20:22Z</time>
      </trkpt>
      <trkpt lat="43.61026" lon="7.0553">
        <ele>127.4</ele>
        <time>2012-09-16T15:20:24Z</time>
      </trkpt>
      <trkpt lat="43.6102" lon="7.05526">
        <ele>127.9</ele>
        <time>2012-09-16T15:20:26Z</time>
      </trkpt>
      <trkpt lat="43.61013" lon="7.05522">
        <ele>128.6</ele>
        <time>2012-09-16T15:20:28Z</time>
      </trkpt>
      <trkpt lat="43.61007" lon="7.05518">
        <ele>129</ele>
        <time>2012-09-16T15:20:30Z</time>
      </trkpt>
      <trkpt lat="43.60999" lon="7.05514">
        <ele>129.1</ele>
        <time>2012-09-16T15:20:32Z</time>
      </trkpt>
      <trkpt lat="43.60992" lon="7.0551">
        <ele>128.9</ele>
        <time>2012-09-16T15:20:34Z</time>
      </trkpt>
      <trkpt lat="43.60985" lon="7.05506">
        <ele>128.7</ele>
        <time>2012-09-16T15:20:36Z</time>
      </trkpt>
      <trkpt lat="43.60978" lon="7.05503">
        <ele>128.8</ele>
        <time>2012-09-16T15:20:38Z</time>
      </trkpt>
      <trkpt lat="43.6097" lon="7.05499">
        <ele>129.2</ele>
        <time>2012-09-16T15:20:40Z</time>
      </trkpt>
      <trkpt lat="43.60963" lon="7.05497">
        <ele>129.1</ele>
        <time>2012-09-16T15:20:42Z</time>
      </trkpt>
      <trkpt lat="43.60955" lon="7.05495">
        <ele>129.6</ele>
        <time>2012-09-16T15:20:44Z</time>
      </trkpt>
      <trkpt lat="43.60948" lon="7.05495">
        <ele>129.8</ele>
        <time>2012-09-16T15:20:46Z</time>
      </trkpt>
      <trkpt lat="43.60941" lon="7.05497">
        <ele>130</ele>
        <time>2012-09-16T15:20:48Z</time>
      </trkpt>
      <trkpt lat="43.60934" lon="7.055">
        <ele>130.2</ele>
        <time>2012-09-16T15:20:50Z</time>
      </trkpt>
      <trkpt lat="43.60927" lon="7.05503">
        <ele>130.2</ele>
        <time>2012-09-16T15:20:52Z</time>
      </trkpt>
      <trkpt lat="43.6092" lon="7.05505">
        <ele>130.4</ele>
        <time>2012-09-16T15:20:54Z</time>
      </trkpt>
      <trkpt lat="43.60913" lon="7.05507">
        <ele>130.6</ele>
        <time>2012-09-16T15:20:56Z</time>
      </trkpt>
      <trkpt lat="43.60906" lon="7.05508">
        <ele>130.9</ele>
        <time>2012-09-16T15:20:58Z</time>
      </trkpt>
      <trkpt lat="43.60899" lon="7.0551">
        <ele>130.8</ele>
        <time>2012-09-16T15:21:00Z</time>
      </trkpt>
      <trkpt lat="43.60892" lon="7.05511">
        <ele>131</ele>
        <time>2012-09-16T15:21:02Z</time>
      </trkpt>
      <trkpt lat="43.60889" lon="7.05512">
        <ele>131.3</ele>
        <time>2012-09-16T15:21:03Z</time>
      </trkpt>
      <trkpt lat="43.60879" lon="7.05516">
        <ele>131.9</ele>
        <time>2012-09-16T15:21:06Z</time>
      </trkpt>
      <trkpt lat="43.60872" lon="7.0552">
        <ele>131.8</ele>
        <time>2012-09-16T15:21:08Z</time>
      </trkpt>
      <trkpt lat="43.60866" lon="7.05523">
        <ele>131.9</ele>
        <time>2012-09-16T15:21:10Z</time>
      </trkpt>
      <trkpt lat="43.60858" lon="7.0552">
        <ele>131.6</ele>
        <time>2012-09-16T15:21:13Z</time>
      </trkpt>
      <trkpt lat="43.60852" lon="7.05514">
        <ele>131.5</ele>
        <time>2012-09-16T15:21:15Z</time>
      </trkpt>
      <trkpt lat="43.60844" lon="7.05509">
        <ele>132</ele>
        <time>2012-09-16T15:21:18Z</time>
      </trkpt>
      <trkpt lat="43.60837" lon="7.05515">
        <ele>132.4</ele>
        <time>2012-09-16T15:21:24Z</time>
      </trkpt>
      <trkpt lat="43.60828" lon="7.05513">
        <ele>132.5</ele>
        <time>2012-09-16T15:21:34Z</time>
      </trkpt>
      <trkpt lat="43.60821" lon="7.05506">
        <ele>132.7</ele>
        <time>2012-09-16T15:21:37Z</time>
      </trkpt>
      <trkpt lat="43.60814" lon="7.05499">
        <ele>133</ele>
        <time>2012-09-16T15:21:41Z</time>
      </trkpt>
      <trkpt lat="43.60812" lon="7.05491">
        <ele>133</ele>
        <time>2012-09-16T15:21:43Z</time>
      </trkpt>
      <trkpt lat="43.60814" lon="7.05481">
        <ele>133.2</ele>
        <time>2012-09-16T15:21:45Z</time>
      </trkpt>
      <trkpt lat="43.60817" lon="7.05471">
        <ele>133</ele>
        <time>2012-09-16T15:21:47Z</time>
      </trkpt>
      <trkpt lat="43.60819" lon="7.05461">
        <ele>132.4</ele>
        <time>2012-09-16T15:21:49Z</time>
      </trkpt>
      <trkpt lat="43.60822" lon="7.0545">
        <ele>133.2</ele>
        <time>2012-09-16T15:21:51Z</time>
      </trkpt>
      <trkpt lat="43.60823" lon="7.0544">
        <ele>133.3</ele>
        <time>2012-09-16T15:21:53Z</time>
      </trkpt>
      <trkpt lat="43.60825" lon="7.05431">
        <ele>133</ele>
        <time>2012-09-16T15:21:55Z</time>
      </trkpt>
      <trkpt lat="43.60826" lon="7.05422">
        <ele>132.8</ele>
        <time>2012-09-16T15:21:57Z</time>
      </trkpt>
      <trkpt lat="43.60826" lon="7.05411">
        <ele>132.6</ele>
        <time>2012-09-16T15:22:00Z</time>
      </trkpt>
      <trkpt lat="43.6082" lon="7.05403">
        <ele>132.9</ele>
        <time>2012-09-16T15:22:04Z</time>
      </trkpt>
      <trkpt lat="43.60819" lon="7.054">
        <ele>133</ele>
        <time>2012-09-16T15:22:05Z</time>
      </trkpt>
      <trkpt lat="43.60814" lon="7.05382">
        <ele>134.4</ele>
        <time>2012-09-16T15:22:10Z</time>
      </trkpt>
      <trkpt lat="43.60811" lon="7.05373">
        <ele>134.4</ele>
        <time>2012-09-16T15:22:13Z</time>
      </trkpt>
      <trkpt lat="43.6081" lon="7.05362">
        <ele>134.9</ele>
        <time>2012-09-16T15:22:17Z</time>
      </trkpt>
      <trkpt lat="43.60807" lon="7.05352">
        <ele>135.3</ele>
        <time>2012-09-16T15:22:21Z</time>
      </trkpt>
      <trkpt lat="43.60801" lon="7.05346">
        <ele>135.3</ele>
        <time>2012-09-16T15:22:24Z</time>
      </trkpt>
      <trkpt lat="43.60796" lon="7.05337">
        <ele>135.9</ele>
        <time>2012-09-16T15:22:27Z</time>
      </trkpt>
      <trkpt lat="43.60792" lon="7.05329">
        <ele>136.3</ele>
        <time>2012-09-16T15:22:30Z</time>
      </trkpt>
      <trkpt lat="43.60789" lon="7.05319">
        <ele>136.3</ele>
        <time>2012-09-16T15:22:34Z</time>
      </trkpt>
      <trkpt lat="43.60786" lon="7.05307">
        <ele>137</ele>
        <time>2012-09-16T15:22:39Z</time>
      </trkpt>
      <trkpt lat="43.60784" lon="7.05296">
        <ele>138.6</ele>
        <time>2012-09-16T15:22:44Z</time>
      </trkpt>
      <trkpt lat="43.60784" lon="7.05284">
        <ele>139.2</ele>
        <time>2012-09-16T15:22:49Z</time>
      </trkpt>
      <trkpt lat="43.60784" lon="7.05272">
        <ele>141.1</ele>
        <time>2012-09-16T15:22:55Z</time>
      </trkpt>
      <trkpt lat="43.60782" lon="7.0526">
        <ele>141.5</ele>
        <time>2012-09-16T15:23:00Z</time>
      </trkpt>
      <trkpt lat="43.60784" lon="7.05249">
        <ele>142.7</ele>
        <time>2012-09-16T15:23:05Z</time>
      </trkpt>
      <trkpt lat="43.60784" lon="7.05246">
        <ele>143.2</ele>
        <time>2012-09-16T15:23:06Z</time>
      </trkpt>
      <trkpt lat="43.60783" lon="7.05226">
        <ele>145</ele>
        <time>2012-09-16T15:23:15Z</time>
      </trkpt>
      <trkpt lat="43.60782" lon="7.05215">
        <ele>146.5</ele>
        <time>2012-09-16T15:23:20Z</time>
      </trkpt>
      <trkpt lat="43.60779" lon="7.05205">
        <ele>147.6</ele>
        <time>2012-09-16T15:23:24Z</time>
      </trkpt>
      <trkpt lat="43.60777" lon="7.05193">
        <ele>147.5</ele>
        <time>2012-09-16T15:23:28Z</time>
      </trkpt>
      <trkpt lat="43.60775" lon="7.05182">
        <ele>147.4</ele>
        <time>2012-09-16T15:23:31Z</time>
      </trkpt>
      <trkpt lat="43.60773" lon="7.0517">
        <ele>148</ele>
        <time>2012-09-16T15:23:34Z</time>
      </trkpt>
      <trkpt lat="43.60771" lon="7.05162">
        <ele>148.2</ele>
        <time>2012-09-16T15:23:36Z</time>
      </trkpt>
      <trkpt lat="43.60768" lon="7.05152">
        <ele>148.5</ele>
        <time>2012-09-16T15:23:38Z</time>
      </trkpt>
      <trkpt lat="43.60765" lon="7.05143">
        <ele>148.5</ele>
        <time>2012-09-16T15:23:40Z</time>
      </trkpt>
      <trkpt lat="43.60762" lon="7.05134">
        <ele>148.3</ele>
        <time>2012-09-16T15:23:42Z</time>
      </trkpt>
      <trkpt lat="43.60759" lon="7.05126">
        <ele>148.2</ele>
        <time>2012-09-16T15:23:44Z</time>
      </trkpt>
      <trkpt lat="43.60755" lon="7.05118">
        <ele>148.4</ele>
        <time>2012-09-16T15:23:46Z</time>
      </trkpt>
      <trkpt lat="43.60753" lon="7.05108">
        <ele>148.7</ele>
        <time>2012-09-16T15:23:48Z</time>
      </trkpt>
      <trkpt lat="43.60752" lon="7.05097">
        <ele>148.8</ele>
        <time>2012-09-16T15:23:50Z</time>
      </trkpt>
      <trkpt lat="43.60751" lon="7.05087">
        <ele>149.2</ele>
        <time>2012-09-16T15:23:52Z</time>
      </trkpt>
      <trkpt lat="43.60751" lon="7.05075">
        <ele>148.9</ele>
        <time>2012-09-16T15:23:54Z</time>
      </trkpt>
      <trkpt lat="43.6075" lon="7.05064">
        <ele>148.9</ele>
        <time>2012-09-16T15:23:56Z</time>
      </trkpt>
      <trkpt lat="43.6075" lon="7.05053">
        <ele>148.9</ele>
        <time>2012-09-16T15:23:58Z</time>
      </trkpt>
      <trkpt lat="43.60749" lon="7.05042">
        <ele>149.1</ele>
        <time>2012-09-16T15:24:00Z</time>
      </trkpt>
      <trkpt lat="43.60747" lon="7.05032">
        <ele>149.5</ele>
        <time>2012-09-16T15:24:02Z</time>
      </trkpt>
      <trkpt lat="43.60744" lon="7.05022">
        <ele>149.6</ele>
        <time>2012-09-16T15:24:04Z</time>
      </trkpt>
      <trkpt lat="43.60741" lon="7.05012">
        <ele>149.7</ele>
        <time>2012-09-16T15:24:06Z</time>
      </trkpt>
      <trkpt lat="43.60742" lon="7.05007">
        <ele>149.7</ele>
        <time>2012-09-16T15:24:07Z</time>
      </trkpt>
      <trkpt lat="43.60746" lon="7.04993">
        <ele>149.3</ele>
        <time>2012-09-16T15:24:10Z</time>
      </trkpt>
      <trkpt lat="43.60747" lon="7.04984">
        <ele>149.7</ele>
        <time>2012-09-16T15:24:12Z</time>
      </trkpt>
      <trkpt lat="43.60746" lon="7.04975">
        <ele>150.2</ele>
        <time>2012-09-16T15:24:14Z</time>
      </trkpt>
      <trkpt lat="43.60743" lon="7.04966">
        <ele>151.1</ele>
        <time>2012-09-16T15:24:16Z</time>
      </trkpt>
      <trkpt lat="43.60741" lon="7.04955">
        <ele>151.4</ele>
        <time>2012-09-16T15:24:18Z</time>
      </trkpt>
      <trkpt lat="43.6074" lon="7.04944">
        <ele>151.3</ele>
        <time>2012-09-16T15:24:20Z</time>
      </trkpt>
      <trkpt lat="43.60742" lon="7.04933">
        <ele>151.2</ele>
        <time>2012-09-16T15:24:22Z</time>
      </trkpt>
      <trkpt lat="43.60745" lon="7.04925">
        <ele>151.4</ele>
        <time>2012-09-16T15:24:24Z</time>
      </trkpt>
      <trkpt lat="43.60748" lon="7.04914">
        <ele>152.1</ele>
        <time>2012-09-16T15:24:27Z</time>
      </trkpt>
      <trkpt lat="43.60751" lon="7.04903">
        <ele>152.3</ele>
        <time>2012-09-16T15:24:30Z</time>
      </trkpt>
      <trkpt lat="43.60755" lon="7.04896">
        <ele>152.9</ele>
        <time>2012-09-16T15:24:32Z</time>
      </trkpt>
      <trkpt lat="43.60758" lon="7.04888">
        <ele>153.4</ele>
        <time>2012-09-16T15:24:34Z</time>
      </trkpt>
      <trkpt lat="43.60762" lon="7.04881">
        <ele>154.1</ele>
        <time>2012-09-16T15:24:36Z</time>
      </trkpt>
      <trkpt lat="43.60763" lon="7.04871">
        <ele>154.6</ele>
        <time>2012-09-16T15:24:38Z</time>
      </trkpt>
      <trkpt lat="43.60766" lon="7.04861">
        <ele>154.9</ele>
        <time>2012-09-16T15:24:40Z</time>
      </trkpt>
      <trkpt lat="43.6077" lon="7.0485">
        <ele>154.7</ele>
        <time>2012-09-16T15:24:42Z</time>
      </trkpt>
      <trkpt lat="43.60772" lon="7.04839">
        <ele>155.1</ele>
        <time>2012-09-16T15:24:44Z</time>
      </trkpt>
      <trkpt lat="43.60774" lon="7.04828">
        <ele>154.6</ele>
        <time>2012-09-16T15:24:46Z</time>
      </trkpt>
      <trkpt lat="43.60775" lon="7.04817">
        <ele>154.5</ele>
        <time>2012-09-16T15:24:48Z</time>
      </trkpt>
      <trkpt lat="43.60777" lon="7.04806">
        <ele>154.7</ele>
        <time>2012-09-16T15:24:50Z</time>
      </trkpt>
      <trkpt lat="43.60779" lon="7.04796">
        <ele>154.9</ele>
        <time>2012-09-16T15:24:52Z</time>
      </trkpt>
      <trkpt lat="43.60784" lon="7.04787">
        <ele>155.6</ele>
        <time>2012-09-16T15:24:55Z</time>
      </trkpt>
      <trkpt lat="43.60788" lon="7.04779">
        <ele>156.3</ele>
        <time>2012-09-16T15:24:58Z</time>
      </trkpt>
      <trkpt lat="43.60793" lon="7.04769">
        <ele>157.2</ele>
        <time>2012-09-16T15:25:01Z</time>
      </trkpt>
      <trkpt lat="43.60799" lon="7.04761">
        <ele>157.4</ele>
        <time>2012-09-16T15:25:04Z</time>
      </trkpt>
      <trkpt lat="43.60803" lon="7.04751">
        <ele>157.3</ele>
        <time>2012-09-16T15:25:07Z</time>
      </trkpt>
      <trkpt lat="43.60804" lon="7.04748">
        <ele>157.2</ele>
        <time>2012-09-16T15:25:08Z</time>
      </trkpt>
      <trkpt lat="43.60802" lon="7.04731">
        <ele>158.3</ele>
        <time>2012-09-16T15:25:13Z</time>
      </trkpt>
      <trkpt lat="43.60799" lon="7.0472">
        <ele>158.8</ele>
        <time>2012-09-16T15:25:16Z</time>
      </trkpt>
      <trkpt lat="43.60797" lon="7.04711">
        <ele>159.2</ele>
        <time>2012-09-16T15:25:18Z</time>
      </trkpt>
      <trkpt lat="43.60795" lon="7.047">
        <ele>158</ele>
        <time>2012-09-16T15:25:20Z</time>
      </trkpt>
      <trkpt lat="43.60792" lon="7.0469">
        <ele>158</ele>
        <time>2012-09-16T15:25:22Z</time>
      </trkpt>
      <trkpt lat="43.6079" lon="7.0468">
        <ele>157.9</ele>
        <time>2012-09-16T15:25:24Z</time>
      </trkpt>
      <trkpt lat="43.60789" lon="7.0467">
        <ele>158.1</ele>
        <time>2012-09-16T15:25:26Z</time>
      </trkpt>
      <trkpt lat="43.60786" lon="7.0466">
        <ele>158.7</ele>
        <time>2012-09-16T15:25:28Z</time>
      </trkpt>
      <trkpt lat="43.60785" lon="7.0465">
        <ele>159.1</ele>
        <time>2012-09-16T15:25:30Z</time>
      </trkpt>
      <trkpt lat="43.60784" lon="7.04638">
        <ele>159.5</ele>
        <time>2012-09-16T15:25:33Z</time>
      </trkpt>
      <trkpt lat="43.6078" lon="7.04627">
        <ele>159.7</ele>
        <time>2012-09-16T15:25:36Z</time>
      </trkpt>
      <trkpt lat="43.60776" lon="7.04619">
        <ele>160.1</ele>
        <time>2012-09-16T15:25:38Z</time>
      </trkpt>
      <trkpt lat="43.60772" lon="7.04613">
        <ele>160.5</ele>
        <time>2012-09-16T15:25:40Z</time>
      </trkpt>
      <trkpt lat="43.60768" lon="7.04606">
        <ele>160.7</ele>
        <time>2012-09-16T15:25:42Z</time>
      </trkpt>
      <trkpt lat="43.60765" lon="7.04596">
        <ele>161</ele>
        <time>2012-09-16T15:25:45Z</time>
      </trkpt>
      <trkpt lat="43.60761" lon="7.04587">
        <ele>160.7</ele>
        <time>2012-09-16T15:25:48Z</time>
      </trkpt>
      <trkpt lat="43.60757" lon="7.04581">
        <ele>160.8</ele>
        <time>2012-09-16T15:25:50Z</time>
      </trkpt>
      <trkpt lat="43.60751" lon="7.04576">
        <ele>161.2</ele>
        <time>2012-09-16T15:25:52Z</time>
      </trkpt>
      <trkpt lat="43.60744" lon="7.04576">
        <ele>161.5</ele>
        <time>2012-09-16T15:25:54Z</time>
      </trkpt>
      <trkpt lat="43.60737" lon="7.04575">
        <ele>161.7</ele>
        <time>2012-09-16T15:25:56Z</time>
      </trkpt>
      <trkpt lat="43.6073" lon="7.04573">
        <ele>162.3</ele>
        <time>2012-09-16T15:25:58Z</time>
      </trkpt>
      <trkpt lat="43.60724" lon="7.04568">
        <ele>162.5</ele>
        <time>2012-09-16T15:26:00Z</time>
      </trkpt>
      <trkpt lat="43.60723" lon="7.04561">
        <ele>162.7</ele>
        <time>2012-09-16T15:26:02Z</time>
      </trkpt>
      <trkpt lat="43.60722" lon="7.04551">
        <ele>162.9</ele>
        <time>2012-09-16T15:26:04Z</time>
      </trkpt>
      <trkpt lat="43.60721" lon="7.04543">
        <ele>163</ele>
        <time>2012-09-16T15:26:06Z</time>
      </trkpt>
      <trkpt lat="43.60717" lon="7.04535">
        <ele>162.8</ele>
        <time>2012-09-16T15:26:08Z</time>
      </trkpt>
      <trkpt lat="43.60716" lon="7.04531">
        <ele>162.7</ele>
        <time>2012-09-16T15:26:09Z</time>
      </trkpt>
      <trkpt lat="43.60705" lon="7.0452">
        <ele>163.9</ele>
        <time>2012-09-16T15:28:28Z</time>
      </trkpt>
      <trkpt lat="43.60705" lon="7.0452">
        <ele>163.8</ele>
        <time>2012-09-16T15:28:29Z</time>
      </trkpt>
      <trkpt lat="43.60714" lon="7.04524">
        <ele>163.4</ele>
        <time>2012-09-16T15:30:20Z</time>
      </trkpt>
      <trkpt lat="43.60706" lon="7.04516">
        <ele>164.1</ele>
        <time>2012-09-16T15:33:26Z</time>
      </trkpt>
      <trkpt lat="43.60692" lon="7.04513">
        <ele>164.2</ele>
        <time>2012-09-16T15:33:35Z</time>
      </trkpt>
      <trkpt lat="43.60687" lon="7.04504">
        <ele>164.3</ele>
        <time>2012-09-16T15:33:39Z</time>
      </trkpt>
      <trkpt lat="43.60681" lon="7.04499">
        <ele>165</ele>
        <time>2012-09-16T15:33:42Z</time>
      </trkpt>
      <trkpt lat="43.60674" lon="7.04492">
        <ele>165.2</ele>
        <time>2012-09-16T15:33:46Z</time>
      </trkpt>
      <trkpt lat="43.60668" lon="7.04485">
        <ele>165.5</ele>
        <time>2012-09-16T15:33:50Z</time>
      </trkpt>
      <trkpt lat="43.60661" lon="7.04478">
        <ele>166.7</ele>
        <time>2012-09-16T15:33:54Z</time>
      </trkpt>
      <trkpt lat="43.60656" lon="7.04469">
        <ele>167.4</ele>
        <time>2012-09-16T15:33:58Z</time>
      </trkpt>
      <trkpt lat="43.60651" lon="7.04459">
        <ele>167.7</ele>
        <time>2012-09-16T15:34:02Z</time>
      </trkpt>
      <trkpt lat="43.60647" lon="7.04449">
        <ele>168.2</ele>
        <time>2012-09-16T15:34:05Z</time>
      </trkpt>
      <trkpt lat="43.60643" lon="7.04438">
        <ele>167.9</ele>
        <time>2012-09-16T15:34:08Z</time>
      </trkpt>
      <trkpt lat="43.6064" lon="7.04428">
        <ele>168.5</ele>
        <time>2012-09-16T15:34:11Z</time>
      </trkpt>
      <trkpt lat="43.60635" lon="7.04418">
        <ele>168.3</ele>
        <time>2012-09-16T15:34:14Z</time>
      </trkpt>
      <trkpt lat="43.60631" lon="7.04411">
        <ele>168.7</ele>
        <time>2012-09-16T15:34:17Z</time>
      </trkpt>
      <trkpt lat="43.60627" lon="7.04401">
        <ele>169.2</ele>
        <time>2012-09-16T15:34:20Z</time>
      </trkpt>
      <trkpt lat="43.60623" lon="7.04391">
        <ele>169.8</ele>
        <time>2012-09-16T15:34:23Z</time>
      </trkpt>
      <trkpt lat="43.60621" lon="7.04382">
        <ele>169.9</ele>
        <time>2012-09-16T15:34:26Z</time>
      </trkpt>
      <trkpt lat="43.6062" lon="7.0438">
        <ele>170</ele>
        <time>2012-09-16T15:34:27Z</time>
      </trkpt>
      <trkpt lat="43.60614" lon="7.04361">
        <ele>171</ele>
        <time>2012-09-16T15:34:35Z</time>
      </trkpt>
      <trkpt lat="43.6061" lon="7.04354">
        <ele>171.6</ele>
        <time>2012-09-16T15:34:38Z</time>
      </trkpt>
      <trkpt lat="43.60606" lon="7.04346">
        <ele>172.4</ele>
        <time>2012-09-16T15:34:41Z</time>
      </trkpt>
      <trkpt lat="43.60602" lon="7.04336">
        <ele>173.4</ele>
        <time>2012-09-16T15:34:45Z</time>
      </trkpt>
      <trkpt lat="43.60597" lon="7.0433">
        <ele>173.7</ele>
        <time>2012-09-16T15:34:48Z</time>
      </trkpt>
      <trkpt lat="43.60599" lon="7.04319">
        <ele>174.3</ele>
        <time>2012-09-16T15:34:53Z</time>
      </trkpt>
      <trkpt lat="43.60607" lon="7.04324">
        <ele>176.3</ele>
        <time>2012-09-16T15:35:02Z</time>
      </trkpt>
      <trkpt lat="43.60612" lon="7.04332">
        <ele>177.2</ele>
        <time>2012-09-16T15:35:08Z</time>
      </trkpt>
      <trkpt lat="43.60618" lon="7.04341">
        <ele>177.5</ele>
        <time>2012-09-16T15:35:14Z</time>
      </trkpt>
      <trkpt lat="43.60626" lon="7.04345">
        <ele>178.9</ele>
        <time>2012-09-16T15:35:20Z</time>
      </trkpt>
      <trkpt lat="43.60628" lon="7.04334">
        <ele>181.9</ele>
        <time>2012-09-16T15:35:33Z</time>
      </trkpt>
      <trkpt lat="43.60629" lon="7.04332">
        <ele>182.1</ele>
        <time>2012-09-16T15:35:34Z</time>
      </trkpt>
      <trkpt lat="43.60634" lon="7.04315">
        <ele>183.8</ele>
        <time>2012-09-16T15:35:43Z</time>
      </trkpt>
      <trkpt lat="43.60638" lon="7.04305">
        <ele>184.1</ele>
        <time>2012-09-16T15:35:47Z</time>
      </trkpt>
      <trkpt lat="43.60643" lon="7.04296">
        <ele>184.8</ele>
        <time>2012-09-16T15:35:51Z</time>
      </trkpt>
      <trkpt lat="43.60646" lon="7.04286">
        <ele>185.4</ele>
        <time>2012-09-16T15:35:54Z</time>
      </trkpt>
      <trkpt lat="43.60647" lon="7.04274">
        <ele>185.5</ele>
        <time>2012-09-16T15:35:57Z</time>
      </trkpt>
      <trkpt lat="43.60648" lon="7.04263">
        <ele>185.8</ele>
        <time>2012-09-16T15:36:01Z</time>
      </trkpt>
      <trkpt lat="43.60656" lon="7.04265">
        <ele>187.2</ele>
        <time>2012-09-16T15:36:06Z</time>
      </trkpt>
      <trkpt lat="43.60661" lon="7.04274">
        <ele>187.9</ele>
        <time>2012-09-16T15:36:10Z</time>
      </trkpt>
      <trkpt lat="43.60664" lon="7.04284">
        <ele>189.2</ele>
        <time>2012-09-16T15:36:15Z</time>
      </trkpt>
      <trkpt lat="43.60671" lon="7.04278">
        <ele>191.5</ele>
        <time>2012-09-16T15:36:22Z</time>
      </trkpt>
      <trkpt lat="43.60672" lon="7.04269">
        <ele>191.5</ele>
        <time>2012-09-16T15:36:25Z</time>
      </trkpt>
      <trkpt lat="43.60671" lon="7.0426">
        <ele>192.3</ele>
        <time>2012-09-16T15:36:27Z</time>
      </trkpt>
      <trkpt lat="43.60671" lon="7.04252">
        <ele>192.4</ele>
        <time>2012-09-16T15:36:29Z</time>
      </trkpt>
      <trkpt lat="43.6067" lon="7.04242">
        <ele>192.2</ele>
        <time>2012-09-16T15:36:32Z</time>
      </trkpt>
      <trkpt lat="43.60667" lon="7.04232">
        <ele>193.3</ele>
        <time>2012-09-16T15:36:35Z</time>
      </trkpt>
      <trkpt lat="43.60666" lon="7.04228">
        <ele>193.4</ele>
        <time>2012-09-16T15:36:36Z</time>
      </trkpt>
      <trkpt lat="43.60659" lon="7.04214">
        <ele>193.9</ele>
        <time>2012-09-16T15:36:40Z</time>
      </trkpt>
      <trkpt lat="43.60655" lon="7.04207">
        <ele>193.8</ele>
        <time>2012-09-16T15:36:42Z</time>
      </trkpt>
      <trkpt lat="43.60649" lon="7.04204">
        <ele>193.8</ele>
        <time>2012-09-16T15:36:44Z</time>
      </trkpt>
      <trkpt lat="43.60642" lon="7.04202">
        <ele>193.7</ele>
        <time>2012-09-16T15:36:46Z</time>
      </trkpt>
      <trkpt lat="43.60636" lon="7.04196">
        <ele>193.1</ele>
        <time>2012-09-16T15:36:48Z</time>
      </trkpt>
      <trkpt lat="43.60632" lon="7.04188">
        <ele>192.1</ele>
        <time>2012-09-16T15:36:50Z</time>
      </trkpt>
      <trkpt lat="43.60629" lon="7.04178">
        <ele>191.7</ele>
        <time>2012-09-16T15:36:52Z</time>
      </trkpt>
      <trkpt lat="43.60626" lon="7.0417">
        <ele>191.8</ele>
        <time>2012-09-16T15:36:54Z</time>
      </trkpt>
      <trkpt lat="43.6062" lon="7.04163">
        <ele>191.7</ele>
        <time>2012-09-16T15:36:56Z</time>
      </trkpt>
      <trkpt lat="43.60616" lon="7.04153">
        <ele>191.3</ele>
        <time>2012-09-16T15:36:58Z</time>
      </trkpt>
      <trkpt lat="43.60615" lon="7.04141">
        <ele>191.1</ele>
        <time>2012-09-16T15:37:00Z</time>
      </trkpt>
      <trkpt lat="43.60617" lon="7.04131">
        <ele>191.1</ele>
        <time>2012-09-16T15:37:02Z</time>
      </trkpt>
      <trkpt lat="43.6062" lon="7.04122">
        <ele>190.7</ele>
        <time>2012-09-16T15:37:04Z</time>
      </trkpt>
      <trkpt lat="43.60624" lon="7.04113">
        <ele>190.1</ele>
        <time>2012-09-16T15:37:06Z</time>
      </trkpt>
      <trkpt lat="43.60628" lon="7.04106">
        <ele>190</ele>
        <time>2012-09-16T15:37:08Z</time>
      </trkpt>
      <trkpt lat="43.60626" lon="7.04094">
        <ele>190</ele>
        <time>2012-09-16T15:37:11Z</time>
      </trkpt>
      <trkpt lat="43.60622" lon="7.04086">
        <ele>189.9</ele>
        <time>2012-09-16T15:37:13Z</time>
      </trkpt>
      <trkpt lat="43.60617" lon="7.04078">
        <ele>189.8</ele>
        <time>2012-09-16T15:37:15Z</time>
      </trkpt>
      <trkpt lat="43.60616" lon="7.04068">
        <ele>189.6</ele>
        <time>2012-09-16T15:37:18Z</time>
      </trkpt>
      <trkpt lat="43.6062" lon="7.04059">
        <ele>188.9</ele>
        <time>2012-09-16T15:37:21Z</time>
      </trkpt>
      <trkpt lat="43.60625" lon="7.04055">
        <ele>189</ele>
        <time>2012-09-16T15:37:23Z</time>
      </trkpt>
      <trkpt lat="43.60632" lon="7.0405">
        <ele>189.8</ele>
        <time>2012-09-16T15:37:25Z</time>
      </trkpt>
      <trkpt lat="43.60637" lon="7.04042">
        <ele>190.4</ele>
        <time>2012-09-16T15:37:27Z</time>
      </trkpt>
      <trkpt lat="43.60639" lon="7.04033">
        <ele>190.6</ele>
        <time>2012-09-16T15:37:29Z</time>
      </trkpt>
      <trkpt lat="43.60643" lon="7.04024">
        <ele>190.8</ele>
        <time>2012-09-16T15:37:31Z</time>
      </trkpt>
      <trkpt lat="43.60647" lon="7.04016">
        <ele>190.7</ele>
        <time>2012-09-16T15:37:33Z</time>
      </trkpt>
      <trkpt lat="43.60651" lon="7.04009">
        <ele>190.8</ele>
        <time>2012-09-16T15:37:35Z</time>
      </trkpt>
      <trkpt lat="43.60656" lon="7.04003">
        <ele>190.7</ele>
        <time>2012-09-16T15:37:37Z</time>
      </trkpt>
      <trkpt lat="43.60658" lon="7.04">
        <ele>190.5</ele>
        <time>2012-09-16T15:37:38Z</time>
      </trkpt>
      <trkpt lat="43.60664" lon="7.03989">
        <ele>190.6</ele>
        <time>2012-09-16T15:37:41Z</time>
      </trkpt>
      <trkpt lat="43.60666" lon="7.0398">
        <ele>191.5</ele>
        <time>2012-09-16T15:37:43Z</time>
      </trkpt>
      <trkpt lat="43.60666" lon="7.0397">
        <ele>191.3</ele>
        <time>2012-09-16T15:37:45Z</time>
      </trkpt>
      <trkpt lat="43.60666" lon="7.0396">
        <ele>191.7</ele>
        <time>2012-09-16T15:37:47Z</time>
      </trkpt>
      <trkpt lat="43.60667" lon="7.0395">
        <ele>192</ele>
        <time>2012-09-16T15:37:49Z</time>
      </trkpt>
      <trkpt lat="43.6067" lon="7.03939">
        <ele>192.4</ele>
        <time>2012-09-16T15:37:51Z</time>
      </trkpt>
      <trkpt lat="43.60674" lon="7.0393">
        <ele>192.3</ele>
        <time>2012-09-16T15:37:53Z</time>
      </trkpt>
      <trkpt lat="43.60677" lon="7.03922">
        <ele>192.1</ele>
        <time>2012-09-16T15:37:55Z</time>
      </trkpt>
      <trkpt lat="43.60681" lon="7.03914">
        <ele>192</ele>
        <time>2012-09-16T15:37:57Z</time>
      </trkpt>
      <trkpt lat="43.60686" lon="7.03905">
        <ele>192.2</ele>
        <time>2012-09-16T15:37:59Z</time>
      </trkpt>
      <trkpt lat="43.60691" lon="7.03898">
        <ele>191.7</ele>
        <time>2012-09-16T15:38:01Z</time>
      </trkpt>
      <trkpt lat="43.60692" lon="7.03886">
        <ele>192.1</ele>
        <time>2012-09-16T15:38:04Z</time>
      </trkpt>
      <trkpt lat="43.60684" lon="7.03883">
        <ele>193.4</ele>
        <time>2012-09-16T15:38:09Z</time>
      </trkpt>
      <trkpt lat="43.60677" lon="7.03879">
        <ele>194.7</ele>
        <time>2012-09-16T15:38:13Z</time>
      </trkpt>
      <trkpt lat="43.6067" lon="7.03876">
        <ele>195.9</ele>
        <time>2012-09-16T15:38:16Z</time>
      </trkpt>
      <trkpt lat="43.60664" lon="7.03877">
        <ele>196.8</ele>
        <time>2012-09-16T15:38:19Z</time>
      </trkpt>
      <trkpt lat="43.60657" lon="7.03879">
        <ele>197.9</ele>
        <time>2012-09-16T15:38:22Z</time>
      </trkpt>
      <trkpt lat="43.60649" lon="7.0388">
        <ele>198.4</ele>
        <time>2012-09-16T15:38:25Z</time>
      </trkpt>
      <trkpt lat="43.60642" lon="7.03876">
        <ele>199.3</ele>
        <time>2012-09-16T15:38:28Z</time>
      </trkpt>
      <trkpt lat="43.60634" lon="7.03875">
        <ele>199.4</ele>
        <time>2012-09-16T15:38:31Z</time>
      </trkpt>
      <trkpt lat="43.60627" lon="7.03876">
        <ele>199.5</ele>
        <time>2012-09-16T15:38:34Z</time>
      </trkpt>
      <trkpt lat="43.60619" lon="7.03878">
        <ele>199.9</ele>
        <time>2012-09-16T15:38:37Z</time>
      </trkpt>
      <trkpt lat="43.60611" lon="7.03879">
        <ele>200.4</ele>
        <time>2012-09-16T15:38:40Z</time>
      </trkpt>
      <trkpt lat="43.60608" lon="7.03879">
        <ele>200.9</ele>
        <time>2012-09-16T15:38:41Z</time>
      </trkpt>
      <trkpt lat="43.60595" lon="7.0387">
        <ele>201.5</ele>
        <time>2012-09-16T15:38:46Z</time>
      </trkpt>
      <trkpt lat="43.60589" lon="7.03864">
        <ele>202.1</ele>
        <time>2012-09-16T15:38:49Z</time>
      </trkpt>
      <trkpt lat="43.60582" lon="7.03858">
        <ele>203</ele>
        <time>2012-09-16T15:38:52Z</time>
      </trkpt>
      <trkpt lat="43.60577" lon="7.03848">
        <ele>203.4</ele>
        <time>2012-09-16T15:38:55Z</time>
      </trkpt>
      <trkpt lat="43.60574" lon="7.03838">
        <ele>204.2</ele>
        <time>2012-09-16T15:38:58Z</time>
      </trkpt>
      <trkpt lat="43.60571" lon="7.03828">
        <ele>204.2</ele>
        <time>2012-09-16T15:39:01Z</time>
      </trkpt>
      <trkpt lat="43.60569" lon="7.03819">
        <ele>205.1</ele>
        <time>2012-09-16T15:39:04Z</time>
      </trkpt>
      <trkpt lat="43.60569" lon="7.03808">
        <ele>205.5</ele>
        <time>2012-09-16T15:39:07Z</time>
      </trkpt>
      <trkpt lat="43.60569" lon="7.03796">
        <ele>205.8</ele>
        <time>2012-09-16T15:39:10Z</time>
      </trkpt>
      <trkpt lat="43.60563" lon="7.03788">
        <ele>205.8</ele>
        <time>2012-09-16T15:39:13Z</time>
      </trkpt>
      <trkpt lat="43.60562" lon="7.03777">
        <ele>206</ele>
        <time>2012-09-16T15:39:16Z</time>
      </trkpt>
      <trkpt lat="43.60557" lon="7.0377">
        <ele>206.1</ele>
        <time>2012-09-16T15:39:18Z</time>
      </trkpt>
      <trkpt lat="43.60552" lon="7.03763">
        <ele>206.7</ele>
        <time>2012-09-16T15:39:21Z</time>
      </trkpt>
      <trkpt lat="43.60546" lon="7.03758">
        <ele>207</ele>
        <time>2012-09-16T15:39:24Z</time>
      </trkpt>
      <trkpt lat="43.60541" lon="7.03751">
        <ele>207.8</ele>
        <time>2012-09-16T15:39:27Z</time>
      </trkpt>
      <trkpt lat="43.60535" lon="7.03744">
        <ele>208.9</ele>
        <time>2012-09-16T15:39:30Z</time>
      </trkpt>
      <trkpt lat="43.60528" lon="7.03736">
        <ele>209.5</ele>
        <time>2012-09-16T15:39:33Z</time>
      </trkpt>
      <trkpt lat="43.60521" lon="7.03728">
        <ele>209.4</ele>
        <time>2012-09-16T15:39:36Z</time>
      </trkpt>
      <trkpt lat="43.60515" lon="7.03722">
        <ele>209.8</ele>
        <time>2012-09-16T15:39:39Z</time>
      </trkpt>
      <trkpt lat="43.60507" lon="7.03717">
        <ele>209.3</ele>
        <time>2012-09-16T15:39:42Z</time>
      </trkpt>
      <trkpt lat="43.60504" lon="7.03717">
        <ele>209.8</ele>
        <time>2012-09-16T15:39:43Z</time>
      </trkpt>
      <trkpt lat="43.60494" lon="7.03717">
        <ele>210.5</ele>
        <time>2012-09-16T15:39:46Z</time>
      </trkpt>
      <trkpt lat="43.60488" lon="7.03716">
        <ele>210.6</ele>
        <time>2012-09-16T15:39:48Z</time>
      </trkpt>
      <trkpt lat="43.60482" lon="7.03713">
        <ele>210.8</ele>
        <time>2012-09-16T15:39:50Z</time>
      </trkpt>
      <trkpt lat="43.60477" lon="7.03708">
        <ele>211.2</ele>
        <time>2012-09-16T15:39:52Z</time>
      </trkpt>
      <trkpt lat="43.60473" lon="7.03702">
        <ele>211.6</ele>
        <time>2012-09-16T15:39:54Z</time>
      </trkpt>
      <trkpt lat="43.60468" lon="7.03691">
        <ele>211.9</ele>
        <time>2012-09-16T15:39:57Z</time>
      </trkpt>
      <trkpt lat="43.60465" lon="7.03684">
        <ele>212</ele>
        <time>2012-09-16T15:39:59Z</time>
      </trkpt>
      <trkpt lat="43.60464" lon="7.03675">
        <ele>212.2</ele>
        <time>2012-09-16T15:40:01Z</time>
      </trkpt>
      <trkpt lat="43.60463" lon="7.03666">
        <ele>213.1</ele>
        <time>2012-09-16T15:40:03Z</time>
      </trkpt>
      <trkpt lat="43.60463" lon="7.03657">
        <ele>213.7</ele>
        <time>2012-09-16T15:40:05Z</time>
      </trkpt>
      <trkpt lat="43.60462" lon="7.03648">
        <ele>213.8</ele>
        <time>2012-09-16T15:40:07Z</time>
      </trkpt>
      <trkpt lat="43.60462" lon="7.03639">
        <ele>214.3</ele>
        <time>2012-09-16T15:40:09Z</time>
      </trkpt>
      <trkpt lat="43.60463" lon="7.0363">
        <ele>215.3</ele>
        <time>2012-09-16T15:40:11Z</time>
      </trkpt>
      <trkpt lat="43.60465" lon="7.0362">
        <ele>215.8</ele>
        <time>2012-09-16T15:40:13Z</time>
      </trkpt>
      <trkpt lat="43.60467" lon="7.03611">
        <ele>215.9</ele>
        <time>2012-09-16T15:40:15Z</time>
      </trkpt>
      <trkpt lat="43.60469" lon="7.03601">
        <ele>215.5</ele>
        <time>2012-09-16T15:40:17Z</time>
      </trkpt>
      <trkpt lat="43.60471" lon="7.03591">
        <ele>215.8</ele>
        <time>2012-09-16T15:40:19Z</time>
      </trkpt>
      <trkpt lat="43.60472" lon="7.03581">
        <ele>215.7</ele>
        <time>2012-09-16T15:40:21Z</time>
      </trkpt>
      <trkpt lat="43.60473" lon="7.03572">
        <ele>216.3</ele>
        <time>2012-09-16T15:40:23Z</time>
      </trkpt>
      <trkpt lat="43.60473" lon="7.03561">
        <ele>217.2</ele>
        <time>2012-09-16T15:40:26Z</time>
      </trkpt>
      <trkpt lat="43.60472" lon="7.0355">
        <ele>217.5</ele>
        <time>2012-09-16T15:40:29Z</time>
      </trkpt>
      <trkpt lat="43.60471" lon="7.03539">
        <ele>218.8</ele>
        <time>2012-09-16T15:40:32Z</time>
      </trkpt>
      <trkpt lat="43.60469" lon="7.03527">
        <ele>219.3</ele>
        <time>2012-09-16T15:40:35Z</time>
      </trkpt>
      <trkpt lat="43.60469" lon="7.03515">
        <ele>219.7</ele>
        <time>2012-09-16T15:40:38Z</time>
      </trkpt>
      <trkpt lat="43.60469" lon="7.03504">
        <ele>220.6</ele>
        <time>2012-09-16T15:40:41Z</time>
      </trkpt>
      <trkpt lat="43.60469" lon="7.03492">
        <ele>220.5</ele>
        <time>2012-09-16T15:40:44Z</time>
      </trkpt>
      <trkpt lat="43.60469" lon="7.03487">
        <ele>220.6</ele>
        <time>2012-09-16T15:40:45Z</time>
      </trkpt>
      <trkpt lat="43.60469" lon="7.03468">
        <ele>222</ele>
        <time>2012-09-16T15:40:50Z</time>
      </trkpt>
      <trkpt lat="43.60469" lon="7.03458">
        <ele>222</ele>
        <time>2012-09-16T15:40:53Z</time>
      </trkpt>
      <trkpt lat="43.60469" lon="7.03445">
        <ele>223.3</ele>
        <time>2012-09-16T15:40:56Z</time>
      </trkpt>
      <trkpt lat="43.60469" lon="7.03437">
        <ele>223.9</ele>
        <time>2012-09-16T15:40:58Z</time>
      </trkpt>
      <trkpt lat="43.60469" lon="7.03425">
        <ele>224.7</ele>
        <time>2012-09-16T15:41:01Z</time>
      </trkpt>
      <trkpt lat="43.6047" lon="7.03413">
        <ele>225.1</ele>
        <time>2012-09-16T15:41:04Z</time>
      </trkpt>
      <trkpt lat="43.60468" lon="7.03402">
        <ele>226</ele>
        <time>2012-09-16T15:41:07Z</time>
      </trkpt>
      <trkpt lat="43.60462" lon="7.03394">
        <ele>226.4</ele>
        <time>2012-09-16T15:41:10Z</time>
      </trkpt>
      <trkpt lat="43.60457" lon="7.0339">
        <ele>226.5</ele>
        <time>2012-09-16T15:41:12Z</time>
      </trkpt>
      <trkpt lat="43.60451" lon="7.03385">
        <ele>227.5</ele>
        <time>2012-09-16T15:41:14Z</time>
      </trkpt>
      <trkpt lat="43.60444" lon="7.03378">
        <ele>229.2</ele>
        <time>2012-09-16T15:41:17Z</time>
      </trkpt>
      <trkpt lat="43.60437" lon="7.0337">
        <ele>230.5</ele>
        <time>2012-09-16T15:41:21Z</time>
      </trkpt>
      <trkpt lat="43.60431" lon="7.03365">
        <ele>231.4</ele>
        <time>2012-09-16T15:41:24Z</time>
      </trkpt>
      <trkpt lat="43.60423" lon="7.03362">
        <ele>232.6</ele>
        <time>2012-09-16T15:41:27Z</time>
      </trkpt>
      <trkpt lat="43.60414" lon="7.03358">
        <ele>233.3</ele>
        <time>2012-09-16T15:41:30Z</time>
      </trkpt>
      <trkpt lat="43.60407" lon="7.03358">
        <ele>234.1</ele>
        <time>2012-09-16T15:41:33Z</time>
      </trkpt>
      <trkpt lat="43.60398" lon="7.03358">
        <ele>234.8</ele>
        <time>2012-09-16T15:41:37Z</time>
      </trkpt>
      <trkpt lat="43.60389" lon="7.03357">
        <ele>234.3</ele>
        <time>2012-09-16T15:41:44Z</time>
      </trkpt>
      <trkpt lat="43.60386" lon="7.03366">
        <ele>234.2</ele>
        <time>2012-09-16T15:41:50Z</time>
      </trkpt>
      <trkpt lat="43.60384" lon="7.03369">
        <ele>233.7</ele>
        <time>2012-09-16T15:41:51Z</time>
      </trkpt>
      <trkpt lat="43.60379" lon="7.03384">
        <ele>232.6</ele>
        <time>2012-09-16T15:41:54Z</time>
      </trkpt>
      <trkpt lat="43.6038" lon="7.0339">
        <ele>231.9</ele>
        <time>2012-09-16T15:41:55Z</time>
      </trkpt>
      <trkpt lat="43.60381" lon="7.03397">
        <ele>231.4</ele>
        <time>2012-09-16T15:41:56Z</time>
      </trkpt>
      <trkpt lat="43.60382" lon="7.03403">
        <ele>231.1</ele>
        <time>2012-09-16T15:41:57Z</time>
      </trkpt>
      <trkpt lat="43.60381" lon="7.03413">
        <ele>230.1</ele>
        <time>2012-09-16T15:41:59Z</time>
      </trkpt>
      <trkpt lat="43.60373" lon="7.03419">
        <ele>226.3</ele>
        <time>2012-09-16T15:42:07Z</time>
      </trkpt>
      <trkpt lat="43.60367" lon="7.03423">
        <ele>225.9</ele>
        <time>2012-09-16T15:42:10Z</time>
      </trkpt>
      <trkpt lat="43.60361" lon="7.03425">
        <ele>225.6</ele>
        <time>2012-09-16T15:42:12Z</time>
      </trkpt>
      <trkpt lat="43.60354" lon="7.03426">
        <ele>224.9</ele>
        <time>2012-09-16T15:42:15Z</time>
      </trkpt>
      <trkpt lat="43.60352" lon="7.03435">
        <ele>224.4</ele>
        <time>2012-09-16T15:42:17Z</time>
      </trkpt>
      <trkpt lat="43.60352" lon="7.03441">
        <ele>224.2</ele>
        <time>2012-09-16T15:42:18Z</time>
      </trkpt>
      <trkpt lat="43.60352" lon="7.03448">
        <ele>223.7</ele>
        <time>2012-09-16T15:42:19Z</time>
      </trkpt>
      <trkpt lat="43.60351" lon="7.03455">
        <ele>223.3</ele>
        <time>2012-09-16T15:42:20Z</time>
      </trkpt>
      <trkpt lat="43.60349" lon="7.03466">
        <ele>222.2</ele>
        <time>2012-09-16T15:42:22Z</time>
      </trkpt>
      <trkpt lat="43.60344" lon="7.03473">
        <ele>221.1</ele>
        <time>2012-09-16T15:42:24Z</time>
      </trkpt>
      <trkpt lat="43.60339" lon="7.03482">
        <ele>219.9</ele>
        <time>2012-09-16T15:42:26Z</time>
      </trkpt>
      <trkpt lat="43.60332" lon="7.03487">
        <ele>218.8</ele>
        <time>2012-09-16T15:42:28Z</time>
      </trkpt>
      <trkpt lat="43.60328" lon="7.03491">
        <ele>218</ele>
        <time>2012-09-16T15:42:29Z</time>
      </trkpt>
      <trkpt lat="43.60324" lon="7.03494">
        <ele>217.4</ele>
        <time>2012-09-16T15:42:30Z</time>
      </trkpt>
      <trkpt lat="43.60319" lon="7.03498">
        <ele>216.9</ele>
        <time>2012-09-16T15:42:31Z</time>
      </trkpt>
      <trkpt lat="43.60315" lon="7.03502">
        <ele>216.6</ele>
        <time>2012-09-16T15:42:32Z</time>
      </trkpt>
      <trkpt lat="43.6031" lon="7.03506">
        <ele>216.3</ele>
        <time>2012-09-16T15:42:33Z</time>
      </trkpt>
      <trkpt lat="43.60306" lon="7.03511">
        <ele>216.2</ele>
        <time>2012-09-16T15:42:34Z</time>
      </trkpt>
      <trkpt lat="43.60302" lon="7.03514">
        <ele>216.1</ele>
        <time>2012-09-16T15:42:35Z</time>
      </trkpt>
      <trkpt lat="43.60294" lon="7.03519">
        <ele>215.2</ele>
        <time>2012-09-16T15:42:37Z</time>
      </trkpt>
      <trkpt lat="43.60289" lon="7.03528">
        <ele>214.7</ele>
        <time>2012-09-16T15:42:39Z</time>
      </trkpt>
      <trkpt lat="43.60286" lon="7.03539">
        <ele>214.6</ele>
        <time>2012-09-16T15:42:41Z</time>
      </trkpt>
      <trkpt lat="43.60284" lon="7.03545">
        <ele>214.6</ele>
        <time>2012-09-16T15:42:42Z</time>
      </trkpt>
      <trkpt lat="43.60281" lon="7.03551">
        <ele>214</ele>
        <time>2012-09-16T15:42:43Z</time>
      </trkpt>
      <trkpt lat="43.6028" lon="7.03558">
        <ele>213.6</ele>
        <time>2012-09-16T15:42:44Z</time>
      </trkpt>
      <trkpt lat="43.60277" lon="7.03565">
        <ele>212.4</ele>
        <time>2012-09-16T15:42:45Z</time>
      </trkpt>
      <trkpt lat="43.60273" lon="7.03571">
        <ele>211.5</ele>
        <time>2012-09-16T15:42:46Z</time>
      </trkpt>
      <trkpt lat="43.6027" lon="7.03577">
        <ele>210.8</ele>
        <time>2012-09-16T15:42:47Z</time>
      </trkpt>
      <trkpt lat="43.6027" lon="7.03588">
        <ele>209.6</ele>
        <time>2012-09-16T15:42:49Z</time>
      </trkpt>
      <trkpt lat="43.60271" lon="7.03597">
        <ele>209.1</ele>
        <time>2012-09-16T15:42:51Z</time>
      </trkpt>
      <trkpt lat="43.60272" lon="7.03601">
        <ele>208.9</ele>
        <time>2012-09-16T15:42:52Z</time>
      </trkpt>
      <trkpt lat="43.60276" lon="7.03615">
        <ele>209.6</ele>
        <time>2012-09-16T15:42:56Z</time>
      </trkpt>
      <trkpt lat="43.60279" lon="7.03627">
        <ele>209.7</ele>
        <time>2012-09-16T15:42:59Z</time>
      </trkpt>
      <trkpt lat="43.6028" lon="7.03636">
        <ele>210.1</ele>
        <time>2012-09-16T15:43:01Z</time>
      </trkpt>
      <trkpt lat="43.60281" lon="7.03644">
        <ele>210.1</ele>
        <time>2012-09-16T15:43:03Z</time>
      </trkpt>
      <trkpt lat="43.60282" lon="7.03653">
        <ele>210.5</ele>
        <time>2012-09-16T15:43:05Z</time>
      </trkpt>
      <trkpt lat="43.60284" lon="7.03665">
        <ele>210.2</ele>
        <time>2012-09-16T15:43:08Z</time>
      </trkpt>
      <trkpt lat="43.60288" lon="7.03676">
        <ele>210.6</ele>
        <time>2012-09-16T15:43:11Z</time>
      </trkpt>
      <trkpt lat="43.60294" lon="7.03685">
        <ele>211.1</ele>
        <time>2012-09-16T15:43:14Z</time>
      </trkpt>
      <trkpt lat="43.60301" lon="7.03689">
        <ele>211.2</ele>
        <time>2012-09-16T15:43:17Z</time>
      </trkpt>
      <trkpt lat="43.60309" lon="7.03694">
        <ele>212.1</ele>
        <time>2012-09-16T15:43:20Z</time>
      </trkpt>
      <trkpt lat="43.60317" lon="7.03697">
        <ele>211.8</ele>
        <time>2012-09-16T15:43:23Z</time>
      </trkpt>
      <trkpt lat="43.60312" lon="7.03698">
        <ele>213.1</ele>
        <time>2012-09-16T15:43:35Z</time>
      </trkpt>
      <trkpt lat="43.60304" lon="7.03695">
        <ele>213.3</ele>
        <time>2012-09-16T15:43:37Z</time>
      </trkpt>
      <trkpt lat="43.60297" lon="7.0369">
        <ele>212.6</ele>
        <time>2012-09-16T15:43:39Z</time>
      </trkpt>
      <trkpt lat="43.6029" lon="7.03684">
        <ele>212.1</ele>
        <time>2012-09-16T15:43:41Z</time>
      </trkpt>
      <trkpt lat="43.60284" lon="7.03675">
        <ele>211.5</ele>
        <time>2012-09-16T15:43:43Z</time>
      </trkpt>
      <trkpt lat="43.60282" lon="7.03669">
        <ele>211.3</ele>
        <time>2012-09-16T15:43:44Z</time>
      </trkpt>
      <trkpt lat="43.6028" lon="7.03663">
        <ele>211.3</ele>
        <time>2012-09-16T15:43:45Z</time>
      </trkpt>
      <trkpt lat="43.60279" lon="7.03655">
        <ele>211.3</ele>
        <time>2012-09-16T15:43:46Z</time>
      </trkpt>
      <trkpt lat="43.60278" lon="7.03647">
        <ele>211.1</ele>
        <time>2012-09-16T15:43:47Z</time>
      </trkpt>
      <trkpt lat="43.60277" lon="7.03641">
        <ele>210.9</ele>
        <time>2012-09-16T15:43:48Z</time>
      </trkpt>
      <trkpt lat="43.60276" lon="7.03634">
        <ele>211</ele>
        <time>2012-09-16T15:43:49Z</time>
      </trkpt>
      <trkpt lat="43.60274" lon="7.03627">
        <ele>211</ele>
        <time>2012-09-16T15:43:50Z</time>
      </trkpt>
      <trkpt lat="43.60271" lon="7.0362">
        <ele>211</ele>
        <time>2012-09-16T15:43:51Z</time>
      </trkpt>
      <trkpt lat="43.60268" lon="7.03613">
        <ele>210.8</ele>
        <time>2012-09-16T15:43:52Z</time>
      </trkpt>
      <trkpt lat="43.60266" lon="7.03605">
        <ele>210.7</ele>
        <time>2012-09-16T15:43:53Z</time>
      </trkpt>
      <trkpt lat="43.60263" lon="7.03598">
        <ele>210</ele>
        <time>2012-09-16T15:43:54Z</time>
      </trkpt>
      <trkpt lat="43.60259" lon="7.03592">
        <ele>209.5</ele>
        <time>2012-09-16T15:43:55Z</time>
      </trkpt>
      <trkpt lat="43.60255" lon="7.03586">
        <ele>209.1</ele>
        <time>2012-09-16T15:43:56Z</time>
      </trkpt>
      <trkpt lat="43.60253" lon="7.03579">
        <ele>208.8</ele>
        <time>2012-09-16T15:43:57Z</time>
      </trkpt>
      <trkpt lat="43.6025" lon="7.03573">
        <ele>208.6</ele>
        <time>2012-09-16T15:43:58Z</time>
      </trkpt>
      <trkpt lat="43.60245" lon="7.03567">
        <ele>207.8</ele>
        <time>2012-09-16T15:43:59Z</time>
      </trkpt>
      <trkpt lat="43.60238" lon="7.03561">
        <ele>206.2</ele>
        <time>2012-09-16T15:44:01Z</time>
      </trkpt>
      <trkpt lat="43.60232" lon="7.03565">
        <ele>203.5</ele>
        <time>2012-09-16T15:44:06Z</time>
      </trkpt>
      <trkpt lat="43.60231" lon="7.03573">
        <ele>202.6</ele>
        <time>2012-09-16T15:44:08Z</time>
      </trkpt>
      <trkpt lat="43.60232" lon="7.03585">
        <ele>201.6</ele>
        <time>2012-09-16T15:44:11Z</time>
      </trkpt>
      <trkpt lat="43.60232" lon="7.03596">
        <ele>199.8</ele>
        <time>2012-09-16T15:44:21Z</time>
      </trkpt>
      <trkpt lat="43.60235" lon="7.03607">
        <ele>199.3</ele>
        <time>2012-09-16T15:44:26Z</time>
      </trkpt>
      <trkpt lat="43.60237" lon="7.03617">
        <ele>199.6</ele>
        <time>2012-09-16T15:44:30Z</time>
      </trkpt>
      <trkpt lat="43.6024" lon="7.03626">
        <ele>200.6</ele>
        <time>2012-09-16T15:44:34Z</time>
      </trkpt>
      <trkpt lat="43.60242" lon="7.03637">
        <ele>201</ele>
        <time>2012-09-16T15:44:38Z</time>
      </trkpt>
      <trkpt lat="43.6024" lon="7.03648">
        <ele>201.5</ele>
        <time>2012-09-16T15:44:42Z</time>
      </trkpt>
      <trkpt lat="43.60236" lon="7.03639">
        <ele>202.2</ele>
        <time>2012-09-16T15:44:49Z</time>
      </trkpt>
      <trkpt lat="43.60234" lon="7.03627">
        <ele>201.6</ele>
        <time>2012-09-16T15:44:52Z</time>
      </trkpt>
      <trkpt lat="43.60231" lon="7.03618">
        <ele>200.3</ele>
        <time>2012-09-16T15:44:55Z</time>
      </trkpt>
      <trkpt lat="43.6023" lon="7.03615">
        <ele>199.6</ele>
        <time>2012-09-16T15:44:56Z</time>
      </trkpt>
      <trkpt lat="43.6023" lon="7.03617">
        <ele>198.7</ele>
        <time>2012-09-16T15:45:13Z</time>
      </trkpt>
      <trkpt lat="43.60222" lon="7.03619">
        <ele>198.4</ele>
        <time>2012-09-16T15:45:20Z</time>
      </trkpt>
      <trkpt lat="43.60216" lon="7.03613">
        <ele>196.9</ele>
        <time>2012-09-16T15:45:24Z</time>
      </trkpt>
      <trkpt lat="43.60215" lon="7.03605">
        <ele>196.6</ele>
        <time>2012-09-16T15:45:26Z</time>
      </trkpt>
      <trkpt lat="43.60216" lon="7.03596">
        <ele>196.7</ele>
        <time>2012-09-16T15:45:28Z</time>
      </trkpt>
      <trkpt lat="43.60218" lon="7.03586">
        <ele>196</ele>
        <time>2012-09-16T15:45:30Z</time>
      </trkpt>
      <trkpt lat="43.60219" lon="7.03577">
        <ele>195.8</ele>
        <time>2012-09-16T15:45:32Z</time>
      </trkpt>
      <trkpt lat="43.60217" lon="7.03567">
        <ele>195.9</ele>
        <time>2012-09-16T15:45:34Z</time>
      </trkpt>
      <trkpt lat="43.60213" lon="7.03559">
        <ele>195.6</ele>
        <time>2012-09-16T15:45:36Z</time>
      </trkpt>
      <trkpt lat="43.60207" lon="7.03552">
        <ele>195.1</ele>
        <time>2012-09-16T15:45:38Z</time>
      </trkpt>
      <trkpt lat="43.60202" lon="7.03543">
        <ele>194.9</ele>
        <time>2012-09-16T15:45:41Z</time>
      </trkpt>
      <trkpt lat="43.60195" lon="7.0354">
        <ele>193.6</ele>
        <time>2012-09-16T15:45:50Z</time>
      </trkpt>
      <trkpt lat="43.60189" lon="7.03545">
        <ele>194.1</ele>
        <time>2012-09-16T15:45:53Z</time>
      </trkpt>
      <trkpt lat="43.60185" lon="7.03553">
        <ele>194.3</ele>
        <time>2012-09-16T15:45:55Z</time>
      </trkpt>
      <trkpt lat="43.60182" lon="7.03561">
        <ele>194.3</ele>
        <time>2012-09-16T15:45:57Z</time>
      </trkpt>
      <trkpt lat="43.60179" lon="7.03565">
        <ele>194.6</ele>
        <time>2012-09-16T15:45:58Z</time>
      </trkpt>
      <trkpt lat="43.60167" lon="7.03564">
        <ele>195.2</ele>
        <time>2012-09-16T15:46:02Z</time>
      </trkpt>
      <trkpt lat="43.60161" lon="7.0356">
        <ele>195.5</ele>
        <time>2012-09-16T15:46:04Z</time>
      </trkpt>
      <trkpt lat="43.60154" lon="7.0356">
        <ele>196.9</ele>
        <time>2012-09-16T15:46:06Z</time>
      </trkpt>
      <trkpt lat="43.60148" lon="7.03557">
        <ele>196.5</ele>
        <time>2012-09-16T15:46:08Z</time>
      </trkpt>
      <trkpt lat="43.6014" lon="7.03553">
        <ele>196.8</ele>
        <time>2012-09-16T15:46:11Z</time>
      </trkpt>
      <trkpt lat="43.60135" lon="7.03547">
        <ele>197.6</ele>
        <time>2012-09-16T15:46:14Z</time>
      </trkpt>
      <trkpt lat="43.60128" lon="7.03539">
        <ele>198.8</ele>
        <time>2012-09-16T15:46:17Z</time>
      </trkpt>
      <trkpt lat="43.60125" lon="7.03531">
        <ele>199.4</ele>
        <time>2012-09-16T15:46:20Z</time>
      </trkpt>
      <trkpt lat="43.60119" lon="7.03523">
        <ele>200.6</ele>
        <time>2012-09-16T15:46:23Z</time>
      </trkpt>
      <trkpt lat="43.60112" lon="7.03516">
        <ele>201.6</ele>
        <time>2012-09-16T15:46:26Z</time>
      </trkpt>
      <trkpt lat="43.60105" lon="7.0351">
        <ele>202.4</ele>
        <time>2012-09-16T15:46:29Z</time>
      </trkpt>
      <trkpt lat="43.60098" lon="7.03503">
        <ele>202.8</ele>
        <time>2012-09-16T15:46:32Z</time>
      </trkpt>
      <trkpt lat="43.60094" lon="7.03498">
        <ele>203.6</ele>
        <time>2012-09-16T15:46:34Z</time>
      </trkpt>
      <trkpt lat="43.60088" lon="7.03493">
        <ele>203.6</ele>
        <time>2012-09-16T15:46:36Z</time>
      </trkpt>
      <trkpt lat="43.6008" lon="7.03491">
        <ele>203.9</ele>
        <time>2012-09-16T15:46:38Z</time>
      </trkpt>
      <trkpt lat="43.60073" lon="7.03489">
        <ele>204.6</ele>
        <time>2012-09-16T15:46:40Z</time>
      </trkpt>
      <trkpt lat="43.60067" lon="7.03489">
        <ele>205</ele>
        <time>2012-09-16T15:46:42Z</time>
      </trkpt>
      <trkpt lat="43.6006" lon="7.03489">
        <ele>205.2</ele>
        <time>2012-09-16T15:46:44Z</time>
      </trkpt>
      <trkpt lat="43.60053" lon="7.03488">
        <ele>205.7</ele>
        <time>2012-09-16T15:46:46Z</time>
      </trkpt>
      <trkpt lat="43.60045" lon="7.03487">
        <ele>205.9</ele>
        <time>2012-09-16T15:46:48Z</time>
      </trkpt>
      <trkpt lat="43.60038" lon="7.03486">
        <ele>206.6</ele>
        <time>2012-09-16T15:46:50Z</time>
      </trkpt>
      <trkpt lat="43.6003" lon="7.03486">
        <ele>207</ele>
        <time>2012-09-16T15:46:52Z</time>
      </trkpt>
      <trkpt lat="43.60022" lon="7.03486">
        <ele>207</ele>
        <time>2012-09-16T15:46:54Z</time>
      </trkpt>
      <trkpt lat="43.60014" lon="7.03489">
        <ele>206.9</ele>
        <time>2012-09-16T15:46:56Z</time>
      </trkpt>
      <trkpt lat="43.60006" lon="7.03495">
        <ele>207.6</ele>
        <time>2012-09-16T15:46:58Z</time>
      </trkpt>
      <trkpt lat="43.60002" lon="7.03497">
        <ele>207.3</ele>
        <time>2012-09-16T15:46:59Z</time>
      </trkpt>
      <trkpt lat="43.59995" lon="7.03503">
        <ele>207</ele>
        <time>2012-09-16T15:47:01Z</time>
      </trkpt>
      <trkpt lat="43.59992" lon="7.03508">
        <ele>206.7</ele>
        <time>2012-09-16T15:47:02Z</time>
      </trkpt>
      <trkpt lat="43.59989" lon="7.03513">
        <ele>206.6</ele>
        <time>2012-09-16T15:47:03Z</time>
      </trkpt>
      <trkpt lat="43.59986" lon="7.03518">
        <ele>206.1</ele>
        <time>2012-09-16T15:47:04Z</time>
      </trkpt>
      <trkpt lat="43.59983" lon="7.03524">
        <ele>205.8</ele>
        <time>2012-09-16T15:47:05Z</time>
      </trkpt>
      <trkpt lat="43.59981" lon="7.03529">
        <ele>205.7</ele>
        <time>2012-09-16T15:47:06Z</time>
      </trkpt>
      <trkpt lat="43.59977" lon="7.03534">
        <ele>205.6</ele>
        <time>2012-09-16T15:47:07Z</time>
      </trkpt>
      <trkpt lat="43.59974" lon="7.03539">
        <ele>205.5</ele>
        <time>2012-09-16T15:47:08Z</time>
      </trkpt>
      <trkpt lat="43.59971" lon="7.03545">
        <ele>205.3</ele>
        <time>2012-09-16T15:47:09Z</time>
      </trkpt>
      <trkpt lat="43.59969" lon="7.0355">
        <ele>205.2</ele>
        <time>2012-09-16T15:47:10Z</time>
      </trkpt>
      <trkpt lat="43.59966" lon="7.03555">
        <ele>205.4</ele>
        <time>2012-09-16T15:47:11Z</time>
      </trkpt>
      <trkpt lat="43.59964" lon="7.03561">
        <ele>205.5</ele>
        <time>2012-09-16T15:47:12Z</time>
      </trkpt>
      <trkpt lat="43.59959" lon="7.03571">
        <ele>205.6</ele>
        <time>2012-09-16T15:47:14Z</time>
      </trkpt>
      <trkpt lat="43.59956" lon="7.03576">
        <ele>205.5</ele>
        <time>2012-09-16T15:47:15Z</time>
      </trkpt>
      <trkpt lat="43.5995" lon="7.03585">
        <ele>205.3</ele>
        <time>2012-09-16T15:47:17Z</time>
      </trkpt>
      <trkpt lat="43.59942" lon="7.0359">
        <ele>205.6</ele>
        <time>2012-09-16T15:47:19Z</time>
      </trkpt>
      <trkpt lat="43.59937" lon="7.03596">
        <ele>205.3</ele>
        <time>2012-09-16T15:47:21Z</time>
      </trkpt>
      <trkpt lat="43.5993" lon="7.03601">
        <ele>204.9</ele>
        <time>2012-09-16T15:47:23Z</time>
      </trkpt>
      <trkpt lat="43.59925" lon="7.03603">
        <ele>204.9</ele>
        <time>2012-09-16T15:47:24Z</time>
      </trkpt>
      <trkpt lat="43.59921" lon="7.03605">
        <ele>204.5</ele>
        <time>2012-09-16T15:47:25Z</time>
      </trkpt>
      <trkpt lat="43.59917" lon="7.03609">
        <ele>204.2</ele>
        <time>2012-09-16T15:47:26Z</time>
      </trkpt>
      <trkpt lat="43.59909" lon="7.03614">
        <ele>203.7</ele>
        <time>2012-09-16T15:47:28Z</time>
      </trkpt>
      <trkpt lat="43.59905" lon="7.03617">
        <ele>203.6</ele>
        <time>2012-09-16T15:47:29Z</time>
      </trkpt>
      <trkpt lat="43.59897" lon="7.03623">
        <ele>203.4</ele>
        <time>2012-09-16T15:47:31Z</time>
      </trkpt>
      <trkpt lat="43.5989" lon="7.0363">
        <ele>203.9</ele>
        <time>2012-09-16T15:47:33Z</time>
      </trkpt>
      <trkpt lat="43.59882" lon="7.03635">
        <ele>204.7</ele>
        <time>2012-09-16T15:47:35Z</time>
      </trkpt>
      <trkpt lat="43.59875" lon="7.0364">
        <ele>205.4</ele>
        <time>2012-09-16T15:47:37Z</time>
      </trkpt>
      <trkpt lat="43.59868" lon="7.03644">
        <ele>205.9</ele>
        <time>2012-09-16T15:47:39Z</time>
      </trkpt>
      <trkpt lat="43.5986" lon="7.03648">
        <ele>205.7</ele>
        <time>2012-09-16T15:47:41Z</time>
      </trkpt>
      <trkpt lat="43.59853" lon="7.03652">
        <ele>205.8</ele>
        <time>2012-09-16T15:47:43Z</time>
      </trkpt>
      <trkpt lat="43.59846" lon="7.03657">
        <ele>205.8</ele>
        <time>2012-09-16T15:47:45Z</time>
      </trkpt>
      <trkpt lat="43.5984" lon="7.03664">
        <ele>205.8</ele>
        <time>2012-09-16T15:47:47Z</time>
      </trkpt>
      <trkpt lat="43.59835" lon="7.03674">
        <ele>205.6</ele>
        <time>2012-09-16T15:47:49Z</time>
      </trkpt>
      <trkpt lat="43.59832" lon="7.03683">
        <ele>205.4</ele>
        <time>2012-09-16T15:47:51Z</time>
      </trkpt>
      <trkpt lat="43.59831" lon="7.03695">
        <ele>206</ele>
        <time>2012-09-16T15:47:55Z</time>
      </trkpt>
      <trkpt lat="43.59835" lon="7.03705">
        <ele>206.5</ele>
        <time>2012-09-16T15:47:59Z</time>
      </trkpt>
      <trkpt lat="43.59836" lon="7.03709">
        <ele>206.6</ele>
        <time>2012-09-16T15:48:00Z</time>
      </trkpt>
      <trkpt lat="43.59841" lon="7.03721">
        <ele>206.2</ele>
        <time>2012-09-16T15:48:03Z</time>
      </trkpt>
      <trkpt lat="43.59849" lon="7.03722">
        <ele>206.8</ele>
        <time>2012-09-16T15:48:06Z</time>
      </trkpt>
      <trkpt lat="43.59855" lon="7.03723">
        <ele>207</ele>
        <time>2012-09-16T15:48:08Z</time>
      </trkpt>
      <trkpt lat="43.59864" lon="7.03723">
        <ele>208.1</ele>
        <time>2012-09-16T15:48:11Z</time>
      </trkpt>
      <trkpt lat="43.59873" lon="7.03724">
        <ele>209.3</ele>
        <time>2012-09-16T15:48:14Z</time>
      </trkpt>
      <trkpt lat="43.59879" lon="7.03724">
        <ele>210.7</ele>
        <time>2012-09-16T15:48:17Z</time>
      </trkpt>
      <trkpt lat="43.59886" lon="7.03723">
        <ele>210.2</ele>
        <time>2012-09-16T15:48:19Z</time>
      </trkpt>
      <trkpt lat="43.59893" lon="7.03721">
        <ele>211.9</ele>
        <time>2012-09-16T15:48:21Z</time>
      </trkpt>
      <trkpt lat="43.59899" lon="7.03717">
        <ele>212.6</ele>
        <time>2012-09-16T15:48:23Z</time>
      </trkpt>
      <trkpt lat="43.59907" lon="7.03713">
        <ele>213.1</ele>
        <time>2012-09-16T15:48:25Z</time>
      </trkpt>
      <trkpt lat="43.59911" lon="7.0371">
        <ele>213.2</ele>
        <time>2012-09-16T15:48:26Z</time>
      </trkpt>
      <trkpt lat="43.59916" lon="7.03708">
        <ele>213.3</ele>
        <time>2012-09-16T15:48:27Z</time>
      </trkpt>
      <trkpt lat="43.5992" lon="7.03707">
        <ele>213.4</ele>
        <time>2012-09-16T15:48:28Z</time>
      </trkpt>
      <trkpt lat="43.59925" lon="7.03707">
        <ele>213.2</ele>
        <time>2012-09-16T15:48:29Z</time>
      </trkpt>
      <trkpt lat="43.5993" lon="7.03706">
        <ele>213</ele>
        <time>2012-09-16T15:48:30Z</time>
      </trkpt>
      <trkpt lat="43.59939" lon="7.03705">
        <ele>213</ele>
        <time>2012-09-16T15:48:32Z</time>
      </trkpt>
      <trkpt lat="43.59947" lon="7.03705">
        <ele>213</ele>
        <time>2012-09-16T15:48:34Z</time>
      </trkpt>
      <trkpt lat="43.59954" lon="7.03711">
        <ele>212.8</ele>
        <time>2012-09-16T15:48:36Z</time>
      </trkpt>
      <trkpt lat="43.59957" lon="7.03717">
        <ele>212.6</ele>
        <time>2012-09-16T15:48:37Z</time>
      </trkpt>
      <trkpt lat="43.5996" lon="7.03722">
        <ele>212.5</ele>
        <time>2012-09-16T15:48:38Z</time>
      </trkpt>
      <trkpt lat="43.59964" lon="7.03726">
        <ele>212.5</ele>
        <time>2012-09-16T15:48:39Z</time>
      </trkpt>
      <trkpt lat="43.59969" lon="7.03729">
        <ele>212.5</ele>
        <time>2012-09-16T15:48:40Z</time>
      </trkpt>
      <trkpt lat="43.59974" lon="7.03731">
        <ele>212.4</ele>
        <time>2012-09-16T15:48:41Z</time>
      </trkpt>
      <trkpt lat="43.59979" lon="7.0373">
        <ele>212.2</ele>
        <time>2012-09-16T15:48:42Z</time>
      </trkpt>
      <trkpt lat="43.59985" lon="7.03728">
        <ele>212.1</ele>
        <time>2012-09-16T15:48:43Z</time>
      </trkpt>
      <trkpt lat="43.5999" lon="7.03725">
        <ele>211.7</ele>
        <time>2012-09-16T15:48:44Z</time>
      </trkpt>
      <trkpt lat="43.59998" lon="7.03727">
        <ele>211</ele>
        <time>2012-09-16T15:48:46Z</time>
      </trkpt>
      <trkpt lat="43.60006" lon="7.03728">
        <ele>209.9</ele>
        <time>2012-09-16T15:48:48Z</time>
      </trkpt>
      <trkpt lat="43.60011" lon="7.03726">
        <ele>209.3</ele>
        <time>2012-09-16T15:48:49Z</time>
      </trkpt>
      <trkpt lat="43.6002" lon="7.03723">
        <ele>208</ele>
        <time>2012-09-16T15:48:51Z</time>
      </trkpt>
      <trkpt lat="43.60028" lon="7.03727">
        <ele>206.6</ele>
        <time>2012-09-16T15:48:53Z</time>
      </trkpt>
      <trkpt lat="43.60033" lon="7.03726">
        <ele>206.1</ele>
        <time>2012-09-16T15:48:54Z</time>
      </trkpt>
      <trkpt lat="43.6004" lon="7.0372">
        <ele>204.8</ele>
        <time>2012-09-16T15:48:56Z</time>
      </trkpt>
      <trkpt lat="43.60044" lon="7.03717">
        <ele>204.2</ele>
        <time>2012-09-16T15:48:57Z</time>
      </trkpt>
      <trkpt lat="43.60048" lon="7.03713">
        <ele>203.9</ele>
        <time>2012-09-16T15:48:58Z</time>
      </trkpt>
      <trkpt lat="43.60053" lon="7.03708">
        <ele>203.7</ele>
        <time>2012-09-16T15:48:59Z</time>
      </trkpt>
      <trkpt lat="43.60058" lon="7.03703">
        <ele>203.3</ele>
        <time>2012-09-16T15:49:00Z</time>
      </trkpt>
      <trkpt lat="43.60063" lon="7.03698">
        <ele>203</ele>
        <time>2012-09-16T15:49:01Z</time>
      </trkpt>
      <trkpt lat="43.6007" lon="7.03692">
        <ele>202.1</ele>
        <time>2012-09-16T15:49:03Z</time>
      </trkpt>
      <trkpt lat="43.60076" lon="7.03697">
        <ele>200.4</ele>
        <time>2012-09-16T15:49:05Z</time>
      </trkpt>
      <trkpt lat="43.60078" lon="7.03704">
        <ele>199.6</ele>
        <time>2012-09-16T15:49:06Z</time>
      </trkpt>
      <trkpt lat="43.60078" lon="7.03712">
        <ele>198.9</ele>
        <time>2012-09-16T15:49:07Z</time>
      </trkpt>
      <trkpt lat="43.60078" lon="7.03719">
        <ele>198.2</ele>
        <time>2012-09-16T15:49:08Z</time>
      </trkpt>
      <trkpt lat="43.60082" lon="7.03724">
        <ele>197.6</ele>
        <time>2012-09-16T15:49:09Z</time>
      </trkpt>
      <trkpt lat="43.60086" lon="7.03726">
        <ele>196.7</ele>
        <time>2012-09-16T15:49:10Z</time>
      </trkpt>
      <trkpt lat="43.60091" lon="7.03725">
        <ele>196</ele>
        <time>2012-09-16T15:49:11Z</time>
      </trkpt>
      <trkpt lat="43.60097" lon="7.03722">
        <ele>195.1</ele>
        <time>2012-09-16T15:49:12Z</time>
      </trkpt>
      <trkpt lat="43.60102" lon="7.03718">
        <ele>194.5</ele>
        <time>2012-09-16T15:49:13Z</time>
      </trkpt>
      <trkpt lat="43.6011" lon="7.03722">
        <ele>191.5</ele>
        <time>2012-09-16T15:49:17Z</time>
      </trkpt>
      <trkpt lat="43.60111" lon="7.03732">
        <ele>190.4</ele>
        <time>2012-09-16T15:49:19Z</time>
      </trkpt>
      <trkpt lat="43.6011" lon="7.03739">
        <ele>189.9</ele>
        <time>2012-09-16T15:49:20Z</time>
      </trkpt>
      <trkpt lat="43.6011" lon="7.03745">
        <ele>189.5</ele>
        <time>2012-09-16T15:49:21Z</time>
      </trkpt>
      <trkpt lat="43.60109" lon="7.03751">
        <ele>189.1</ele>
        <time>2012-09-16T15:49:22Z</time>
      </trkpt>
      <trkpt lat="43.60108" lon="7.03759">
        <ele>188.8</ele>
        <time>2012-09-16T15:49:23Z</time>
      </trkpt>
      <trkpt lat="43.60105" lon="7.03769">
        <ele>187.6</ele>
        <time>2012-09-16T15:49:25Z</time>
      </trkpt>
      <trkpt lat="43.60111" lon="7.03774">
        <ele>186.6</ele>
        <time>2012-09-16T15:49:27Z</time>
      </trkpt>
      <trkpt lat="43.60117" lon="7.03775">
        <ele>186.2</ele>
        <time>2012-09-16T15:49:28Z</time>
      </trkpt>
      <trkpt lat="43.60123" lon="7.03777">
        <ele>185.8</ele>
        <time>2012-09-16T15:49:29Z</time>
      </trkpt>
      <trkpt lat="43.6013" lon="7.03779">
        <ele>185.4</ele>
        <time>2012-09-16T15:49:30Z</time>
      </trkpt>
      <trkpt lat="43.60136" lon="7.03781">
        <ele>184.8</ele>
        <time>2012-09-16T15:49:31Z</time>
      </trkpt>
      <trkpt lat="43.6014" lon="7.03782">
        <ele>184.4</ele>
        <time>2012-09-16T15:49:32Z</time>
      </trkpt>
      <trkpt lat="43.60149" lon="7.03782">
        <ele>183</ele>
        <time>2012-09-16T15:49:34Z</time>
      </trkpt>
      <trkpt lat="43.60157" lon="7.03781">
        <ele>182</ele>
        <time>2012-09-16T15:49:36Z</time>
      </trkpt>
      <trkpt lat="43.60163" lon="7.03787">
        <ele>181.5</ele>
        <time>2012-09-16T15:49:38Z</time>
      </trkpt>
      <trkpt lat="43.60165" lon="7.03796">
        <ele>181</ele>
        <time>2012-09-16T15:49:40Z</time>
      </trkpt>
      <trkpt lat="43.60166" lon="7.03808">
        <ele>180.5</ele>
        <time>2012-09-16T15:49:42Z</time>
      </trkpt>
      <trkpt lat="43.60166" lon="7.03819">
        <ele>180.7</ele>
        <time>2012-09-16T15:49:44Z</time>
      </trkpt>
      <trkpt lat="43.60166" lon="7.0383">
        <ele>180.8</ele>
        <time>2012-09-16T15:49:46Z</time>
      </trkpt>
      <trkpt lat="43.60165" lon="7.03836">
        <ele>180.8</ele>
        <time>2012-09-16T15:49:47Z</time>
      </trkpt>
      <trkpt lat="43.60163" lon="7.03842">
        <ele>180.7</ele>
        <time>2012-09-16T15:49:48Z</time>
      </trkpt>
      <trkpt lat="43.60162" lon="7.03848">
        <ele>180.6</ele>
        <time>2012-09-16T15:49:49Z</time>
      </trkpt>
      <trkpt lat="43.6016" lon="7.03855">
        <ele>180.3</ele>
        <time>2012-09-16T15:49:50Z</time>
      </trkpt>
      <trkpt lat="43.60159" lon="7.03862">
        <ele>180</ele>
        <time>2012-09-16T15:49:51Z</time>
      </trkpt>
      <trkpt lat="43.60158" lon="7.03869">
        <ele>179.8</ele>
        <time>2012-09-16T15:49:52Z</time>
      </trkpt>
      <trkpt lat="43.60156" lon="7.0388">
        <ele>180.3</ele>
        <time>2012-09-16T15:49:54Z</time>
      </trkpt>
      <trkpt lat="43.60154" lon="7.03887">
        <ele>180.2</ele>
        <time>2012-09-16T15:49:55Z</time>
      </trkpt>
      <trkpt lat="43.60151" lon="7.03896">
        <ele>180.1</ele>
        <time>2012-09-16T15:49:57Z</time>
      </trkpt>
      <trkpt lat="43.60148" lon="7.03907">
        <ele>180</ele>
        <time>2012-09-16T15:49:59Z</time>
      </trkpt>
      <trkpt lat="43.60145" lon="7.03917">
        <ele>179.1</ele>
        <time>2012-09-16T15:50:01Z</time>
      </trkpt>
      <trkpt lat="43.60143" lon="7.03924">
        <ele>179</ele>
        <time>2012-09-16T15:50:02Z</time>
      </trkpt>
      <trkpt lat="43.60141" lon="7.03931">
        <ele>178.9</ele>
        <time>2012-09-16T15:50:03Z</time>
      </trkpt>
      <trkpt lat="43.60141" lon="7.03938">
        <ele>178.6</ele>
        <time>2012-09-16T15:50:04Z</time>
      </trkpt>
      <trkpt lat="43.60145" lon="7.03949">
        <ele>178.1</ele>
        <time>2012-09-16T15:50:06Z</time>
      </trkpt>
      <trkpt lat="43.60149" lon="7.03957">
        <ele>178.3</ele>
        <time>2012-09-16T15:50:08Z</time>
      </trkpt>
      <trkpt lat="43.6015" lon="7.03969">
        <ele>178.1</ele>
        <time>2012-09-16T15:50:10Z</time>
      </trkpt>
      <trkpt lat="43.60149" lon="7.03975">
        <ele>178.1</ele>
        <time>2012-09-16T15:50:11Z</time>
      </trkpt>
      <trkpt lat="43.60147" lon="7.03982">
        <ele>178.6</ele>
        <time>2012-09-16T15:50:12Z</time>
      </trkpt>
      <trkpt lat="43.60146" lon="7.03988">
        <ele>178.9</ele>
        <time>2012-09-16T15:50:13Z</time>
      </trkpt>
      <trkpt lat="43.60144" lon="7.03995">
        <ele>178.4</ele>
        <time>2012-09-16T15:50:14Z</time>
      </trkpt>
      <trkpt lat="43.60143" lon="7.04001">
        <ele>178.1</ele>
        <time>2012-09-16T15:50:15Z</time>
      </trkpt>
      <trkpt lat="43.60142" lon="7.04008">
        <ele>178.2</ele>
        <time>2012-09-16T15:50:16Z</time>
      </trkpt>
      <trkpt lat="43.60144" lon="7.0402">
        <ele>178.3</ele>
        <time>2012-09-16T15:50:18Z</time>
      </trkpt>
      <trkpt lat="43.60146" lon="7.04032">
        <ele>178.7</ele>
        <time>2012-09-16T15:50:20Z</time>
      </trkpt>
      <trkpt lat="43.60147" lon="7.04038">
        <ele>178.8</ele>
        <time>2012-09-16T15:50:21Z</time>
      </trkpt>
      <trkpt lat="43.60146" lon="7.04045">
        <ele>178.8</ele>
        <time>2012-09-16T15:50:22Z</time>
      </trkpt>
      <trkpt lat="43.60144" lon="7.04056">
        <ele>178.9</ele>
        <time>2012-09-16T15:50:24Z</time>
      </trkpt>
      <trkpt lat="43.6014" lon="7.04062">
        <ele>179.5</ele>
        <time>2012-09-16T15:50:26Z</time>
      </trkpt>
      <trkpt lat="43.60136" lon="7.04071">
        <ele>180</ele>
        <time>2012-09-16T15:50:28Z</time>
      </trkpt>
      <trkpt lat="43.60131" lon="7.0408">
        <ele>180</ele>
        <time>2012-09-16T15:50:30Z</time>
      </trkpt>
      <trkpt lat="43.60125" lon="7.04087">
        <ele>180.4</ele>
        <time>2012-09-16T15:50:32Z</time>
      </trkpt>
      <trkpt lat="43.60119" lon="7.04094">
        <ele>180.8</ele>
        <time>2012-09-16T15:50:34Z</time>
      </trkpt>
      <trkpt lat="43.60115" lon="7.04104">
        <ele>181</ele>
        <time>2012-09-16T15:50:36Z</time>
      </trkpt>
      <trkpt lat="43.60116" lon="7.04113">
        <ele>181.4</ele>
        <time>2012-09-16T15:50:38Z</time>
      </trkpt>
      <trkpt lat="43.60117" lon="7.04123">
        <ele>182.1</ele>
        <time>2012-09-16T15:50:40Z</time>
      </trkpt>
      <trkpt lat="43.60117" lon="7.04132">
        <ele>182.7</ele>
        <time>2012-09-16T15:50:42Z</time>
      </trkpt>
      <trkpt lat="43.60117" lon="7.04142">
        <ele>182.9</ele>
        <time>2012-09-16T15:50:44Z</time>
      </trkpt>
      <trkpt lat="43.60116" lon="7.04152">
        <ele>183.9</ele>
        <time>2012-09-16T15:50:46Z</time>
      </trkpt>
      <trkpt lat="43.60113" lon="7.04161">
        <ele>184.3</ele>
        <time>2012-09-16T15:50:48Z</time>
      </trkpt>
      <trkpt lat="43.60108" lon="7.04171">
        <ele>185.1</ele>
        <time>2012-09-16T15:50:50Z</time>
      </trkpt>
      <trkpt lat="43.60105" lon="7.04176">
        <ele>185.6</ele>
        <time>2012-09-16T15:50:51Z</time>
      </trkpt>
      <trkpt lat="43.60102" lon="7.04182">
        <ele>185.9</ele>
        <time>2012-09-16T15:50:52Z</time>
      </trkpt>
      <trkpt lat="43.60097" lon="7.04192">
        <ele>186.1</ele>
        <time>2012-09-16T15:50:54Z</time>
      </trkpt>
      <trkpt lat="43.60093" lon="7.04202">
        <ele>186.2</ele>
        <time>2012-09-16T15:50:56Z</time>
      </trkpt>
      <trkpt lat="43.60091" lon="7.04213">
        <ele>186</ele>
        <time>2012-09-16T15:50:58Z</time>
      </trkpt>
      <trkpt lat="43.60091" lon="7.04224">
        <ele>186.3</ele>
        <time>2012-09-16T15:51:00Z</time>
      </trkpt>
      <trkpt lat="43.60093" lon="7.04235">
        <ele>186.9</ele>
        <time>2012-09-16T15:51:02Z</time>
      </trkpt>
      <trkpt lat="43.60092" lon="7.0424">
        <ele>187.1</ele>
        <time>2012-09-16T15:51:03Z</time>
      </trkpt>
      <trkpt lat="43.60091" lon="7.04252">
        <ele>187</ele>
        <time>2012-09-16T15:51:05Z</time>
      </trkpt>
      <trkpt lat="43.60088" lon="7.04264">
        <ele>187</ele>
        <time>2012-09-16T15:51:07Z</time>
      </trkpt>
      <trkpt lat="43.60086" lon="7.04272">
        <ele>186.5</ele>
        <time>2012-09-16T15:51:09Z</time>
      </trkpt>
      <trkpt lat="43.60086" lon="7.04282">
        <ele>186.1</ele>
        <time>2012-09-16T15:51:11Z</time>
      </trkpt>
      <trkpt lat="43.60087" lon="7.04294">
        <ele>185.5</ele>
        <time>2012-09-16T15:51:13Z</time>
      </trkpt>
      <trkpt lat="43.60088" lon="7.04301">
        <ele>185.2</ele>
        <time>2012-09-16T15:51:14Z</time>
      </trkpt>
      <trkpt lat="43.60088" lon="7.04307">
        <ele>185</ele>
        <time>2012-09-16T15:51:15Z</time>
      </trkpt>
      <trkpt lat="43.60089" lon="7.04314">
        <ele>184.7</ele>
        <time>2012-09-16T15:51:16Z</time>
      </trkpt>
      <trkpt lat="43.6009" lon="7.04322">
        <ele>184.4</ele>
        <time>2012-09-16T15:51:17Z</time>
      </trkpt>
      <trkpt lat="43.60092" lon="7.04329">
        <ele>184.1</ele>
        <time>2012-09-16T15:51:18Z</time>
      </trkpt>
      <trkpt lat="43.60094" lon="7.04335">
        <ele>183.8</ele>
        <time>2012-09-16T15:51:19Z</time>
      </trkpt>
      <trkpt lat="43.60095" lon="7.04342">
        <ele>183.3</ele>
        <time>2012-09-16T15:51:20Z</time>
      </trkpt>
      <trkpt lat="43.60097" lon="7.04348">
        <ele>183</ele>
        <time>2012-09-16T15:51:21Z</time>
      </trkpt>
      <trkpt lat="43.60101" lon="7.04359">
        <ele>182.1</ele>
        <time>2012-09-16T15:51:23Z</time>
      </trkpt>
      <trkpt lat="43.60107" lon="7.04365">
        <ele>181.5</ele>
        <time>2012-09-16T15:51:25Z</time>
      </trkpt>
      <trkpt lat="43.601" lon="7.04373">
        <ele>179.4</ele>
        <time>2012-09-16T15:51:32Z</time>
      </trkpt>
      <trkpt lat="43.60092" lon="7.04378">
        <ele>178.5</ele>
        <time>2012-09-16T15:51:34Z</time>
      </trkpt>
      <trkpt lat="43.60085" lon="7.04382">
        <ele>176.3</ele>
        <time>2012-09-16T15:51:37Z</time>
      </trkpt>
      <trkpt lat="43.60085" lon="7.04392">
        <ele>175.1</ele>
        <time>2012-09-16T15:51:39Z</time>
      </trkpt>
      <trkpt lat="43.60085" lon="7.04398">
        <ele>174.6</ele>
        <time>2012-09-16T15:51:40Z</time>
      </trkpt>
      <trkpt lat="43.60085" lon="7.04409">
        <ele>173.2</ele>
        <time>2012-09-16T15:51:42Z</time>
      </trkpt>
      <trkpt lat="43.60079" lon="7.04417">
        <ele>171.2</ele>
        <time>2012-09-16T15:51:45Z</time>
      </trkpt>
      <trkpt lat="43.60078" lon="7.04429">
        <ele>168.4</ele>
        <time>2012-09-16T15:51:51Z</time>
      </trkpt>
      <trkpt lat="43.60081" lon="7.04438">
        <ele>167.6</ele>
        <time>2012-09-16T15:51:56Z</time>
      </trkpt>
      <trkpt lat="43.60085" lon="7.04444">
        <ele>167.2</ele>
        <time>2012-09-16T15:51:58Z</time>
      </trkpt>
      <trkpt lat="43.60088" lon="7.04453">
        <ele>166.7</ele>
        <time>2012-09-16T15:52:00Z</time>
      </trkpt>
      <trkpt lat="43.60083" lon="7.04462">
        <ele>164.3</ele>
        <time>2012-09-16T15:52:04Z</time>
      </trkpt>
      <trkpt lat="43.6008" lon="7.04462">
        <ele>163.8</ele>
        <time>2012-09-16T15:52:05Z</time>
      </trkpt>
      <trkpt lat="43.60071" lon="7.04465">
        <ele>162.7</ele>
        <time>2012-09-16T15:52:08Z</time>
      </trkpt>
      <trkpt lat="43.60065" lon="7.04473">
        <ele>162.1</ele>
        <time>2012-09-16T15:52:10Z</time>
      </trkpt>
      <trkpt lat="43.60062" lon="7.04478">
        <ele>161.9</ele>
        <time>2012-09-16T15:52:11Z</time>
      </trkpt>
      <trkpt lat="43.60059" lon="7.04483">
        <ele>161.6</ele>
        <time>2012-09-16T15:52:12Z</time>
      </trkpt>
      <trkpt lat="43.60056" lon="7.04488">
        <ele>161.2</ele>
        <time>2012-09-16T15:52:13Z</time>
      </trkpt>
      <trkpt lat="43.60052" lon="7.04493">
        <ele>160.9</ele>
        <time>2012-09-16T15:52:14Z</time>
      </trkpt>
      <trkpt lat="43.60045" lon="7.04499">
        <ele>160</ele>
        <time>2012-09-16T15:52:16Z</time>
      </trkpt>
      <trkpt lat="43.6004" lon="7.04504">
        <ele>159.2</ele>
        <time>2012-09-16T15:52:18Z</time>
      </trkpt>
      <trkpt lat="43.60035" lon="7.0451">
        <ele>158.4</ele>
        <time>2012-09-16T15:52:20Z</time>
      </trkpt>
      <trkpt lat="43.60031" lon="7.04519">
        <ele>158</ele>
        <time>2012-09-16T15:52:22Z</time>
      </trkpt>
      <trkpt lat="43.60029" lon="7.04524">
        <ele>157.9</ele>
        <time>2012-09-16T15:52:23Z</time>
      </trkpt>
      <trkpt lat="43.60026" lon="7.04529">
        <ele>157.8</ele>
        <time>2012-09-16T15:52:24Z</time>
      </trkpt>
      <trkpt lat="43.60023" lon="7.04535">
        <ele>157.7</ele>
        <time>2012-09-16T15:52:25Z</time>
      </trkpt>
      <trkpt lat="43.6002" lon="7.04541">
        <ele>157.6</ele>
        <time>2012-09-16T15:52:26Z</time>
      </trkpt>
      <trkpt lat="43.60017" lon="7.04547">
        <ele>157.5</ele>
        <time>2012-09-16T15:52:27Z</time>
      </trkpt>
      <trkpt lat="43.60015" lon="7.04554">
        <ele>157.5</ele>
        <time>2012-09-16T15:52:28Z</time>
      </trkpt>
      <trkpt lat="43.60014" lon="7.04562">
        <ele>157</ele>
        <time>2012-09-16T15:52:29Z</time>
      </trkpt>
      <trkpt lat="43.60013" lon="7.0457">
        <ele>156.7</ele>
        <time>2012-09-16T15:52:30Z</time>
      </trkpt>
      <trkpt lat="43.60012" lon="7.04578">
        <ele>156.5</ele>
        <time>2012-09-16T15:52:31Z</time>
      </trkpt>
      <trkpt lat="43.60011" lon="7.04585">
        <ele>156.5</ele>
        <time>2012-09-16T15:52:32Z</time>
      </trkpt>
      <trkpt lat="43.60011" lon="7.04593">
        <ele>156.5</ele>
        <time>2012-09-16T15:52:33Z</time>
      </trkpt>
      <trkpt lat="43.60011" lon="7.046">
        <ele>156.2</ele>
        <time>2012-09-16T15:52:34Z</time>
      </trkpt>
      <trkpt lat="43.60012" lon="7.04606">
        <ele>156</ele>
        <time>2012-09-16T15:52:35Z</time>
      </trkpt>
      <trkpt lat="43.60013" lon="7.04613">
        <ele>156</ele>
        <time>2012-09-16T15:52:36Z</time>
      </trkpt>
      <trkpt lat="43.60015" lon="7.04619">
        <ele>156</ele>
        <time>2012-09-16T15:52:37Z</time>
      </trkpt>
      <trkpt lat="43.60017" lon="7.04624">
        <ele>155.9</ele>
        <time>2012-09-16T15:52:38Z</time>
      </trkpt>
      <trkpt lat="43.60019" lon="7.0463">
        <ele>156</ele>
        <time>2012-09-16T15:52:39Z</time>
      </trkpt>
      <trkpt lat="43.60021" lon="7.04636">
        <ele>156.1</ele>
        <time>2012-09-16T15:52:40Z</time>
      </trkpt>
      <trkpt lat="43.60022" lon="7.04643">
        <ele>156.3</ele>
        <time>2012-09-16T15:52:41Z</time>
      </trkpt>
      <trkpt lat="43.60023" lon="7.0465">
        <ele>156.5</ele>
        <time>2012-09-16T15:52:42Z</time>
      </trkpt>
      <trkpt lat="43.60023" lon="7.04656">
        <ele>156.1</ele>
        <time>2012-09-16T15:52:43Z</time>
      </trkpt>
      <trkpt lat="43.60023" lon="7.04663">
        <ele>155.9</ele>
        <time>2012-09-16T15:52:44Z</time>
      </trkpt>
      <trkpt lat="43.60024" lon="7.04669">
        <ele>155.7</ele>
        <time>2012-09-16T15:52:45Z</time>
      </trkpt>
      <trkpt lat="43.60025" lon="7.04676">
        <ele>155.7</ele>
        <time>2012-09-16T15:52:46Z</time>
      </trkpt>
      <trkpt lat="43.60025" lon="7.04682">
        <ele>155.6</ele>
        <time>2012-09-16T15:52:47Z</time>
      </trkpt>
      <trkpt lat="43.60026" lon="7.04688">
        <ele>155.8</ele>
        <time>2012-09-16T15:52:48Z</time>
      </trkpt>
      <trkpt lat="43.60027" lon="7.04695">
        <ele>156</ele>
        <time>2012-09-16T15:52:49Z</time>
      </trkpt>
      <trkpt lat="43.60029" lon="7.04702">
        <ele>156.1</ele>
        <time>2012-09-16T15:52:50Z</time>
      </trkpt>
      <trkpt lat="43.6003" lon="7.04709">
        <ele>156</ele>
        <time>2012-09-16T15:52:51Z</time>
      </trkpt>
      <trkpt lat="43.60032" lon="7.04716">
        <ele>155.9</ele>
        <time>2012-09-16T15:52:52Z</time>
      </trkpt>
      <trkpt lat="43.60034" lon="7.04722">
        <ele>156.2</ele>
        <time>2012-09-16T15:52:53Z</time>
      </trkpt>
      <trkpt lat="43.60038" lon="7.04733">
        <ele>156.3</ele>
        <time>2012-09-16T15:52:55Z</time>
      </trkpt>
      <trkpt lat="43.6004" lon="7.04744">
        <ele>155.9</ele>
        <time>2012-09-16T15:52:58Z</time>
      </trkpt>
      <trkpt lat="43.60042" lon="7.04751">
        <ele>155.6</ele>
        <time>2012-09-16T15:53:00Z</time>
      </trkpt>
      <trkpt lat="43.60043" lon="7.04757">
        <ele>155.5</ele>
        <time>2012-09-16T15:53:01Z</time>
      </trkpt>
      <trkpt lat="43.60044" lon="7.04764">
        <ele>155.8</ele>
        <time>2012-09-16T15:53:02Z</time>
      </trkpt>
      <trkpt lat="43.60045" lon="7.0477">
        <ele>156.1</ele>
        <time>2012-09-16T15:53:03Z</time>
      </trkpt>
      <trkpt lat="43.60046" lon="7.04776">
        <ele>156.3</ele>
        <time>2012-09-16T15:53:04Z</time>
      </trkpt>
      <trkpt lat="43.60046" lon="7.04782">
        <ele>156.2</ele>
        <time>2012-09-16T15:53:05Z</time>
      </trkpt>
      <trkpt lat="43.60046" lon="7.04789">
        <ele>156.2</ele>
        <time>2012-09-16T15:53:06Z</time>
      </trkpt>
      <trkpt lat="43.60046" lon="7.04796">
        <ele>156.2</ele>
        <time>2012-09-16T15:53:07Z</time>
      </trkpt>
      <trkpt lat="43.60046" lon="7.04803">
        <ele>156.1</ele>
        <time>2012-09-16T15:53:08Z</time>
      </trkpt>
      <trkpt lat="43.60048" lon="7.04815">
        <ele>155.8</ele>
        <time>2012-09-16T15:53:10Z</time>
      </trkpt>
      <trkpt lat="43.60051" lon="7.04825">
        <ele>155.5</ele>
        <time>2012-09-16T15:53:12Z</time>
      </trkpt>
      <trkpt lat="43.60053" lon="7.04831">
        <ele>155.5</ele>
        <time>2012-09-16T15:53:13Z</time>
      </trkpt>
      <trkpt lat="43.60056" lon="7.04837">
        <ele>155.3</ele>
        <time>2012-09-16T15:53:14Z</time>
      </trkpt>
      <trkpt lat="43.60058" lon="7.04844">
        <ele>155.2</ele>
        <time>2012-09-16T15:53:15Z</time>
      </trkpt>
      <trkpt lat="43.60059" lon="7.0485">
        <ele>155</ele>
        <time>2012-09-16T15:53:16Z</time>
      </trkpt>
      <trkpt lat="43.6006" lon="7.04857">
        <ele>155.1</ele>
        <time>2012-09-16T15:53:17Z</time>
      </trkpt>
      <trkpt lat="43.60061" lon="7.04864">
        <ele>155.1</ele>
        <time>2012-09-16T15:53:18Z</time>
      </trkpt>
      <trkpt lat="43.60063" lon="7.04872">
        <ele>155.1</ele>
        <time>2012-09-16T15:53:19Z</time>
      </trkpt>
      <trkpt lat="43.60063" lon="7.0488">
        <ele>155.1</ele>
        <time>2012-09-16T15:53:20Z</time>
      </trkpt>
      <trkpt lat="43.60063" lon="7.04889">
        <ele>154.6</ele>
        <time>2012-09-16T15:53:21Z</time>
      </trkpt>
      <trkpt lat="43.60063" lon="7.04897">
        <ele>154.2</ele>
        <time>2012-09-16T15:53:22Z</time>
      </trkpt>
      <trkpt lat="43.60062" lon="7.04905">
        <ele>154</ele>
        <time>2012-09-16T15:53:23Z</time>
      </trkpt>
      <trkpt lat="43.6006" lon="7.04913">
        <ele>154</ele>
        <time>2012-09-16T15:53:24Z</time>
      </trkpt>
      <trkpt lat="43.60058" lon="7.04925">
        <ele>153.7</ele>
        <time>2012-09-16T15:53:26Z</time>
      </trkpt>
      <trkpt lat="43.6006" lon="7.04932">
        <ele>153.6</ele>
        <time>2012-09-16T15:53:27Z</time>
      </trkpt>
      <trkpt lat="43.60059" lon="7.04938">
        <ele>153.4</ele>
        <time>2012-09-16T15:53:28Z</time>
      </trkpt>
      <trkpt lat="43.60056" lon="7.04944">
        <ele>152.5</ele>
        <time>2012-09-16T15:53:29Z</time>
      </trkpt>
      <trkpt lat="43.60054" lon="7.04949">
        <ele>151.8</ele>
        <time>2012-09-16T15:53:30Z</time>
      </trkpt>
      <trkpt lat="43.60051" lon="7.04955">
        <ele>150.8</ele>
        <time>2012-09-16T15:53:31Z</time>
      </trkpt>
      <trkpt lat="43.60048" lon="7.0496">
        <ele>150.1</ele>
        <time>2012-09-16T15:53:32Z</time>
      </trkpt>
      <trkpt lat="43.60045" lon="7.04965">
        <ele>149.8</ele>
        <time>2012-09-16T15:53:33Z</time>
      </trkpt>
      <trkpt lat="43.60041" lon="7.04974">
        <ele>149.4</ele>
        <time>2012-09-16T15:53:35Z</time>
      </trkpt>
      <trkpt lat="43.60042" lon="7.04984">
        <ele>149.2</ele>
        <time>2012-09-16T15:53:37Z</time>
      </trkpt>
      <trkpt lat="43.60037" lon="7.04992">
        <ele>148.9</ele>
        <time>2012-09-16T15:53:39Z</time>
      </trkpt>
      <trkpt lat="43.60034" lon="7.04996">
        <ele>149</ele>
        <time>2012-09-16T15:53:40Z</time>
      </trkpt>
      <trkpt lat="43.60031" lon="7.05001">
        <ele>149.1</ele>
        <time>2012-09-16T15:53:41Z</time>
      </trkpt>
      <trkpt lat="43.60026" lon="7.05009">
        <ele>148.8</ele>
        <time>2012-09-16T15:53:43Z</time>
      </trkpt>
      <trkpt lat="43.60025" lon="7.0502">
        <ele>148.6</ele>
        <time>2012-09-16T15:53:47Z</time>
      </trkpt>
      <trkpt lat="43.60027" lon="7.05028">
        <ele>149.1</ele>
        <time>2012-09-16T15:53:50Z</time>
      </trkpt>
      <trkpt lat="43.60026" lon="7.05039">
        <ele>150.1</ele>
        <time>2012-09-16T15:53:53Z</time>
      </trkpt>
      <trkpt lat="43.60022" lon="7.05049">
        <ele>150.9</ele>
        <time>2012-09-16T15:53:56Z</time>
      </trkpt>
      <trkpt lat="43.60014" lon="7.05053">
        <ele>151.8</ele>
        <time>2012-09-16T15:54:01Z</time>
      </trkpt>
      <trkpt lat="43.60007" lon="7.05058">
        <ele>153.4</ele>
        <time>2012-09-16T15:54:05Z</time>
      </trkpt>
      <trkpt lat="43.60005" lon="7.05066">
        <ele>153.5</ele>
        <time>2012-09-16T15:54:07Z</time>
      </trkpt>
      <trkpt lat="43.60004" lon="7.05071">
        <ele>153.4</ele>
        <time>2012-09-16T15:54:08Z</time>
      </trkpt>
      <trkpt lat="43.60001" lon="7.05081">
        <ele>153.4</ele>
        <time>2012-09-16T15:54:10Z</time>
      </trkpt>
      <trkpt lat="43.59998" lon="7.05087">
        <ele>152.9</ele>
        <time>2012-09-16T15:54:11Z</time>
      </trkpt>
      <trkpt lat="43.59996" lon="7.05093">
        <ele>152.6</ele>
        <time>2012-09-16T15:54:12Z</time>
      </trkpt>
      <trkpt lat="43.59994" lon="7.05099">
        <ele>152.4</ele>
        <time>2012-09-16T15:54:13Z</time>
      </trkpt>
      <trkpt lat="43.59993" lon="7.05105">
        <ele>152.3</ele>
        <time>2012-09-16T15:54:14Z</time>
      </trkpt>
      <trkpt lat="43.59993" lon="7.05112">
        <ele>152.2</ele>
        <time>2012-09-16T15:54:15Z</time>
      </trkpt>
      <trkpt lat="43.59994" lon="7.05123">
        <ele>152.8</ele>
        <time>2012-09-16T15:54:17Z</time>
      </trkpt>
      <trkpt lat="43.59997" lon="7.05134">
        <ele>152.5</ele>
        <time>2012-09-16T15:54:20Z</time>
      </trkpt>
      <trkpt lat="43.60003" lon="7.0514">
        <ele>152.5</ele>
        <time>2012-09-16T15:54:22Z</time>
      </trkpt>
      <trkpt lat="43.60008" lon="7.05147">
        <ele>152.4</ele>
        <time>2012-09-16T15:54:24Z</time>
      </trkpt>
      <trkpt lat="43.60013" lon="7.05155">
        <ele>152.4</ele>
        <time>2012-09-16T15:54:26Z</time>
      </trkpt>
      <trkpt lat="43.6002" lon="7.0516">
        <ele>152.5</ele>
        <time>2012-09-16T15:54:28Z</time>
      </trkpt>
      <trkpt lat="43.60028" lon="7.05165">
        <ele>152.6</ele>
        <time>2012-09-16T15:54:30Z</time>
      </trkpt>
      <trkpt lat="43.60031" lon="7.05169">
        <ele>152.7</ele>
        <time>2012-09-16T15:54:31Z</time>
      </trkpt>
      <trkpt lat="43.60034" lon="7.05175">
        <ele>152.7</ele>
        <time>2012-09-16T15:54:32Z</time>
      </trkpt>
      <trkpt lat="43.60037" lon="7.0518">
        <ele>152.7</ele>
        <time>2012-09-16T15:54:33Z</time>
      </trkpt>
      <trkpt lat="43.60041" lon="7.05184">
        <ele>152.7</ele>
        <time>2012-09-16T15:54:34Z</time>
      </trkpt>
      <trkpt lat="43.60045" lon="7.05188">
        <ele>152.7</ele>
        <time>2012-09-16T15:54:35Z</time>
      </trkpt>
      <trkpt lat="43.60051" lon="7.05195">
        <ele>152.2</ele>
        <time>2012-09-16T15:54:37Z</time>
      </trkpt>
      <trkpt lat="43.60055" lon="7.05195">
        <ele>151.8</ele>
        <time>2012-09-16T15:54:38Z</time>
      </trkpt>
      <trkpt lat="43.6006" lon="7.05193">
        <ele>151.5</ele>
        <time>2012-09-16T15:54:39Z</time>
      </trkpt>
      <trkpt lat="43.60065" lon="7.05193">
        <ele>150.7</ele>
        <time>2012-09-16T15:54:40Z</time>
      </trkpt>
      <trkpt lat="43.6007" lon="7.05195">
        <ele>150</ele>
        <time>2012-09-16T15:54:41Z</time>
      </trkpt>
      <trkpt lat="43.60075" lon="7.05198">
        <ele>149.7</ele>
        <time>2012-09-16T15:54:42Z</time>
      </trkpt>
      <trkpt lat="43.60079" lon="7.05202">
        <ele>149.4</ele>
        <time>2012-09-16T15:54:43Z</time>
      </trkpt>
      <trkpt lat="43.60084" lon="7.05206">
        <ele>149.2</ele>
        <time>2012-09-16T15:54:44Z</time>
      </trkpt>
      <trkpt lat="43.60088" lon="7.05212">
        <ele>149</ele>
        <time>2012-09-16T15:54:45Z</time>
      </trkpt>
      <trkpt lat="43.60091" lon="7.0522">
        <ele>148.8</ele>
        <time>2012-09-16T15:54:46Z</time>
      </trkpt>
      <trkpt lat="43.60093" lon="7.05228">
        <ele>148</ele>
        <time>2012-09-16T15:54:47Z</time>
      </trkpt>
      <trkpt lat="43.60094" lon="7.05236">
        <ele>147.4</ele>
        <time>2012-09-16T15:54:48Z</time>
      </trkpt>
      <trkpt lat="43.60094" lon="7.05244">
        <ele>146.5</ele>
        <time>2012-09-16T15:54:49Z</time>
      </trkpt>
      <trkpt lat="43.60092" lon="7.05253">
        <ele>145.8</ele>
        <time>2012-09-16T15:54:50Z</time>
      </trkpt>
      <trkpt lat="43.60089" lon="7.0526">
        <ele>145.4</ele>
        <time>2012-09-16T15:54:51Z</time>
      </trkpt>
      <trkpt lat="43.60089" lon="7.05267">
        <ele>144.7</ele>
        <time>2012-09-16T15:54:52Z</time>
      </trkpt>
      <trkpt lat="43.60091" lon="7.05273">
        <ele>144.3</ele>
        <time>2012-09-16T15:54:53Z</time>
      </trkpt>
      <trkpt lat="43.60094" lon="7.05279">
        <ele>143</ele>
        <time>2012-09-16T15:54:54Z</time>
      </trkpt>
      <trkpt lat="43.60095" lon="7.05291">
        <ele>141.3</ele>
        <time>2012-09-16T15:54:56Z</time>
      </trkpt>
      <trkpt lat="43.60095" lon="7.05297">
        <ele>140.7</ele>
        <time>2012-09-16T15:54:57Z</time>
      </trkpt>
      <trkpt lat="43.60095" lon="7.05304">
        <ele>140.2</ele>
        <time>2012-09-16T15:54:58Z</time>
      </trkpt>
      <trkpt lat="43.60095" lon="7.05311">
        <ele>140.1</ele>
        <time>2012-09-16T15:54:59Z</time>
      </trkpt>
      <trkpt lat="43.60094" lon="7.05319">
        <ele>140</ele>
        <time>2012-09-16T15:55:00Z</time>
      </trkpt>
      <trkpt lat="43.60095" lon="7.05327">
        <ele>139.5</ele>
        <time>2012-09-16T15:55:01Z</time>
      </trkpt>
      <trkpt lat="43.60095" lon="7.05334">
        <ele>139.1</ele>
        <time>2012-09-16T15:55:02Z</time>
      </trkpt>
      <trkpt lat="43.60095" lon="7.05345">
        <ele>138.3</ele>
        <time>2012-09-16T15:55:04Z</time>
      </trkpt>
      <trkpt lat="43.60102" lon="7.05352">
        <ele>136.4</ele>
        <time>2012-09-16T15:55:08Z</time>
      </trkpt>
      <trkpt lat="43.60104" lon="7.05352">
        <ele>136.4</ele>
        <time>2012-09-16T15:55:09Z</time>
      </trkpt>
      <trkpt lat="43.60119" lon="7.05353">
        <ele>135.7</ele>
        <time>2012-09-16T15:55:29Z</time>
      </trkpt>
      <trkpt lat="43.60122" lon="7.05365">
        <ele>136.7</ele>
        <time>2012-09-16T15:55:34Z</time>
      </trkpt>
      <trkpt lat="43.60128" lon="7.05372">
        <ele>137.8</ele>
        <time>2012-09-16T15:55:39Z</time>
      </trkpt>
      <trkpt lat="43.60136" lon="7.05372">
        <ele>138.5</ele>
        <time>2012-09-16T15:55:44Z</time>
      </trkpt>
      <trkpt lat="43.60143" lon="7.05367">
        <ele>138.2</ele>
        <time>2012-09-16T15:55:48Z</time>
      </trkpt>
      <trkpt lat="43.60148" lon="7.05359">
        <ele>140</ele>
        <time>2012-09-16T15:55:53Z</time>
      </trkpt>
      <trkpt lat="43.60149" lon="7.05348">
        <ele>142.2</ele>
        <time>2012-09-16T15:55:58Z</time>
      </trkpt>
      <trkpt lat="43.60148" lon="7.05337">
        <ele>142.9</ele>
        <time>2012-09-16T15:56:02Z</time>
      </trkpt>
      <trkpt lat="43.6015" lon="7.05326">
        <ele>144.3</ele>
        <time>2012-09-16T15:56:07Z</time>
      </trkpt>
      <trkpt lat="43.60154" lon="7.05315">
        <ele>144.9</ele>
        <time>2012-09-16T15:56:13Z</time>
      </trkpt>
      <trkpt lat="43.60155" lon="7.05313">
        <ele>144.9</ele>
        <time>2012-09-16T15:56:14Z</time>
      </trkpt>
      <trkpt lat="43.60161" lon="7.05294">
        <ele>145.4</ele>
        <time>2012-09-16T15:56:23Z</time>
      </trkpt>
      <trkpt lat="43.60164" lon="7.05286">
        <ele>145.6</ele>
        <time>2012-09-16T15:56:26Z</time>
      </trkpt>
      <trkpt lat="43.60167" lon="7.05277">
        <ele>145.9</ele>
        <time>2012-09-16T15:56:29Z</time>
      </trkpt>
      <trkpt lat="43.60169" lon="7.05269">
        <ele>146.5</ele>
        <time>2012-09-16T15:56:31Z</time>
      </trkpt>
      <trkpt lat="43.60173" lon="7.05262">
        <ele>146.9</ele>
        <time>2012-09-16T15:56:33Z</time>
      </trkpt>
      <trkpt lat="43.60176" lon="7.05251">
        <ele>147.5</ele>
        <time>2012-09-16T15:56:36Z</time>
      </trkpt>
      <trkpt lat="43.60177" lon="7.05243">
        <ele>147.9</ele>
        <time>2012-09-16T15:56:38Z</time>
      </trkpt>
      <trkpt lat="43.60183" lon="7.05234">
        <ele>149.1</ele>
        <time>2012-09-16T15:56:41Z</time>
      </trkpt>
      <trkpt lat="43.60189" lon="7.05227">
        <ele>150</ele>
        <time>2012-09-16T15:56:44Z</time>
      </trkpt>
      <trkpt lat="43.60194" lon="7.0522">
        <ele>150.1</ele>
        <time>2012-09-16T15:56:47Z</time>
      </trkpt>
      <trkpt lat="43.60198" lon="7.05211">
        <ele>151.5</ele>
        <time>2012-09-16T15:56:51Z</time>
      </trkpt>
      <trkpt lat="43.60204" lon="7.05201">
        <ele>152.6</ele>
        <time>2012-09-16T15:56:55Z</time>
      </trkpt>
      <trkpt lat="43.60204" lon="7.05191">
        <ele>152.9</ele>
        <time>2012-09-16T15:56:58Z</time>
      </trkpt>
      <trkpt lat="43.602" lon="7.05181">
        <ele>153.9</ele>
        <time>2012-09-16T15:57:01Z</time>
      </trkpt>
      <trkpt lat="43.60196" lon="7.05171">
        <ele>155.8</ele>
        <time>2012-09-16T15:57:04Z</time>
      </trkpt>
      <trkpt lat="43.60192" lon="7.05162">
        <ele>156.5</ele>
        <time>2012-09-16T15:57:07Z</time>
      </trkpt>
      <trkpt lat="43.60191" lon="7.05153">
        <ele>157.8</ele>
        <time>2012-09-16T15:57:10Z</time>
      </trkpt>
      <trkpt lat="43.6019" lon="7.05141">
        <ele>158.4</ele>
        <time>2012-09-16T15:57:14Z</time>
      </trkpt>
      <trkpt lat="43.6019" lon="7.05138">
        <ele>158.5</ele>
        <time>2012-09-16T15:57:15Z</time>
      </trkpt>
      <trkpt lat="43.60191" lon="7.0512">
        <ele>158.8</ele>
        <time>2012-09-16T15:57:20Z</time>
      </trkpt>
      <trkpt lat="43.60193" lon="7.0511">
        <ele>159.6</ele>
        <time>2012-09-16T15:57:23Z</time>
      </trkpt>
      <trkpt lat="43.60195" lon="7.05098">
        <ele>160.2</ele>
        <time>2012-09-16T15:57:26Z</time>
      </trkpt>
      <trkpt lat="43.60198" lon="7.05087">
        <ele>161.1</ele>
        <time>2012-09-16T15:57:29Z</time>
      </trkpt>
      <trkpt lat="43.60202" lon="7.05076">
        <ele>161.7</ele>
        <time>2012-09-16T15:57:32Z</time>
      </trkpt>
      <trkpt lat="43.60206" lon="7.05069">
        <ele>161.6</ele>
        <time>2012-09-16T15:57:34Z</time>
      </trkpt>
      <trkpt lat="43.60213" lon="7.05061">
        <ele>161.1</ele>
        <time>2012-09-16T15:57:37Z</time>
      </trkpt>
      <trkpt lat="43.60221" lon="7.05058">
        <ele>161.9</ele>
        <time>2012-09-16T15:57:42Z</time>
      </trkpt>
      <trkpt lat="43.60228" lon="7.05061">
        <ele>162.8</ele>
        <time>2012-09-16T15:57:46Z</time>
      </trkpt>
      <trkpt lat="43.60236" lon="7.05057">
        <ele>164.2</ele>
        <time>2012-09-16T15:57:50Z</time>
      </trkpt>
      <trkpt lat="43.60241" lon="7.05048">
        <ele>165</ele>
        <time>2012-09-16T15:57:54Z</time>
      </trkpt>
      <trkpt lat="43.60241" lon="7.05038">
        <ele>165.3</ele>
        <time>2012-09-16T15:57:57Z</time>
      </trkpt>
      <trkpt lat="43.60241" lon="7.05026">
        <ele>166.2</ele>
        <time>2012-09-16T15:58:00Z</time>
      </trkpt>
      <trkpt lat="43.60239" lon="7.05017">
        <ele>166.4</ele>
        <time>2012-09-16T15:58:02Z</time>
      </trkpt>
      <trkpt lat="43.60238" lon="7.05008">
        <ele>166.5</ele>
        <time>2012-09-16T15:58:04Z</time>
      </trkpt>
      <trkpt lat="43.60237" lon="7.04999">
        <ele>166.6</ele>
        <time>2012-09-16T15:58:06Z</time>
      </trkpt>
      <trkpt lat="43.60235" lon="7.04988">
        <ele>166.7</ele>
        <time>2012-09-16T15:58:08Z</time>
      </trkpt>
      <trkpt lat="43.60234" lon="7.04976">
        <ele>167.7</ele>
        <time>2012-09-16T15:58:10Z</time>
      </trkpt>
      <trkpt lat="43.60234" lon="7.0497">
        <ele>167.4</ele>
        <time>2012-09-16T15:58:11Z</time>
      </trkpt>
      <trkpt lat="43.60233" lon="7.04963">
        <ele>167.1</ele>
        <time>2012-09-16T15:58:12Z</time>
      </trkpt>
      <trkpt lat="43.60231" lon="7.04956">
        <ele>166.9</ele>
        <time>2012-09-16T15:58:13Z</time>
      </trkpt>
      <trkpt lat="43.60229" lon="7.04949">
        <ele>166.8</ele>
        <time>2012-09-16T15:58:14Z</time>
      </trkpt>
      <trkpt lat="43.60228" lon="7.04942">
        <ele>166.7</ele>
        <time>2012-09-16T15:58:15Z</time>
      </trkpt>
      <trkpt lat="43.60227" lon="7.04935">
        <ele>166.4</ele>
        <time>2012-09-16T15:58:16Z</time>
      </trkpt>
      <trkpt lat="43.60227" lon="7.04928">
        <ele>166.2</ele>
        <time>2012-09-16T15:58:17Z</time>
      </trkpt>
      <trkpt lat="43.60226" lon="7.04921">
        <ele>165.3</ele>
        <time>2012-09-16T15:58:18Z</time>
      </trkpt>
      <trkpt lat="43.60227" lon="7.04914">
        <ele>164.7</ele>
        <time>2012-09-16T15:58:19Z</time>
      </trkpt>
      <trkpt lat="43.60233" lon="7.04905">
        <ele>163.3</ele>
        <time>2012-09-16T15:58:21Z</time>
      </trkpt>
      <trkpt lat="43.60238" lon="7.04896">
        <ele>162.5</ele>
        <time>2012-09-16T15:58:23Z</time>
      </trkpt>
      <trkpt lat="43.60241" lon="7.04886">
        <ele>162.5</ele>
        <time>2012-09-16T15:58:25Z</time>
      </trkpt>
      <trkpt lat="43.60242" lon="7.04878">
        <ele>162.6</ele>
        <time>2012-09-16T15:58:27Z</time>
      </trkpt>
      <trkpt lat="43.60244" lon="7.04869">
        <ele>162.6</ele>
        <time>2012-09-16T15:58:29Z</time>
      </trkpt>
      <trkpt lat="43.60247" lon="7.04858">
        <ele>163.2</ele>
        <time>2012-09-16T15:58:32Z</time>
      </trkpt>
      <trkpt lat="43.6025" lon="7.04847">
        <ele>163.9</ele>
        <time>2012-09-16T15:58:35Z</time>
      </trkpt>
      <trkpt lat="43.60252" lon="7.04837">
        <ele>164.9</ele>
        <time>2012-09-16T15:58:38Z</time>
      </trkpt>
      <trkpt lat="43.60248" lon="7.04829">
        <ele>166.8</ele>
        <time>2012-09-16T15:58:42Z</time>
      </trkpt>
      <trkpt lat="43.60241" lon="7.04824">
        <ele>168.3</ele>
        <time>2012-09-16T15:58:45Z</time>
      </trkpt>
      <trkpt lat="43.60232" lon="7.04822">
        <ele>169.3</ele>
        <time>2012-09-16T15:58:49Z</time>
      </trkpt>
      <trkpt lat="43.60225" lon="7.04823">
        <ele>169.7</ele>
        <time>2012-09-16T15:58:52Z</time>
      </trkpt>
      <trkpt lat="43.60219" lon="7.0482">
        <ele>169.9</ele>
        <time>2012-09-16T15:58:54Z</time>
      </trkpt>
      <trkpt lat="43.60215" lon="7.04809">
        <ele>170.5</ele>
        <time>2012-09-16T15:58:59Z</time>
      </trkpt>
      <trkpt lat="43.60212" lon="7.04798">
        <ele>171.7</ele>
        <time>2012-09-16T15:59:04Z</time>
      </trkpt>
      <trkpt lat="43.60215" lon="7.04786">
        <ele>174.1</ele>
        <time>2012-09-16T15:59:11Z</time>
      </trkpt>
      <trkpt lat="43.60214" lon="7.04775">
        <ele>177.2</ele>
        <time>2012-09-16T15:59:19Z</time>
      </trkpt>
      <trkpt lat="43.60214" lon="7.04773">
        <ele>177.2</ele>
        <time>2012-09-16T15:59:20Z</time>
      </trkpt>
      <trkpt lat="43.60202" lon="7.04757">
        <ele>179.2</ele>
        <time>2012-09-16T16:00:04Z</time>
      </trkpt>
      <trkpt lat="43.60211" lon="7.04756">
        <ele>158.7</ele>
        <time>2012-09-16T16:02:24Z</time>
      </trkpt>
      <trkpt lat="43.60211" lon="7.04756">
        <ele>158.7</ele>
        <time>2012-09-16T16:02:25Z</time>
      </trkpt>
      <trkpt lat="43.60211" lon="7.04757">
        <ele>158.1</ele>
        <time>2012-09-16T16:08:22Z</time>
      </trkpt>
      <trkpt lat="43.6021" lon="7.04756">
        <ele>158.5</ele>
        <time>2012-09-16T16:08:23Z</time>
      </trkpt>
      <trkpt lat="43.60205" lon="7.04738">
        <ele>159.7</ele>
        <time>2012-09-16T16:08:42Z</time>
      </trkpt>
      <trkpt lat="43.60203" lon="7.04726">
        <ele>161</ele>
        <time>2012-09-16T16:08:50Z</time>
      </trkpt>
      <trkpt lat="43.60199" lon="7.04717">
        <ele>161.5</ele>
        <time>2012-09-16T16:08:55Z</time>
      </trkpt>
      <trkpt lat="43.60199" lon="7.04706">
        <ele>161.7</ele>
        <time>2012-09-16T16:09:00Z</time>
      </trkpt>
      <trkpt lat="43.60196" lon="7.04696">
        <ele>163.5</ele>
        <time>2012-09-16T16:09:04Z</time>
      </trkpt>
      <trkpt lat="43.60195" lon="7.04684">
        <ele>163.6</ele>
        <time>2012-09-16T16:09:08Z</time>
      </trkpt>
      <trkpt lat="43.60193" lon="7.04673">
        <ele>164</ele>
        <time>2012-09-16T16:09:12Z</time>
      </trkpt>
      <trkpt lat="43.60192" lon="7.04664">
        <ele>164.3</ele>
        <time>2012-09-16T16:09:15Z</time>
      </trkpt>
      <trkpt lat="43.60188" lon="7.04654">
        <ele>163.9</ele>
        <time>2012-09-16T16:09:18Z</time>
      </trkpt>
      <trkpt lat="43.60184" lon="7.04645">
        <ele>163.8</ele>
        <time>2012-09-16T16:09:20Z</time>
      </trkpt>
      <trkpt lat="43.60184" lon="7.04635">
        <ele>163.9</ele>
        <time>2012-09-16T16:09:22Z</time>
      </trkpt>
      <trkpt lat="43.60186" lon="7.04624">
        <ele>162.9</ele>
        <time>2012-09-16T16:09:25Z</time>
      </trkpt>
      <trkpt lat="43.60186" lon="7.0462">
        <ele>162.5</ele>
        <time>2012-09-16T16:09:26Z</time>
      </trkpt>
      <trkpt lat="43.60187" lon="7.046">
        <ele>163.6</ele>
        <time>2012-09-16T16:09:31Z</time>
      </trkpt>
      <trkpt lat="43.60187" lon="7.04592">
        <ele>164.2</ele>
        <time>2012-09-16T16:09:33Z</time>
      </trkpt>
      <trkpt lat="43.60188" lon="7.04583">
        <ele>164.4</ele>
        <time>2012-09-16T16:09:35Z</time>
      </trkpt>
      <trkpt lat="43.6019" lon="7.04575">
        <ele>164.4</ele>
        <time>2012-09-16T16:09:37Z</time>
      </trkpt>
      <trkpt lat="43.60192" lon="7.04566">
        <ele>164.3</ele>
        <time>2012-09-16T16:09:39Z</time>
      </trkpt>
      <trkpt lat="43.60195" lon="7.04556">
        <ele>164.3</ele>
        <time>2012-09-16T16:09:41Z</time>
      </trkpt>
      <trkpt lat="43.60198" lon="7.04547">
        <ele>164.2</ele>
        <time>2012-09-16T16:09:43Z</time>
      </trkpt>
      <trkpt lat="43.60202" lon="7.0454">
        <ele>163.6</ele>
        <time>2012-09-16T16:09:45Z</time>
      </trkpt>
      <trkpt lat="43.60206" lon="7.04534">
        <ele>163.6</ele>
        <time>2012-09-16T16:09:47Z</time>
      </trkpt>
      <trkpt lat="43.60213" lon="7.04528">
        <ele>164.6</ele>
        <time>2012-09-16T16:09:50Z</time>
      </trkpt>
      <trkpt lat="43.60219" lon="7.04521">
        <ele>164.7</ele>
        <time>2012-09-16T16:09:53Z</time>
      </trkpt>
      <trkpt lat="43.60225" lon="7.04513">
        <ele>165.9</ele>
        <time>2012-09-16T16:09:56Z</time>
      </trkpt>
      <trkpt lat="43.60231" lon="7.04507">
        <ele>166.7</ele>
        <time>2012-09-16T16:09:59Z</time>
      </trkpt>
      <trkpt lat="43.60237" lon="7.045">
        <ele>167.1</ele>
        <time>2012-09-16T16:10:02Z</time>
      </trkpt>
      <trkpt lat="43.60243" lon="7.04493">
        <ele>167.7</ele>
        <time>2012-09-16T16:10:05Z</time>
      </trkpt>
      <trkpt lat="43.60249" lon="7.04484">
        <ele>168.3</ele>
        <time>2012-09-16T16:10:08Z</time>
      </trkpt>
      <trkpt lat="43.60254" lon="7.04475">
        <ele>169.5</ele>
        <time>2012-09-16T16:10:11Z</time>
      </trkpt>
      <trkpt lat="43.60256" lon="7.04467">
        <ele>169.6</ele>
        <time>2012-09-16T16:10:13Z</time>
      </trkpt>
      <trkpt lat="43.60259" lon="7.04456">
        <ele>169.8</ele>
        <time>2012-09-16T16:10:16Z</time>
      </trkpt>
      <trkpt lat="43.60261" lon="7.04445">
        <ele>170.9</ele>
        <time>2012-09-16T16:10:20Z</time>
      </trkpt>
      <trkpt lat="43.6026" lon="7.04433">
        <ele>172.3</ele>
        <time>2012-09-16T16:10:24Z</time>
      </trkpt>
      <trkpt lat="43.60259" lon="7.04425">
        <ele>173</ele>
        <time>2012-09-16T16:10:26Z</time>
      </trkpt>
      <trkpt lat="43.60259" lon="7.04412">
        <ele>173.2</ele>
        <time>2012-09-16T16:10:29Z</time>
      </trkpt>
      <trkpt lat="43.60259" lon="7.04409">
        <ele>173.1</ele>
        <time>2012-09-16T16:10:30Z</time>
      </trkpt>
      <trkpt lat="43.60258" lon="7.04389">
        <ele>173.9</ele>
        <time>2012-09-16T16:10:37Z</time>
      </trkpt>
      <trkpt lat="43.60255" lon="7.04378">
        <ele>175.1</ele>
        <time>2012-09-16T16:10:41Z</time>
      </trkpt>
      <trkpt lat="43.60252" lon="7.04367">
        <ele>176.9</ele>
        <time>2012-09-16T16:10:46Z</time>
      </trkpt>
      <trkpt lat="43.6025" lon="7.04356">
        <ele>177.5</ele>
        <time>2012-09-16T16:10:51Z</time>
      </trkpt>
      <trkpt lat="43.60248" lon="7.04346">
        <ele>178.9</ele>
        <time>2012-09-16T16:10:55Z</time>
      </trkpt>
      <trkpt lat="43.60249" lon="7.04334">
        <ele>180.1</ele>
        <time>2012-09-16T16:10:59Z</time>
      </trkpt>
      <trkpt lat="43.6025" lon="7.04322">
        <ele>180.4</ele>
        <time>2012-09-16T16:11:03Z</time>
      </trkpt>
      <trkpt lat="43.60251" lon="7.04311">
        <ele>181.3</ele>
        <time>2012-09-16T16:11:07Z</time>
      </trkpt>
      <trkpt lat="43.60253" lon="7.043">
        <ele>182.7</ele>
        <time>2012-09-16T16:11:11Z</time>
      </trkpt>
      <trkpt lat="43.60256" lon="7.0429">
        <ele>183.3</ele>
        <time>2012-09-16T16:11:14Z</time>
      </trkpt>
      <trkpt lat="43.60259" lon="7.0428">
        <ele>183.5</ele>
        <time>2012-09-16T16:11:18Z</time>
      </trkpt>
      <trkpt lat="43.60261" lon="7.04271">
        <ele>183.1</ele>
        <time>2012-09-16T16:11:21Z</time>
      </trkpt>
      <trkpt lat="43.60265" lon="7.04262">
        <ele>183.3</ele>
        <time>2012-09-16T16:11:24Z</time>
      </trkpt>
      <trkpt lat="43.60269" lon="7.04253">
        <ele>184.1</ele>
        <time>2012-09-16T16:11:27Z</time>
      </trkpt>
      <trkpt lat="43.60272" lon="7.04242">
        <ele>184.6</ele>
        <time>2012-09-16T16:11:31Z</time>
      </trkpt>
      <trkpt lat="43.60271" lon="7.04239">
        <ele>184.5</ele>
        <time>2012-09-16T16:11:32Z</time>
      </trkpt>
      <trkpt lat="43.60268" lon="7.04221">
        <ele>184.6</ele>
        <time>2012-09-16T16:11:36Z</time>
      </trkpt>
      <trkpt lat="43.6027" lon="7.04211">
        <ele>184.3</ele>
        <time>2012-09-16T16:11:38Z</time>
      </trkpt>
      <trkpt lat="43.6027" lon="7.04201">
        <ele>183.7</ele>
        <time>2012-09-16T16:11:40Z</time>
      </trkpt>
      <trkpt lat="43.60272" lon="7.04189">
        <ele>183.2</ele>
        <time>2012-09-16T16:11:42Z</time>
      </trkpt>
      <trkpt lat="43.60277" lon="7.0418">
        <ele>183.3</ele>
        <time>2012-09-16T16:11:44Z</time>
      </trkpt>
      <trkpt lat="43.60282" lon="7.04172">
        <ele>183.2</ele>
        <time>2012-09-16T16:11:46Z</time>
      </trkpt>
      <trkpt lat="43.60286" lon="7.04163">
        <ele>182.9</ele>
        <time>2012-09-16T16:11:48Z</time>
      </trkpt>
      <trkpt lat="43.60294" lon="7.04157">
        <ele>181.8</ele>
        <time>2012-09-16T16:11:50Z</time>
      </trkpt>
      <trkpt lat="43.60302" lon="7.04159">
        <ele>180.6</ele>
        <time>2012-09-16T16:11:52Z</time>
      </trkpt>
      <trkpt lat="43.60308" lon="7.04164">
        <ele>179.6</ele>
        <time>2012-09-16T16:11:54Z</time>
      </trkpt>
      <trkpt lat="43.60315" lon="7.04169">
        <ele>179</ele>
        <time>2012-09-16T16:11:56Z</time>
      </trkpt>
      <trkpt lat="43.60322" lon="7.04172">
        <ele>178.9</ele>
        <time>2012-09-16T16:11:58Z</time>
      </trkpt>
      <trkpt lat="43.60329" lon="7.04177">
        <ele>178.9</ele>
        <time>2012-09-16T16:12:00Z</time>
      </trkpt>
      <trkpt lat="43.60336" lon="7.04181">
        <ele>179.1</ele>
        <time>2012-09-16T16:12:02Z</time>
      </trkpt>
      <trkpt lat="43.60341" lon="7.04187">
        <ele>179.5</ele>
        <time>2012-09-16T16:12:04Z</time>
      </trkpt>
      <trkpt lat="43.60347" lon="7.04196">
        <ele>180.5</ele>
        <time>2012-09-16T16:12:07Z</time>
      </trkpt>
      <trkpt lat="43.60354" lon="7.042">
        <ele>182.1</ele>
        <time>2012-09-16T16:12:10Z</time>
      </trkpt>
      <trkpt lat="43.60361" lon="7.04204">
        <ele>183.1</ele>
        <time>2012-09-16T16:12:12Z</time>
      </trkpt>
      <trkpt lat="43.60368" lon="7.04211">
        <ele>183.3</ele>
        <time>2012-09-16T16:12:14Z</time>
      </trkpt>
      <trkpt lat="43.60374" lon="7.04216">
        <ele>183.3</ele>
        <time>2012-09-16T16:12:16Z</time>
      </trkpt>
      <trkpt lat="43.60381" lon="7.04222">
        <ele>184</ele>
        <time>2012-09-16T16:12:18Z</time>
      </trkpt>
      <trkpt lat="43.60387" lon="7.04228">
        <ele>184.8</ele>
        <time>2012-09-16T16:12:20Z</time>
      </trkpt>
      <trkpt lat="43.60394" lon="7.04234">
        <ele>184.9</ele>
        <time>2012-09-16T16:12:22Z</time>
      </trkpt>
      <trkpt lat="43.604" lon="7.04238">
        <ele>185.6</ele>
        <time>2012-09-16T16:12:24Z</time>
      </trkpt>
      <trkpt lat="43.60408" lon="7.04245">
        <ele>186.2</ele>
        <time>2012-09-16T16:12:26Z</time>
      </trkpt>
      <trkpt lat="43.60412" lon="7.04249">
        <ele>186.4</ele>
        <time>2012-09-16T16:12:27Z</time>
      </trkpt>
      <trkpt lat="43.60416" lon="7.04253">
        <ele>186.4</ele>
        <time>2012-09-16T16:12:28Z</time>
      </trkpt>
      <trkpt lat="43.6042" lon="7.04257">
        <ele>186.4</ele>
        <time>2012-09-16T16:12:29Z</time>
      </trkpt>
      <trkpt lat="43.60427" lon="7.04264">
        <ele>186.2</ele>
        <time>2012-09-16T16:12:31Z</time>
      </trkpt>
      <trkpt lat="43.60431" lon="7.04273">
        <ele>186.2</ele>
        <time>2012-09-16T16:12:33Z</time>
      </trkpt>
      <trkpt lat="43.60433" lon="7.04276">
        <ele>186.2</ele>
        <time>2012-09-16T16:12:34Z</time>
      </trkpt>
      <trkpt lat="43.60439" lon="7.0429">
        <ele>184.9</ele>
        <time>2012-09-16T16:12:37Z</time>
      </trkpt>
      <trkpt lat="43.60441" lon="7.04295">
        <ele>184.3</ele>
        <time>2012-09-16T16:12:38Z</time>
      </trkpt>
      <trkpt lat="43.60443" lon="7.04301">
        <ele>183.8</ele>
        <time>2012-09-16T16:12:39Z</time>
      </trkpt>
      <trkpt lat="43.60445" lon="7.04308">
        <ele>183</ele>
        <time>2012-09-16T16:12:40Z</time>
      </trkpt>
      <trkpt lat="43.60448" lon="7.04314">
        <ele>182.4</ele>
        <time>2012-09-16T16:12:41Z</time>
      </trkpt>
      <trkpt lat="43.60452" lon="7.04323">
        <ele>181.2</ele>
        <time>2012-09-16T16:12:43Z</time>
      </trkpt>
      <trkpt lat="43.60455" lon="7.0433">
        <ele>180.2</ele>
        <time>2012-09-16T16:12:45Z</time>
      </trkpt>
      <trkpt lat="43.60455" lon="7.0434">
        <ele>179.6</ele>
        <time>2012-09-16T16:12:47Z</time>
      </trkpt>
      <trkpt lat="43.6046" lon="7.04348">
        <ele>179</ele>
        <time>2012-09-16T16:12:49Z</time>
      </trkpt>
      <trkpt lat="43.60467" lon="7.04352">
        <ele>178.3</ele>
        <time>2012-09-16T16:12:51Z</time>
      </trkpt>
      <trkpt lat="43.6047" lon="7.04361">
        <ele>177.9</ele>
        <time>2012-09-16T16:12:53Z</time>
      </trkpt>
      <trkpt lat="43.60471" lon="7.04367">
        <ele>177.5</ele>
        <time>2012-09-16T16:12:54Z</time>
      </trkpt>
      <trkpt lat="43.60473" lon="7.04375">
        <ele>177.2</ele>
        <time>2012-09-16T16:12:55Z</time>
      </trkpt>
      <trkpt lat="43.60475" lon="7.0438">
        <ele>176.5</ele>
        <time>2012-09-16T16:12:56Z</time>
      </trkpt>
      <trkpt lat="43.60477" lon="7.0439">
        <ele>175.6</ele>
        <time>2012-09-16T16:12:58Z</time>
      </trkpt>
      <trkpt lat="43.60473" lon="7.04399">
        <ele>175</ele>
        <time>2012-09-16T16:13:01Z</time>
      </trkpt>
      <trkpt lat="43.6047" lon="7.04409">
        <ele>176.2</ele>
        <time>2012-09-16T16:13:04Z</time>
      </trkpt>
      <trkpt lat="43.60471" lon="7.04416">
        <ele>176.5</ele>
        <time>2012-09-16T16:13:06Z</time>
      </trkpt>
      <trkpt lat="43.60474" lon="7.04421">
        <ele>176.6</ele>
        <time>2012-09-16T16:13:07Z</time>
      </trkpt>
      <trkpt lat="43.60477" lon="7.04426">
        <ele>176.7</ele>
        <time>2012-09-16T16:13:08Z</time>
      </trkpt>
      <trkpt lat="43.60479" lon="7.04432">
        <ele>176.8</ele>
        <time>2012-09-16T16:13:09Z</time>
      </trkpt>
      <trkpt lat="43.60482" lon="7.04443">
        <ele>176.6</ele>
        <time>2012-09-16T16:13:11Z</time>
      </trkpt>
      <trkpt lat="43.60483" lon="7.04452">
        <ele>176.3</ele>
        <time>2012-09-16T16:13:13Z</time>
      </trkpt>
      <trkpt lat="43.60485" lon="7.04462">
        <ele>176.4</ele>
        <time>2012-09-16T16:13:15Z</time>
      </trkpt>
      <trkpt lat="43.60489" lon="7.04473">
        <ele>176.7</ele>
        <time>2012-09-16T16:13:17Z</time>
      </trkpt>
      <trkpt lat="43.60497" lon="7.04477">
        <ele>176.1</ele>
        <time>2012-09-16T16:13:19Z</time>
      </trkpt>
      <trkpt lat="43.60501" lon="7.04481">
        <ele>175.3</ele>
        <time>2012-09-16T16:13:20Z</time>
      </trkpt>
      <trkpt lat="43.60505" lon="7.04486">
        <ele>174.7</ele>
        <time>2012-09-16T16:13:21Z</time>
      </trkpt>
      <trkpt lat="43.60508" lon="7.04493">
        <ele>174</ele>
        <time>2012-09-16T16:13:22Z</time>
      </trkpt>
      <trkpt lat="43.6051" lon="7.04501">
        <ele>173.4</ele>
        <time>2012-09-16T16:13:23Z</time>
      </trkpt>
      <trkpt lat="43.60513" lon="7.04508">
        <ele>173</ele>
        <time>2012-09-16T16:13:24Z</time>
      </trkpt>
      <trkpt lat="43.60518" lon="7.04514">
        <ele>172.9</ele>
        <time>2012-09-16T16:13:25Z</time>
      </trkpt>
      <trkpt lat="43.60523" lon="7.04521">
        <ele>172.8</ele>
        <time>2012-09-16T16:13:26Z</time>
      </trkpt>
      <trkpt lat="43.60527" lon="7.04529">
        <ele>172.5</ele>
        <time>2012-09-16T16:13:27Z</time>
      </trkpt>
      <trkpt lat="43.60531" lon="7.04537">
        <ele>172.3</ele>
        <time>2012-09-16T16:13:28Z</time>
      </trkpt>
      <trkpt lat="43.60534" lon="7.04546">
        <ele>171.2</ele>
        <time>2012-09-16T16:13:29Z</time>
      </trkpt>
      <trkpt lat="43.60537" lon="7.04554">
        <ele>170.4</ele>
        <time>2012-09-16T16:13:30Z</time>
      </trkpt>
      <trkpt lat="43.60542" lon="7.04563">
        <ele>169.8</ele>
        <time>2012-09-16T16:13:31Z</time>
      </trkpt>
      <trkpt lat="43.60546" lon="7.04571">
        <ele>169.5</ele>
        <time>2012-09-16T16:13:32Z</time>
      </trkpt>
      <trkpt lat="43.6055" lon="7.0458">
        <ele>169.2</ele>
        <time>2012-09-16T16:13:33Z</time>
      </trkpt>
      <trkpt lat="43.60553" lon="7.04587">
        <ele>168.6</ele>
        <time>2012-09-16T16:13:34Z</time>
      </trkpt>
      <trkpt lat="43.60554" lon="7.04594">
        <ele>168.2</ele>
        <time>2012-09-16T16:13:35Z</time>
      </trkpt>
      <trkpt lat="43.60553" lon="7.04602">
        <ele>167.9</ele>
        <time>2012-09-16T16:13:36Z</time>
      </trkpt>
      <trkpt lat="43.60553" lon="7.04611">
        <ele>167.4</ele>
        <time>2012-09-16T16:13:37Z</time>
      </trkpt>
      <trkpt lat="43.60553" lon="7.04623">
        <ele>166.1</ele>
        <time>2012-09-16T16:13:39Z</time>
      </trkpt>
      <trkpt lat="43.60552" lon="7.04629">
        <ele>165.5</ele>
        <time>2012-09-16T16:13:40Z</time>
      </trkpt>
      <trkpt lat="43.6055" lon="7.04637">
        <ele>164.4</ele>
        <time>2012-09-16T16:13:41Z</time>
      </trkpt>
      <trkpt lat="43.60549" lon="7.04644">
        <ele>163.6</ele>
        <time>2012-09-16T16:13:42Z</time>
      </trkpt>
      <trkpt lat="43.60548" lon="7.04653">
        <ele>163</ele>
        <time>2012-09-16T16:13:43Z</time>
      </trkpt>
      <trkpt lat="43.60547" lon="7.04661">
        <ele>162</ele>
        <time>2012-09-16T16:13:44Z</time>
      </trkpt>
      <trkpt lat="43.60547" lon="7.04671">
        <ele>161.3</ele>
        <time>2012-09-16T16:13:45Z</time>
      </trkpt>
      <trkpt lat="43.60547" lon="7.04681">
        <ele>160.8</ele>
        <time>2012-09-16T16:13:46Z</time>
      </trkpt>
      <trkpt lat="43.60545" lon="7.04687">
        <ele>160.4</ele>
        <time>2012-09-16T16:13:47Z</time>
      </trkpt>
      <trkpt lat="43.60542" lon="7.04693">
        <ele>160.2</ele>
        <time>2012-09-16T16:13:48Z</time>
      </trkpt>
      <trkpt lat="43.60541" lon="7.04699">
        <ele>159.5</ele>
        <time>2012-09-16T16:13:49Z</time>
      </trkpt>
      <trkpt lat="43.60538" lon="7.04704">
        <ele>159.1</ele>
        <time>2012-09-16T16:13:50Z</time>
      </trkpt>
      <trkpt lat="43.60535" lon="7.04711">
        <ele>158.7</ele>
        <time>2012-09-16T16:13:51Z</time>
      </trkpt>
      <trkpt lat="43.60533" lon="7.04718">
        <ele>158.4</ele>
        <time>2012-09-16T16:13:52Z</time>
      </trkpt>
      <trkpt lat="43.60531" lon="7.04724">
        <ele>158.3</ele>
        <time>2012-09-16T16:13:53Z</time>
      </trkpt>
      <trkpt lat="43.60528" lon="7.04735">
        <ele>158.5</ele>
        <time>2012-09-16T16:13:56Z</time>
      </trkpt>
      <trkpt lat="43.60524" lon="7.04743">
        <ele>158.6</ele>
        <time>2012-09-16T16:14:00Z</time>
      </trkpt>
      <trkpt lat="43.60522" lon="7.04753">
        <ele>159</ele>
        <time>2012-09-16T16:14:02Z</time>
      </trkpt>
      <trkpt lat="43.60521" lon="7.0476">
        <ele>158.8</ele>
        <time>2012-09-16T16:14:03Z</time>
      </trkpt>
      <trkpt lat="43.60519" lon="7.04768">
        <ele>158.6</ele>
        <time>2012-09-16T16:14:04Z</time>
      </trkpt>
      <trkpt lat="43.60517" lon="7.04774">
        <ele>158</ele>
        <time>2012-09-16T16:14:05Z</time>
      </trkpt>
      <trkpt lat="43.60514" lon="7.04781">
        <ele>157.5</ele>
        <time>2012-09-16T16:14:06Z</time>
      </trkpt>
      <trkpt lat="43.6051" lon="7.04788">
        <ele>157.1</ele>
        <time>2012-09-16T16:14:07Z</time>
      </trkpt>
      <trkpt lat="43.60506" lon="7.04792">
        <ele>156.7</ele>
        <time>2012-09-16T16:14:08Z</time>
      </trkpt>
      <trkpt lat="43.60503" lon="7.04797">
        <ele>156.4</ele>
        <time>2012-09-16T16:14:09Z</time>
      </trkpt>
      <trkpt lat="43.60498" lon="7.04802">
        <ele>155.9</ele>
        <time>2012-09-16T16:14:10Z</time>
      </trkpt>
      <trkpt lat="43.60494" lon="7.04806">
        <ele>155.5</ele>
        <time>2012-09-16T16:14:11Z</time>
      </trkpt>
      <trkpt lat="43.6049" lon="7.0481">
        <ele>155.2</ele>
        <time>2012-09-16T16:14:12Z</time>
      </trkpt>
      <trkpt lat="43.60487" lon="7.04815">
        <ele>155.1</ele>
        <time>2012-09-16T16:14:13Z</time>
      </trkpt>
      <trkpt lat="43.60484" lon="7.04821">
        <ele>154.9</ele>
        <time>2012-09-16T16:14:14Z</time>
      </trkpt>
      <trkpt lat="43.6048" lon="7.04825">
        <ele>154.3</ele>
        <time>2012-09-16T16:14:15Z</time>
      </trkpt>
      <trkpt lat="43.60476" lon="7.04832">
        <ele>153.8</ele>
        <time>2012-09-16T16:14:16Z</time>
      </trkpt>
      <trkpt lat="43.60472" lon="7.04839">
        <ele>153.5</ele>
        <time>2012-09-16T16:14:17Z</time>
      </trkpt>
      <trkpt lat="43.60469" lon="7.04847">
        <ele>153.3</ele>
        <time>2012-09-16T16:14:18Z</time>
      </trkpt>
      <trkpt lat="43.60466" lon="7.04854">
        <ele>152.7</ele>
        <time>2012-09-16T16:14:19Z</time>
      </trkpt>
      <trkpt lat="43.60463" lon="7.0486">
        <ele>152.3</ele>
        <time>2012-09-16T16:14:20Z</time>
      </trkpt>
      <trkpt lat="43.60459" lon="7.04865">
        <ele>152</ele>
        <time>2012-09-16T16:14:21Z</time>
      </trkpt>
      <trkpt lat="43.60457" lon="7.04871">
        <ele>151.4</ele>
        <time>2012-09-16T16:14:22Z</time>
      </trkpt>
      <trkpt lat="43.60455" lon="7.04879">
        <ele>150.9</ele>
        <time>2012-09-16T16:14:23Z</time>
      </trkpt>
      <trkpt lat="43.60452" lon="7.04887">
        <ele>150.6</ele>
        <time>2012-09-16T16:14:24Z</time>
      </trkpt>
      <trkpt lat="43.60448" lon="7.04894">
        <ele>150.3</ele>
        <time>2012-09-16T16:14:25Z</time>
      </trkpt>
      <trkpt lat="43.60445" lon="7.049">
        <ele>149.2</ele>
        <time>2012-09-16T16:14:26Z</time>
      </trkpt>
      <trkpt lat="43.6044" lon="7.04904">
        <ele>148.4</ele>
        <time>2012-09-16T16:14:27Z</time>
      </trkpt>
      <trkpt lat="43.60436" lon="7.04907">
        <ele>147.8</ele>
        <time>2012-09-16T16:14:28Z</time>
      </trkpt>
      <trkpt lat="43.60432" lon="7.04912">
        <ele>147.7</ele>
        <time>2012-09-16T16:14:29Z</time>
      </trkpt>
      <trkpt lat="43.60428" lon="7.04917">
        <ele>147.5</ele>
        <time>2012-09-16T16:14:30Z</time>
      </trkpt>
      <trkpt lat="43.60422" lon="7.04925">
        <ele>146.7</ele>
        <time>2012-09-16T16:14:32Z</time>
      </trkpt>
      <trkpt lat="43.60417" lon="7.04934">
        <ele>144.9</ele>
        <time>2012-09-16T16:14:37Z</time>
      </trkpt>
      <trkpt lat="43.60417" lon="7.04935">
        <ele>145</ele>
        <time>2012-09-16T16:14:38Z</time>
      </trkpt>
      <trkpt lat="43.60412" lon="7.04955">
        <ele>144.9</ele>
        <time>2012-09-16T16:14:57Z</time>
      </trkpt>
      <trkpt lat="43.60417" lon="7.04963">
        <ele>144.9</ele>
        <time>2012-09-16T16:15:00Z</time>
      </trkpt>
      <trkpt lat="43.60424" lon="7.04969">
        <ele>144.8</ele>
        <time>2012-09-16T16:15:03Z</time>
      </trkpt>
      <trkpt lat="43.60433" lon="7.04969">
        <ele>142.7</ele>
        <time>2012-09-16T16:15:21Z</time>
      </trkpt>
      <trkpt lat="43.60441" lon="7.04969">
        <ele>144.5</ele>
        <time>2012-09-16T16:15:25Z</time>
      </trkpt>
      <trkpt lat="43.60447" lon="7.04968">
        <ele>144.2</ele>
        <time>2012-09-16T16:15:27Z</time>
      </trkpt>
      <trkpt lat="43.60454" lon="7.04966">
        <ele>144</ele>
        <time>2012-09-16T16:15:29Z</time>
      </trkpt>
      <trkpt lat="43.6046" lon="7.0496">
        <ele>144</ele>
        <time>2012-09-16T16:15:31Z</time>
      </trkpt>
      <trkpt lat="43.60468" lon="7.04957">
        <ele>143.8</ele>
        <time>2012-09-16T16:15:33Z</time>
      </trkpt>
      <trkpt lat="43.60475" lon="7.04957">
        <ele>143.9</ele>
        <time>2012-09-16T16:15:35Z</time>
      </trkpt>
      <trkpt lat="43.60481" lon="7.04955">
        <ele>144.2</ele>
        <time>2012-09-16T16:15:37Z</time>
      </trkpt>
      <trkpt lat="43.60489" lon="7.04953">
        <ele>143.6</ele>
        <time>2012-09-16T16:15:39Z</time>
      </trkpt>
      <trkpt lat="43.60493" lon="7.04953">
        <ele>143.3</ele>
        <time>2012-09-16T16:15:40Z</time>
      </trkpt>
      <trkpt lat="43.60498" lon="7.04953">
        <ele>143</ele>
        <time>2012-09-16T16:15:41Z</time>
      </trkpt>
      <trkpt lat="43.60505" lon="7.04953">
        <ele>143.9</ele>
        <time>2012-09-16T16:15:43Z</time>
      </trkpt>
      <trkpt lat="43.60513" lon="7.0495">
        <ele>144.3</ele>
        <time>2012-09-16T16:15:45Z</time>
      </trkpt>
      <trkpt lat="43.60521" lon="7.04945">
        <ele>144.5</ele>
        <time>2012-09-16T16:15:47Z</time>
      </trkpt>
      <trkpt lat="43.60528" lon="7.04939">
        <ele>144.4</ele>
        <time>2012-09-16T16:15:49Z</time>
      </trkpt>
      <trkpt lat="43.60532" lon="7.04934">
        <ele>144.2</ele>
        <time>2012-09-16T16:15:50Z</time>
      </trkpt>
      <trkpt lat="43.60535" lon="7.04929">
        <ele>144</ele>
        <time>2012-09-16T16:15:51Z</time>
      </trkpt>
      <trkpt lat="43.60541" lon="7.04922">
        <ele>143.3</ele>
        <time>2012-09-16T16:15:53Z</time>
      </trkpt>
      <trkpt lat="43.60545" lon="7.04918">
        <ele>143</ele>
        <time>2012-09-16T16:15:54Z</time>
      </trkpt>
      <trkpt lat="43.60552" lon="7.04913">
        <ele>142.6</ele>
        <time>2012-09-16T16:15:56Z</time>
      </trkpt>
      <trkpt lat="43.60559" lon="7.04906">
        <ele>141.5</ele>
        <time>2012-09-16T16:15:58Z</time>
      </trkpt>
      <trkpt lat="43.60564" lon="7.04896">
        <ele>141.3</ele>
        <time>2012-09-16T16:16:00Z</time>
      </trkpt>
      <trkpt lat="43.60569" lon="7.04888">
        <ele>141.4</ele>
        <time>2012-09-16T16:16:02Z</time>
      </trkpt>
      <trkpt lat="43.60576" lon="7.04881">
        <ele>141.3</ele>
        <time>2012-09-16T16:16:04Z</time>
      </trkpt>
      <trkpt lat="43.60583" lon="7.04873">
        <ele>141.1</ele>
        <time>2012-09-16T16:16:06Z</time>
      </trkpt>
      <trkpt lat="43.60589" lon="7.04869">
        <ele>141.1</ele>
        <time>2012-09-16T16:16:08Z</time>
      </trkpt>
      <trkpt lat="43.60595" lon="7.04862">
        <ele>142.7</ele>
        <time>2012-09-16T16:16:11Z</time>
      </trkpt>
      <trkpt lat="43.606" lon="7.04853">
        <ele>143.7</ele>
        <time>2012-09-16T16:16:14Z</time>
      </trkpt>
      <trkpt lat="43.60604" lon="7.04845">
        <ele>144.6</ele>
        <time>2012-09-16T16:16:17Z</time>
      </trkpt>
      <trkpt lat="43.60611" lon="7.04838">
        <ele>145.9</ele>
        <time>2012-09-16T16:16:21Z</time>
      </trkpt>
      <trkpt lat="43.60618" lon="7.04832">
        <ele>146.7</ele>
        <time>2012-09-16T16:16:24Z</time>
      </trkpt>
      <trkpt lat="43.60624" lon="7.04827">
        <ele>146.4</ele>
        <time>2012-09-16T16:16:26Z</time>
      </trkpt>
      <trkpt lat="43.60628" lon="7.0482">
        <ele>146.1</ele>
        <time>2012-09-16T16:16:28Z</time>
      </trkpt>
      <trkpt lat="43.60633" lon="7.04813">
        <ele>145.9</ele>
        <time>2012-09-16T16:16:30Z</time>
      </trkpt>
      <trkpt lat="43.60639" lon="7.04808">
        <ele>145.6</ele>
        <time>2012-09-16T16:16:32Z</time>
      </trkpt>
      <trkpt lat="43.60647" lon="7.04802">
        <ele>145.2</ele>
        <time>2012-09-16T16:16:34Z</time>
      </trkpt>
      <trkpt lat="43.60653" lon="7.04793">
        <ele>145.1</ele>
        <time>2012-09-16T16:16:36Z</time>
      </trkpt>
      <trkpt lat="43.6066" lon="7.04785">
        <ele>145</ele>
        <time>2012-09-16T16:16:38Z</time>
      </trkpt>
      <trkpt lat="43.60663" lon="7.04782">
        <ele>145.3</ele>
        <time>2012-09-16T16:16:39Z</time>
      </trkpt>
      <trkpt lat="43.6067" lon="7.04773">
        <ele>145.8</ele>
        <time>2012-09-16T16:16:41Z</time>
      </trkpt>
      <trkpt lat="43.60673" lon="7.0477">
        <ele>145.9</ele>
        <time>2012-09-16T16:16:42Z</time>
      </trkpt>
      <trkpt lat="43.60682" lon="7.04757">
        <ele>145.2</ele>
        <time>2012-09-16T16:16:46Z</time>
      </trkpt>
      <trkpt lat="43.60688" lon="7.04751">
        <ele>145.8</ele>
        <time>2012-09-16T16:16:50Z</time>
      </trkpt>
      <trkpt lat="43.60695" lon="7.04745">
        <ele>145.1</ele>
        <time>2012-09-16T16:16:54Z</time>
      </trkpt>
      <trkpt lat="43.60701" lon="7.04737">
        <ele>145.5</ele>
        <time>2012-09-16T16:16:57Z</time>
      </trkpt>
      <trkpt lat="43.60705" lon="7.04732">
        <ele>145.7</ele>
        <time>2012-09-16T16:16:59Z</time>
      </trkpt>
      <trkpt lat="43.60709" lon="7.04724">
        <ele>145.4</ele>
        <time>2012-09-16T16:17:01Z</time>
      </trkpt>
      <trkpt lat="43.60711" lon="7.04715">
        <ele>145.2</ele>
        <time>2012-09-16T16:17:03Z</time>
      </trkpt>
      <trkpt lat="43.60714" lon="7.04708">
        <ele>145.3</ele>
        <time>2012-09-16T16:17:05Z</time>
      </trkpt>
      <trkpt lat="43.60718" lon="7.047">
        <ele>145.3</ele>
        <time>2012-09-16T16:17:07Z</time>
      </trkpt>
      <trkpt lat="43.60723" lon="7.04692">
        <ele>145.9</ele>
        <time>2012-09-16T16:17:09Z</time>
      </trkpt>
      <trkpt lat="43.60727" lon="7.04683">
        <ele>145.8</ele>
        <time>2012-09-16T16:17:11Z</time>
      </trkpt>
      <trkpt lat="43.6073" lon="7.04672">
        <ele>145.5</ele>
        <time>2012-09-16T16:17:13Z</time>
      </trkpt>
      <trkpt lat="43.60734" lon="7.04662">
        <ele>144.9</ele>
        <time>2012-09-16T16:17:15Z</time>
      </trkpt>
      <trkpt lat="43.60737" lon="7.04651">
        <ele>144.3</ele>
        <time>2012-09-16T16:17:17Z</time>
      </trkpt>
      <trkpt lat="43.60739" lon="7.0464">
        <ele>143.9</ele>
        <time>2012-09-16T16:17:19Z</time>
      </trkpt>
      <trkpt lat="43.60742" lon="7.04629">
        <ele>142.9</ele>
        <time>2012-09-16T16:17:21Z</time>
      </trkpt>
      <trkpt lat="43.60749" lon="7.04622">
        <ele>141.7</ele>
        <time>2012-09-16T16:17:23Z</time>
      </trkpt>
      <trkpt lat="43.60757" lon="7.04618">
        <ele>140.7</ele>
        <time>2012-09-16T16:17:26Z</time>
      </trkpt>
      <trkpt lat="43.60766" lon="7.0462">
        <ele>140.4</ele>
        <time>2012-09-16T16:17:29Z</time>
      </trkpt>
      <trkpt lat="43.60772" lon="7.04621">
        <ele>139.7</ele>
        <time>2012-09-16T16:17:31Z</time>
      </trkpt>
      <trkpt lat="43.60779" lon="7.04626">
        <ele>139.2</ele>
        <time>2012-09-16T16:17:34Z</time>
      </trkpt>
      <trkpt lat="43.60784" lon="7.04637">
        <ele>139.3</ele>
        <time>2012-09-16T16:17:37Z</time>
      </trkpt>
      <trkpt lat="43.60786" lon="7.04647">
        <ele>139.5</ele>
        <time>2012-09-16T16:17:40Z</time>
      </trkpt>
      <trkpt lat="43.60787" lon="7.04656">
        <ele>139.3</ele>
        <time>2012-09-16T16:17:42Z</time>
      </trkpt>
      <trkpt lat="43.6079" lon="7.04665">
        <ele>139.2</ele>
        <time>2012-09-16T16:17:44Z</time>
      </trkpt>
      <trkpt lat="43.60791" lon="7.04671">
        <ele>139.2</ele>
        <time>2012-09-16T16:17:45Z</time>
      </trkpt>
      <trkpt lat="43.60795" lon="7.04686">
        <ele>138.6</ele>
        <time>2012-09-16T16:17:48Z</time>
      </trkpt>
      <trkpt lat="43.60798" lon="7.04696">
        <ele>138.8</ele>
        <time>2012-09-16T16:17:50Z</time>
      </trkpt>
      <trkpt lat="43.60801" lon="7.04706">
        <ele>138.4</ele>
        <time>2012-09-16T16:17:52Z</time>
      </trkpt>
      <trkpt lat="43.60804" lon="7.04716">
        <ele>137.5</ele>
        <time>2012-09-16T16:17:54Z</time>
      </trkpt>
      <trkpt lat="43.60806" lon="7.04727">
        <ele>138</ele>
        <time>2012-09-16T16:17:56Z</time>
      </trkpt>
      <trkpt lat="43.60807" lon="7.04737">
        <ele>138</ele>
        <time>2012-09-16T16:17:58Z</time>
      </trkpt>
      <trkpt lat="43.60801" lon="7.04746">
        <ele>137.5</ele>
        <time>2012-09-16T16:18:01Z</time>
      </trkpt>
      <trkpt lat="43.60797" lon="7.04754">
        <ele>137.7</ele>
        <time>2012-09-16T16:18:03Z</time>
      </trkpt>
      <trkpt lat="43.60793" lon="7.04761">
        <ele>137.6</ele>
        <time>2012-09-16T16:18:05Z</time>
      </trkpt>
      <trkpt lat="43.60789" lon="7.04769">
        <ele>136.9</ele>
        <time>2012-09-16T16:18:07Z</time>
      </trkpt>
      <trkpt lat="43.60785" lon="7.04779">
        <ele>136</ele>
        <time>2012-09-16T16:18:09Z</time>
      </trkpt>
      <trkpt lat="43.60782" lon="7.04789">
        <ele>135.6</ele>
        <time>2012-09-16T16:18:11Z</time>
      </trkpt>
      <trkpt lat="43.60781" lon="7.04801">
        <ele>135.2</ele>
        <time>2012-09-16T16:18:13Z</time>
      </trkpt>
      <trkpt lat="43.60779" lon="7.04813">
        <ele>135.2</ele>
        <time>2012-09-16T16:18:15Z</time>
      </trkpt>
      <trkpt lat="43.60776" lon="7.04824">
        <ele>135.2</ele>
        <time>2012-09-16T16:18:17Z</time>
      </trkpt>
      <trkpt lat="43.60772" lon="7.04835">
        <ele>135</ele>
        <time>2012-09-16T16:18:19Z</time>
      </trkpt>
      <trkpt lat="43.60768" lon="7.04846">
        <ele>134.5</ele>
        <time>2012-09-16T16:18:21Z</time>
      </trkpt>
      <trkpt lat="43.60767" lon="7.04857">
        <ele>134.1</ele>
        <time>2012-09-16T16:18:23Z</time>
      </trkpt>
      <trkpt lat="43.60763" lon="7.04865">
        <ele>134.2</ele>
        <time>2012-09-16T16:18:25Z</time>
      </trkpt>
      <trkpt lat="43.60759" lon="7.04874">
        <ele>134.2</ele>
        <time>2012-09-16T16:18:27Z</time>
      </trkpt>
      <trkpt lat="43.60756" lon="7.04884">
        <ele>134</ele>
        <time>2012-09-16T16:18:29Z</time>
      </trkpt>
      <trkpt lat="43.60754" lon="7.0489">
        <ele>133.9</ele>
        <time>2012-09-16T16:18:30Z</time>
      </trkpt>
      <trkpt lat="43.60753" lon="7.04897">
        <ele>133.6</ele>
        <time>2012-09-16T16:18:31Z</time>
      </trkpt>
      <trkpt lat="43.60751" lon="7.04903">
        <ele>133.4</ele>
        <time>2012-09-16T16:18:32Z</time>
      </trkpt>
      <trkpt lat="43.60748" lon="7.0491">
        <ele>133.1</ele>
        <time>2012-09-16T16:18:33Z</time>
      </trkpt>
      <trkpt lat="43.60745" lon="7.04917">
        <ele>133</ele>
        <time>2012-09-16T16:18:34Z</time>
      </trkpt>
      <trkpt lat="43.60744" lon="7.04925">
        <ele>132.8</ele>
        <time>2012-09-16T16:18:35Z</time>
      </trkpt>
      <trkpt lat="43.60745" lon="7.04933">
        <ele>132.2</ele>
        <time>2012-09-16T16:18:36Z</time>
      </trkpt>
      <trkpt lat="43.60746" lon="7.04944">
        <ele>131.6</ele>
        <time>2012-09-16T16:18:38Z</time>
      </trkpt>
      <trkpt lat="43.60749" lon="7.04954">
        <ele>131.4</ele>
        <time>2012-09-16T16:18:40Z</time>
      </trkpt>
      <trkpt lat="43.60749" lon="7.0496">
        <ele>131.3</ele>
        <time>2012-09-16T16:18:41Z</time>
      </trkpt>
      <trkpt lat="43.60748" lon="7.04967">
        <ele>131.3</ele>
        <time>2012-09-16T16:18:42Z</time>
      </trkpt>
      <trkpt lat="43.60747" lon="7.04974">
        <ele>130.9</ele>
        <time>2012-09-16T16:18:43Z</time>
      </trkpt>
      <trkpt lat="43.60744" lon="7.04982">
        <ele>130.6</ele>
        <time>2012-09-16T16:18:44Z</time>
      </trkpt>
      <trkpt lat="43.60743" lon="7.0499">
        <ele>130.3</ele>
        <time>2012-09-16T16:18:45Z</time>
      </trkpt>
      <trkpt lat="43.60743" lon="7.04997">
        <ele>130.1</ele>
        <time>2012-09-16T16:18:46Z</time>
      </trkpt>
      <trkpt lat="43.60746" lon="7.05004">
        <ele>130</ele>
        <time>2012-09-16T16:18:47Z</time>
      </trkpt>
      <trkpt lat="43.60748" lon="7.05011">
        <ele>129.6</ele>
        <time>2012-09-16T16:18:48Z</time>
      </trkpt>
      <trkpt lat="43.60749" lon="7.05017">
        <ele>129.4</ele>
        <time>2012-09-16T16:18:49Z</time>
      </trkpt>
      <trkpt lat="43.60749" lon="7.05024">
        <ele>129.1</ele>
        <time>2012-09-16T16:18:50Z</time>
      </trkpt>
      <trkpt lat="43.6075" lon="7.05031">
        <ele>128.8</ele>
        <time>2012-09-16T16:18:51Z</time>
      </trkpt>
      <trkpt lat="43.6075" lon="7.05038">
        <ele>128.6</ele>
        <time>2012-09-16T16:18:52Z</time>
      </trkpt>
      <trkpt lat="43.6075" lon="7.05045">
        <ele>128.5</ele>
        <time>2012-09-16T16:18:53Z</time>
      </trkpt>
      <trkpt lat="43.6075" lon="7.05052">
        <ele>128.4</ele>
        <time>2012-09-16T16:18:54Z</time>
      </trkpt>
      <trkpt lat="43.6075" lon="7.05059">
        <ele>128.4</ele>
        <time>2012-09-16T16:18:55Z</time>
      </trkpt>
      <trkpt lat="43.60751" lon="7.05066">
        <ele>128.4</ele>
        <time>2012-09-16T16:18:56Z</time>
      </trkpt>
      <trkpt lat="43.60751" lon="7.05072">
        <ele>128.3</ele>
        <time>2012-09-16T16:18:57Z</time>
      </trkpt>
      <trkpt lat="43.60751" lon="7.05079">
        <ele>128.2</ele>
        <time>2012-09-16T16:18:58Z</time>
      </trkpt>
      <trkpt lat="43.60752" lon="7.05085">
        <ele>128.3</ele>
        <time>2012-09-16T16:18:59Z</time>
      </trkpt>
      <trkpt lat="43.60753" lon="7.05097">
        <ele>128.5</ele>
        <time>2012-09-16T16:19:01Z</time>
      </trkpt>
      <trkpt lat="43.60758" lon="7.05108">
        <ele>129</ele>
        <time>2012-09-16T16:19:03Z</time>
      </trkpt>
      <trkpt lat="43.6076" lon="7.05113">
        <ele>128.3</ele>
        <time>2012-09-16T16:19:04Z</time>
      </trkpt>
      <trkpt lat="43.60762" lon="7.05119">
        <ele>127.9</ele>
        <time>2012-09-16T16:19:05Z</time>
      </trkpt>
      <trkpt lat="43.60763" lon="7.05126">
        <ele>127.5</ele>
        <time>2012-09-16T16:19:06Z</time>
      </trkpt>
      <trkpt lat="43.60765" lon="7.05132">
        <ele>127.8</ele>
        <time>2012-09-16T16:19:07Z</time>
      </trkpt>
      <trkpt lat="43.60767" lon="7.05138">
        <ele>128</ele>
        <time>2012-09-16T16:19:08Z</time>
      </trkpt>
      <trkpt lat="43.60769" lon="7.05144">
        <ele>128</ele>
        <time>2012-09-16T16:19:09Z</time>
      </trkpt>
      <trkpt lat="43.60772" lon="7.05149">
        <ele>128.1</ele>
        <time>2012-09-16T16:19:10Z</time>
      </trkpt>
      <trkpt lat="43.60778" lon="7.05157">
        <ele>128.3</ele>
        <time>2012-09-16T16:19:12Z</time>
      </trkpt>
      <trkpt lat="43.60781" lon="7.05168">
        <ele>128.4</ele>
        <time>2012-09-16T16:19:14Z</time>
      </trkpt>
      <trkpt lat="43.6078" lon="7.0518">
        <ele>128.5</ele>
        <time>2012-09-16T16:19:16Z</time>
      </trkpt>
      <trkpt lat="43.6078" lon="7.05186">
        <ele>128.6</ele>
        <time>2012-09-16T16:19:17Z</time>
      </trkpt>
      <trkpt lat="43.6078" lon="7.05193">
        <ele>128.4</ele>
        <time>2012-09-16T16:19:18Z</time>
      </trkpt>
      <trkpt lat="43.60781" lon="7.05199">
        <ele>128.3</ele>
        <time>2012-09-16T16:19:19Z</time>
      </trkpt>
      <trkpt lat="43.60783" lon="7.05211">
        <ele>127.9</ele>
        <time>2012-09-16T16:19:21Z</time>
      </trkpt>
      <trkpt lat="43.60784" lon="7.05222">
        <ele>127.2</ele>
        <time>2012-09-16T16:19:23Z</time>
      </trkpt>
      <trkpt lat="43.60783" lon="7.05229">
        <ele>126.8</ele>
        <time>2012-09-16T16:19:24Z</time>
      </trkpt>
      <trkpt lat="43.60782" lon="7.05235">
        <ele>126.5</ele>
        <time>2012-09-16T16:19:25Z</time>
      </trkpt>
      <trkpt lat="43.60782" lon="7.05241">
        <ele>125.3</ele>
        <time>2012-09-16T16:19:26Z</time>
      </trkpt>
      <trkpt lat="43.60782" lon="7.05248">
        <ele>124.3</ele>
        <time>2012-09-16T16:19:27Z</time>
      </trkpt>
      <trkpt lat="43.60784" lon="7.05259">
        <ele>122.4</ele>
        <time>2012-09-16T16:19:29Z</time>
      </trkpt>
      <trkpt lat="43.60782" lon="7.0527">
        <ele>121.2</ele>
        <time>2012-09-16T16:19:31Z</time>
      </trkpt>
      <trkpt lat="43.60784" lon="7.0528">
        <ele>120.6</ele>
        <time>2012-09-16T16:19:33Z</time>
      </trkpt>
      <trkpt lat="43.60785" lon="7.05291">
        <ele>119.9</ele>
        <time>2012-09-16T16:19:35Z</time>
      </trkpt>
      <trkpt lat="43.60787" lon="7.05302">
        <ele>118.7</ele>
        <time>2012-09-16T16:19:37Z</time>
      </trkpt>
      <trkpt lat="43.60792" lon="7.05311">
        <ele>117.9</ele>
        <time>2012-09-16T16:19:39Z</time>
      </trkpt>
      <trkpt lat="43.60796" lon="7.05321">
        <ele>117.2</ele>
        <time>2012-09-16T16:19:41Z</time>
      </trkpt>
      <trkpt lat="43.60802" lon="7.0533">
        <ele>115.9</ele>
        <time>2012-09-16T16:19:43Z</time>
      </trkpt>
      <trkpt lat="43.60807" lon="7.05339">
        <ele>115.4</ele>
        <time>2012-09-16T16:19:45Z</time>
      </trkpt>
      <trkpt lat="43.60808" lon="7.05346">
        <ele>115.3</ele>
        <time>2012-09-16T16:19:46Z</time>
      </trkpt>
      <trkpt lat="43.60809" lon="7.05352">
        <ele>115.3</ele>
        <time>2012-09-16T16:19:47Z</time>
      </trkpt>
      <trkpt lat="43.60809" lon="7.05358">
        <ele>115.3</ele>
        <time>2012-09-16T16:19:48Z</time>
      </trkpt>
      <trkpt lat="43.60814" lon="7.05374">
        <ele>114.6</ele>
        <time>2012-09-16T16:19:51Z</time>
      </trkpt>
      <trkpt lat="43.60817" lon="7.05385">
        <ele>114.1</ele>
        <time>2012-09-16T16:19:53Z</time>
      </trkpt>
      <trkpt lat="43.60822" lon="7.05394">
        <ele>114.2</ele>
        <time>2012-09-16T16:19:55Z</time>
      </trkpt>
      <trkpt lat="43.60826" lon="7.05405">
        <ele>113.3</ele>
        <time>2012-09-16T16:19:58Z</time>
      </trkpt>
      <trkpt lat="43.60826" lon="7.05415">
        <ele>113.3</ele>
        <time>2012-09-16T16:20:00Z</time>
      </trkpt>
      <trkpt lat="43.60828" lon="7.05427">
        <ele>112.7</ele>
        <time>2012-09-16T16:20:02Z</time>
      </trkpt>
      <trkpt lat="43.60827" lon="7.05434">
        <ele>112.5</ele>
        <time>2012-09-16T16:20:03Z</time>
      </trkpt>
      <trkpt lat="43.60826" lon="7.0544">
        <ele>112.4</ele>
        <time>2012-09-16T16:20:04Z</time>
      </trkpt>
      <trkpt lat="43.60825" lon="7.05447">
        <ele>112.4</ele>
        <time>2012-09-16T16:20:05Z</time>
      </trkpt>
      <trkpt lat="43.60824" lon="7.05453">
        <ele>112.3</ele>
        <time>2012-09-16T16:20:06Z</time>
      </trkpt>
      <trkpt lat="43.60822" lon="7.05459">
        <ele>112.2</ele>
        <time>2012-09-16T16:20:07Z</time>
      </trkpt>
      <trkpt lat="43.60819" lon="7.05471">
        <ele>112.8</ele>
        <time>2012-09-16T16:20:09Z</time>
      </trkpt>
      <trkpt lat="43.60817" lon="7.05482">
        <ele>113</ele>
        <time>2012-09-16T16:20:11Z</time>
      </trkpt>
      <trkpt lat="43.6082" lon="7.05491">
        <ele>112.5</ele>
        <time>2012-09-16T16:20:13Z</time>
      </trkpt>
      <trkpt lat="43.60825" lon="7.055">
        <ele>111.6</ele>
        <time>2012-09-16T16:20:16Z</time>
      </trkpt>
      <trkpt lat="43.60833" lon="7.05503">
        <ele>111.8</ele>
        <time>2012-09-16T16:20:19Z</time>
      </trkpt>
      <trkpt lat="43.6084" lon="7.05502">
        <ele>112.2</ele>
        <time>2012-09-16T16:20:21Z</time>
      </trkpt>
      <trkpt lat="43.60847" lon="7.05507">
        <ele>111.9</ele>
        <time>2012-09-16T16:20:23Z</time>
      </trkpt>
      <trkpt lat="43.60853" lon="7.05515">
        <ele>111.5</ele>
        <time>2012-09-16T16:20:25Z</time>
      </trkpt>
      <trkpt lat="43.60861" lon="7.05518">
        <ele>111.4</ele>
        <time>2012-09-16T16:20:27Z</time>
      </trkpt>
      <trkpt lat="43.6087" lon="7.05518">
        <ele>111.3</ele>
        <time>2012-09-16T16:20:29Z</time>
      </trkpt>
      <trkpt lat="43.60877" lon="7.0552">
        <ele>111.9</ele>
        <time>2012-09-16T16:20:31Z</time>
      </trkpt>
      <trkpt lat="43.60886" lon="7.05521">
        <ele>112.4</ele>
        <time>2012-09-16T16:20:34Z</time>
      </trkpt>
      <trkpt lat="43.60892" lon="7.05522">
        <ele>112.4</ele>
        <time>2012-09-16T16:20:36Z</time>
      </trkpt>
      <trkpt lat="43.60898" lon="7.05524">
        <ele>113.3</ele>
        <time>2012-09-16T16:20:38Z</time>
      </trkpt>
      <trkpt lat="43.60906" lon="7.05526">
        <ele>114.4</ele>
        <time>2012-09-16T16:20:41Z</time>
      </trkpt>
      <trkpt lat="43.60913" lon="7.05527">
        <ele>114.8</ele>
        <time>2012-09-16T16:20:43Z</time>
      </trkpt>
      <trkpt lat="43.60919" lon="7.05527">
        <ele>114.8</ele>
        <time>2012-09-16T16:20:45Z</time>
      </trkpt>
      <trkpt lat="43.60925" lon="7.05527">
        <ele>115.3</ele>
        <time>2012-09-16T16:20:47Z</time>
      </trkpt>
      <trkpt lat="43.60931" lon="7.05528">
        <ele>115.4</ele>
        <time>2012-09-16T16:20:49Z</time>
      </trkpt>
      <trkpt lat="43.60935" lon="7.05528">
        <ele>115.3</ele>
        <time>2012-09-16T16:20:50Z</time>
      </trkpt>
      <trkpt lat="43.60945" lon="7.05531">
        <ele>116.6</ele>
        <time>2012-09-16T16:20:53Z</time>
      </trkpt>
      <trkpt lat="43.60952" lon="7.05534">
        <ele>116.7</ele>
        <time>2012-09-16T16:20:55Z</time>
      </trkpt>
      <trkpt lat="43.6096" lon="7.05538">
        <ele>116.6</ele>
        <time>2012-09-16T16:20:57Z</time>
      </trkpt>
      <trkpt lat="43.60968" lon="7.05541">
        <ele>116.7</ele>
        <time>2012-09-16T16:20:59Z</time>
      </trkpt>
      <trkpt lat="43.60972" lon="7.05545">
        <ele>116.4</ele>
        <time>2012-09-16T16:21:00Z</time>
      </trkpt>
      <trkpt lat="43.60979" lon="7.05553">
        <ele>116</ele>
        <time>2012-09-16T16:21:02Z</time>
      </trkpt>
      <trkpt lat="43.60984" lon="7.05558">
        <ele>115.4</ele>
        <time>2012-09-16T16:21:04Z</time>
      </trkpt>
      <trkpt lat="43.60987" lon="7.05563">
        <ele>115.1</ele>
        <time>2012-09-16T16:21:05Z</time>
      </trkpt>
      <trkpt lat="43.6099" lon="7.05567">
        <ele>114.8</ele>
        <time>2012-09-16T16:21:06Z</time>
      </trkpt>
      <trkpt lat="43.60994" lon="7.05572">
        <ele>114.5</ele>
        <time>2012-09-16T16:21:07Z</time>
      </trkpt>
      <trkpt lat="43.61002" lon="7.05577">
        <ele>114.5</ele>
        <time>2012-09-16T16:21:09Z</time>
      </trkpt>
      <trkpt lat="43.61006" lon="7.05576">
        <ele>113.9</ele>
        <time>2012-09-16T16:21:10Z</time>
      </trkpt>
      <trkpt lat="43.61015" lon="7.05575">
        <ele>113.3</ele>
        <time>2012-09-16T16:21:12Z</time>
      </trkpt>
      <trkpt lat="43.61022" lon="7.05578">
        <ele>113.1</ele>
        <time>2012-09-16T16:21:14Z</time>
      </trkpt>
      <trkpt lat="43.61028" lon="7.05582">
        <ele>113.1</ele>
        <time>2012-09-16T16:21:16Z</time>
      </trkpt>
      <trkpt lat="43.61036" lon="7.05584">
        <ele>113.9</ele>
        <time>2012-09-16T16:21:18Z</time>
      </trkpt>
      <trkpt lat="43.6104" lon="7.05586">
        <ele>113.9</ele>
        <time>2012-09-16T16:21:19Z</time>
      </trkpt>
      <trkpt lat="43.61045" lon="7.05587">
        <ele>114</ele>
        <time>2012-09-16T16:21:20Z</time>
      </trkpt>
      <trkpt lat="43.61054" lon="7.0559">
        <ele>114</ele>
        <time>2012-09-16T16:21:22Z</time>
      </trkpt>
      <trkpt lat="43.61062" lon="7.05589">
        <ele>113.5</ele>
        <time>2012-09-16T16:21:24Z</time>
      </trkpt>
      <trkpt lat="43.61066" lon="7.05592">
        <ele>113</ele>
        <time>2012-09-16T16:21:25Z</time>
      </trkpt>
      <trkpt lat="43.61071" lon="7.05596">
        <ele>112.7</ele>
        <time>2012-09-16T16:21:26Z</time>
      </trkpt>
      <trkpt lat="43.61075" lon="7.05601">
        <ele>112</ele>
        <time>2012-09-16T16:21:27Z</time>
      </trkpt>
      <trkpt lat="43.6108" lon="7.05608">
        <ele>111.6</ele>
        <time>2012-09-16T16:21:28Z</time>
      </trkpt>
      <trkpt lat="43.61085" lon="7.05612">
        <ele>111.4</ele>
        <time>2012-09-16T16:21:29Z</time>
      </trkpt>
      <trkpt lat="43.6109" lon="7.05618">
        <ele>111.2</ele>
        <time>2012-09-16T16:21:30Z</time>
      </trkpt>
      <trkpt lat="43.61094" lon="7.05623">
        <ele>111</ele>
        <time>2012-09-16T16:21:31Z</time>
      </trkpt>
      <trkpt lat="43.61099" lon="7.05629">
        <ele>110.8</ele>
        <time>2012-09-16T16:21:32Z</time>
      </trkpt>
      <trkpt lat="43.61103" lon="7.05635">
        <ele>110.6</ele>
        <time>2012-09-16T16:21:33Z</time>
      </trkpt>
      <trkpt lat="43.61107" lon="7.05642">
        <ele>110.4</ele>
        <time>2012-09-16T16:21:34Z</time>
      </trkpt>
      <trkpt lat="43.6111" lon="7.05649">
        <ele>110.3</ele>
        <time>2012-09-16T16:21:35Z</time>
      </trkpt>
      <trkpt lat="43.61114" lon="7.05655">
        <ele>110.3</ele>
        <time>2012-09-16T16:21:36Z</time>
      </trkpt>
      <trkpt lat="43.61117" lon="7.05662">
        <ele>110.3</ele>
        <time>2012-09-16T16:21:37Z</time>
      </trkpt>
      <trkpt lat="43.61122" lon="7.05667">
        <ele>110.1</ele>
        <time>2012-09-16T16:21:39Z</time>
      </trkpt>
      <trkpt lat="43.61128" lon="7.05675">
        <ele>109.2</ele>
        <time>2012-09-16T16:21:42Z</time>
      </trkpt>
      <trkpt lat="43.61128" lon="7.05686">
        <ele>108.7</ele>
        <time>2012-09-16T16:21:45Z</time>
      </trkpt>
      <trkpt lat="43.61131" lon="7.05695">
        <ele>108.8</ele>
        <time>2012-09-16T16:21:47Z</time>
      </trkpt>
      <trkpt lat="43.61135" lon="7.05703">
        <ele>108.5</ele>
        <time>2012-09-16T16:21:49Z</time>
      </trkpt>
      <trkpt lat="43.61138" lon="7.05713">
        <ele>108.4</ele>
        <time>2012-09-16T16:21:51Z</time>
      </trkpt>
      <trkpt lat="43.61139" lon="7.05718">
        <ele>108.4</ele>
        <time>2012-09-16T16:21:52Z</time>
      </trkpt>
      <trkpt lat="43.61144" lon="7.05732">
        <ele>109.7</ele>
        <time>2012-09-16T16:21:56Z</time>
      </trkpt>
      <trkpt lat="43.61149" lon="7.05741">
        <ele>110.4</ele>
        <time>2012-09-16T16:22:00Z</time>
      </trkpt>
      <trkpt lat="43.61153" lon="7.05751">
        <ele>111</ele>
        <time>2012-09-16T16:22:04Z</time>
      </trkpt>
      <trkpt lat="43.61156" lon="7.05756">
        <ele>110.8</ele>
        <time>2012-09-16T16:22:06Z</time>
      </trkpt>
      <trkpt lat="43.6116" lon="7.05765">
        <ele>110.4</ele>
        <time>2012-09-16T16:22:08Z</time>
      </trkpt>
      <trkpt lat="43.61162" lon="7.05771">
        <ele>110.4</ele>
        <time>2012-09-16T16:22:09Z</time>
      </trkpt>
      <trkpt lat="43.61165" lon="7.05777">
        <ele>110.3</ele>
        <time>2012-09-16T16:22:10Z</time>
      </trkpt>
      <trkpt lat="43.61167" lon="7.05784">
        <ele>110.3</ele>
        <time>2012-09-16T16:22:11Z</time>
      </trkpt>
      <trkpt lat="43.61167" lon="7.05796">
        <ele>109.3</ele>
        <time>2012-09-16T16:22:13Z</time>
      </trkpt>
      <trkpt lat="43.6117" lon="7.05805">
        <ele>108.6</ele>
        <time>2012-09-16T16:22:15Z</time>
      </trkpt>
      <trkpt lat="43.61177" lon="7.05808">
        <ele>107.7</ele>
        <time>2012-09-16T16:22:17Z</time>
      </trkpt>
      <trkpt lat="43.6118" lon="7.05813">
        <ele>107.4</ele>
        <time>2012-09-16T16:22:18Z</time>
      </trkpt>
      <trkpt lat="43.61184" lon="7.05818">
        <ele>107</ele>
        <time>2012-09-16T16:22:19Z</time>
      </trkpt>
      <trkpt lat="43.61188" lon="7.05821">
        <ele>106.7</ele>
        <time>2012-09-16T16:22:20Z</time>
      </trkpt>
      <trkpt lat="43.61193" lon="7.05823">
        <ele>105.9</ele>
        <time>2012-09-16T16:22:21Z</time>
      </trkpt>
      <trkpt lat="43.61199" lon="7.05826">
        <ele>105.3</ele>
        <time>2012-09-16T16:22:22Z</time>
      </trkpt>
      <trkpt lat="43.61203" lon="7.05831">
        <ele>104.9</ele>
        <time>2012-09-16T16:22:23Z</time>
      </trkpt>
      <trkpt lat="43.61207" lon="7.05836">
        <ele>104.7</ele>
        <time>2012-09-16T16:22:24Z</time>
      </trkpt>
      <trkpt lat="43.61211" lon="7.05841">
        <ele>104.5</ele>
        <time>2012-09-16T16:22:25Z</time>
      </trkpt>
      <trkpt lat="43.61216" lon="7.05845">
        <ele>104.5</ele>
        <time>2012-09-16T16:22:26Z</time>
      </trkpt>
      <trkpt lat="43.6122" lon="7.05848">
        <ele>104.4</ele>
        <time>2012-09-16T16:22:27Z</time>
      </trkpt>
      <trkpt lat="43.61225" lon="7.0585">
        <ele>104.1</ele>
        <time>2012-09-16T16:22:28Z</time>
      </trkpt>
      <trkpt lat="43.61231" lon="7.05852">
        <ele>103.9</ele>
        <time>2012-09-16T16:22:29Z</time>
      </trkpt>
      <trkpt lat="43.61235" lon="7.05856">
        <ele>103.7</ele>
        <time>2012-09-16T16:22:30Z</time>
      </trkpt>
      <trkpt lat="43.61239" lon="7.0586">
        <ele>103.4</ele>
        <time>2012-09-16T16:22:31Z</time>
      </trkpt>
      <trkpt lat="43.61244" lon="7.05865">
        <ele>103.2</ele>
        <time>2012-09-16T16:22:32Z</time>
      </trkpt>
      <trkpt lat="43.61248" lon="7.05869">
        <ele>102.6</ele>
        <time>2012-09-16T16:22:33Z</time>
      </trkpt>
      <trkpt lat="43.61251" lon="7.05874">
        <ele>102.2</ele>
        <time>2012-09-16T16:22:34Z</time>
      </trkpt>
      <trkpt lat="43.61255" lon="7.05879">
        <ele>101.9</ele>
        <time>2012-09-16T16:22:35Z</time>
      </trkpt>
      <trkpt lat="43.6126" lon="7.05884">
        <ele>101.7</ele>
        <time>2012-09-16T16:22:36Z</time>
      </trkpt>
      <trkpt lat="43.61264" lon="7.05889">
        <ele>101.5</ele>
        <time>2012-09-16T16:22:37Z</time>
      </trkpt>
      <trkpt lat="43.61268" lon="7.05894">
        <ele>101.4</ele>
        <time>2012-09-16T16:22:38Z</time>
      </trkpt>
      <trkpt lat="43.61273" lon="7.05899">
        <ele>101.3</ele>
        <time>2012-09-16T16:22:39Z</time>
      </trkpt>
      <trkpt lat="43.61277" lon="7.05904">
        <ele>100.9</ele>
        <time>2012-09-16T16:22:40Z</time>
      </trkpt>
      <trkpt lat="43.61282" lon="7.05909">
        <ele>100.6</ele>
        <time>2012-09-16T16:22:41Z</time>
      </trkpt>
      <trkpt lat="43.61287" lon="7.05915">
        <ele>100.3</ele>
        <time>2012-09-16T16:22:42Z</time>
      </trkpt>
      <trkpt lat="43.61292" lon="7.0592">
        <ele>100.2</ele>
        <time>2012-09-16T16:22:43Z</time>
      </trkpt>
      <trkpt lat="43.61297" lon="7.05925">
        <ele>100.1</ele>
        <time>2012-09-16T16:22:44Z</time>
      </trkpt>
      <trkpt lat="43.61302" lon="7.05931">
        <ele>99.9</ele>
        <time>2012-09-16T16:22:45Z</time>
      </trkpt>
      <trkpt lat="43.61306" lon="7.05937">
        <ele>99.7</ele>
        <time>2012-09-16T16:22:46Z</time>
      </trkpt>
      <trkpt lat="43.61311" lon="7.05944">
        <ele>99.2</ele>
        <time>2012-09-16T16:22:47Z</time>
      </trkpt>
      <trkpt lat="43.61316" lon="7.0595">
        <ele>98.8</ele>
        <time>2012-09-16T16:22:48Z</time>
      </trkpt>
      <trkpt lat="43.61321" lon="7.05956">
        <ele>98.4</ele>
        <time>2012-09-16T16:22:49Z</time>
      </trkpt>
      <trkpt lat="43.61326" lon="7.05961">
        <ele>98</ele>
        <time>2012-09-16T16:22:50Z</time>
      </trkpt>
      <trkpt lat="43.61331" lon="7.05966">
        <ele>97.7</ele>
        <time>2012-09-16T16:22:51Z</time>
      </trkpt>
      <trkpt lat="43.61336" lon="7.0597">
        <ele>97.1</ele>
        <time>2012-09-16T16:22:52Z</time>
      </trkpt>
      <trkpt lat="43.6134" lon="7.05975">
        <ele>96.6</ele>
        <time>2012-09-16T16:22:53Z</time>
      </trkpt>
      <trkpt lat="43.61344" lon="7.05979">
        <ele>96.6</ele>
        <time>2012-09-16T16:22:54Z</time>
      </trkpt>
      <trkpt lat="43.61347" lon="7.05984">
        <ele>96.6</ele>
        <time>2012-09-16T16:22:55Z</time>
      </trkpt>
      <trkpt lat="43.61351" lon="7.05988">
        <ele>96.6</ele>
        <time>2012-09-16T16:22:56Z</time>
      </trkpt>
      <trkpt lat="43.61355" lon="7.05993">
        <ele>96.4</ele>
        <time>2012-09-16T16:22:57Z</time>
      </trkpt>
      <trkpt lat="43.61358" lon="7.05998">
        <ele>96.2</ele>
        <time>2012-09-16T16:22:58Z</time>
      </trkpt>
      <trkpt lat="43.61361" lon="7.06004">
        <ele>96.2</ele>
        <time>2012-09-16T16:22:59Z</time>
      </trkpt>
      <trkpt lat="43.61364" lon="7.0601">
        <ele>96.1</ele>
        <time>2012-09-16T16:23:00Z</time>
      </trkpt>
      <trkpt lat="43.61368" lon="7.06015">
        <ele>96</ele>
        <time>2012-09-16T16:23:01Z</time>
      </trkpt>
      <trkpt lat="43.61371" lon="7.0602">
        <ele>95.4</ele>
        <time>2012-09-16T16:23:02Z</time>
      </trkpt>
      <trkpt lat="43.61375" lon="7.06026">
        <ele>94.9</ele>
        <time>2012-09-16T16:23:03Z</time>
      </trkpt>
      <trkpt lat="43.61378" lon="7.06031">
        <ele>94.9</ele>
        <time>2012-09-16T16:23:04Z</time>
      </trkpt>
      <trkpt lat="43.61381" lon="7.06037">
        <ele>94.9</ele>
        <time>2012-09-16T16:23:05Z</time>
      </trkpt>
      <trkpt lat="43.61383" lon="7.06043">
        <ele>94.9</ele>
        <time>2012-09-16T16:23:06Z</time>
      </trkpt>
      <trkpt lat="43.61386" lon="7.06048">
        <ele>95</ele>
        <time>2012-09-16T16:23:07Z</time>
      </trkpt>
      <trkpt lat="43.61389" lon="7.06054">
        <ele>95</ele>
        <time>2012-09-16T16:23:08Z</time>
      </trkpt>
      <trkpt lat="43.61392" lon="7.06059">
        <ele>95</ele>
        <time>2012-09-16T16:23:09Z</time>
      </trkpt>
      <trkpt lat="43.61395" lon="7.06066">
        <ele>95.1</ele>
        <time>2012-09-16T16:23:10Z</time>
      </trkpt>
      <trkpt lat="43.61399" lon="7.06072">
        <ele>95</ele>
        <time>2012-09-16T16:23:11Z</time>
      </trkpt>
      <trkpt lat="43.61403" lon="7.06078">
        <ele>94.9</ele>
        <time>2012-09-16T16:23:12Z</time>
      </trkpt>
      <trkpt lat="43.61406" lon="7.06085">
        <ele>94.6</ele>
        <time>2012-09-16T16:23:13Z</time>
      </trkpt>
      <trkpt lat="43.61408" lon="7.06093">
        <ele>94.3</ele>
        <time>2012-09-16T16:23:14Z</time>
      </trkpt>
      <trkpt lat="43.61408" lon="7.06101">
        <ele>94.1</ele>
        <time>2012-09-16T16:23:15Z</time>
      </trkpt>
      <trkpt lat="43.61409" lon="7.06109">
        <ele>93.9</ele>
        <time>2012-09-16T16:23:16Z</time>
      </trkpt>
      <trkpt lat="43.6141" lon="7.06117">
        <ele>93.8</ele>
        <time>2012-09-16T16:23:17Z</time>
      </trkpt>
      <trkpt lat="43.61412" lon="7.06124">
        <ele>93.8</ele>
        <time>2012-09-16T16:23:18Z</time>
      </trkpt>
      <trkpt lat="43.61415" lon="7.06131">
        <ele>93.7</ele>
        <time>2012-09-16T16:23:19Z</time>
      </trkpt>
      <trkpt lat="43.61417" lon="7.06139">
        <ele>93.3</ele>
        <time>2012-09-16T16:23:20Z</time>
      </trkpt>
      <trkpt lat="43.61419" lon="7.06146">
        <ele>93</ele>
        <time>2012-09-16T16:23:21Z</time>
      </trkpt>
      <trkpt lat="43.6142" lon="7.06152">
        <ele>92.7</ele>
        <time>2012-09-16T16:23:22Z</time>
      </trkpt>
      <trkpt lat="43.61423" lon="7.06159">
        <ele>92.3</ele>
        <time>2012-09-16T16:23:23Z</time>
      </trkpt>
      <trkpt lat="43.61427" lon="7.06166">
        <ele>91.9</ele>
        <time>2012-09-16T16:23:24Z</time>
      </trkpt>
      <trkpt lat="43.61429" lon="7.06174">
        <ele>91.6</ele>
        <time>2012-09-16T16:23:25Z</time>
      </trkpt>
      <trkpt lat="43.61431" lon="7.06181">
        <ele>91.4</ele>
        <time>2012-09-16T16:23:26Z</time>
      </trkpt>
      <trkpt lat="43.61433" lon="7.06189">
        <ele>91.2</ele>
        <time>2012-09-16T16:23:27Z</time>
      </trkpt>
      <trkpt lat="43.61436" lon="7.06196">
        <ele>90.5</ele>
        <time>2012-09-16T16:23:28Z</time>
      </trkpt>
      <trkpt lat="43.61439" lon="7.06203">
        <ele>90</ele>
        <time>2012-09-16T16:23:29Z</time>
      </trkpt>
      <trkpt lat="43.61442" lon="7.06209">
        <ele>90.2</ele>
        <time>2012-09-16T16:23:30Z</time>
      </trkpt>
      <trkpt lat="43.61445" lon="7.06216">
        <ele>90.3</ele>
        <time>2012-09-16T16:23:31Z</time>
      </trkpt>
      <trkpt lat="43.61448" lon="7.06223">
        <ele>90.4</ele>
        <time>2012-09-16T16:23:32Z</time>
      </trkpt>
      <trkpt lat="43.61452" lon="7.06229">
        <ele>90.5</ele>
        <time>2012-09-16T16:23:33Z</time>
      </trkpt>
      <trkpt lat="43.61456" lon="7.06234">
        <ele>90.6</ele>
        <time>2012-09-16T16:23:34Z</time>
      </trkpt>
      <trkpt lat="43.61461" lon="7.06239">
        <ele>90.2</ele>
        <time>2012-09-16T16:23:35Z</time>
      </trkpt>
      <trkpt lat="43.61466" lon="7.06243">
        <ele>90</ele>
        <time>2012-09-16T16:23:36Z</time>
      </trkpt>
      <trkpt lat="43.61471" lon="7.06247">
        <ele>90.2</ele>
        <time>2012-09-16T16:23:37Z</time>
      </trkpt>
      <trkpt lat="43.61476" lon="7.06251">
        <ele>90.4</ele>
        <time>2012-09-16T16:23:38Z</time>
      </trkpt>
      <trkpt lat="43.61481" lon="7.06254">
        <ele>90</ele>
        <time>2012-09-16T16:23:39Z</time>
      </trkpt>
      <trkpt lat="43.61485" lon="7.06259">
        <ele>89.7</ele>
        <time>2012-09-16T16:23:40Z</time>
      </trkpt>
      <trkpt lat="43.61488" lon="7.06265">
        <ele>89.5</ele>
        <time>2012-09-16T16:23:41Z</time>
      </trkpt>
      <trkpt lat="43.61491" lon="7.06272">
        <ele>89.4</ele>
        <time>2012-09-16T16:23:42Z</time>
      </trkpt>
      <trkpt lat="43.61494" lon="7.06279">
        <ele>89.4</ele>
        <time>2012-09-16T16:23:43Z</time>
      </trkpt>
      <trkpt lat="43.61495" lon="7.06287">
        <ele>89.3</ele>
        <time>2012-09-16T16:23:44Z</time>
      </trkpt>
      <trkpt lat="43.61497" lon="7.06295">
        <ele>89.2</ele>
        <time>2012-09-16T16:23:45Z</time>
      </trkpt>
      <trkpt lat="43.61499" lon="7.06303">
        <ele>89.1</ele>
        <time>2012-09-16T16:23:46Z</time>
      </trkpt>
      <trkpt lat="43.61499" lon="7.06311">
        <ele>88.7</ele>
        <time>2012-09-16T16:23:47Z</time>
      </trkpt>
      <trkpt lat="43.615" lon="7.06319">
        <ele>88.3</ele>
        <time>2012-09-16T16:23:48Z</time>
      </trkpt>
      <trkpt lat="43.61501" lon="7.06327">
        <ele>88.5</ele>
        <time>2012-09-16T16:23:49Z</time>
      </trkpt>
      <trkpt lat="43.61501" lon="7.06335">
        <ele>88.6</ele>
        <time>2012-09-16T16:23:50Z</time>
      </trkpt>
      <trkpt lat="43.61501" lon="7.06343">
        <ele>88.3</ele>
        <time>2012-09-16T16:23:51Z</time>
      </trkpt>
      <trkpt lat="43.61502" lon="7.06351">
        <ele>88.2</ele>
        <time>2012-09-16T16:23:52Z</time>
      </trkpt>
      <trkpt lat="43.61502" lon="7.06359">
        <ele>88</ele>
        <time>2012-09-16T16:23:53Z</time>
      </trkpt>
      <trkpt lat="43.61502" lon="7.06367">
        <ele>87.8</ele>
        <time>2012-09-16T16:23:54Z</time>
      </trkpt>
      <trkpt lat="43.61503" lon="7.06374">
        <ele>87.6</ele>
        <time>2012-09-16T16:23:55Z</time>
      </trkpt>
      <trkpt lat="43.61504" lon="7.06382">
        <ele>87.1</ele>
        <time>2012-09-16T16:23:56Z</time>
      </trkpt>
      <trkpt lat="43.61505" lon="7.0639">
        <ele>86.7</ele>
        <time>2012-09-16T16:23:57Z</time>
      </trkpt>
      <trkpt lat="43.61504" lon="7.06398">
        <ele>86.6</ele>
        <time>2012-09-16T16:23:58Z</time>
      </trkpt>
      <trkpt lat="43.61504" lon="7.06406">
        <ele>86.5</ele>
        <time>2012-09-16T16:23:59Z</time>
      </trkpt>
      <trkpt lat="43.61504" lon="7.06414">
        <ele>86.5</ele>
        <time>2012-09-16T16:24:00Z</time>
      </trkpt>
      <trkpt lat="43.61503" lon="7.06421">
        <ele>86.4</ele>
        <time>2012-09-16T16:24:01Z</time>
      </trkpt>
      <trkpt lat="43.61501" lon="7.06427">
        <ele>86.3</ele>
        <time>2012-09-16T16:24:02Z</time>
      </trkpt>
      <trkpt lat="43.615" lon="7.06433">
        <ele>86.2</ele>
        <time>2012-09-16T16:24:03Z</time>
      </trkpt>
      <trkpt lat="43.61498" lon="7.06439">
        <ele>86.1</ele>
        <time>2012-09-16T16:24:04Z</time>
      </trkpt>
      <trkpt lat="43.61497" lon="7.06445">
        <ele>86.1</ele>
        <time>2012-09-16T16:24:05Z</time>
      </trkpt>
      <trkpt lat="43.61495" lon="7.06452">
        <ele>85.8</ele>
        <time>2012-09-16T16:24:06Z</time>
      </trkpt>
      <trkpt lat="43.61491" lon="7.06462">
        <ele>85.4</ele>
        <time>2012-09-16T16:24:08Z</time>
      </trkpt>
      <trkpt lat="43.61486" lon="7.06471">
        <ele>85.7</ele>
        <time>2012-09-16T16:24:10Z</time>
      </trkpt>
      <trkpt lat="43.61482" lon="7.06477">
        <ele>86.1</ele>
        <time>2012-09-16T16:24:12Z</time>
      </trkpt>
      <trkpt lat="43.61476" lon="7.06486">
        <ele>85.9</ele>
        <time>2012-09-16T16:24:14Z</time>
      </trkpt>
      <trkpt lat="43.61474" lon="7.06492">
        <ele>85.8</ele>
        <time>2012-09-16T16:24:15Z</time>
      </trkpt>
      <trkpt lat="43.61472" lon="7.06498">
        <ele>85.8</ele>
        <time>2012-09-16T16:24:16Z</time>
      </trkpt>
      <trkpt lat="43.6147" lon="7.06504">
        <ele>85.7</ele>
        <time>2012-09-16T16:24:17Z</time>
      </trkpt>
      <trkpt lat="43.61466" lon="7.0651">
        <ele>85.5</ele>
        <time>2012-09-16T16:24:18Z</time>
      </trkpt>
      <trkpt lat="43.61463" lon="7.06514">
        <ele>85.2</ele>
        <time>2012-09-16T16:24:19Z</time>
      </trkpt>
      <trkpt lat="43.61461" lon="7.0652">
        <ele>85.2</ele>
        <time>2012-09-16T16:24:20Z</time>
      </trkpt>
      <trkpt lat="43.61458" lon="7.06525">
        <ele>85.1</ele>
        <time>2012-09-16T16:24:21Z</time>
      </trkpt>
      <trkpt lat="43.61455" lon="7.06531">
        <ele>85.1</ele>
        <time>2012-09-16T16:24:22Z</time>
      </trkpt>
      <trkpt lat="43.61452" lon="7.06537">
        <ele>85</ele>
        <time>2012-09-16T16:24:23Z</time>
      </trkpt>
      <trkpt lat="43.61448" lon="7.06543">
        <ele>85</ele>
        <time>2012-09-16T16:24:24Z</time>
      </trkpt>
      <trkpt lat="43.61445" lon="7.06547">
        <ele>85.1</ele>
        <time>2012-09-16T16:24:25Z</time>
      </trkpt>
      <trkpt lat="43.61443" lon="7.06553">
        <ele>85.2</ele>
        <time>2012-09-16T16:24:26Z</time>
      </trkpt>
      <trkpt lat="43.61441" lon="7.06564">
        <ele>85.5</ele>
        <time>2012-09-16T16:24:28Z</time>
      </trkpt>
      <trkpt lat="43.61438" lon="7.06573">
        <ele>85.1</ele>
        <time>2012-09-16T16:24:30Z</time>
      </trkpt>
      <trkpt lat="43.61435" lon="7.06584">
        <ele>84.3</ele>
        <time>2012-09-16T16:24:32Z</time>
      </trkpt>
      <trkpt lat="43.61429" lon="7.06593">
        <ele>83.1</ele>
        <time>2012-09-16T16:24:34Z</time>
      </trkpt>
      <trkpt lat="43.61426" lon="7.06598">
        <ele>82.5</ele>
        <time>2012-09-16T16:24:35Z</time>
      </trkpt>
      <trkpt lat="43.61422" lon="7.06603">
        <ele>82.1</ele>
        <time>2012-09-16T16:24:36Z</time>
      </trkpt>
      <trkpt lat="43.61418" lon="7.06607">
        <ele>81.1</ele>
        <time>2012-09-16T16:24:37Z</time>
      </trkpt>
      <trkpt lat="43.61414" lon="7.06613">
        <ele>80.4</ele>
        <time>2012-09-16T16:24:38Z</time>
      </trkpt>
      <trkpt lat="43.6141" lon="7.06619">
        <ele>79.8</ele>
        <time>2012-09-16T16:24:39Z</time>
      </trkpt>
      <trkpt lat="43.61406" lon="7.06626">
        <ele>79.4</ele>
        <time>2012-09-16T16:24:40Z</time>
      </trkpt>
      <trkpt lat="43.61403" lon="7.06632">
        <ele>78.9</ele>
        <time>2012-09-16T16:24:41Z</time>
      </trkpt>
      <trkpt lat="43.61399" lon="7.06638">
        <ele>78.6</ele>
        <time>2012-09-16T16:24:42Z</time>
      </trkpt>
      <trkpt lat="43.61395" lon="7.06644">
        <ele>78.3</ele>
        <time>2012-09-16T16:24:43Z</time>
      </trkpt>
      <trkpt lat="43.61391" lon="7.06651">
        <ele>78</ele>
        <time>2012-09-16T16:24:44Z</time>
      </trkpt>
      <trkpt lat="43.61387" lon="7.06658">
        <ele>77.7</ele>
        <time>2012-09-16T16:24:45Z</time>
      </trkpt>
      <trkpt lat="43.61383" lon="7.06663">
        <ele>77.5</ele>
        <time>2012-09-16T16:24:46Z</time>
      </trkpt>
      <trkpt lat="43.61378" lon="7.06669">
        <ele>77.4</ele>
        <time>2012-09-16T16:24:47Z</time>
      </trkpt>
      <trkpt lat="43.61374" lon="7.06674">
        <ele>77.3</ele>
        <time>2012-09-16T16:24:48Z</time>
      </trkpt>
      <trkpt lat="43.6137" lon="7.06677">
        <ele>77.2</ele>
        <time>2012-09-16T16:24:49Z</time>
      </trkpt>
      <trkpt lat="43.61365" lon="7.06681">
        <ele>77.1</ele>
        <time>2012-09-16T16:24:50Z</time>
      </trkpt>
      <trkpt lat="43.6136" lon="7.06683">
        <ele>76.8</ele>
        <time>2012-09-16T16:24:51Z</time>
      </trkpt>
      <trkpt lat="43.61355" lon="7.06686">
        <ele>76.5</ele>
        <time>2012-09-16T16:24:52Z</time>
      </trkpt>
      <trkpt lat="43.6135" lon="7.06689">
        <ele>76.5</ele>
        <time>2012-09-16T16:24:53Z</time>
      </trkpt>
      <trkpt lat="43.61346" lon="7.06692">
        <ele>76.5</ele>
        <time>2012-09-16T16:24:54Z</time>
      </trkpt>
      <trkpt lat="43.61342" lon="7.06694">
        <ele>76.5</ele>
        <time>2012-09-16T16:24:55Z</time>
      </trkpt>
      <trkpt lat="43.61338" lon="7.06698">
        <ele>76.4</ele>
        <time>2012-09-16T16:24:56Z</time>
      </trkpt>
      <trkpt lat="43.61333" lon="7.06703">
        <ele>76.4</ele>
        <time>2012-09-16T16:24:57Z</time>
      </trkpt>
      <trkpt lat="43.61329" lon="7.06709">
        <ele>76</ele>
        <time>2012-09-16T16:24:58Z</time>
      </trkpt>
      <trkpt lat="43.61324" lon="7.06714">
        <ele>75.7</ele>
        <time>2012-09-16T16:24:59Z</time>
      </trkpt>
      <trkpt lat="43.6132" lon="7.06719">
        <ele>75.7</ele>
        <time>2012-09-16T16:25:00Z</time>
      </trkpt>
      <trkpt lat="43.61317" lon="7.06725">
        <ele>75.7</ele>
        <time>2012-09-16T16:25:01Z</time>
      </trkpt>
      <trkpt lat="43.61314" lon="7.06732">
        <ele>75.7</ele>
        <time>2012-09-16T16:25:02Z</time>
      </trkpt>
      <trkpt lat="43.61312" lon="7.06739">
        <ele>74.9</ele>
        <time>2012-09-16T16:25:03Z</time>
      </trkpt>
      <trkpt lat="43.6131" lon="7.06746">
        <ele>74.3</ele>
        <time>2012-09-16T16:25:04Z</time>
      </trkpt>
      <trkpt lat="43.61308" lon="7.06753">
        <ele>73.8</ele>
        <time>2012-09-16T16:25:05Z</time>
      </trkpt>
      <trkpt lat="43.61305" lon="7.06761">
        <ele>73.4</ele>
        <time>2012-09-16T16:25:06Z</time>
      </trkpt>
      <trkpt lat="43.61302" lon="7.06769">
        <ele>73.1</ele>
        <time>2012-09-16T16:25:07Z</time>
      </trkpt>
      <trkpt lat="43.61299" lon="7.06777">
        <ele>72.9</ele>
        <time>2012-09-16T16:25:08Z</time>
      </trkpt>
      <trkpt lat="43.61298" lon="7.06785">
        <ele>72.8</ele>
        <time>2012-09-16T16:25:09Z</time>
      </trkpt>
      <trkpt lat="43.61294" lon="7.06796">
        <ele>72.6</ele>
        <time>2012-09-16T16:25:11Z</time>
      </trkpt>
      <trkpt lat="43.61288" lon="7.06804">
        <ele>72.4</ele>
        <time>2012-09-16T16:25:14Z</time>
      </trkpt>
      <trkpt lat="43.61281" lon="7.06813">
        <ele>72.4</ele>
        <time>2012-09-16T16:25:17Z</time>
      </trkpt>
      <trkpt lat="43.61276" lon="7.06819">
        <ele>72.5</ele>
        <time>2012-09-16T16:25:19Z</time>
      </trkpt>
      <trkpt lat="43.61273" lon="7.06829">
        <ele>72.8</ele>
        <time>2012-09-16T16:25:21Z</time>
      </trkpt>
      <trkpt lat="43.61277" lon="7.06839">
        <ele>70.9</ele>
        <time>2012-09-16T16:25:23Z</time>
      </trkpt>
      <trkpt lat="43.61277" lon="7.06849">
        <ele>70</ele>
        <time>2012-09-16T16:25:25Z</time>
      </trkpt>
      <trkpt lat="43.61276" lon="7.06858">
        <ele>69.8</ele>
        <time>2012-09-16T16:25:27Z</time>
      </trkpt>
      <trkpt lat="43.61276" lon="7.06868">
        <ele>69.5</ele>
        <time>2012-09-16T16:25:29Z</time>
      </trkpt>
      <trkpt lat="43.61275" lon="7.06879">
        <ele>68.8</ele>
        <time>2012-09-16T16:25:31Z</time>
      </trkpt>
      <trkpt lat="43.61274" lon="7.06889">
        <ele>67.7</ele>
        <time>2012-09-16T16:25:33Z</time>
      </trkpt>
      <trkpt lat="43.61272" lon="7.06897">
        <ele>66.9</ele>
        <time>2012-09-16T16:25:35Z</time>
      </trkpt>
      <trkpt lat="43.61269" lon="7.06908">
        <ele>65.9</ele>
        <time>2012-09-16T16:25:37Z</time>
      </trkpt>
      <trkpt lat="43.61266" lon="7.06913">
        <ele>65.2</ele>
        <time>2012-09-16T16:25:38Z</time>
      </trkpt>
      <trkpt lat="43.61263" lon="7.06918">
        <ele>64.7</ele>
        <time>2012-09-16T16:25:39Z</time>
      </trkpt>
      <trkpt lat="43.61259" lon="7.06923">
        <ele>64.3</ele>
        <time>2012-09-16T16:25:40Z</time>
      </trkpt>
      <trkpt lat="43.61254" lon="7.06931">
        <ele>64.1</ele>
        <time>2012-09-16T16:25:42Z</time>
      </trkpt>
      <trkpt lat="43.61251" lon="7.0694">
        <ele>63.7</ele>
        <time>2012-09-16T16:25:44Z</time>
      </trkpt>
      <trkpt lat="43.61248" lon="7.06949">
        <ele>63.7</ele>
        <time>2012-09-16T16:25:46Z</time>
      </trkpt>
      <trkpt lat="43.61249" lon="7.06959">
        <ele>63</ele>
        <time>2012-09-16T16:25:48Z</time>
      </trkpt>
      <trkpt lat="43.6125" lon="7.06969">
        <ele>62.3</ele>
        <time>2012-09-16T16:25:50Z</time>
      </trkpt>
      <trkpt lat="43.6125" lon="7.06981">
        <ele>62.1</ele>
        <time>2012-09-16T16:25:53Z</time>
      </trkpt>
      <trkpt lat="43.61253" lon="7.06992">
        <ele>63</ele>
        <time>2012-09-16T16:25:57Z</time>
      </trkpt>
      <trkpt lat="43.61253" lon="7.06995">
        <ele>63.2</ele>
        <time>2012-09-16T16:25:58Z</time>
      </trkpt>
      <trkpt lat="43.61253" lon="7.07012">
        <ele>64.4</ele>
        <time>2012-09-16T16:26:03Z</time>
      </trkpt>
      <trkpt lat="43.61254" lon="7.07024">
        <ele>66.1</ele>
        <time>2012-09-16T16:26:07Z</time>
      </trkpt>
      <trkpt lat="43.61251" lon="7.07033">
        <ele>66.9</ele>
        <time>2012-09-16T16:26:10Z</time>
      </trkpt>
      <trkpt lat="43.61248" lon="7.07045">
        <ele>67.1</ele>
        <time>2012-09-16T16:26:13Z</time>
      </trkpt>
      <trkpt lat="43.61247" lon="7.07053">
        <ele>66.9</ele>
        <time>2012-09-16T16:26:15Z</time>
      </trkpt>
      <trkpt lat="43.61245" lon="7.07063">
        <ele>67.3</ele>
        <time>2012-09-16T16:26:17Z</time>
      </trkpt>
      <trkpt lat="43.61246" lon="7.07072">
        <ele>67.4</ele>
        <time>2012-09-16T16:26:19Z</time>
      </trkpt>
      <trkpt lat="43.61247" lon="7.07081">
        <ele>67.5</ele>
        <time>2012-09-16T16:26:21Z</time>
      </trkpt>
      <trkpt lat="43.61246" lon="7.07091">
        <ele>67.9</ele>
        <time>2012-09-16T16:26:24Z</time>
      </trkpt>
      <trkpt lat="43.61245" lon="7.07098">
        <ele>68.1</ele>
        <time>2012-09-16T16:26:26Z</time>
      </trkpt>
      <trkpt lat="43.61241" lon="7.07108">
        <ele>68.1</ele>
        <time>2012-09-16T16:26:28Z</time>
      </trkpt>
      <trkpt lat="43.61236" lon="7.07116">
        <ele>68.1</ele>
        <time>2012-09-16T16:26:30Z</time>
      </trkpt>
      <trkpt lat="43.61232" lon="7.07121">
        <ele>68.2</ele>
        <time>2012-09-16T16:26:32Z</time>
      </trkpt>
      <trkpt lat="43.61229" lon="7.07129">
        <ele>68.2</ele>
        <time>2012-09-16T16:26:34Z</time>
      </trkpt>
      <trkpt lat="43.61228" lon="7.07138">
        <ele>68.6</ele>
        <time>2012-09-16T16:26:36Z</time>
      </trkpt>
      <trkpt lat="43.61228" lon="7.07147">
        <ele>69.4</ele>
        <time>2012-09-16T16:26:38Z</time>
      </trkpt>
      <trkpt lat="43.61228" lon="7.07156">
        <ele>70</ele>
        <time>2012-09-16T16:26:40Z</time>
      </trkpt>
      <trkpt lat="43.61226" lon="7.07165">
        <ele>70.3</ele>
        <time>2012-09-16T16:26:42Z</time>
      </trkpt>
      <trkpt lat="43.61224" lon="7.07174">
        <ele>70.4</ele>
        <time>2012-09-16T16:26:44Z</time>
      </trkpt>
      <trkpt lat="43.61223" lon="7.07182">
        <ele>71.1</ele>
        <time>2012-09-16T16:26:46Z</time>
      </trkpt>
      <trkpt lat="43.61221" lon="7.07191">
        <ele>71.7</ele>
        <time>2012-09-16T16:26:48Z</time>
      </trkpt>
      <trkpt lat="43.61219" lon="7.07201">
        <ele>72.1</ele>
        <time>2012-09-16T16:26:50Z</time>
      </trkpt>
      <trkpt lat="43.61218" lon="7.07208">
        <ele>72.2</ele>
        <time>2012-09-16T16:26:51Z</time>
      </trkpt>
      <trkpt lat="43.61218" lon="7.07215">
        <ele>72.3</ele>
        <time>2012-09-16T16:26:52Z</time>
      </trkpt>
      <trkpt lat="43.61217" lon="7.07222">
        <ele>72.3</ele>
        <time>2012-09-16T16:26:53Z</time>
      </trkpt>
      <trkpt lat="43.61216" lon="7.0723">
        <ele>72.1</ele>
        <time>2012-09-16T16:26:54Z</time>
      </trkpt>
      <trkpt lat="43.61216" lon="7.07238">
        <ele>71.9</ele>
        <time>2012-09-16T16:26:55Z</time>
      </trkpt>
      <trkpt lat="43.61216" lon="7.07245">
        <ele>71.4</ele>
        <time>2012-09-16T16:26:56Z</time>
      </trkpt>
      <trkpt lat="43.61217" lon="7.07253">
        <ele>71.1</ele>
        <time>2012-09-16T16:26:57Z</time>
      </trkpt>
      <trkpt lat="43.61219" lon="7.0726">
        <ele>70.9</ele>
        <time>2012-09-16T16:26:58Z</time>
      </trkpt>
      <trkpt lat="43.61221" lon="7.07268">
        <ele>70.3</ele>
        <time>2012-09-16T16:26:59Z</time>
      </trkpt>
      <trkpt lat="43.61224" lon="7.07274">
        <ele>69.9</ele>
        <time>2012-09-16T16:27:00Z</time>
      </trkpt>
      <trkpt lat="43.61228" lon="7.0728">
        <ele>69.7</ele>
        <time>2012-09-16T16:27:01Z</time>
      </trkpt>
      <trkpt lat="43.61232" lon="7.07285">
        <ele>69.5</ele>
        <time>2012-09-16T16:27:02Z</time>
      </trkpt>
      <trkpt lat="43.61237" lon="7.07288">
        <ele>69.3</ele>
        <time>2012-09-16T16:27:03Z</time>
      </trkpt>
      <trkpt lat="43.61242" lon="7.0729">
        <ele>69.5</ele>
        <time>2012-09-16T16:27:04Z</time>
      </trkpt>
      <trkpt lat="43.61246" lon="7.07292">
        <ele>69.7</ele>
        <time>2012-09-16T16:27:05Z</time>
      </trkpt>
      <trkpt lat="43.61251" lon="7.07295">
        <ele>69.4</ele>
        <time>2012-09-16T16:27:06Z</time>
      </trkpt>
      <trkpt lat="43.61256" lon="7.07298">
        <ele>69.1</ele>
        <time>2012-09-16T16:27:07Z</time>
      </trkpt>
      <trkpt lat="43.61263" lon="7.07303">
        <ele>69.5</ele>
        <time>2012-09-16T16:27:09Z</time>
      </trkpt>
      <trkpt lat="43.6127" lon="7.07307">
        <ele>69.1</ele>
        <time>2012-09-16T16:27:12Z</time>
      </trkpt>
      <trkpt lat="43.61276" lon="7.07311">
        <ele>69.3</ele>
        <time>2012-09-16T16:27:15Z</time>
      </trkpt>
      <trkpt lat="43.61283" lon="7.07315">
        <ele>70.4</ele>
        <time>2012-09-16T16:27:18Z</time>
      </trkpt>
      <trkpt lat="43.6129" lon="7.07318">
        <ele>71.5</ele>
        <time>2012-09-16T16:27:21Z</time>
      </trkpt>
      <trkpt lat="43.61297" lon="7.07321">
        <ele>71.5</ele>
        <time>2012-09-16T16:27:24Z</time>
      </trkpt>
      <trkpt lat="43.61304" lon="7.07325">
        <ele>72.8</ele>
        <time>2012-09-16T16:27:27Z</time>
      </trkpt>
      <trkpt lat="43.61311" lon="7.07327">
        <ele>73.5</ele>
        <time>2012-09-16T16:27:30Z</time>
      </trkpt>
      <trkpt lat="43.61318" lon="7.0733">
        <ele>74.4</ele>
        <time>2012-09-16T16:27:33Z</time>
      </trkpt>
      <trkpt lat="43.61325" lon="7.07332">
        <ele>74.9</ele>
        <time>2012-09-16T16:27:36Z</time>
      </trkpt>
      <trkpt lat="43.61332" lon="7.07336">
        <ele>75.8</ele>
        <time>2012-09-16T16:27:39Z</time>
      </trkpt>
      <trkpt lat="43.61339" lon="7.0734">
        <ele>76.3</ele>
        <time>2012-09-16T16:27:42Z</time>
      </trkpt>
      <trkpt lat="43.61346" lon="7.07344">
        <ele>77.2</ele>
        <time>2012-09-16T16:27:45Z</time>
      </trkpt>
      <trkpt lat="43.61352" lon="7.07352">
        <ele>78.6</ele>
        <time>2012-09-16T16:27:49Z</time>
      </trkpt>
      <trkpt lat="43.61351" lon="7.07364">
        <ele>80</ele>
        <time>2012-09-16T16:28:09Z</time>
      </trkpt>
      <trkpt lat="43.6135" lon="7.07365">
        <ele>80.2</ele>
        <time>2012-09-16T16:28:10Z</time>
      </trkpt>
      <trkpt lat="43.61338" lon="7.07377">
        <ele>83.6</ele>
        <time>2012-09-16T16:28:22Z</time>
      </trkpt>
      <trkpt lat="43.61332" lon="7.07384">
        <ele>85.2</ele>
        <time>2012-09-16T16:28:27Z</time>
      </trkpt>
      <trkpt lat="43.61326" lon="7.07391">
        <ele>87</ele>
        <time>2012-09-16T16:28:32Z</time>
      </trkpt>
      <trkpt lat="43.61325" lon="7.07401">
        <ele>87.7</ele>
        <time>2012-09-16T16:28:37Z</time>
      </trkpt>
      <trkpt lat="43.61323" lon="7.07412">
        <ele>88.5</ele>
        <time>2012-09-16T16:28:42Z</time>
      </trkpt>
      <trkpt lat="43.61319" lon="7.07422">
        <ele>89.3</ele>
        <time>2012-09-16T16:28:46Z</time>
      </trkpt>
      <trkpt lat="43.61314" lon="7.07429">
        <ele>89.4</ele>
        <time>2012-09-16T16:28:49Z</time>
      </trkpt>
      <trkpt lat="43.61306" lon="7.07433">
        <ele>90.3</ele>
        <time>2012-09-16T16:28:52Z</time>
      </trkpt>
      <trkpt lat="43.613" lon="7.07436">
        <ele>90.2</ele>
        <time>2012-09-16T16:28:54Z</time>
      </trkpt>
      <trkpt lat="43.61294" lon="7.07439">
        <ele>89.7</ele>
        <time>2012-09-16T16:28:56Z</time>
      </trkpt>
      <trkpt lat="43.61288" lon="7.07442">
        <ele>89.7</ele>
        <time>2012-09-16T16:28:58Z</time>
      </trkpt>
      <trkpt lat="43.61282" lon="7.07445">
        <ele>89.9</ele>
        <time>2012-09-16T16:29:00Z</time>
      </trkpt>
      <trkpt lat="43.61276" lon="7.0745">
        <ele>90.1</ele>
        <time>2012-09-16T16:29:02Z</time>
      </trkpt>
      <trkpt lat="43.6127" lon="7.07455">
        <ele>90.3</ele>
        <time>2012-09-16T16:29:04Z</time>
      </trkpt>
      <trkpt lat="43.61265" lon="7.07463">
        <ele>90.5</ele>
        <time>2012-09-16T16:29:06Z</time>
      </trkpt>
      <trkpt lat="43.6126" lon="7.07471">
        <ele>90.5</ele>
        <time>2012-09-16T16:29:08Z</time>
      </trkpt>
      <trkpt lat="43.61255" lon="7.0748">
        <ele>91.3</ele>
        <time>2012-09-16T16:29:10Z</time>
      </trkpt>
      <trkpt lat="43.61251" lon="7.07488">
        <ele>91.6</ele>
        <time>2012-09-16T16:29:12Z</time>
      </trkpt>
      <trkpt lat="43.61248" lon="7.07493">
        <ele>91.7</ele>
        <time>2012-09-16T16:29:13Z</time>
      </trkpt>
      <trkpt lat="43.61241" lon="7.07506">
        <ele>91</ele>
        <time>2012-09-16T16:29:16Z</time>
      </trkpt>
      <trkpt lat="43.61236" lon="7.07515">
        <ele>90.6</ele>
        <time>2012-09-16T16:29:18Z</time>
      </trkpt>
      <trkpt lat="43.61231" lon="7.07524">
        <ele>90.6</ele>
        <time>2012-09-16T16:29:20Z</time>
      </trkpt>
      <trkpt lat="43.61226" lon="7.07532">
        <ele>90.8</ele>
        <time>2012-09-16T16:29:22Z</time>
      </trkpt>
      <trkpt lat="43.61221" lon="7.07541">
        <ele>91.2</ele>
        <time>2012-09-16T16:29:24Z</time>
      </trkpt>
      <trkpt lat="43.61216" lon="7.0755">
        <ele>91.4</ele>
        <time>2012-09-16T16:29:26Z</time>
      </trkpt>
      <trkpt lat="43.61211" lon="7.0756">
        <ele>91.4</ele>
        <time>2012-09-16T16:29:28Z</time>
      </trkpt>
      <trkpt lat="43.61206" lon="7.0757">
        <ele>91.1</ele>
        <time>2012-09-16T16:29:30Z</time>
      </trkpt>
      <trkpt lat="43.61204" lon="7.07575">
        <ele>91</ele>
        <time>2012-09-16T16:29:31Z</time>
      </trkpt>
      <trkpt lat="43.61201" lon="7.0758">
        <ele>90.9</ele>
        <time>2012-09-16T16:29:32Z</time>
      </trkpt>
      <trkpt lat="43.61198" lon="7.07585">
        <ele>91.2</ele>
        <time>2012-09-16T16:29:33Z</time>
      </trkpt>
      <trkpt lat="43.61195" lon="7.0759">
        <ele>91.5</ele>
        <time>2012-09-16T16:29:34Z</time>
      </trkpt>
      <trkpt lat="43.61193" lon="7.07596">
        <ele>91.6</ele>
        <time>2012-09-16T16:29:35Z</time>
      </trkpt>
      <trkpt lat="43.6119" lon="7.07601">
        <ele>91.6</ele>
        <time>2012-09-16T16:29:36Z</time>
      </trkpt>
      <trkpt lat="43.61187" lon="7.07607">
        <ele>91.5</ele>
        <time>2012-09-16T16:29:37Z</time>
      </trkpt>
      <trkpt lat="43.61184" lon="7.07612">
        <ele>91.2</ele>
        <time>2012-09-16T16:29:38Z</time>
      </trkpt>
      <trkpt lat="43.61181" lon="7.07618">
        <ele>90.9</ele>
        <time>2012-09-16T16:29:39Z</time>
      </trkpt>
      <trkpt lat="43.61178" lon="7.07623">
        <ele>91</ele>
        <time>2012-09-16T16:29:40Z</time>
      </trkpt>
      <trkpt lat="43.61176" lon="7.07629">
        <ele>91.1</ele>
        <time>2012-09-16T16:29:41Z</time>
      </trkpt>
      <trkpt lat="43.61174" lon="7.07635">
        <ele>91.1</ele>
        <time>2012-09-16T16:29:42Z</time>
      </trkpt>
      <trkpt lat="43.61172" lon="7.07642">
        <ele>91</ele>
        <time>2012-09-16T16:29:43Z</time>
      </trkpt>
      <trkpt lat="43.6117" lon="7.07649">
        <ele>90.8</ele>
        <time>2012-09-16T16:29:44Z</time>
      </trkpt>
      <trkpt lat="43.61169" lon="7.07655">
        <ele>91</ele>
        <time>2012-09-16T16:29:45Z</time>
      </trkpt>
      <trkpt lat="43.61168" lon="7.07662">
        <ele>91.1</ele>
        <time>2012-09-16T16:29:46Z</time>
      </trkpt>
      <trkpt lat="43.61167" lon="7.07669">
        <ele>91.2</ele>
        <time>2012-09-16T16:29:47Z</time>
      </trkpt>
      <trkpt lat="43.61166" lon="7.07675">
        <ele>91.2</ele>
        <time>2012-09-16T16:29:48Z</time>
      </trkpt>
      <trkpt lat="43.61166" lon="7.07682">
        <ele>91.2</ele>
        <time>2012-09-16T16:29:49Z</time>
      </trkpt>
      <trkpt lat="43.61166" lon="7.07688">
        <ele>91.6</ele>
        <time>2012-09-16T16:29:50Z</time>
      </trkpt>
      <trkpt lat="43.61167" lon="7.07695">
        <ele>91.8</ele>
        <time>2012-09-16T16:29:51Z</time>
      </trkpt>
      <trkpt lat="43.61168" lon="7.07702">
        <ele>91.8</ele>
        <time>2012-09-16T16:29:52Z</time>
      </trkpt>
      <trkpt lat="43.6117" lon="7.07708">
        <ele>91.8</ele>
        <time>2012-09-16T16:29:53Z</time>
      </trkpt>
      <trkpt lat="43.61172" lon="7.07714">
        <ele>91.7</ele>
        <time>2012-09-16T16:29:54Z</time>
      </trkpt>
      <trkpt lat="43.61174" lon="7.07721">
        <ele>91.5</ele>
        <time>2012-09-16T16:29:55Z</time>
      </trkpt>
      <trkpt lat="43.61177" lon="7.07727">
        <ele>91.2</ele>
        <time>2012-09-16T16:29:56Z</time>
      </trkpt>
      <trkpt lat="43.61179" lon="7.07732">
        <ele>91.3</ele>
        <time>2012-09-16T16:29:57Z</time>
      </trkpt>
      <trkpt lat="43.61182" lon="7.07738">
        <ele>91.3</ele>
        <time>2012-09-16T16:29:58Z</time>
      </trkpt>
      <trkpt lat="43.61185" lon="7.07744">
        <ele>91.3</ele>
        <time>2012-09-16T16:29:59Z</time>
      </trkpt>
      <trkpt lat="43.61188" lon="7.0775">
        <ele>91.3</ele>
        <time>2012-09-16T16:30:00Z</time>
      </trkpt>
      <trkpt lat="43.61191" lon="7.07756">
        <ele>91.3</ele>
        <time>2012-09-16T16:30:01Z</time>
      </trkpt>
      <trkpt lat="43.61195" lon="7.07762">
        <ele>91.1</ele>
        <time>2012-09-16T16:30:02Z</time>
      </trkpt>
      <trkpt lat="43.61198" lon="7.07768">
        <ele>91</ele>
        <time>2012-09-16T16:30:03Z</time>
      </trkpt>
      <trkpt lat="43.61202" lon="7.07773">
        <ele>90.8</ele>
        <time>2012-09-16T16:30:04Z</time>
      </trkpt>
      <trkpt lat="43.61206" lon="7.07778">
        <ele>90.7</ele>
        <time>2012-09-16T16:30:05Z</time>
      </trkpt>
      <trkpt lat="43.61209" lon="7.07783">
        <ele>90.1</ele>
        <time>2012-09-16T16:30:06Z</time>
      </trkpt>
      <trkpt lat="43.6121" lon="7.07789">
        <ele>89.6</ele>
        <time>2012-09-16T16:30:07Z</time>
      </trkpt>
      <trkpt lat="43.61209" lon="7.07801">
        <ele>89.3</ele>
        <time>2012-09-16T16:30:09Z</time>
      </trkpt>
      <trkpt lat="43.61205" lon="7.07805">
        <ele>89.4</ele>
        <time>2012-09-16T16:30:10Z</time>
      </trkpt>
      <trkpt lat="43.612" lon="7.07805">
        <ele>89</ele>
        <time>2012-09-16T16:30:11Z</time>
      </trkpt>
      <trkpt lat="43.61195" lon="7.07807">
        <ele>88.7</ele>
        <time>2012-09-16T16:30:12Z</time>
      </trkpt>
      <trkpt lat="43.6119" lon="7.0781">
        <ele>88.5</ele>
        <time>2012-09-16T16:30:13Z</time>
      </trkpt>
      <trkpt lat="43.61185" lon="7.07814">
        <ele>88.4</ele>
        <time>2012-09-16T16:30:14Z</time>
      </trkpt>
      <trkpt lat="43.61181" lon="7.07819">
        <ele>88.3</ele>
        <time>2012-09-16T16:30:15Z</time>
      </trkpt>
      <trkpt lat="43.61177" lon="7.07825">
        <ele>87.9</ele>
        <time>2012-09-16T16:30:16Z</time>
      </trkpt>
      <trkpt lat="43.61174" lon="7.07831">
        <ele>87.6</ele>
        <time>2012-09-16T16:30:17Z</time>
      </trkpt>
      <trkpt lat="43.6117" lon="7.07838">
        <ele>87.3</ele>
        <time>2012-09-16T16:30:18Z</time>
      </trkpt>
      <trkpt lat="43.61167" lon="7.07844">
        <ele>87.1</ele>
        <time>2012-09-16T16:30:19Z</time>
      </trkpt>
      <trkpt lat="43.61164" lon="7.07851">
        <ele>87</ele>
        <time>2012-09-16T16:30:20Z</time>
      </trkpt>
      <trkpt lat="43.61161" lon="7.07858">
        <ele>87.2</ele>
        <time>2012-09-16T16:30:21Z</time>
      </trkpt>
      <trkpt lat="43.61159" lon="7.07865">
        <ele>87.3</ele>
        <time>2012-09-16T16:30:22Z</time>
      </trkpt>
      <trkpt lat="43.61157" lon="7.07873">
        <ele>87.4</ele>
        <time>2012-09-16T16:30:23Z</time>
      </trkpt>
      <trkpt lat="43.61156" lon="7.07881">
        <ele>87.4</ele>
        <time>2012-09-16T16:30:24Z</time>
      </trkpt>
      <trkpt lat="43.61154" lon="7.07889">
        <ele>87.2</ele>
        <time>2012-09-16T16:30:25Z</time>
      </trkpt>
      <trkpt lat="43.61153" lon="7.07897">
        <ele>87.1</ele>
        <time>2012-09-16T16:30:26Z</time>
      </trkpt>
      <trkpt lat="43.61151" lon="7.07905">
        <ele>87</ele>
        <time>2012-09-16T16:30:27Z</time>
      </trkpt>
      <trkpt lat="43.6115" lon="7.07914">
        <ele>86.4</ele>
        <time>2012-09-16T16:30:28Z</time>
      </trkpt>
      <trkpt lat="43.61148" lon="7.07922">
        <ele>85.9</ele>
        <time>2012-09-16T16:30:29Z</time>
      </trkpt>
      <trkpt lat="43.61146" lon="7.0793">
        <ele>86.1</ele>
        <time>2012-09-16T16:30:30Z</time>
      </trkpt>
      <trkpt lat="43.61145" lon="7.07938">
        <ele>86.1</ele>
        <time>2012-09-16T16:30:31Z</time>
      </trkpt>
      <trkpt lat="43.61143" lon="7.07945">
        <ele>86.2</ele>
        <time>2012-09-16T16:30:32Z</time>
      </trkpt>
      <trkpt lat="43.61142" lon="7.07953">
        <ele>86</ele>
        <time>2012-09-16T16:30:33Z</time>
      </trkpt>
      <trkpt lat="43.6114" lon="7.07961">
        <ele>85.9</ele>
        <time>2012-09-16T16:30:34Z</time>
      </trkpt>
      <trkpt lat="43.61139" lon="7.07968">
        <ele>86.1</ele>
        <time>2012-09-16T16:30:35Z</time>
      </trkpt>
      <trkpt lat="43.61137" lon="7.07976">
        <ele>86.2</ele>
        <time>2012-09-16T16:30:36Z</time>
      </trkpt>
      <trkpt lat="43.61135" lon="7.07983">
        <ele>86.2</ele>
        <time>2012-09-16T16:30:37Z</time>
      </trkpt>
      <trkpt lat="43.61133" lon="7.07991">
        <ele>86.2</ele>
        <time>2012-09-16T16:30:38Z</time>
      </trkpt>
      <trkpt lat="43.61131" lon="7.07999">
        <ele>86.1</ele>
        <time>2012-09-16T16:30:39Z</time>
      </trkpt>
      <trkpt lat="43.61129" lon="7.08006">
        <ele>86.2</ele>
        <time>2012-09-16T16:30:40Z</time>
      </trkpt>
      <trkpt lat="43.61127" lon="7.08014">
        <ele>86.3</ele>
        <time>2012-09-16T16:30:41Z</time>
      </trkpt>
      <trkpt lat="43.61124" lon="7.08021">
        <ele>86.3</ele>
        <time>2012-09-16T16:30:42Z</time>
      </trkpt>
      <trkpt lat="43.61121" lon="7.08029">
        <ele>86.3</ele>
        <time>2012-09-16T16:30:43Z</time>
      </trkpt>
      <trkpt lat="43.61118" lon="7.08037">
        <ele>85.6</ele>
        <time>2012-09-16T16:30:44Z</time>
      </trkpt>
      <trkpt lat="43.61115" lon="7.08045">
        <ele>85</ele>
        <time>2012-09-16T16:30:45Z</time>
      </trkpt>
      <trkpt lat="43.61112" lon="7.08052">
        <ele>84.6</ele>
        <time>2012-09-16T16:30:46Z</time>
      </trkpt>
      <trkpt lat="43.61109" lon="7.0806">
        <ele>84.4</ele>
        <time>2012-09-16T16:30:47Z</time>
      </trkpt>
      <trkpt lat="43.61105" lon="7.08068">
        <ele>84.2</ele>
        <time>2012-09-16T16:30:48Z</time>
      </trkpt>
      <trkpt lat="43.61101" lon="7.08076">
        <ele>84.3</ele>
        <time>2012-09-16T16:30:49Z</time>
      </trkpt>
      <trkpt lat="43.61096" lon="7.08084">
        <ele>84.3</ele>
        <time>2012-09-16T16:30:50Z</time>
      </trkpt>
      <trkpt lat="43.61092" lon="7.08092">
        <ele>83.8</ele>
        <time>2012-09-16T16:30:51Z</time>
      </trkpt>
      <trkpt lat="43.61087" lon="7.08099">
        <ele>83.5</ele>
        <time>2012-09-16T16:30:52Z</time>
      </trkpt>
      <trkpt lat="43.61081" lon="7.08107">
        <ele>83.2</ele>
        <time>2012-09-16T16:30:53Z</time>
      </trkpt>
      <trkpt lat="43.61076" lon="7.08115">
        <ele>82.7</ele>
        <time>2012-09-16T16:30:54Z</time>
      </trkpt>
      <trkpt lat="43.6107" lon="7.08123">
        <ele>82.2</ele>
        <time>2012-09-16T16:30:55Z</time>
      </trkpt>
      <trkpt lat="43.61063" lon="7.08131">
        <ele>81.8</ele>
        <time>2012-09-16T16:30:56Z</time>
      </trkpt>
      <trkpt lat="43.61056" lon="7.08138">
        <ele>81.4</ele>
        <time>2012-09-16T16:30:57Z</time>
      </trkpt>
      <trkpt lat="43.61049" lon="7.08145">
        <ele>81.1</ele>
        <time>2012-09-16T16:30:58Z</time>
      </trkpt>
      <trkpt lat="43.61041" lon="7.08152">
        <ele>80.6</ele>
        <time>2012-09-16T16:30:59Z</time>
      </trkpt>
      <trkpt lat="43.61033" lon="7.08159">
        <ele>80.3</ele>
        <time>2012-09-16T16:31:00Z</time>
      </trkpt>
      <trkpt lat="43.61025" lon="7.08165">
        <ele>79.3</ele>
        <time>2012-09-16T16:31:01Z</time>
      </trkpt>
      <trkpt lat="43.61016" lon="7.08171">
        <ele>78.6</ele>
        <time>2012-09-16T16:31:02Z</time>
      </trkpt>
      <trkpt lat="43.61007" lon="7.08176">
        <ele>77.9</ele>
        <time>2012-09-16T16:31:03Z</time>
      </trkpt>
      <trkpt lat="43.60997" lon="7.08181">
        <ele>77.4</ele>
        <time>2012-09-16T16:31:04Z</time>
      </trkpt>
      <trkpt lat="43.60987" lon="7.08185">
        <ele>77.1</ele>
        <time>2012-09-16T16:31:05Z</time>
      </trkpt>
      <trkpt lat="43.60977" lon="7.08189">
        <ele>76.1</ele>
        <time>2012-09-16T16:31:06Z</time>
      </trkpt>
      <trkpt lat="43.60967" lon="7.08193">
        <ele>75.4</ele>
        <time>2012-09-16T16:31:07Z</time>
      </trkpt>
      <trkpt lat="43.60957" lon="7.08196">
        <ele>74.5</ele>
        <time>2012-09-16T16:31:08Z</time>
      </trkpt>
      <trkpt lat="43.60946" lon="7.08197">
        <ele>73.9</ele>
        <time>2012-09-16T16:31:09Z</time>
      </trkpt>
      <trkpt lat="43.60935" lon="7.08198">
        <ele>73.2</ele>
        <time>2012-09-16T16:31:10Z</time>
      </trkpt>
      <trkpt lat="43.60924" lon="7.08199">
        <ele>72.7</ele>
        <time>2012-09-16T16:31:11Z</time>
      </trkpt>
      <trkpt lat="43.60913" lon="7.08199">
        <ele>72.3</ele>
        <time>2012-09-16T16:31:12Z</time>
      </trkpt>
      <trkpt lat="43.60902" lon="7.08199">
        <ele>71.1</ele>
        <time>2012-09-16T16:31:13Z</time>
      </trkpt>
      <trkpt lat="43.60891" lon="7.08198">
        <ele>70.2</ele>
        <time>2012-09-16T16:31:14Z</time>
      </trkpt>
      <trkpt lat="43.6088" lon="7.08197">
        <ele>69.1</ele>
        <time>2012-09-16T16:31:15Z</time>
      </trkpt>
      <trkpt lat="43.60869" lon="7.08195">
        <ele>68.4</ele>
        <time>2012-09-16T16:31:16Z</time>
      </trkpt>
      <trkpt lat="43.60857" lon="7.08193">
        <ele>67.8</ele>
        <time>2012-09-16T16:31:17Z</time>
      </trkpt>
      <trkpt lat="43.60846" lon="7.08192">
        <ele>67.1</ele>
        <time>2012-09-16T16:31:18Z</time>
      </trkpt>
      <trkpt lat="43.60835" lon="7.0819">
        <ele>66.5</ele>
        <time>2012-09-16T16:31:19Z</time>
      </trkpt>
      <trkpt lat="43.60824" lon="7.08187">
        <ele>65.5</ele>
        <time>2012-09-16T16:31:20Z</time>
      </trkpt>
      <trkpt lat="43.60813" lon="7.08185">
        <ele>64.8</ele>
        <time>2012-09-16T16:31:21Z</time>
      </trkpt>
      <trkpt lat="43.60802" lon="7.08183">
        <ele>63.6</ele>
        <time>2012-09-16T16:31:22Z</time>
      </trkpt>
      <trkpt lat="43.60791" lon="7.0818">
        <ele>62.7</ele>
        <time>2012-09-16T16:31:23Z</time>
      </trkpt>
      <trkpt lat="43.60781" lon="7.08178">
        <ele>62</ele>
        <time>2012-09-16T16:31:24Z</time>
      </trkpt>
      <trkpt lat="43.60771" lon="7.08176">
        <ele>61.3</ele>
        <time>2012-09-16T16:31:25Z</time>
      </trkpt>
      <trkpt lat="43.60761" lon="7.08174">
        <ele>60.8</ele>
        <time>2012-09-16T16:31:26Z</time>
      </trkpt>
      <trkpt lat="43.60752" lon="7.08173">
        <ele>60.6</ele>
        <time>2012-09-16T16:31:27Z</time>
      </trkpt>
      <trkpt lat="43.60744" lon="7.08171">
        <ele>60.5</ele>
        <time>2012-09-16T16:31:28Z</time>
      </trkpt>
      <trkpt lat="43.60735" lon="7.0817">
        <ele>60.5</ele>
        <time>2012-09-16T16:31:29Z</time>
      </trkpt>
      <trkpt lat="43.60728" lon="7.08168">
        <ele>60.4</ele>
        <time>2012-09-16T16:31:30Z</time>
      </trkpt>
      <trkpt lat="43.60721" lon="7.08167">
        <ele>60.4</ele>
        <time>2012-09-16T16:31:31Z</time>
      </trkpt>
      <trkpt lat="43.60714" lon="7.08166">
        <ele>60.2</ele>
        <time>2012-09-16T16:31:32Z</time>
      </trkpt>
      <trkpt lat="43.60708" lon="7.08165">
        <ele>60.1</ele>
        <time>2012-09-16T16:31:33Z</time>
      </trkpt>
      <trkpt lat="43.60701" lon="7.08164">
        <ele>60.4</ele>
        <time>2012-09-16T16:31:34Z</time>
      </trkpt>
      <trkpt lat="43.60696" lon="7.08164">
        <ele>60.5</ele>
        <time>2012-09-16T16:31:35Z</time>
      </trkpt>
      <trkpt lat="43.6069" lon="7.08163">
        <ele>60.7</ele>
        <time>2012-09-16T16:31:36Z</time>
      </trkpt>
      <trkpt lat="43.60685" lon="7.08163">
        <ele>60.5</ele>
        <time>2012-09-16T16:31:37Z</time>
      </trkpt>
      <trkpt lat="43.60681" lon="7.08163">
        <ele>60.4</ele>
        <time>2012-09-16T16:31:38Z</time>
      </trkpt>
      <trkpt lat="43.60672" lon="7.08163">
        <ele>60.6</ele>
        <time>2012-09-16T16:31:40Z</time>
      </trkpt>
      <trkpt lat="43.60664" lon="7.08162">
        <ele>61.1</ele>
        <time>2012-09-16T16:31:42Z</time>
      </trkpt>
      <trkpt lat="43.60656" lon="7.08162">
        <ele>61.8</ele>
        <time>2012-09-16T16:31:44Z</time>
      </trkpt>
      <trkpt lat="43.60649" lon="7.08162">
        <ele>62.5</ele>
        <time>2012-09-16T16:31:46Z</time>
      </trkpt>
      <trkpt lat="43.60641" lon="7.08162">
        <ele>62.8</ele>
        <time>2012-09-16T16:31:48Z</time>
      </trkpt>
      <trkpt lat="43.60634" lon="7.08163">
        <ele>63</ele>
        <time>2012-09-16T16:31:50Z</time>
      </trkpt>
      <trkpt lat="43.60627" lon="7.08164">
        <ele>64</ele>
        <time>2012-09-16T16:31:52Z</time>
      </trkpt>
      <trkpt lat="43.60621" lon="7.08164">
        <ele>64.6</ele>
        <time>2012-09-16T16:31:54Z</time>
      </trkpt>
      <trkpt lat="43.60614" lon="7.08164">
        <ele>65.1</ele>
        <time>2012-09-16T16:31:56Z</time>
      </trkpt>
      <trkpt lat="43.60608" lon="7.08165">
        <ele>65.6</ele>
        <time>2012-09-16T16:31:58Z</time>
      </trkpt>
      <trkpt lat="43.60602" lon="7.08167">
        <ele>66.4</ele>
        <time>2012-09-16T16:32:00Z</time>
      </trkpt>
      <trkpt lat="43.60596" lon="7.08168">
        <ele>67.1</ele>
        <time>2012-09-16T16:32:02Z</time>
      </trkpt>
      <trkpt lat="43.60588" lon="7.08171">
        <ele>67.5</ele>
        <time>2012-09-16T16:32:05Z</time>
      </trkpt>
      <trkpt lat="43.60579" lon="7.08172">
        <ele>68</ele>
        <time>2012-09-16T16:32:08Z</time>
      </trkpt>
      <trkpt lat="43.60571" lon="7.08174">
        <ele>68.5</ele>
        <time>2012-09-16T16:32:11Z</time>
      </trkpt>
      <trkpt lat="43.60565" lon="7.08176">
        <ele>68.7</ele>
        <time>2012-09-16T16:32:13Z</time>
      </trkpt>
      <trkpt lat="43.60559" lon="7.08178">
        <ele>69.2</ele>
        <time>2012-09-16T16:32:15Z</time>
      </trkpt>
      <trkpt lat="43.60556" lon="7.08179">
        <ele>69.6</ele>
        <time>2012-09-16T16:32:16Z</time>
      </trkpt>
      <trkpt lat="43.60547" lon="7.08183">
        <ele>70.4</ele>
        <time>2012-09-16T16:32:19Z</time>
      </trkpt>
      <trkpt lat="43.60541" lon="7.08185">
        <ele>70.6</ele>
        <time>2012-09-16T16:32:21Z</time>
      </trkpt>
      <trkpt lat="43.60535" lon="7.08186">
        <ele>71.2</ele>
        <time>2012-09-16T16:32:23Z</time>
      </trkpt>
      <trkpt lat="43.60529" lon="7.08188">
        <ele>71.7</ele>
        <time>2012-09-16T16:32:25Z</time>
      </trkpt>
      <trkpt lat="43.60521" lon="7.08191">
        <ele>72.2</ele>
        <time>2012-09-16T16:32:28Z</time>
      </trkpt>
      <trkpt lat="43.60515" lon="7.08193">
        <ele>73</ele>
        <time>2012-09-16T16:32:30Z</time>
      </trkpt>
      <trkpt lat="43.60509" lon="7.08194">
        <ele>73.1</ele>
        <time>2012-09-16T16:32:32Z</time>
      </trkpt>
      <trkpt lat="43.605" lon="7.08196">
        <ele>73.1</ele>
        <time>2012-09-16T16:32:35Z</time>
      </trkpt>
      <trkpt lat="43.60491" lon="7.08197">
        <ele>74.5</ele>
        <time>2012-09-16T16:32:38Z</time>
      </trkpt>
      <trkpt lat="43.60485" lon="7.08199">
        <ele>74.8</ele>
        <time>2012-09-16T16:32:40Z</time>
      </trkpt>
      <trkpt lat="43.60478" lon="7.082">
        <ele>75</ele>
        <time>2012-09-16T16:32:42Z</time>
      </trkpt>
      <trkpt lat="43.60472" lon="7.08199">
        <ele>76.3</ele>
        <time>2012-09-16T16:32:44Z</time>
      </trkpt>
      <trkpt lat="43.60466" lon="7.08195">
        <ele>76.2</ele>
        <time>2012-09-16T16:32:46Z</time>
      </trkpt>
      <trkpt lat="43.6046" lon="7.08191">
        <ele>76.8</ele>
        <time>2012-09-16T16:32:48Z</time>
      </trkpt>
      <trkpt lat="43.60453" lon="7.08189">
        <ele>77.3</ele>
        <time>2012-09-16T16:32:50Z</time>
      </trkpt>
      <trkpt lat="43.60445" lon="7.0819">
        <ele>77.6</ele>
        <time>2012-09-16T16:32:52Z</time>
      </trkpt>
      <trkpt lat="43.60438" lon="7.08193">
        <ele>78.4</ele>
        <time>2012-09-16T16:32:54Z</time>
      </trkpt>
      <trkpt lat="43.60431" lon="7.082">
        <ele>79.1</ele>
        <time>2012-09-16T16:32:56Z</time>
      </trkpt>
      <trkpt lat="43.60428" lon="7.08209">
        <ele>78.8</ele>
        <time>2012-09-16T16:32:58Z</time>
      </trkpt>
      <trkpt lat="43.60426" lon="7.0822">
        <ele>78.6</ele>
        <time>2012-09-16T16:33:00Z</time>
      </trkpt>
      <trkpt lat="43.60428" lon="7.08232">
        <ele>78.3</ele>
        <time>2012-09-16T16:33:02Z</time>
      </trkpt>
      <trkpt lat="43.60429" lon="7.08238">
        <ele>78.2</ele>
        <time>2012-09-16T16:33:03Z</time>
      </trkpt>
      <trkpt lat="43.60428" lon="7.08244">
        <ele>78.3</ele>
        <time>2012-09-16T16:33:04Z</time>
      </trkpt>
      <trkpt lat="43.60426" lon="7.0825">
        <ele>78.4</ele>
        <time>2012-09-16T16:33:05Z</time>
      </trkpt>
      <trkpt lat="43.60424" lon="7.08255">
        <ele>78.4</ele>
        <time>2012-09-16T16:33:06Z</time>
      </trkpt>
      <trkpt lat="43.60421" lon="7.0826">
        <ele>78.8</ele>
        <time>2012-09-16T16:33:07Z</time>
      </trkpt>
      <trkpt lat="43.60419" lon="7.08265">
        <ele>79.1</ele>
        <time>2012-09-16T16:33:08Z</time>
      </trkpt>
      <trkpt lat="43.60416" lon="7.08271">
        <ele>79</ele>
        <time>2012-09-16T16:33:09Z</time>
      </trkpt>
      <trkpt lat="43.60414" lon="7.08276">
        <ele>78.9</ele>
        <time>2012-09-16T16:33:10Z</time>
      </trkpt>
      <trkpt lat="43.6041" lon="7.08287">
        <ele>79</ele>
        <time>2012-09-16T16:33:12Z</time>
      </trkpt>
      <trkpt lat="43.60405" lon="7.08297">
        <ele>79.5</ele>
        <time>2012-09-16T16:33:14Z</time>
      </trkpt>
      <trkpt lat="43.60402" lon="7.08302">
        <ele>79.7</ele>
        <time>2012-09-16T16:33:15Z</time>
      </trkpt>
      <trkpt lat="43.60399" lon="7.08307">
        <ele>79.7</ele>
        <time>2012-09-16T16:33:16Z</time>
      </trkpt>
      <trkpt lat="43.60396" lon="7.08312">
        <ele>79.7</ele>
        <time>2012-09-16T16:33:17Z</time>
      </trkpt>
      <trkpt lat="43.60394" lon="7.08317">
        <ele>79.7</ele>
        <time>2012-09-16T16:33:18Z</time>
      </trkpt>
      <trkpt lat="43.60392" lon="7.08324">
        <ele>80.1</ele>
        <time>2012-09-16T16:33:19Z</time>
      </trkpt>
      <trkpt lat="43.60391" lon="7.0833">
        <ele>80.3</ele>
        <time>2012-09-16T16:33:20Z</time>
      </trkpt>
      <trkpt lat="43.6039" lon="7.08336">
        <ele>80.2</ele>
        <time>2012-09-16T16:33:21Z</time>
      </trkpt>
      <trkpt lat="43.60388" lon="7.08343">
        <ele>80.2</ele>
        <time>2012-09-16T16:33:22Z</time>
      </trkpt>
      <trkpt lat="43.60386" lon="7.08349">
        <ele>80.3</ele>
        <time>2012-09-16T16:33:23Z</time>
      </trkpt>
      <trkpt lat="43.60384" lon="7.08356">
        <ele>80.3</ele>
        <time>2012-09-16T16:33:24Z</time>
      </trkpt>
      <trkpt lat="43.60382" lon="7.08363">
        <ele>80.3</ele>
        <time>2012-09-16T16:33:25Z</time>
      </trkpt>
      <trkpt lat="43.60381" lon="7.0837">
        <ele>80.3</ele>
        <time>2012-09-16T16:33:26Z</time>
      </trkpt>
      <trkpt lat="43.6038" lon="7.08378">
        <ele>80.3</ele>
        <time>2012-09-16T16:33:27Z</time>
      </trkpt>
      <trkpt lat="43.60379" lon="7.08386">
        <ele>80.3</ele>
        <time>2012-09-16T16:33:28Z</time>
      </trkpt>
      <trkpt lat="43.60378" lon="7.08394">
        <ele>80.3</ele>
        <time>2012-09-16T16:33:29Z</time>
      </trkpt>
      <trkpt lat="43.60377" lon="7.08402">
        <ele>80</ele>
        <time>2012-09-16T16:33:30Z</time>
      </trkpt>
      <trkpt lat="43.60377" lon="7.08409">
        <ele>79.8</ele>
        <time>2012-09-16T16:33:31Z</time>
      </trkpt>
      <trkpt lat="43.60376" lon="7.08417">
        <ele>79.7</ele>
        <time>2012-09-16T16:33:32Z</time>
      </trkpt>
      <trkpt lat="43.60375" lon="7.08424">
        <ele>79.1</ele>
        <time>2012-09-16T16:33:33Z</time>
      </trkpt>
      <trkpt lat="43.60373" lon="7.08431">
        <ele>78.7</ele>
        <time>2012-09-16T16:33:34Z</time>
      </trkpt>
      <trkpt lat="43.60369" lon="7.08441">
        <ele>78.4</ele>
        <time>2012-09-16T16:33:36Z</time>
      </trkpt>
      <trkpt lat="43.60365" lon="7.08443">
        <ele>78.3</ele>
        <time>2012-09-16T16:33:37Z</time>
      </trkpt>
      <trkpt lat="43.6036" lon="7.08445">
        <ele>78.4</ele>
        <time>2012-09-16T16:33:38Z</time>
      </trkpt>
      <trkpt lat="43.60321" lon="7.0847">
        <ele>78</ele>
        <time>2012-09-16T16:33:46Z</time>
      </trkpt>
      <trkpt lat="43.60302" lon="7.0848">
        <ele>78.7</ele>
        <time>2012-09-16T16:33:50Z</time>
      </trkpt>
      <trkpt lat="43.60294" lon="7.08484">
        <ele>78.7</ele>
        <time>2012-09-16T16:33:52Z</time>
      </trkpt>
      <trkpt lat="43.60287" lon="7.08489">
        <ele>79.1</ele>
        <time>2012-09-16T16:33:54Z</time>
      </trkpt>
      <trkpt lat="43.60279" lon="7.08493">
        <ele>79.6</ele>
        <time>2012-09-16T16:33:56Z</time>
      </trkpt>
      <trkpt lat="43.60272" lon="7.08497">
        <ele>79.9</ele>
        <time>2012-09-16T16:33:58Z</time>
      </trkpt>
      <trkpt lat="43.60264" lon="7.08497">
        <ele>80.9</ele>
        <time>2012-09-16T16:34:00Z</time>
      </trkpt>
      <trkpt lat="43.60255" lon="7.08498">
        <ele>81</ele>
        <time>2012-09-16T16:34:02Z</time>
      </trkpt>
      <trkpt lat="43.6025" lon="7.08499">
        <ele>81</ele>
        <time>2012-09-16T16:34:03Z</time>
      </trkpt>
      <trkpt lat="43.60246" lon="7.08502">
        <ele>81.3</ele>
        <time>2012-09-16T16:34:04Z</time>
      </trkpt>
      <trkpt lat="43.60242" lon="7.08507">
        <ele>81.5</ele>
        <time>2012-09-16T16:34:05Z</time>
      </trkpt>
      <trkpt lat="43.6024" lon="7.08513">
        <ele>82.2</ele>
        <time>2012-09-16T16:34:06Z</time>
      </trkpt>
      <trkpt lat="43.60239" lon="7.08519">
        <ele>82.8</ele>
        <time>2012-09-16T16:34:07Z</time>
      </trkpt>
      <trkpt lat="43.60239" lon="7.08526">
        <ele>83.2</ele>
        <time>2012-09-16T16:34:08Z</time>
      </trkpt>
      <trkpt lat="43.6024" lon="7.08533">
        <ele>83</ele>
        <time>2012-09-16T16:34:09Z</time>
      </trkpt>
      <trkpt lat="43.60242" lon="7.08539">
        <ele>82.9</ele>
        <time>2012-09-16T16:34:10Z</time>
      </trkpt>
      <trkpt lat="43.60244" lon="7.08546">
        <ele>83</ele>
        <time>2012-09-16T16:34:11Z</time>
      </trkpt>
      <trkpt lat="43.60246" lon="7.08553">
        <ele>83.1</ele>
        <time>2012-09-16T16:34:12Z</time>
      </trkpt>
      <trkpt lat="43.60246" lon="7.08561">
        <ele>82.8</ele>
        <time>2012-09-16T16:34:13Z</time>
      </trkpt>
      <trkpt lat="43.60247" lon="7.08568">
        <ele>82.7</ele>
        <time>2012-09-16T16:34:14Z</time>
      </trkpt>
      <trkpt lat="43.60248" lon="7.08575">
        <ele>82.6</ele>
        <time>2012-09-16T16:34:15Z</time>
      </trkpt>
      <trkpt lat="43.60249" lon="7.08583">
        <ele>82.3</ele>
        <time>2012-09-16T16:34:16Z</time>
      </trkpt>
      <trkpt lat="43.6025" lon="7.0859">
        <ele>82.1</ele>
        <time>2012-09-16T16:34:17Z</time>
      </trkpt>
      <trkpt lat="43.60251" lon="7.08597">
        <ele>81.6</ele>
        <time>2012-09-16T16:34:18Z</time>
      </trkpt>
      <trkpt lat="43.60251" lon="7.08605">
        <ele>81.2</ele>
        <time>2012-09-16T16:34:19Z</time>
      </trkpt>
      <trkpt lat="43.60251" lon="7.08612">
        <ele>81.1</ele>
        <time>2012-09-16T16:34:20Z</time>
      </trkpt>
      <trkpt lat="43.60252" lon="7.0862">
        <ele>81.1</ele>
        <time>2012-09-16T16:34:21Z</time>
      </trkpt>
      <trkpt lat="43.60252" lon="7.08627">
        <ele>81</ele>
        <time>2012-09-16T16:34:22Z</time>
      </trkpt>
      <trkpt lat="43.60252" lon="7.08635">
        <ele>81.2</ele>
        <time>2012-09-16T16:34:23Z</time>
      </trkpt>
      <trkpt lat="43.60253" lon="7.08642">
        <ele>81.3</ele>
        <time>2012-09-16T16:34:24Z</time>
      </trkpt>
      <trkpt lat="43.60254" lon="7.0865">
        <ele>81.1</ele>
        <time>2012-09-16T16:34:25Z</time>
      </trkpt>
      <trkpt lat="43.60254" lon="7.08658">
        <ele>81</ele>
        <time>2012-09-16T16:34:26Z</time>
      </trkpt>
      <trkpt lat="43.60254" lon="7.08665">
        <ele>80.7</ele>
        <time>2012-09-16T16:34:27Z</time>
      </trkpt>
      <trkpt lat="43.60254" lon="7.08673">
        <ele>80.4</ele>
        <time>2012-09-16T16:34:28Z</time>
      </trkpt>
      <trkpt lat="43.60254" lon="7.08681">
        <ele>80.2</ele>
        <time>2012-09-16T16:34:29Z</time>
      </trkpt>
      <trkpt lat="43.60255" lon="7.08688">
        <ele>79.8</ele>
        <time>2012-09-16T16:34:30Z</time>
      </trkpt>
      <trkpt lat="43.60255" lon="7.08696">
        <ele>79.5</ele>
        <time>2012-09-16T16:34:31Z</time>
      </trkpt>
      <trkpt lat="43.60256" lon="7.08703">
        <ele>79.4</ele>
        <time>2012-09-16T16:34:32Z</time>
      </trkpt>
      <trkpt lat="43.60257" lon="7.0871">
        <ele>79.2</ele>
        <time>2012-09-16T16:34:33Z</time>
      </trkpt>
      <trkpt lat="43.60258" lon="7.08717">
        <ele>79.1</ele>
        <time>2012-09-16T16:34:34Z</time>
      </trkpt>
      <trkpt lat="43.6026" lon="7.08724">
        <ele>79.3</ele>
        <time>2012-09-16T16:34:35Z</time>
      </trkpt>
      <trkpt lat="43.60261" lon="7.08731">
        <ele>79.4</ele>
        <time>2012-09-16T16:34:36Z</time>
      </trkpt>
      <trkpt lat="43.60263" lon="7.08738">
        <ele>79.3</ele>
        <time>2012-09-16T16:34:37Z</time>
      </trkpt>
      <trkpt lat="43.60264" lon="7.08746">
        <ele>79.2</ele>
        <time>2012-09-16T16:34:38Z</time>
      </trkpt>
      <trkpt lat="43.60266" lon="7.08753">
        <ele>79.1</ele>
        <time>2012-09-16T16:34:39Z</time>
      </trkpt>
      <trkpt lat="43.60267" lon="7.0876">
        <ele>79</ele>
        <time>2012-09-16T16:34:40Z</time>
      </trkpt>
      <trkpt lat="43.60267" lon="7.08767">
        <ele>79</ele>
        <time>2012-09-16T16:34:41Z</time>
      </trkpt>
      <trkpt lat="43.60264" lon="7.08773">
        <ele>79</ele>
        <time>2012-09-16T16:34:42Z</time>
      </trkpt>
      <trkpt lat="43.6026" lon="7.08777">
        <ele>79</ele>
        <time>2012-09-16T16:34:43Z</time>
      </trkpt>
      <trkpt lat="43.60256" lon="7.08781">
        <ele>78.9</ele>
        <time>2012-09-16T16:34:44Z</time>
      </trkpt>
      <trkpt lat="43.60252" lon="7.08787">
        <ele>78.8</ele>
        <time>2012-09-16T16:34:45Z</time>
      </trkpt>
      <trkpt lat="43.60247" lon="7.08793">
        <ele>78.7</ele>
        <time>2012-09-16T16:34:46Z</time>
      </trkpt>
      <trkpt lat="43.60243" lon="7.088">
        <ele>78.1</ele>
        <time>2012-09-16T16:34:47Z</time>
      </trkpt>
      <trkpt lat="43.60241" lon="7.08809">
        <ele>77.7</ele>
        <time>2012-09-16T16:34:48Z</time>
      </trkpt>
      <trkpt lat="43.6024" lon="7.08818">
        <ele>77</ele>
        <time>2012-09-16T16:34:49Z</time>
      </trkpt>
      <trkpt lat="43.6024" lon="7.08827">
        <ele>76.4</ele>
        <time>2012-09-16T16:34:50Z</time>
      </trkpt>
      <trkpt lat="43.60238" lon="7.08836">
        <ele>76.1</ele>
        <time>2012-09-16T16:34:51Z</time>
      </trkpt>
      <trkpt lat="43.60235" lon="7.08843">
        <ele>75.8</ele>
        <time>2012-09-16T16:34:52Z</time>
      </trkpt>
      <trkpt lat="43.6023" lon="7.08849">
        <ele>75.6</ele>
        <time>2012-09-16T16:34:53Z</time>
      </trkpt>
      <trkpt lat="43.60225" lon="7.08853">
        <ele>75.5</ele>
        <time>2012-09-16T16:34:54Z</time>
      </trkpt>
      <trkpt lat="43.6022" lon="7.08857">
        <ele>75.3</ele>
        <time>2012-09-16T16:34:55Z</time>
      </trkpt>
      <trkpt lat="43.60215" lon="7.0886">
        <ele>75.2</ele>
        <time>2012-09-16T16:34:56Z</time>
      </trkpt>
      <trkpt lat="43.6021" lon="7.08863">
        <ele>75.2</ele>
        <time>2012-09-16T16:34:57Z</time>
      </trkpt>
      <trkpt lat="43.60205" lon="7.08866">
        <ele>75.1</ele>
        <time>2012-09-16T16:34:58Z</time>
      </trkpt>
      <trkpt lat="43.602" lon="7.0887">
        <ele>75.1</ele>
        <time>2012-09-16T16:34:59Z</time>
      </trkpt>
      <trkpt lat="43.60194" lon="7.08873">
        <ele>75.1</ele>
        <time>2012-09-16T16:35:00Z</time>
      </trkpt>
      <trkpt lat="43.60189" lon="7.08877">
        <ele>75</ele>
        <time>2012-09-16T16:35:01Z</time>
      </trkpt>
      <trkpt lat="43.60184" lon="7.0888">
        <ele>75</ele>
        <time>2012-09-16T16:35:02Z</time>
      </trkpt>
      <trkpt lat="43.60178" lon="7.08884">
        <ele>74.8</ele>
        <time>2012-09-16T16:35:03Z</time>
      </trkpt>
      <trkpt lat="43.60173" lon="7.08886">
        <ele>74.6</ele>
        <time>2012-09-16T16:35:04Z</time>
      </trkpt>
      <trkpt lat="43.60168" lon="7.0889">
        <ele>74.7</ele>
        <time>2012-09-16T16:35:05Z</time>
      </trkpt>
      <trkpt lat="43.60163" lon="7.08893">
        <ele>74.8</ele>
        <time>2012-09-16T16:35:06Z</time>
      </trkpt>
      <trkpt lat="43.60158" lon="7.08896">
        <ele>74.9</ele>
        <time>2012-09-16T16:35:07Z</time>
      </trkpt>
      <trkpt lat="43.60153" lon="7.08899">
        <ele>74.6</ele>
        <time>2012-09-16T16:35:08Z</time>
      </trkpt>
      <trkpt lat="43.60147" lon="7.08903">
        <ele>74.3</ele>
        <time>2012-09-16T16:35:09Z</time>
      </trkpt>
      <trkpt lat="43.60142" lon="7.08906">
        <ele>74.6</ele>
        <time>2012-09-16T16:35:10Z</time>
      </trkpt>
      <trkpt lat="43.60137" lon="7.08909">
        <ele>74.9</ele>
        <time>2012-09-16T16:35:11Z</time>
      </trkpt>
      <trkpt lat="43.60132" lon="7.08912">
        <ele>75.1</ele>
        <time>2012-09-16T16:35:12Z</time>
      </trkpt>
      <trkpt lat="43.60127" lon="7.08915">
        <ele>75.1</ele>
        <time>2012-09-16T16:35:13Z</time>
      </trkpt>
      <trkpt lat="43.60122" lon="7.08919">
        <ele>75</ele>
        <time>2012-09-16T16:35:14Z</time>
      </trkpt>
      <trkpt lat="43.60117" lon="7.08924">
        <ele>74.7</ele>
        <time>2012-09-16T16:35:15Z</time>
      </trkpt>
      <trkpt lat="43.60112" lon="7.08929">
        <ele>74.4</ele>
        <time>2012-09-16T16:35:16Z</time>
      </trkpt>
      <trkpt lat="43.60107" lon="7.08935">
        <ele>74.2</ele>
        <time>2012-09-16T16:35:17Z</time>
      </trkpt>
      <trkpt lat="43.60102" lon="7.08941">
        <ele>74</ele>
        <time>2012-09-16T16:35:18Z</time>
      </trkpt>
      <trkpt lat="43.60097" lon="7.08947">
        <ele>73.9</ele>
        <time>2012-09-16T16:35:19Z</time>
      </trkpt>
      <trkpt lat="43.60092" lon="7.08954">
        <ele>73.7</ele>
        <time>2012-09-16T16:35:20Z</time>
      </trkpt>
      <trkpt lat="43.60087" lon="7.08961">
        <ele>73.5</ele>
        <time>2012-09-16T16:35:21Z</time>
      </trkpt>
      <trkpt lat="43.60081" lon="7.08969">
        <ele>73</ele>
        <time>2012-09-16T16:35:22Z</time>
      </trkpt>
      <trkpt lat="43.60076" lon="7.08978">
        <ele>72.6</ele>
        <time>2012-09-16T16:35:23Z</time>
      </trkpt>
      <trkpt lat="43.60071" lon="7.08987">
        <ele>72.1</ele>
        <time>2012-09-16T16:35:24Z</time>
      </trkpt>
      <trkpt lat="43.60066" lon="7.08997">
        <ele>71.8</ele>
        <time>2012-09-16T16:35:25Z</time>
      </trkpt>
      <trkpt lat="43.60061" lon="7.09007">
        <ele>71.5</ele>
        <time>2012-09-16T16:35:26Z</time>
      </trkpt>
      <trkpt lat="43.60056" lon="7.09017">
        <ele>71</ele>
        <time>2012-09-16T16:35:27Z</time>
      </trkpt>
      <trkpt lat="43.60051" lon="7.09027">
        <ele>70.6</ele>
        <time>2012-09-16T16:35:28Z</time>
      </trkpt>
      <trkpt lat="43.60047" lon="7.09036">
        <ele>69.6</ele>
        <time>2012-09-16T16:35:29Z</time>
      </trkpt>
      <trkpt lat="43.60043" lon="7.09045">
        <ele>69</ele>
        <time>2012-09-16T16:35:30Z</time>
      </trkpt>
      <trkpt lat="43.60039" lon="7.09053">
        <ele>68.4</ele>
        <time>2012-09-16T16:35:31Z</time>
      </trkpt>
      <trkpt lat="43.60036" lon="7.0906">
        <ele>67.9</ele>
        <time>2012-09-16T16:35:32Z</time>
      </trkpt>
      <trkpt lat="43.60032" lon="7.09067">
        <ele>67.5</ele>
        <time>2012-09-16T16:35:33Z</time>
      </trkpt>
      <trkpt lat="43.60029" lon="7.09072">
        <ele>66.5</ele>
        <time>2012-09-16T16:35:34Z</time>
      </trkpt>
      <trkpt lat="43.60024" lon="7.0908">
        <ele>65.1</ele>
        <time>2012-09-16T16:35:36Z</time>
      </trkpt>
      <trkpt lat="43.60017" lon="7.09087">
        <ele>64.3</ele>
        <time>2012-09-16T16:35:38Z</time>
      </trkpt>
      <trkpt lat="43.60013" lon="7.0909">
        <ele>64.1</ele>
        <time>2012-09-16T16:35:39Z</time>
      </trkpt>
      <trkpt lat="43.60009" lon="7.09093">
        <ele>63.9</ele>
        <time>2012-09-16T16:35:40Z</time>
      </trkpt>
      <trkpt lat="43.60005" lon="7.09095">
        <ele>64</ele>
        <time>2012-09-16T16:35:41Z</time>
      </trkpt>
      <trkpt lat="43.6" lon="7.09097">
        <ele>64</ele>
        <time>2012-09-16T16:35:42Z</time>
      </trkpt>
      <trkpt lat="43.59992" lon="7.091">
        <ele>63.3</ele>
        <time>2012-09-16T16:35:44Z</time>
      </trkpt>
      <trkpt lat="43.59984" lon="7.09103">
        <ele>63.7</ele>
        <time>2012-09-16T16:35:46Z</time>
      </trkpt>
      <trkpt lat="43.59977" lon="7.09108">
        <ele>64.7</ele>
        <time>2012-09-16T16:35:48Z</time>
      </trkpt>
      <trkpt lat="43.59969" lon="7.09112">
        <ele>65.4</ele>
        <time>2012-09-16T16:35:50Z</time>
      </trkpt>
      <trkpt lat="43.59962" lon="7.09117">
        <ele>65.9</ele>
        <time>2012-09-16T16:35:52Z</time>
      </trkpt>
      <trkpt lat="43.59955" lon="7.09123">
        <ele>67</ele>
        <time>2012-09-16T16:35:54Z</time>
      </trkpt>
      <trkpt lat="43.59948" lon="7.09128">
        <ele>67.4</ele>
        <time>2012-09-16T16:35:56Z</time>
      </trkpt>
      <trkpt lat="43.5994" lon="7.09132">
        <ele>67.9</ele>
        <time>2012-09-16T16:35:58Z</time>
      </trkpt>
      <trkpt lat="43.59933" lon="7.09137">
        <ele>68.8</ele>
        <time>2012-09-16T16:36:00Z</time>
      </trkpt>
      <trkpt lat="43.59926" lon="7.09141">
        <ele>69.4</ele>
        <time>2012-09-16T16:36:02Z</time>
      </trkpt>
      <trkpt lat="43.59919" lon="7.09144">
        <ele>69.7</ele>
        <time>2012-09-16T16:36:04Z</time>
      </trkpt>
      <trkpt lat="43.59912" lon="7.09148">
        <ele>69.8</ele>
        <time>2012-09-16T16:36:06Z</time>
      </trkpt>
      <trkpt lat="43.59906" lon="7.09152">
        <ele>70.9</ele>
        <time>2012-09-16T16:36:08Z</time>
      </trkpt>
      <trkpt lat="43.59898" lon="7.09156">
        <ele>71.5</ele>
        <time>2012-09-16T16:36:10Z</time>
      </trkpt>
      <trkpt lat="43.59891" lon="7.0916">
        <ele>71.8</ele>
        <time>2012-09-16T16:36:12Z</time>
      </trkpt>
      <trkpt lat="43.59884" lon="7.09165">
        <ele>72.4</ele>
        <time>2012-09-16T16:36:14Z</time>
      </trkpt>
      <trkpt lat="43.59877" lon="7.0917">
        <ele>73</ele>
        <time>2012-09-16T16:36:16Z</time>
      </trkpt>
      <trkpt lat="43.5987" lon="7.09176">
        <ele>73.6</ele>
        <time>2012-09-16T16:36:18Z</time>
      </trkpt>
      <trkpt lat="43.59864" lon="7.09183">
        <ele>73.9</ele>
        <time>2012-09-16T16:36:20Z</time>
      </trkpt>
      <trkpt lat="43.5986" lon="7.09187">
        <ele>74.1</ele>
        <time>2012-09-16T16:36:21Z</time>
      </trkpt>
      <trkpt lat="43.59851" lon="7.092">
        <ele>74.7</ele>
        <time>2012-09-16T16:36:24Z</time>
      </trkpt>
      <trkpt lat="43.59848" lon="7.09204">
        <ele>75</ele>
        <time>2012-09-16T16:36:25Z</time>
      </trkpt>
      <trkpt lat="43.59845" lon="7.09209">
        <ele>75</ele>
        <time>2012-09-16T16:36:26Z</time>
      </trkpt>
      <trkpt lat="43.59843" lon="7.09215">
        <ele>75.1</ele>
        <time>2012-09-16T16:36:27Z</time>
      </trkpt>
      <trkpt lat="43.59841" lon="7.0922">
        <ele>75.1</ele>
        <time>2012-09-16T16:36:28Z</time>
      </trkpt>
      <trkpt lat="43.59838" lon="7.09226">
        <ele>75.1</ele>
        <time>2012-09-16T16:36:29Z</time>
      </trkpt>
      <trkpt lat="43.59836" lon="7.09231">
        <ele>75.1</ele>
        <time>2012-09-16T16:36:30Z</time>
      </trkpt>
      <trkpt lat="43.59834" lon="7.09237">
        <ele>75</ele>
        <time>2012-09-16T16:36:31Z</time>
      </trkpt>
      <trkpt lat="43.59831" lon="7.09242">
        <ele>74.9</ele>
        <time>2012-09-16T16:36:32Z</time>
      </trkpt>
      <trkpt lat="43.59829" lon="7.09248">
        <ele>74.8</ele>
        <time>2012-09-16T16:36:33Z</time>
      </trkpt>
      <trkpt lat="43.59827" lon="7.09254">
        <ele>74.7</ele>
        <time>2012-09-16T16:36:34Z</time>
      </trkpt>
      <trkpt lat="43.59825" lon="7.09261">
        <ele>74.7</ele>
        <time>2012-09-16T16:36:35Z</time>
      </trkpt>
      <trkpt lat="43.59824" lon="7.09268">
        <ele>74.4</ele>
        <time>2012-09-16T16:36:36Z</time>
      </trkpt>
      <trkpt lat="43.59823" lon="7.09276">
        <ele>74.2</ele>
        <time>2012-09-16T16:36:37Z</time>
      </trkpt>
      <trkpt lat="43.59823" lon="7.09283">
        <ele>74.5</ele>
        <time>2012-09-16T16:36:38Z</time>
      </trkpt>
      <trkpt lat="43.59822" lon="7.09291">
        <ele>74.7</ele>
        <time>2012-09-16T16:36:39Z</time>
      </trkpt>
      <trkpt lat="43.59821" lon="7.09298">
        <ele>74.4</ele>
        <time>2012-09-16T16:36:40Z</time>
      </trkpt>
      <trkpt lat="43.5982" lon="7.09306">
        <ele>74.2</ele>
        <time>2012-09-16T16:36:41Z</time>
      </trkpt>
      <trkpt lat="43.5982" lon="7.09315">
        <ele>74</ele>
        <time>2012-09-16T16:36:42Z</time>
      </trkpt>
      <trkpt lat="43.59819" lon="7.09323">
        <ele>73.6</ele>
        <time>2012-09-16T16:36:43Z</time>
      </trkpt>
      <trkpt lat="43.59819" lon="7.09332">
        <ele>73.3</ele>
        <time>2012-09-16T16:36:44Z</time>
      </trkpt>
      <trkpt lat="43.59819" lon="7.09341">
        <ele>73.1</ele>
        <time>2012-09-16T16:36:45Z</time>
      </trkpt>
      <trkpt lat="43.59819" lon="7.0935">
        <ele>73</ele>
        <time>2012-09-16T16:36:46Z</time>
      </trkpt>
      <trkpt lat="43.59818" lon="7.09359">
        <ele>72.5</ele>
        <time>2012-09-16T16:36:47Z</time>
      </trkpt>
      <trkpt lat="43.59818" lon="7.09368">
        <ele>72.2</ele>
        <time>2012-09-16T16:36:48Z</time>
      </trkpt>
      <trkpt lat="43.59819" lon="7.09378">
        <ele>71.9</ele>
        <time>2012-09-16T16:36:49Z</time>
      </trkpt>
      <trkpt lat="43.59818" lon="7.09387">
        <ele>71.5</ele>
        <time>2012-09-16T16:36:50Z</time>
      </trkpt>
      <trkpt lat="43.59817" lon="7.09396">
        <ele>71.2</ele>
        <time>2012-09-16T16:36:51Z</time>
      </trkpt>
      <trkpt lat="43.59816" lon="7.09405">
        <ele>71</ele>
        <time>2012-09-16T16:36:52Z</time>
      </trkpt>
      <trkpt lat="43.59815" lon="7.09413">
        <ele>70.8</ele>
        <time>2012-09-16T16:36:53Z</time>
      </trkpt>
      <trkpt lat="43.59813" lon="7.0942">
        <ele>70.7</ele>
        <time>2012-09-16T16:36:54Z</time>
      </trkpt>
      <trkpt lat="43.5981" lon="7.09425">
        <ele>70.3</ele>
        <time>2012-09-16T16:36:55Z</time>
      </trkpt>
      <trkpt lat="43.59806" lon="7.09429">
        <ele>70</ele>
        <time>2012-09-16T16:36:56Z</time>
      </trkpt>
      <trkpt lat="43.59801" lon="7.09431">
        <ele>70</ele>
        <time>2012-09-16T16:36:57Z</time>
      </trkpt>
      <trkpt lat="43.59797" lon="7.09432">
        <ele>69.9</ele>
        <time>2012-09-16T16:36:58Z</time>
      </trkpt>
      <trkpt lat="43.59792" lon="7.09432">
        <ele>70.1</ele>
        <time>2012-09-16T16:36:59Z</time>
      </trkpt>
      <trkpt lat="43.59787" lon="7.09432">
        <ele>70.3</ele>
        <time>2012-09-16T16:37:00Z</time>
      </trkpt>
      <trkpt lat="43.59783" lon="7.09432">
        <ele>70.4</ele>
        <time>2012-09-16T16:37:01Z</time>
      </trkpt>
      <trkpt lat="43.59778" lon="7.09432">
        <ele>70.9</ele>
        <time>2012-09-16T16:37:02Z</time>
      </trkpt>
      <trkpt lat="43.59773" lon="7.09433">
        <ele>71.2</ele>
        <time>2012-09-16T16:37:03Z</time>
      </trkpt>
      <trkpt lat="43.59769" lon="7.09434">
        <ele>70.9</ele>
        <time>2012-09-16T16:37:04Z</time>
      </trkpt>
      <trkpt lat="43.59764" lon="7.09435">
        <ele>70.8</ele>
        <time>2012-09-16T16:37:05Z</time>
      </trkpt>
      <trkpt lat="43.5976" lon="7.09438">
        <ele>71.4</ele>
        <time>2012-09-16T16:37:06Z</time>
      </trkpt>
      <trkpt lat="43.59756" lon="7.09442">
        <ele>71.8</ele>
        <time>2012-09-16T16:37:07Z</time>
      </trkpt>
      <trkpt lat="43.59753" lon="7.09447">
        <ele>72.2</ele>
        <time>2012-09-16T16:37:08Z</time>
      </trkpt>
      <trkpt lat="43.59751" lon="7.09453">
        <ele>72.1</ele>
        <time>2012-09-16T16:37:09Z</time>
      </trkpt>
      <trkpt lat="43.59749" lon="7.09459">
        <ele>72</ele>
        <time>2012-09-16T16:37:10Z</time>
      </trkpt>
      <trkpt lat="43.59747" lon="7.09471">
        <ele>72.6</ele>
        <time>2012-09-16T16:37:12Z</time>
      </trkpt>
      <trkpt lat="43.59745" lon="7.09483">
        <ele>72.8</ele>
        <time>2012-09-16T16:37:14Z</time>
      </trkpt>
      <trkpt lat="43.59744" lon="7.09495">
        <ele>73.6</ele>
        <time>2012-09-16T16:37:16Z</time>
      </trkpt>
      <trkpt lat="43.59743" lon="7.09507">
        <ele>74.7</ele>
        <time>2012-09-16T16:37:18Z</time>
      </trkpt>
      <trkpt lat="43.59741" lon="7.09519">
        <ele>75.5</ele>
        <time>2012-09-16T16:37:20Z</time>
      </trkpt>
      <trkpt lat="43.59739" lon="7.09531">
        <ele>76.1</ele>
        <time>2012-09-16T16:37:22Z</time>
      </trkpt>
      <trkpt lat="43.59738" lon="7.09537">
        <ele>76.4</ele>
        <time>2012-09-16T16:37:23Z</time>
      </trkpt>
      <trkpt lat="43.59737" lon="7.09544">
        <ele>76.7</ele>
        <time>2012-09-16T16:37:24Z</time>
      </trkpt>
      <trkpt lat="43.59737" lon="7.0955">
        <ele>77.2</ele>
        <time>2012-09-16T16:37:25Z</time>
      </trkpt>
      <trkpt lat="43.59736" lon="7.09557">
        <ele>77.6</ele>
        <time>2012-09-16T16:37:26Z</time>
      </trkpt>
      <trkpt lat="43.59735" lon="7.09564">
        <ele>77.9</ele>
        <time>2012-09-16T16:37:27Z</time>
      </trkpt>
      <trkpt lat="43.59734" lon="7.0957">
        <ele>78.1</ele>
        <time>2012-09-16T16:37:28Z</time>
      </trkpt>
      <trkpt lat="43.59734" lon="7.09576">
        <ele>78.2</ele>
        <time>2012-09-16T16:37:29Z</time>
      </trkpt>
      <trkpt lat="43.59733" lon="7.09582">
        <ele>78.4</ele>
        <time>2012-09-16T16:37:30Z</time>
      </trkpt>
      <trkpt lat="43.59732" lon="7.09588">
        <ele>78.6</ele>
        <time>2012-09-16T16:37:31Z</time>
      </trkpt>
      <trkpt lat="43.59732" lon="7.09595">
        <ele>78.7</ele>
        <time>2012-09-16T16:37:32Z</time>
      </trkpt>
      <trkpt lat="43.5973" lon="7.09607">
        <ele>78.4</ele>
        <time>2012-09-16T16:37:34Z</time>
      </trkpt>
      <trkpt lat="43.59729" lon="7.09619">
        <ele>79.1</ele>
        <time>2012-09-16T16:37:36Z</time>
      </trkpt>
      <trkpt lat="43.59728" lon="7.09625">
        <ele>79.7</ele>
        <time>2012-09-16T16:37:37Z</time>
      </trkpt>
      <trkpt lat="43.59727" lon="7.09631">
        <ele>80.2</ele>
        <time>2012-09-16T16:37:38Z</time>
      </trkpt>
      <trkpt lat="43.59727" lon="7.09638">
        <ele>80.6</ele>
        <time>2012-09-16T16:37:39Z</time>
      </trkpt>
      <trkpt lat="43.59726" lon="7.09644">
        <ele>80.9</ele>
        <time>2012-09-16T16:37:40Z</time>
      </trkpt>
      <trkpt lat="43.59725" lon="7.09651">
        <ele>81.1</ele>
        <time>2012-09-16T16:37:41Z</time>
      </trkpt>
      <trkpt lat="43.59725" lon="7.09658">
        <ele>80.7</ele>
        <time>2012-09-16T16:37:42Z</time>
      </trkpt>
      <trkpt lat="43.59724" lon="7.09665">
        <ele>80.5</ele>
        <time>2012-09-16T16:37:43Z</time>
      </trkpt>
      <trkpt lat="43.59723" lon="7.09672">
        <ele>80.5</ele>
        <time>2012-09-16T16:37:44Z</time>
      </trkpt>
      <trkpt lat="43.59722" lon="7.0968">
        <ele>80.4</ele>
        <time>2012-09-16T16:37:45Z</time>
      </trkpt>
      <trkpt lat="43.59721" lon="7.09688">
        <ele>80.4</ele>
        <time>2012-09-16T16:37:46Z</time>
      </trkpt>
      <trkpt lat="43.5972" lon="7.09696">
        <ele>80.1</ele>
        <time>2012-09-16T16:37:47Z</time>
      </trkpt>
      <trkpt lat="43.59719" lon="7.09705">
        <ele>79.8</ele>
        <time>2012-09-16T16:37:48Z</time>
      </trkpt>
      <trkpt lat="43.59717" lon="7.09713">
        <ele>79.7</ele>
        <time>2012-09-16T16:37:49Z</time>
      </trkpt>
      <trkpt lat="43.59715" lon="7.09722">
        <ele>79.6</ele>
        <time>2012-09-16T16:37:50Z</time>
      </trkpt>
      <trkpt lat="43.59713" lon="7.0973">
        <ele>79.5</ele>
        <time>2012-09-16T16:37:51Z</time>
      </trkpt>
      <trkpt lat="43.5971" lon="7.09738">
        <ele>79</ele>
        <time>2012-09-16T16:37:52Z</time>
      </trkpt>
      <trkpt lat="43.59708" lon="7.09746">
        <ele>78.6</ele>
        <time>2012-09-16T16:37:53Z</time>
      </trkpt>
      <trkpt lat="43.59705" lon="7.09754">
        <ele>78.2</ele>
        <time>2012-09-16T16:37:54Z</time>
      </trkpt>
      <trkpt lat="43.59702" lon="7.09762">
        <ele>77.9</ele>
        <time>2012-09-16T16:37:55Z</time>
      </trkpt>
      <trkpt lat="43.59699" lon="7.0977">
        <ele>77.5</ele>
        <time>2012-09-16T16:37:56Z</time>
      </trkpt>
      <trkpt lat="43.59696" lon="7.09777">
        <ele>77.3</ele>
        <time>2012-09-16T16:37:57Z</time>
      </trkpt>
      <trkpt lat="43.59693" lon="7.09784">
        <ele>77.1</ele>
        <time>2012-09-16T16:37:58Z</time>
      </trkpt>
      <trkpt lat="43.5969" lon="7.09791">
        <ele>76.7</ele>
        <time>2012-09-16T16:37:59Z</time>
      </trkpt>
      <trkpt lat="43.59686" lon="7.09798">
        <ele>76.3</ele>
        <time>2012-09-16T16:38:00Z</time>
      </trkpt>
      <trkpt lat="43.59682" lon="7.09805">
        <ele>76.7</ele>
        <time>2012-09-16T16:38:01Z</time>
      </trkpt>
      <trkpt lat="43.59678" lon="7.09811">
        <ele>76.9</ele>
        <time>2012-09-16T16:38:02Z</time>
      </trkpt>
      <trkpt lat="43.59674" lon="7.09818">
        <ele>76.7</ele>
        <time>2012-09-16T16:38:03Z</time>
      </trkpt>
      <trkpt lat="43.5967" lon="7.09825">
        <ele>76.5</ele>
        <time>2012-09-16T16:38:04Z</time>
      </trkpt>
      <trkpt lat="43.59666" lon="7.09831">
        <ele>76.4</ele>
        <time>2012-09-16T16:38:05Z</time>
      </trkpt>
      <trkpt lat="43.59661" lon="7.09838">
        <ele>76.3</ele>
        <time>2012-09-16T16:38:06Z</time>
      </trkpt>
      <trkpt lat="43.59657" lon="7.09845">
        <ele>76.2</ele>
        <time>2012-09-16T16:38:07Z</time>
      </trkpt>
      <trkpt lat="43.59651" lon="7.09852">
        <ele>75.8</ele>
        <time>2012-09-16T16:38:08Z</time>
      </trkpt>
      <trkpt lat="43.59646" lon="7.09859">
        <ele>75.4</ele>
        <time>2012-09-16T16:38:09Z</time>
      </trkpt>
      <trkpt lat="43.59639" lon="7.09866">
        <ele>75.2</ele>
        <time>2012-09-16T16:38:10Z</time>
      </trkpt>
      <trkpt lat="43.59633" lon="7.09872">
        <ele>74.8</ele>
        <time>2012-09-16T16:38:11Z</time>
      </trkpt>
      <trkpt lat="43.59627" lon="7.09879">
        <ele>74.5</ele>
        <time>2012-09-16T16:38:12Z</time>
      </trkpt>
      <trkpt lat="43.5962" lon="7.09885">
        <ele>73.8</ele>
        <time>2012-09-16T16:38:13Z</time>
      </trkpt>
      <trkpt lat="43.59612" lon="7.09892">
        <ele>73.2</ele>
        <time>2012-09-16T16:38:14Z</time>
      </trkpt>
      <trkpt lat="43.59605" lon="7.09899">
        <ele>72.7</ele>
        <time>2012-09-16T16:38:15Z</time>
      </trkpt>
      <trkpt lat="43.59598" lon="7.09906">
        <ele>72.3</ele>
        <time>2012-09-16T16:38:16Z</time>
      </trkpt>
      <trkpt lat="43.5959" lon="7.09913">
        <ele>72</ele>
        <time>2012-09-16T16:38:17Z</time>
      </trkpt>
      <trkpt lat="43.59584" lon="7.09922">
        <ele>71.4</ele>
        <time>2012-09-16T16:38:18Z</time>
      </trkpt>
      <trkpt lat="43.59577" lon="7.09931">
        <ele>71</ele>
        <time>2012-09-16T16:38:19Z</time>
      </trkpt>
      <trkpt lat="43.59571" lon="7.0994">
        <ele>70.1</ele>
        <time>2012-09-16T16:38:20Z</time>
      </trkpt>
      <trkpt lat="43.59565" lon="7.0995">
        <ele>69.4</ele>
        <time>2012-09-16T16:38:21Z</time>
      </trkpt>
      <trkpt lat="43.59559" lon="7.09959">
        <ele>68.8</ele>
        <time>2012-09-16T16:38:22Z</time>
      </trkpt>
      <trkpt lat="43.59553" lon="7.09968">
        <ele>68.4</ele>
        <time>2012-09-16T16:38:23Z</time>
      </trkpt>
      <trkpt lat="43.59547" lon="7.09977">
        <ele>68.1</ele>
        <time>2012-09-16T16:38:24Z</time>
      </trkpt>
      <trkpt lat="43.59542" lon="7.09987">
        <ele>68</ele>
        <time>2012-09-16T16:38:25Z</time>
      </trkpt>
      <trkpt lat="43.59537" lon="7.09996">
        <ele>68</ele>
        <time>2012-09-16T16:38:26Z</time>
      </trkpt>
      <trkpt lat="43.59532" lon="7.10005">
        <ele>67.5</ele>
        <time>2012-09-16T16:38:27Z</time>
      </trkpt>
      <trkpt lat="43.59527" lon="7.10014">
        <ele>67.1</ele>
        <time>2012-09-16T16:38:28Z</time>
      </trkpt>
      <trkpt lat="43.59521" lon="7.10023">
        <ele>66.8</ele>
        <time>2012-09-16T16:38:29Z</time>
      </trkpt>
      <trkpt lat="43.59515" lon="7.1003">
        <ele>65.9</ele>
        <time>2012-09-16T16:38:30Z</time>
      </trkpt>
      <trkpt lat="43.59509" lon="7.10037">
        <ele>65.2</ele>
        <time>2012-09-16T16:38:31Z</time>
      </trkpt>
      <trkpt lat="43.59502" lon="7.10043">
        <ele>64.9</ele>
        <time>2012-09-16T16:38:32Z</time>
      </trkpt>
      <trkpt lat="43.59495" lon="7.10048">
        <ele>64.7</ele>
        <time>2012-09-16T16:38:33Z</time>
      </trkpt>
      <trkpt lat="43.59488" lon="7.10052">
        <ele>64.2</ele>
        <time>2012-09-16T16:38:34Z</time>
      </trkpt>
      <trkpt lat="43.59481" lon="7.10057">
        <ele>63.8</ele>
        <time>2012-09-16T16:38:35Z</time>
      </trkpt>
      <trkpt lat="43.59473" lon="7.1006">
        <ele>63.5</ele>
        <time>2012-09-16T16:38:36Z</time>
      </trkpt>
      <trkpt lat="43.59466" lon="7.10064">
        <ele>63.2</ele>
        <time>2012-09-16T16:38:37Z</time>
      </trkpt>
      <trkpt lat="43.59458" lon="7.10067">
        <ele>62.9</ele>
        <time>2012-09-16T16:38:38Z</time>
      </trkpt>
      <trkpt lat="43.59451" lon="7.10071">
        <ele>62.3</ele>
        <time>2012-09-16T16:38:39Z</time>
      </trkpt>
      <trkpt lat="43.59445" lon="7.10074">
        <ele>61.8</ele>
        <time>2012-09-16T16:38:40Z</time>
      </trkpt>
      <trkpt lat="43.59441" lon="7.10078">
        <ele>60.9</ele>
        <time>2012-09-16T16:38:41Z</time>
      </trkpt>
      <trkpt lat="43.59435" lon="7.10086">
        <ele>59.7</ele>
        <time>2012-09-16T16:38:43Z</time>
      </trkpt>
      <trkpt lat="43.59434" lon="7.10095">
        <ele>58.7</ele>
        <time>2012-09-16T16:38:45Z</time>
      </trkpt>
      <trkpt lat="43.59434" lon="7.10105">
        <ele>57</ele>
        <time>2012-09-16T16:38:47Z</time>
      </trkpt>
      <trkpt lat="43.59435" lon="7.10115">
        <ele>56.4</ele>
        <time>2012-09-16T16:38:49Z</time>
      </trkpt>
      <trkpt lat="43.59435" lon="7.10126">
        <ele>56.2</ele>
        <time>2012-09-16T16:38:51Z</time>
      </trkpt>
      <trkpt lat="43.59435" lon="7.10136">
        <ele>55.9</ele>
        <time>2012-09-16T16:38:53Z</time>
      </trkpt>
      <trkpt lat="43.59436" lon="7.10145">
        <ele>55.5</ele>
        <time>2012-09-16T16:38:55Z</time>
      </trkpt>
      <trkpt lat="43.59436" lon="7.10154">
        <ele>55.7</ele>
        <time>2012-09-16T16:38:57Z</time>
      </trkpt>
      <trkpt lat="43.5944" lon="7.10164">
        <ele>56.1</ele>
        <time>2012-09-16T16:39:16Z</time>
      </trkpt>
      <trkpt lat="43.59448" lon="7.10163">
        <ele>56.3</ele>
        <time>2012-09-16T16:39:28Z</time>
      </trkpt>
      <trkpt lat="43.59449" lon="7.10162">
        <ele>56</ele>
        <time>2012-09-16T16:39:29Z</time>
      </trkpt>
    </trkseg>
  </trk>
</gpx>